<?xml version="1.0" encoding="UTF-8" standalone="no" ?>
<gpx xmlns="http://www.topografix.com/GPX/1/1" xmlns:xsi="http://www.w3.org/2001/XMLSchema-instance" xsi:schemaLocation="http://www.topografix.com/GPX/1/1 http://www.topografix.com/GPX/1/1/gpx.xsd" version="1.1" creator="VisuGPX - https://www.visugpx.com">
  <metadata>
    <name>Rando - Monte d'Oro</name>
    <desc><![CDATA[Rando - Relevé terrain - Monte d'Oro - 2 389 m / Vizzavona]]></desc>
  </metadata>
  <trk>
    <name><![CDATA[2010-08-27T06:00:47Z]]></name>
    <trkseg>
      <trkpt lat="42.11508" lon="9.12243">
        <ele>1124.3991699</ele>
        <time>2010-08-27T06:00:47Z</time>
      </trkpt>
      <trkpt lat="42.11505" lon="9.12245">
        <ele>1145.5480957</ele>
        <time>2010-08-27T06:01:00Z</time>
      </trkpt>
      <trkpt lat="42.11506" lon="9.12245">
        <ele>1137.3769531</ele>
        <time>2010-08-27T06:01:04Z</time>
      </trkpt>
      <trkpt lat="42.11509" lon="9.12245">
        <ele>1136.4157715</ele>
        <time>2010-08-27T06:01:09Z</time>
      </trkpt>
      <trkpt lat="42.11507" lon="9.12246">
        <ele>1139.7802734</ele>
        <time>2010-08-27T06:01:15Z</time>
      </trkpt>
      <trkpt lat="42.11506" lon="9.12244">
        <ele>1137.857666</ele>
        <time>2010-08-27T06:01:23Z</time>
      </trkpt>
      <trkpt lat="42.11506" lon="9.12244">
        <ele>1136.8962402</ele>
        <time>2010-08-27T06:01:24Z</time>
      </trkpt>
      <trkpt lat="42.11504" lon="9.12235">
        <ele>1138.8190918</ele>
        <time>2010-08-27T06:01:31Z</time>
      </trkpt>
      <trkpt lat="42.11502" lon="9.12226">
        <ele>1138.8190918</ele>
        <time>2010-08-27T06:01:37Z</time>
      </trkpt>
      <trkpt lat="42.11499" lon="9.12217">
        <ele>1140.7414551</ele>
        <time>2010-08-27T06:01:44Z</time>
      </trkpt>
      <trkpt lat="42.11497" lon="9.12212">
        <ele>1141.7028809</ele>
        <time>2010-08-27T06:01:48Z</time>
      </trkpt>
      <trkpt lat="42.11494" lon="9.12207">
        <ele>1142.6643066</ele>
        <time>2010-08-27T06:01:55Z</time>
      </trkpt>
      <trkpt lat="42.11494" lon="9.12205">
        <ele>1142.1835938</ele>
        <time>2010-08-27T06:01:57Z</time>
      </trkpt>
      <trkpt lat="42.11489" lon="9.12199">
        <ele>1140.2609863</ele>
        <time>2010-08-27T06:02:04Z</time>
      </trkpt>
      <trkpt lat="42.11488" lon="9.12196">
        <ele>1142.6643066</ele>
        <time>2010-08-27T06:02:09Z</time>
      </trkpt>
      <trkpt lat="42.11488" lon="9.12192">
        <ele>1142.1835938</ele>
        <time>2010-08-27T06:02:11Z</time>
      </trkpt>
      <trkpt lat="42.11483" lon="9.12177">
        <ele>1139.2995605</ele>
        <time>2010-08-27T06:02:21Z</time>
      </trkpt>
      <trkpt lat="42.11483" lon="9.12172">
        <ele>1140.7414551</ele>
        <time>2010-08-27T06:02:24Z</time>
      </trkpt>
      <trkpt lat="42.11488" lon="9.12167">
        <ele>1146.9899902</ele>
        <time>2010-08-27T06:02:32Z</time>
      </trkpt>
      <trkpt lat="42.11489" lon="9.12167">
        <ele>1147.951416</ele>
        <time>2010-08-27T06:02:34Z</time>
      </trkpt>
      <trkpt lat="42.11494" lon="9.12166">
        <ele>1150.3549805</ele>
        <time>2010-08-27T06:02:41Z</time>
      </trkpt>
      <trkpt lat="42.11499" lon="9.12162">
        <ele>1150.3549805</ele>
        <time>2010-08-27T06:02:47Z</time>
      </trkpt>
      <trkpt lat="42.11506" lon="9.12158">
        <ele>1149.8742676</ele>
        <time>2010-08-27T06:02:53Z</time>
      </trkpt>
      <trkpt lat="42.11518" lon="9.12163">
        <ele>1137.3769531</ele>
        <time>2010-08-27T06:03:01Z</time>
      </trkpt>
      <trkpt lat="42.1152" lon="9.1216">
        <ele>1131.128418</ele>
        <time>2010-08-27T06:03:03Z</time>
      </trkpt>
      <trkpt lat="42.11528" lon="9.12156">
        <ele>1134.973877</ele>
        <time>2010-08-27T06:03:11Z</time>
      </trkpt>
      <trkpt lat="42.11538" lon="9.12155">
        <ele>1133.0510254</ele>
        <time>2010-08-27T06:03:19Z</time>
      </trkpt>
      <trkpt lat="42.11548" lon="9.12158">
        <ele>1146.0288086</ele>
        <time>2010-08-27T06:03:26Z</time>
      </trkpt>
      <trkpt lat="42.11554" lon="9.12159">
        <ele>1146.0288086</ele>
        <time>2010-08-27T06:03:31Z</time>
      </trkpt>
      <trkpt lat="42.11564" lon="9.12161">
        <ele>1136.8962402</ele>
        <time>2010-08-27T06:03:38Z</time>
      </trkpt>
      <trkpt lat="42.11574" lon="9.12151">
        <ele>1135.4543457</ele>
        <time>2010-08-27T06:03:47Z</time>
      </trkpt>
      <trkpt lat="42.11575" lon="9.12149">
        <ele>1133.5317383</ele>
        <time>2010-08-27T06:03:48Z</time>
      </trkpt>
      <trkpt lat="42.1158" lon="9.12134">
        <ele>1126.8024902</ele>
        <time>2010-08-27T06:03:57Z</time>
      </trkpt>
      <trkpt lat="42.11583" lon="9.12125">
        <ele>1126.3217773</ele>
        <time>2010-08-27T06:04:04Z</time>
      </trkpt>
      <trkpt lat="42.11584" lon="9.12115">
        <ele>1123.4379883</ele>
        <time>2010-08-27T06:04:10Z</time>
      </trkpt>
      <trkpt lat="42.11588" lon="9.12102">
        <ele>1123.4379883</ele>
        <time>2010-08-27T06:04:17Z</time>
      </trkpt>
      <trkpt lat="42.11592" lon="9.12092">
        <ele>1124.3991699</ele>
        <time>2010-08-27T06:04:24Z</time>
      </trkpt>
      <trkpt lat="42.11595" lon="9.12085">
        <ele>1124.3991699</ele>
        <time>2010-08-27T06:04:30Z</time>
      </trkpt>
      <trkpt lat="42.11597" lon="9.12081">
        <ele>1128.2443848</ele>
        <time>2010-08-27T06:04:33Z</time>
      </trkpt>
      <trkpt lat="42.11601" lon="9.12073">
        <ele>1125.8410645</ele>
        <time>2010-08-27T06:04:40Z</time>
      </trkpt>
      <trkpt lat="42.11602" lon="9.12067">
        <ele>1124.8798828</ele>
        <time>2010-08-27T06:04:43Z</time>
      </trkpt>
      <trkpt lat="42.11603" lon="9.12054">
        <ele>1121.5151367</ele>
        <time>2010-08-27T06:04:50Z</time>
      </trkpt>
      <trkpt lat="42.11603" lon="9.12048">
        <ele>1121.034668</ele>
        <time>2010-08-27T06:04:53Z</time>
      </trkpt>
      <trkpt lat="42.11604" lon="9.12032">
        <ele>1122.9572754</ele>
        <time>2010-08-27T06:05:02Z</time>
      </trkpt>
      <trkpt lat="42.11605" lon="9.12022">
        <ele>1121.034668</ele>
        <time>2010-08-27T06:05:07Z</time>
      </trkpt>
      <trkpt lat="42.11603" lon="9.12015">
        <ele>1119.1120605</ele>
        <time>2010-08-27T06:05:11Z</time>
      </trkpt>
      <trkpt lat="42.11606" lon="9.12001">
        <ele>1117.6699219</ele>
        <time>2010-08-27T06:05:19Z</time>
      </trkpt>
      <trkpt lat="42.11612" lon="9.11993">
        <ele>1115.7473145</ele>
        <time>2010-08-27T06:05:27Z</time>
      </trkpt>
      <trkpt lat="42.11619" lon="9.11981">
        <ele>1118.6313477</ele>
        <time>2010-08-27T06:05:36Z</time>
      </trkpt>
      <trkpt lat="42.11622" lon="9.11966">
        <ele>1119.1120605</ele>
        <time>2010-08-27T06:05:44Z</time>
      </trkpt>
      <trkpt lat="42.1162" lon="9.11961">
        <ele>1117.6699219</ele>
        <time>2010-08-27T06:05:49Z</time>
      </trkpt>
      <trkpt lat="42.11617" lon="9.11949">
        <ele>1115.2666016</ele>
        <time>2010-08-27T06:05:57Z</time>
      </trkpt>
      <trkpt lat="42.11616" lon="9.11945">
        <ele>1115.7473145</ele>
        <time>2010-08-27T06:06:01Z</time>
      </trkpt>
      <trkpt lat="42.11613" lon="9.11933">
        <ele>1115.7473145</ele>
        <time>2010-08-27T06:06:08Z</time>
      </trkpt>
      <trkpt lat="42.11609" lon="9.11918">
        <ele>1114.7858887</ele>
        <time>2010-08-27T06:06:17Z</time>
      </trkpt>
      <trkpt lat="42.11604" lon="9.11903">
        <ele>1114.7858887</ele>
        <time>2010-08-27T06:06:26Z</time>
      </trkpt>
      <trkpt lat="42.11601" lon="9.11893">
        <ele>1115.7473145</ele>
        <time>2010-08-27T06:06:34Z</time>
      </trkpt>
      <trkpt lat="42.11598" lon="9.11883">
        <ele>1114.3051758</ele>
        <time>2010-08-27T06:06:40Z</time>
      </trkpt>
      <trkpt lat="42.11594" lon="9.11868">
        <ele>1111.4213867</ele>
        <time>2010-08-27T06:06:49Z</time>
      </trkpt>
      <trkpt lat="42.11592" lon="9.1186">
        <ele>1111.4213867</ele>
        <time>2010-08-27T06:06:54Z</time>
      </trkpt>
      <trkpt lat="42.11589" lon="9.1185">
        <ele>1112.3825684</ele>
        <time>2010-08-27T06:07:01Z</time>
      </trkpt>
      <trkpt lat="42.11587" lon="9.11836">
        <ele>1111.9020996</ele>
        <time>2010-08-27T06:07:09Z</time>
      </trkpt>
      <trkpt lat="42.11584" lon="9.11822">
        <ele>1112.8632812</ele>
        <time>2010-08-27T06:07:17Z</time>
      </trkpt>
      <trkpt lat="42.11583" lon="9.11814">
        <ele>1114.7858887</ele>
        <time>2010-08-27T06:07:22Z</time>
      </trkpt>
      <trkpt lat="42.11585" lon="9.11811">
        <ele>1115.7473145</ele>
        <time>2010-08-27T06:07:24Z</time>
      </trkpt>
      <trkpt lat="42.11582" lon="9.11796">
        <ele>1115.2666016</ele>
        <time>2010-08-27T06:07:31Z</time>
      </trkpt>
      <trkpt lat="42.11578" lon="9.11783">
        <ele>1113.3439941</ele>
        <time>2010-08-27T06:07:38Z</time>
      </trkpt>
      <trkpt lat="42.11577" lon="9.11773">
        <ele>1113.3439941</ele>
        <time>2010-08-27T06:07:45Z</time>
      </trkpt>
      <trkpt lat="42.11577" lon="9.11757">
        <ele>1109.979248</ele>
        <time>2010-08-27T06:07:52Z</time>
      </trkpt>
      <trkpt lat="42.11576" lon="9.11742">
        <ele>1112.3825684</ele>
        <time>2010-08-27T06:08:00Z</time>
      </trkpt>
      <trkpt lat="42.11576" lon="9.11725">
        <ele>1111.9020996</ele>
        <time>2010-08-27T06:08:08Z</time>
      </trkpt>
      <trkpt lat="42.11575" lon="9.11713">
        <ele>1111.9020996</ele>
        <time>2010-08-27T06:08:15Z</time>
      </trkpt>
      <trkpt lat="42.11574" lon="9.11699">
        <ele>1110.9406738</ele>
        <time>2010-08-27T06:08:23Z</time>
      </trkpt>
      <trkpt lat="42.11572" lon="9.11689">
        <ele>1111.4213867</ele>
        <time>2010-08-27T06:08:30Z</time>
      </trkpt>
      <trkpt lat="42.11572" lon="9.11671">
        <ele>1108.0568848</ele>
        <time>2010-08-27T06:08:38Z</time>
      </trkpt>
      <trkpt lat="42.1157" lon="9.11657">
        <ele>1107.5761719</ele>
        <time>2010-08-27T06:08:46Z</time>
      </trkpt>
      <trkpt lat="42.11573" lon="9.11644">
        <ele>1107.095459</ele>
        <time>2010-08-27T06:08:54Z</time>
      </trkpt>
      <trkpt lat="42.11574" lon="9.11637">
        <ele>1111.4213867</ele>
        <time>2010-08-27T06:09:02Z</time>
      </trkpt>
      <trkpt lat="42.11573" lon="9.11641">
        <ele>1109.979248</ele>
        <time>2010-08-27T06:09:07Z</time>
      </trkpt>
      <trkpt lat="42.11576" lon="9.11638">
        <ele>1111.4213867</ele>
        <time>2010-08-27T06:09:25Z</time>
      </trkpt>
      <trkpt lat="42.11574" lon="9.11639">
        <ele>1116.2280273</ele>
        <time>2010-08-27T06:10:00Z</time>
      </trkpt>
      <trkpt lat="42.11574" lon="9.11632">
        <ele>1115.2666016</ele>
        <time>2010-08-27T06:10:10Z</time>
      </trkpt>
      <trkpt lat="42.11571" lon="9.11624">
        <ele>1110.4599609</ele>
        <time>2010-08-27T06:10:16Z</time>
      </trkpt>
      <trkpt lat="42.11569" lon="9.11615">
        <ele>1105.1728516</ele>
        <time>2010-08-27T06:10:32Z</time>
      </trkpt>
      <trkpt lat="42.11571" lon="9.11607">
        <ele>1108.0568848</ele>
        <time>2010-08-27T06:10:41Z</time>
      </trkpt>
      <trkpt lat="42.11569" lon="9.11603">
        <ele>1108.0568848</ele>
        <time>2010-08-27T06:10:44Z</time>
      </trkpt>
      <trkpt lat="42.11575" lon="9.11591">
        <ele>1109.4987793</ele>
        <time>2010-08-27T06:10:51Z</time>
      </trkpt>
      <trkpt lat="42.11577" lon="9.1158">
        <ele>1110.9406738</ele>
        <time>2010-08-27T06:10:58Z</time>
      </trkpt>
      <trkpt lat="42.11578" lon="9.11567">
        <ele>1109.979248</ele>
        <time>2010-08-27T06:11:05Z</time>
      </trkpt>
      <trkpt lat="42.1158" lon="9.11563">
        <ele>1112.3825684</ele>
        <time>2010-08-27T06:11:10Z</time>
      </trkpt>
      <trkpt lat="42.1158" lon="9.11555">
        <ele>1111.9020996</ele>
        <time>2010-08-27T06:11:17Z</time>
      </trkpt>
      <trkpt lat="42.11578" lon="9.11542">
        <ele>1109.0180664</ele>
        <time>2010-08-27T06:11:22Z</time>
      </trkpt>
      <trkpt lat="42.1158" lon="9.11527">
        <ele>1109.979248</ele>
        <time>2010-08-27T06:11:30Z</time>
      </trkpt>
      <trkpt lat="42.1158" lon="9.11525">
        <ele>1108.5373535</ele>
        <time>2010-08-27T06:11:31Z</time>
      </trkpt>
      <trkpt lat="42.11581" lon="9.11514">
        <ele>1106.1340332</ele>
        <time>2010-08-27T06:11:36Z</time>
      </trkpt>
      <trkpt lat="42.11584" lon="9.11511">
        <ele>1105.6535645</ele>
        <time>2010-08-27T06:11:38Z</time>
      </trkpt>
      <trkpt lat="42.11585" lon="9.11502">
        <ele>1110.9406738</ele>
        <time>2010-08-27T06:11:44Z</time>
      </trkpt>
      <trkpt lat="42.11588" lon="9.11485">
        <ele>1106.6147461</ele>
        <time>2010-08-27T06:11:51Z</time>
      </trkpt>
      <trkpt lat="42.11589" lon="9.1147">
        <ele>1109.0180664</ele>
        <time>2010-08-27T06:11:59Z</time>
      </trkpt>
      <trkpt lat="42.1159" lon="9.11461">
        <ele>1110.4599609</ele>
        <time>2010-08-27T06:12:05Z</time>
      </trkpt>
      <trkpt lat="42.1159" lon="9.11447">
        <ele>1111.9020996</ele>
        <time>2010-08-27T06:12:11Z</time>
      </trkpt>
      <trkpt lat="42.11589" lon="9.11439">
        <ele>1112.3825684</ele>
        <time>2010-08-27T06:12:16Z</time>
      </trkpt>
      <trkpt lat="42.11586" lon="9.1143">
        <ele>1111.4213867</ele>
        <time>2010-08-27T06:12:22Z</time>
      </trkpt>
      <trkpt lat="42.11586" lon="9.11426">
        <ele>1109.979248</ele>
        <time>2010-08-27T06:12:26Z</time>
      </trkpt>
      <trkpt lat="42.11588" lon="9.11419">
        <ele>1107.095459</ele>
        <time>2010-08-27T06:12:31Z</time>
      </trkpt>
      <trkpt lat="42.11592" lon="9.1141">
        <ele>1102.7695312</ele>
        <time>2010-08-27T06:12:36Z</time>
      </trkpt>
      <trkpt lat="42.11591" lon="9.11405">
        <ele>1105.1728516</ele>
        <time>2010-08-27T06:12:40Z</time>
      </trkpt>
      <trkpt lat="42.11592" lon="9.114">
        <ele>1105.6535645</ele>
        <time>2010-08-27T06:12:44Z</time>
      </trkpt>
      <trkpt lat="42.11597" lon="9.11382">
        <ele>1096.5209961</ele>
        <time>2010-08-27T06:12:52Z</time>
      </trkpt>
      <trkpt lat="42.11597" lon="9.11373">
        <ele>1100.8469238</ele>
        <time>2010-08-27T06:12:58Z</time>
      </trkpt>
      <trkpt lat="42.116" lon="9.11363">
        <ele>1100.3664551</ele>
        <time>2010-08-27T06:13:05Z</time>
      </trkpt>
      <trkpt lat="42.11604" lon="9.11353">
        <ele>1102.7695312</ele>
        <time>2010-08-27T06:13:11Z</time>
      </trkpt>
      <trkpt lat="42.11605" lon="9.11349">
        <ele>1102.7695312</ele>
        <time>2010-08-27T06:13:13Z</time>
      </trkpt>
      <trkpt lat="42.11613" lon="9.11326">
        <ele>1102.2888184</ele>
        <time>2010-08-27T06:13:22Z</time>
      </trkpt>
      <trkpt lat="42.11614" lon="9.1132">
        <ele>1101.8083496</ele>
        <time>2010-08-27T06:13:29Z</time>
      </trkpt>
      <trkpt lat="42.11617" lon="9.11311">
        <ele>1100.8469238</ele>
        <time>2010-08-27T06:13:34Z</time>
      </trkpt>
      <trkpt lat="42.11617" lon="9.11303">
        <ele>1098.4433594</ele>
        <time>2010-08-27T06:13:40Z</time>
      </trkpt>
      <trkpt lat="42.11618" lon="9.11291">
        <ele>1094.1176758</ele>
        <time>2010-08-27T06:13:47Z</time>
      </trkpt>
      <trkpt lat="42.11621" lon="9.11278">
        <ele>1097.0014648</ele>
        <time>2010-08-27T06:13:52Z</time>
      </trkpt>
      <trkpt lat="42.11622" lon="9.11262">
        <ele>1090.7529297</ele>
        <time>2010-08-27T06:14:00Z</time>
      </trkpt>
      <trkpt lat="42.11624" lon="9.11255">
        <ele>1091.2336426</ele>
        <time>2010-08-27T06:14:04Z</time>
      </trkpt>
      <trkpt lat="42.11627" lon="9.11245">
        <ele>1088.3498535</ele>
        <time>2010-08-27T06:14:11Z</time>
      </trkpt>
      <trkpt lat="42.1163" lon="9.1124">
        <ele>1087.8691406</ele>
        <time>2010-08-27T06:14:17Z</time>
      </trkpt>
      <trkpt lat="42.11632" lon="9.11238">
        <ele>1089.791748</ele>
        <time>2010-08-27T06:14:25Z</time>
      </trkpt>
      <trkpt lat="42.11633" lon="9.11235">
        <ele>1089.791748</ele>
        <time>2010-08-27T06:14:37Z</time>
      </trkpt>
      <trkpt lat="42.11631" lon="9.11234">
        <ele>1091.7143555</ele>
        <time>2010-08-27T06:14:43Z</time>
      </trkpt>
      <trkpt lat="42.11628" lon="9.1123">
        <ele>1093.15625</ele>
        <time>2010-08-27T06:14:49Z</time>
      </trkpt>
      <trkpt lat="42.11627" lon="9.11226">
        <ele>1094.5981445</ele>
        <time>2010-08-27T06:14:52Z</time>
      </trkpt>
      <trkpt lat="42.11628" lon="9.11214">
        <ele>1096.0402832</ele>
        <time>2010-08-27T06:15:00Z</time>
      </trkpt>
      <trkpt lat="42.11625" lon="9.11211">
        <ele>1100.8469238</ele>
        <time>2010-08-27T06:15:06Z</time>
      </trkpt>
      <trkpt lat="42.1162" lon="9.11195">
        <ele>1098.4433594</ele>
        <time>2010-08-27T06:15:15Z</time>
      </trkpt>
      <trkpt lat="42.11616" lon="9.11188">
        <ele>1100.8469238</ele>
        <time>2010-08-27T06:15:22Z</time>
      </trkpt>
      <trkpt lat="42.11614" lon="9.11188">
        <ele>1102.2888184</ele>
        <time>2010-08-27T06:15:24Z</time>
      </trkpt>
      <trkpt lat="42.1161" lon="9.11185">
        <ele>1106.1340332</ele>
        <time>2010-08-27T06:15:30Z</time>
      </trkpt>
      <trkpt lat="42.11611" lon="9.11175">
        <ele>1106.6147461</ele>
        <time>2010-08-27T06:15:37Z</time>
      </trkpt>
      <trkpt lat="42.1161" lon="9.11169">
        <ele>1105.1728516</ele>
        <time>2010-08-27T06:15:40Z</time>
      </trkpt>
      <trkpt lat="42.11609" lon="9.11166">
        <ele>1102.7695312</ele>
        <time>2010-08-27T06:15:42Z</time>
      </trkpt>
      <trkpt lat="42.11607" lon="9.1116">
        <ele>1105.1728516</ele>
        <time>2010-08-27T06:15:48Z</time>
      </trkpt>
      <trkpt lat="42.11605" lon="9.11158">
        <ele>1106.6147461</ele>
        <time>2010-08-27T06:15:51Z</time>
      </trkpt>
      <trkpt lat="42.11607" lon="9.11145">
        <ele>1105.6535645</ele>
        <time>2010-08-27T06:15:59Z</time>
      </trkpt>
      <trkpt lat="42.11608" lon="9.1114">
        <ele>1108.0568848</ele>
        <time>2010-08-27T06:16:05Z</time>
      </trkpt>
      <trkpt lat="42.11605" lon="9.11136">
        <ele>1107.5761719</ele>
        <time>2010-08-27T06:16:10Z</time>
      </trkpt>
      <trkpt lat="42.11609" lon="9.11129">
        <ele>1106.6147461</ele>
        <time>2010-08-27T06:16:16Z</time>
      </trkpt>
      <trkpt lat="42.11609" lon="9.11119">
        <ele>1105.1728516</ele>
        <time>2010-08-27T06:16:22Z</time>
      </trkpt>
      <trkpt lat="42.11611" lon="9.11109">
        <ele>1102.7695312</ele>
        <time>2010-08-27T06:16:28Z</time>
      </trkpt>
      <trkpt lat="42.1161" lon="9.111">
        <ele>1101.8083496</ele>
        <time>2010-08-27T06:16:35Z</time>
      </trkpt>
      <trkpt lat="42.11611" lon="9.11097">
        <ele>1104.6921387</ele>
        <time>2010-08-27T06:16:41Z</time>
      </trkpt>
      <trkpt lat="42.11614" lon="9.11091">
        <ele>1105.6535645</ele>
        <time>2010-08-27T06:16:47Z</time>
      </trkpt>
      <trkpt lat="42.11617" lon="9.11087">
        <ele>1107.5761719</ele>
        <time>2010-08-27T06:16:53Z</time>
      </trkpt>
      <trkpt lat="42.11619" lon="9.11083">
        <ele>1108.0568848</ele>
        <time>2010-08-27T06:16:59Z</time>
      </trkpt>
      <trkpt lat="42.1162" lon="9.11078">
        <ele>1109.979248</ele>
        <time>2010-08-27T06:17:03Z</time>
      </trkpt>
      <trkpt lat="42.11619" lon="9.11073">
        <ele>1113.3439941</ele>
        <time>2010-08-27T06:17:09Z</time>
      </trkpt>
      <trkpt lat="42.11615" lon="9.11069">
        <ele>1116.7087402</ele>
        <time>2010-08-27T06:17:15Z</time>
      </trkpt>
      <trkpt lat="42.11616" lon="9.11065">
        <ele>1120.0732422</ele>
        <time>2010-08-27T06:17:21Z</time>
      </trkpt>
      <trkpt lat="42.11618" lon="9.11067">
        <ele>1131.6088867</ele>
        <time>2010-08-27T06:17:29Z</time>
      </trkpt>
      <trkpt lat="42.11618" lon="9.11069">
        <ele>1135.9350586</ele>
        <time>2010-08-27T06:17:35Z</time>
      </trkpt>
      <trkpt lat="42.11622" lon="9.11064">
        <ele>1135.4543457</ele>
        <time>2010-08-27T06:17:41Z</time>
      </trkpt>
      <trkpt lat="42.11625" lon="9.11061">
        <ele>1130.1669922</ele>
        <time>2010-08-27T06:17:45Z</time>
      </trkpt>
      <trkpt lat="42.11629" lon="9.11056">
        <ele>1124.8798828</ele>
        <time>2010-08-27T06:17:51Z</time>
      </trkpt>
      <trkpt lat="42.11636" lon="9.11052">
        <ele>1124.8798828</ele>
        <time>2010-08-27T06:17:58Z</time>
      </trkpt>
      <trkpt lat="42.1164" lon="9.11049">
        <ele>1123.4379883</ele>
        <time>2010-08-27T06:18:03Z</time>
      </trkpt>
      <trkpt lat="42.11642" lon="9.11044">
        <ele>1120.0732422</ele>
        <time>2010-08-27T06:18:08Z</time>
      </trkpt>
      <trkpt lat="42.11642" lon="9.11043">
        <ele>1119.5927734</ele>
        <time>2010-08-27T06:18:09Z</time>
      </trkpt>
      <trkpt lat="42.11647" lon="9.11039">
        <ele>1118.6313477</ele>
        <time>2010-08-27T06:18:16Z</time>
      </trkpt>
      <trkpt lat="42.11651" lon="9.11036">
        <ele>1118.6313477</ele>
        <time>2010-08-27T06:18:22Z</time>
      </trkpt>
      <trkpt lat="42.11657" lon="9.11033">
        <ele>1116.2280273</ele>
        <time>2010-08-27T06:18:29Z</time>
      </trkpt>
      <trkpt lat="42.11659" lon="9.1103">
        <ele>1117.6699219</ele>
        <time>2010-08-27T06:18:35Z</time>
      </trkpt>
      <trkpt lat="42.11661" lon="9.11027">
        <ele>1119.5927734</ele>
        <time>2010-08-27T06:18:40Z</time>
      </trkpt>
      <trkpt lat="42.11662" lon="9.11024">
        <ele>1119.1120605</ele>
        <time>2010-08-27T06:18:44Z</time>
      </trkpt>
      <trkpt lat="42.11664" lon="9.11021">
        <ele>1118.1506348</ele>
        <time>2010-08-27T06:18:47Z</time>
      </trkpt>
      <trkpt lat="42.1167" lon="9.11014">
        <ele>1120.5539551</ele>
        <time>2010-08-27T06:18:55Z</time>
      </trkpt>
      <trkpt lat="42.11675" lon="9.1101">
        <ele>1122.4765625</ele>
        <time>2010-08-27T06:19:02Z</time>
      </trkpt>
      <trkpt lat="42.11679" lon="9.11007">
        <ele>1127.7636719</ele>
        <time>2010-08-27T06:19:08Z</time>
      </trkpt>
      <trkpt lat="42.11681" lon="9.11004">
        <ele>1133.5317383</ele>
        <time>2010-08-27T06:19:14Z</time>
      </trkpt>
      <trkpt lat="42.11685" lon="9.11">
        <ele>1135.4543457</ele>
        <time>2010-08-27T06:19:20Z</time>
      </trkpt>
      <trkpt lat="42.11686" lon="9.11">
        <ele>1135.9350586</ele>
        <time>2010-08-27T06:19:21Z</time>
      </trkpt>
      <trkpt lat="42.11689" lon="9.10999">
        <ele>1135.4543457</ele>
        <time>2010-08-27T06:19:23Z</time>
      </trkpt>
      <trkpt lat="42.11696" lon="9.10991">
        <ele>1127.7636719</ele>
        <time>2010-08-27T06:19:29Z</time>
      </trkpt>
      <trkpt lat="42.117" lon="9.10982">
        <ele>1127.7636719</ele>
        <time>2010-08-27T06:19:37Z</time>
      </trkpt>
      <trkpt lat="42.11705" lon="9.10991">
        <ele>1143.1447754</ele>
        <time>2010-08-27T06:19:49Z</time>
      </trkpt>
      <trkpt lat="42.11705" lon="9.10988">
        <ele>1143.6254883</ele>
        <time>2010-08-27T06:19:54Z</time>
      </trkpt>
      <trkpt lat="42.11707" lon="9.10986">
        <ele>1136.8962402</ele>
        <time>2010-08-27T06:19:59Z</time>
      </trkpt>
      <trkpt lat="42.11709" lon="9.10983">
        <ele>1134.4931641</ele>
        <time>2010-08-27T06:20:04Z</time>
      </trkpt>
      <trkpt lat="42.1171" lon="9.10978">
        <ele>1132.0898438</ele>
        <time>2010-08-27T06:20:09Z</time>
      </trkpt>
      <trkpt lat="42.11707" lon="9.10972">
        <ele>1131.128418</ele>
        <time>2010-08-27T06:20:17Z</time>
      </trkpt>
      <trkpt lat="42.1171" lon="9.10972">
        <ele>1132.0898438</ele>
        <time>2010-08-27T06:20:23Z</time>
      </trkpt>
      <trkpt lat="42.11716" lon="9.10971">
        <ele>1136.8962402</ele>
        <time>2010-08-27T06:20:30Z</time>
      </trkpt>
      <trkpt lat="42.11718" lon="9.10971">
        <ele>1138.8190918</ele>
        <time>2010-08-27T06:20:32Z</time>
      </trkpt>
      <trkpt lat="42.11722" lon="9.10974">
        <ele>1141.7028809</ele>
        <time>2010-08-27T06:20:36Z</time>
      </trkpt>
      <trkpt lat="42.11723" lon="9.10979">
        <ele>1145.5480957</ele>
        <time>2010-08-27T06:20:41Z</time>
      </trkpt>
      <trkpt lat="42.11721" lon="9.10969">
        <ele>1140.2609863</ele>
        <time>2010-08-27T06:20:49Z</time>
      </trkpt>
      <trkpt lat="42.11721" lon="9.10965">
        <ele>1138.8190918</ele>
        <time>2010-08-27T06:20:52Z</time>
      </trkpt>
      <trkpt lat="42.11719" lon="9.10957">
        <ele>1137.857666</ele>
        <time>2010-08-27T06:20:59Z</time>
      </trkpt>
      <trkpt lat="42.11719" lon="9.10951">
        <ele>1136.8962402</ele>
        <time>2010-08-27T06:21:04Z</time>
      </trkpt>
      <trkpt lat="42.11723" lon="9.10946">
        <ele>1139.2995605</ele>
        <time>2010-08-27T06:21:11Z</time>
      </trkpt>
      <trkpt lat="42.11727" lon="9.10945">
        <ele>1140.7414551</ele>
        <time>2010-08-27T06:21:14Z</time>
      </trkpt>
      <trkpt lat="42.1173" lon="9.1094">
        <ele>1141.222168</ele>
        <time>2010-08-27T06:21:20Z</time>
      </trkpt>
      <trkpt lat="42.11731" lon="9.10938">
        <ele>1143.1447754</ele>
        <time>2010-08-27T06:21:25Z</time>
      </trkpt>
      <trkpt lat="42.11732" lon="9.10935">
        <ele>1145.0673828</ele>
        <time>2010-08-27T06:21:32Z</time>
      </trkpt>
      <trkpt lat="42.11734" lon="9.10934">
        <ele>1147.951416</ele>
        <time>2010-08-27T06:21:37Z</time>
      </trkpt>
      <trkpt lat="42.11736" lon="9.10931">
        <ele>1147.4707031</ele>
        <time>2010-08-27T06:21:42Z</time>
      </trkpt>
      <trkpt lat="42.11738" lon="9.10929">
        <ele>1150.3549805</ele>
        <time>2010-08-27T06:21:46Z</time>
      </trkpt>
      <trkpt lat="42.11742" lon="9.10925">
        <ele>1150.8354492</ele>
        <time>2010-08-27T06:21:58Z</time>
      </trkpt>
      <trkpt lat="42.11744" lon="9.10922">
        <ele>1148.9128418</ele>
        <time>2010-08-27T06:22:01Z</time>
      </trkpt>
      <trkpt lat="42.1175" lon="9.10916">
        <ele>1147.951416</ele>
        <time>2010-08-27T06:22:08Z</time>
      </trkpt>
      <trkpt lat="42.11752" lon="9.10912">
        <ele>1148.4321289</ele>
        <time>2010-08-27T06:22:12Z</time>
      </trkpt>
      <trkpt lat="42.11755" lon="9.10906">
        <ele>1141.7028809</ele>
        <time>2010-08-27T06:22:16Z</time>
      </trkpt>
      <trkpt lat="42.11756" lon="9.10901">
        <ele>1142.6643066</ele>
        <time>2010-08-27T06:22:21Z</time>
      </trkpt>
      <trkpt lat="42.11758" lon="9.10898">
        <ele>1146.0288086</ele>
        <time>2010-08-27T06:22:30Z</time>
      </trkpt>
      <trkpt lat="42.1176" lon="9.10896">
        <ele>1151.3161621</ele>
        <time>2010-08-27T06:22:35Z</time>
      </trkpt>
      <trkpt lat="42.11761" lon="9.10897">
        <ele>1151.796875</ele>
        <time>2010-08-27T06:22:37Z</time>
      </trkpt>
      <trkpt lat="42.11764" lon="9.10904">
        <ele>1161.4099121</ele>
        <time>2010-08-27T06:22:45Z</time>
      </trkpt>
      <trkpt lat="42.11765" lon="9.10905">
        <ele>1163.3325195</ele>
        <time>2010-08-27T06:22:46Z</time>
      </trkpt>
      <trkpt lat="42.11765" lon="9.10908">
        <ele>1166.2165527</ele>
        <time>2010-08-27T06:22:48Z</time>
      </trkpt>
      <trkpt lat="42.1177" lon="9.1091">
        <ele>1167.1779785</ele>
        <time>2010-08-27T06:22:53Z</time>
      </trkpt>
      <trkpt lat="42.11771" lon="9.10908">
        <ele>1168.1391602</ele>
        <time>2010-08-27T06:22:55Z</time>
      </trkpt>
      <trkpt lat="42.11776" lon="9.10909">
        <ele>1169.1005859</ele>
        <time>2010-08-27T06:23:00Z</time>
      </trkpt>
      <trkpt lat="42.11778" lon="9.10909">
        <ele>1170.0617676</ele>
        <time>2010-08-27T06:23:04Z</time>
      </trkpt>
      <trkpt lat="42.1178" lon="9.10918">
        <ele>1169.1005859</ele>
        <time>2010-08-27T06:23:11Z</time>
      </trkpt>
      <trkpt lat="42.11783" lon="9.10921">
        <ele>1167.1779785</ele>
        <time>2010-08-27T06:23:15Z</time>
      </trkpt>
      <trkpt lat="42.11785" lon="9.10922">
        <ele>1166.6972656</ele>
        <time>2010-08-27T06:23:17Z</time>
      </trkpt>
      <trkpt lat="42.11792" lon="9.10918">
        <ele>1164.7746582</ele>
        <time>2010-08-27T06:23:23Z</time>
      </trkpt>
      <trkpt lat="42.11792" lon="9.10913">
        <ele>1163.8129883</ele>
        <time>2010-08-27T06:23:28Z</time>
      </trkpt>
      <trkpt lat="42.11791" lon="9.10911">
        <ele>1163.3325195</ele>
        <time>2010-08-27T06:23:34Z</time>
      </trkpt>
      <trkpt lat="42.11792" lon="9.10912">
        <ele>1161.4099121</ele>
        <time>2010-08-27T06:23:44Z</time>
      </trkpt>
      <trkpt lat="42.11792" lon="9.10913">
        <ele>1162.3710938</ele>
        <time>2010-08-27T06:23:59Z</time>
      </trkpt>
      <trkpt lat="42.11792" lon="9.10913">
        <ele>1170.0617676</ele>
        <time>2010-08-27T06:24:06Z</time>
      </trkpt>
      <trkpt lat="42.11789" lon="9.10912">
        <ele>1159.4873047</ele>
        <time>2010-08-27T06:25:01Z</time>
      </trkpt>
      <trkpt lat="42.11786" lon="9.10907">
        <ele>1160.4484863</ele>
        <time>2010-08-27T06:25:07Z</time>
      </trkpt>
      <trkpt lat="42.11786" lon="9.10899">
        <ele>1163.3325195</ele>
        <time>2010-08-27T06:25:14Z</time>
      </trkpt>
      <trkpt lat="42.11787" lon="9.10896">
        <ele>1163.3325195</ele>
        <time>2010-08-27T06:25:18Z</time>
      </trkpt>
      <trkpt lat="42.11786" lon="9.10892">
        <ele>1164.7746582</ele>
        <time>2010-08-27T06:25:23Z</time>
      </trkpt>
      <trkpt lat="42.11785" lon="9.1089">
        <ele>1165.2553711</ele>
        <time>2010-08-27T06:25:25Z</time>
      </trkpt>
      <trkpt lat="42.1178" lon="9.10882">
        <ele>1177.2717285</ele>
        <time>2010-08-27T06:25:32Z</time>
      </trkpt>
      <trkpt lat="42.11778" lon="9.10861">
        <ele>1169.5812988</ele>
        <time>2010-08-27T06:25:41Z</time>
      </trkpt>
      <trkpt lat="42.11775" lon="9.10855">
        <ele>1171.0231934</ele>
        <time>2010-08-27T06:25:47Z</time>
      </trkpt>
      <trkpt lat="42.11769" lon="9.10853">
        <ele>1174.3876953</ele>
        <time>2010-08-27T06:25:53Z</time>
      </trkpt>
      <trkpt lat="42.11771" lon="9.10852">
        <ele>1171.5036621</ele>
        <time>2010-08-27T06:25:58Z</time>
      </trkpt>
      <trkpt lat="42.11771" lon="9.10852">
        <ele>1169.1005859</ele>
        <time>2010-08-27T06:26:04Z</time>
      </trkpt>
      <trkpt lat="42.11769" lon="9.10849">
        <ele>1173.9069824</ele>
        <time>2010-08-27T06:26:16Z</time>
      </trkpt>
      <trkpt lat="42.11769" lon="9.10854">
        <ele>1177.2717285</ele>
        <time>2010-08-27T06:26:22Z</time>
      </trkpt>
      <trkpt lat="42.11773" lon="9.10852">
        <ele>1177.7521973</ele>
        <time>2010-08-27T06:26:28Z</time>
      </trkpt>
      <trkpt lat="42.11776" lon="9.1085">
        <ele>1181.5976562</ele>
        <time>2010-08-27T06:26:36Z</time>
      </trkpt>
      <trkpt lat="42.11779" lon="9.10849">
        <ele>1195.5366211</ele>
        <time>2010-08-27T06:26:49Z</time>
      </trkpt>
      <trkpt lat="42.11778" lon="9.10848">
        <ele>1199.862793</ele>
        <time>2010-08-27T06:27:03Z</time>
      </trkpt>
      <trkpt lat="42.11776" lon="9.10846">
        <ele>1210.4370117</ele>
        <time>2010-08-27T06:27:20Z</time>
      </trkpt>
      <trkpt lat="42.11779" lon="9.10847">
        <ele>1218.6083984</ele>
        <time>2010-08-27T06:27:27Z</time>
      </trkpt>
      <trkpt lat="42.11781" lon="9.10843">
        <ele>1220.050293</ele>
        <time>2010-08-27T06:27:33Z</time>
      </trkpt>
      <trkpt lat="42.11784" lon="9.10838">
        <ele>1226.2988281</ele>
        <time>2010-08-27T06:27:41Z</time>
      </trkpt>
      <trkpt lat="42.11785" lon="9.10834">
        <ele>1233.989502</ele>
        <time>2010-08-27T06:27:47Z</time>
      </trkpt>
      <trkpt lat="42.11786" lon="9.10837">
        <ele>1237.8347168</ele>
        <time>2010-08-27T06:27:53Z</time>
      </trkpt>
      <trkpt lat="42.11794" lon="9.10824">
        <ele>1230.1442871</ele>
        <time>2010-08-27T06:28:12Z</time>
      </trkpt>
      <trkpt lat="42.11797" lon="9.10823">
        <ele>1210.4370117</ele>
        <time>2010-08-27T06:28:21Z</time>
      </trkpt>
      <trkpt lat="42.11801" lon="9.10821">
        <ele>1202.746582</ele>
        <time>2010-08-27T06:28:28Z</time>
      </trkpt>
      <trkpt lat="42.11802" lon="9.10815">
        <ele>1196.0175781</ele>
        <time>2010-08-27T06:28:34Z</time>
      </trkpt>
      <trkpt lat="42.11803" lon="9.10811">
        <ele>1193.1333008</ele>
        <time>2010-08-27T06:28:39Z</time>
      </trkpt>
      <trkpt lat="42.11806" lon="9.10804">
        <ele>1192.652832</ele>
        <time>2010-08-27T06:28:45Z</time>
      </trkpt>
      <trkpt lat="42.11805" lon="9.10797">
        <ele>1205.1499023</ele>
        <time>2010-08-27T06:29:04Z</time>
      </trkpt>
      <trkpt lat="42.11802" lon="9.10793">
        <ele>1209.9562988</ele>
        <time>2010-08-27T06:29:12Z</time>
      </trkpt>
      <trkpt lat="42.11798" lon="9.10789">
        <ele>1209.4758301</ele>
        <time>2010-08-27T06:29:18Z</time>
      </trkpt>
      <trkpt lat="42.11801" lon="9.10783">
        <ele>1207.0725098</ele>
        <time>2010-08-27T06:29:26Z</time>
      </trkpt>
      <trkpt lat="42.11804" lon="9.10777">
        <ele>1205.1499023</ele>
        <time>2010-08-27T06:29:33Z</time>
      </trkpt>
      <trkpt lat="42.11808" lon="9.10774">
        <ele>1207.0725098</ele>
        <time>2010-08-27T06:29:39Z</time>
      </trkpt>
      <trkpt lat="42.11812" lon="9.10773">
        <ele>1208.5144043</ele>
        <time>2010-08-27T06:29:44Z</time>
      </trkpt>
      <trkpt lat="42.11814" lon="9.10771">
        <ele>1209.9562988</ele>
        <time>2010-08-27T06:29:49Z</time>
      </trkpt>
      <trkpt lat="42.11818" lon="9.1077">
        <ele>1210.4370117</ele>
        <time>2010-08-27T06:29:54Z</time>
      </trkpt>
      <trkpt lat="42.11822" lon="9.10766">
        <ele>1211.8791504</ele>
        <time>2010-08-27T06:30:01Z</time>
      </trkpt>
      <trkpt lat="42.11825" lon="9.1076">
        <ele>1210.9177246</ele>
        <time>2010-08-27T06:30:05Z</time>
      </trkpt>
      <trkpt lat="42.11829" lon="9.10755">
        <ele>1208.9951172</ele>
        <time>2010-08-27T06:30:10Z</time>
      </trkpt>
      <trkpt lat="42.11832" lon="9.10753">
        <ele>1208.5144043</ele>
        <time>2010-08-27T06:30:14Z</time>
      </trkpt>
      <trkpt lat="42.11832" lon="9.10753">
        <ele>1208.5144043</ele>
        <time>2010-08-27T06:30:16Z</time>
      </trkpt>
      <trkpt lat="42.11838" lon="9.10751">
        <ele>1211.3984375</ele>
        <time>2010-08-27T06:30:23Z</time>
      </trkpt>
      <trkpt lat="42.11844" lon="9.10748">
        <ele>1213.3212891</ele>
        <time>2010-08-27T06:30:30Z</time>
      </trkpt>
      <trkpt lat="42.1185" lon="9.1074">
        <ele>1214.7631836</ele>
        <time>2010-08-27T06:30:37Z</time>
      </trkpt>
      <trkpt lat="42.11851" lon="9.10737">
        <ele>1215.7246094</ele>
        <time>2010-08-27T06:30:41Z</time>
      </trkpt>
      <trkpt lat="42.11853" lon="9.10729">
        <ele>1211.3984375</ele>
        <time>2010-08-27T06:30:49Z</time>
      </trkpt>
      <trkpt lat="42.11855" lon="9.10721">
        <ele>1210.4370117</ele>
        <time>2010-08-27T06:30:57Z</time>
      </trkpt>
      <trkpt lat="42.11856" lon="9.10715">
        <ele>1212.8405762</ele>
        <time>2010-08-27T06:31:05Z</time>
      </trkpt>
      <trkpt lat="42.11858" lon="9.10711">
        <ele>1211.8791504</ele>
        <time>2010-08-27T06:31:10Z</time>
      </trkpt>
      <trkpt lat="42.11864" lon="9.10711">
        <ele>1210.9177246</ele>
        <time>2010-08-27T06:31:15Z</time>
      </trkpt>
      <trkpt lat="42.11867" lon="9.10711">
        <ele>1211.8791504</ele>
        <time>2010-08-27T06:31:19Z</time>
      </trkpt>
      <trkpt lat="42.11871" lon="9.1071">
        <ele>1215.2438965</ele>
        <time>2010-08-27T06:31:24Z</time>
      </trkpt>
      <trkpt lat="42.11874" lon="9.10711">
        <ele>1216.685791</ele>
        <time>2010-08-27T06:31:29Z</time>
      </trkpt>
      <trkpt lat="42.11879" lon="9.10709">
        <ele>1219.5698242</ele>
        <time>2010-08-27T06:31:36Z</time>
      </trkpt>
      <trkpt lat="42.11883" lon="9.10703">
        <ele>1221.4921875</ele>
        <time>2010-08-27T06:31:42Z</time>
      </trkpt>
      <trkpt lat="42.11884" lon="9.10702">
        <ele>1224.8569336</ele>
        <time>2010-08-27T06:31:47Z</time>
      </trkpt>
      <trkpt lat="42.11884" lon="9.10695">
        <ele>1226.2988281</ele>
        <time>2010-08-27T06:31:52Z</time>
      </trkpt>
      <trkpt lat="42.11886" lon="9.10685">
        <ele>1225.3374023</ele>
        <time>2010-08-27T06:31:59Z</time>
      </trkpt>
      <trkpt lat="42.11887" lon="9.10682">
        <ele>1224.3762207</ele>
        <time>2010-08-27T06:32:02Z</time>
      </trkpt>
      <trkpt lat="42.11894" lon="9.10673">
        <ele>1223.4150391</ele>
        <time>2010-08-27T06:32:11Z</time>
      </trkpt>
      <trkpt lat="42.11899" lon="9.10669">
        <ele>1221.4921875</ele>
        <time>2010-08-27T06:32:17Z</time>
      </trkpt>
      <trkpt lat="42.11903" lon="9.10658">
        <ele>1218.1276855</ele>
        <time>2010-08-27T06:32:25Z</time>
      </trkpt>
      <trkpt lat="42.11906" lon="9.10653">
        <ele>1213.8017578</ele>
        <time>2010-08-27T06:32:30Z</time>
      </trkpt>
      <trkpt lat="42.11908" lon="9.1065">
        <ele>1213.3212891</ele>
        <time>2010-08-27T06:32:35Z</time>
      </trkpt>
      <trkpt lat="42.1191" lon="9.10644">
        <ele>1214.7631836</ele>
        <time>2010-08-27T06:32:39Z</time>
      </trkpt>
      <trkpt lat="42.11912" lon="9.10637">
        <ele>1214.2824707</ele>
        <time>2010-08-27T06:32:44Z</time>
      </trkpt>
      <trkpt lat="42.11914" lon="9.10629">
        <ele>1206.111084</ele>
        <time>2010-08-27T06:32:51Z</time>
      </trkpt>
      <trkpt lat="42.11915" lon="9.10624">
        <ele>1200.8239746</ele>
        <time>2010-08-27T06:32:55Z</time>
      </trkpt>
      <trkpt lat="42.11917" lon="9.10618">
        <ele>1204.1887207</ele>
        <time>2010-08-27T06:33:00Z</time>
      </trkpt>
      <trkpt lat="42.11916" lon="9.10614">
        <ele>1205.6306152</ele>
        <time>2010-08-27T06:33:06Z</time>
      </trkpt>
      <trkpt lat="42.11915" lon="9.10616">
        <ele>1215.2438965</ele>
        <time>2010-08-27T06:33:14Z</time>
      </trkpt>
      <trkpt lat="42.11907" lon="9.1062">
        <ele>1212.3598633</ele>
        <time>2010-08-27T06:33:22Z</time>
      </trkpt>
      <trkpt lat="42.11904" lon="9.10617">
        <ele>1209.4758301</ele>
        <time>2010-08-27T06:33:26Z</time>
      </trkpt>
      <trkpt lat="42.11904" lon="9.106">
        <ele>1220.050293</ele>
        <time>2010-08-27T06:34:08Z</time>
      </trkpt>
      <trkpt lat="42.11907" lon="9.10602">
        <ele>1217.1665039</ele>
        <time>2010-08-27T06:34:25Z</time>
      </trkpt>
      <trkpt lat="42.11902" lon="9.10595">
        <ele>1208.5144043</ele>
        <time>2010-08-27T06:34:34Z</time>
      </trkpt>
      <trkpt lat="42.11908" lon="9.10582">
        <ele>1218.1276855</ele>
        <time>2010-08-27T06:34:45Z</time>
      </trkpt>
      <trkpt lat="42.11909" lon="9.10576">
        <ele>1219.0891113</ele>
        <time>2010-08-27T06:34:50Z</time>
      </trkpt>
      <trkpt lat="42.11912" lon="9.10568">
        <ele>1218.1276855</ele>
        <time>2010-08-27T06:34:56Z</time>
      </trkpt>
      <trkpt lat="42.11916" lon="9.1056">
        <ele>1219.5698242</ele>
        <time>2010-08-27T06:35:04Z</time>
      </trkpt>
      <trkpt lat="42.11918" lon="9.10554">
        <ele>1217.6469727</ele>
        <time>2010-08-27T06:35:09Z</time>
      </trkpt>
      <trkpt lat="42.11919" lon="9.10549">
        <ele>1214.7631836</ele>
        <time>2010-08-27T06:35:13Z</time>
      </trkpt>
      <trkpt lat="42.1192" lon="9.10542">
        <ele>1212.8405762</ele>
        <time>2010-08-27T06:35:19Z</time>
      </trkpt>
      <trkpt lat="42.11921" lon="9.10539">
        <ele>1212.8405762</ele>
        <time>2010-08-27T06:35:22Z</time>
      </trkpt>
      <trkpt lat="42.11925" lon="9.10531">
        <ele>1212.8405762</ele>
        <time>2010-08-27T06:35:28Z</time>
      </trkpt>
      <trkpt lat="42.11926" lon="9.1053">
        <ele>1213.3212891</ele>
        <time>2010-08-27T06:35:30Z</time>
      </trkpt>
      <trkpt lat="42.11928" lon="9.10521">
        <ele>1212.3598633</ele>
        <time>2010-08-27T06:35:37Z</time>
      </trkpt>
      <trkpt lat="42.1193" lon="9.10515">
        <ele>1212.3598633</ele>
        <time>2010-08-27T06:35:41Z</time>
      </trkpt>
      <trkpt lat="42.11932" lon="9.10508">
        <ele>1213.8017578</ele>
        <time>2010-08-27T06:35:47Z</time>
      </trkpt>
      <trkpt lat="42.11931" lon="9.105">
        <ele>1215.2438965</ele>
        <time>2010-08-27T06:35:53Z</time>
      </trkpt>
      <trkpt lat="42.1193" lon="9.10494">
        <ele>1213.8017578</ele>
        <time>2010-08-27T06:35:57Z</time>
      </trkpt>
      <trkpt lat="42.1193" lon="9.1049">
        <ele>1214.7631836</ele>
        <time>2010-08-27T06:36:00Z</time>
      </trkpt>
      <trkpt lat="42.11933" lon="9.10479">
        <ele>1220.5310059</ele>
        <time>2010-08-27T06:36:08Z</time>
      </trkpt>
      <trkpt lat="42.11935" lon="9.10469">
        <ele>1218.1276855</ele>
        <time>2010-08-27T06:36:15Z</time>
      </trkpt>
      <trkpt lat="42.11939" lon="9.10467">
        <ele>1216.2050781</ele>
        <time>2010-08-27T06:36:20Z</time>
      </trkpt>
      <trkpt lat="42.11938" lon="9.10447">
        <ele>1208.0339355</ele>
        <time>2010-08-27T06:36:49Z</time>
      </trkpt>
      <trkpt lat="42.11938" lon="9.10442">
        <ele>1198.4206543</ele>
        <time>2010-08-27T06:36:53Z</time>
      </trkpt>
      <trkpt lat="42.11937" lon="9.10439">
        <ele>1192.652832</ele>
        <time>2010-08-27T06:36:57Z</time>
      </trkpt>
      <trkpt lat="42.11936" lon="9.10436">
        <ele>1185.923584</ele>
        <time>2010-08-27T06:37:02Z</time>
      </trkpt>
      <trkpt lat="42.11939" lon="9.10429">
        <ele>1191.2106934</ele>
        <time>2010-08-27T06:37:08Z</time>
      </trkpt>
      <trkpt lat="42.11939" lon="9.10421">
        <ele>1195.5366211</ele>
        <time>2010-08-27T06:37:19Z</time>
      </trkpt>
      <trkpt lat="42.11943" lon="9.10416">
        <ele>1206.5917969</ele>
        <time>2010-08-27T06:37:26Z</time>
      </trkpt>
      <trkpt lat="42.11946" lon="9.10409">
        <ele>1222.4536133</ele>
        <time>2010-08-27T06:37:32Z</time>
      </trkpt>
      <trkpt lat="42.11947" lon="9.104">
        <ele>1227.7407227</ele>
        <time>2010-08-27T06:37:37Z</time>
      </trkpt>
      <trkpt lat="42.11947" lon="9.10395">
        <ele>1232.5476074</ele>
        <time>2010-08-27T06:37:41Z</time>
      </trkpt>
      <trkpt lat="42.11952" lon="9.10394">
        <ele>1250.3320312</ele>
        <time>2010-08-27T06:37:47Z</time>
      </trkpt>
      <trkpt lat="42.11945" lon="9.10381">
        <ele>1258.5029297</ele>
        <time>2010-08-27T06:37:57Z</time>
      </trkpt>
      <trkpt lat="42.11944" lon="9.10374">
        <ele>1259.4643555</ele>
        <time>2010-08-27T06:38:03Z</time>
      </trkpt>
      <trkpt lat="42.11945" lon="9.10356">
        <ele>1258.9836426</ele>
        <time>2010-08-27T06:38:12Z</time>
      </trkpt>
      <trkpt lat="42.11942" lon="9.1035">
        <ele>1249.3706055</ele>
        <time>2010-08-27T06:38:18Z</time>
      </trkpt>
      <trkpt lat="42.11942" lon="9.10346">
        <ele>1237.8347168</ele>
        <time>2010-08-27T06:38:25Z</time>
      </trkpt>
      <trkpt lat="42.11946" lon="9.1034">
        <ele>1241.1992188</ele>
        <time>2010-08-27T06:38:32Z</time>
      </trkpt>
      <trkpt lat="42.11945" lon="9.10338">
        <ele>1246.9672852</ele>
        <time>2010-08-27T06:38:36Z</time>
      </trkpt>
      <trkpt lat="42.11942" lon="9.10332">
        <ele>1252.2543945</ele>
        <time>2010-08-27T06:38:43Z</time>
      </trkpt>
      <trkpt lat="42.11939" lon="9.10324">
        <ele>1248.4091797</ele>
        <time>2010-08-27T06:38:48Z</time>
      </trkpt>
      <trkpt lat="42.11941" lon="9.1032">
        <ele>1246.9672852</ele>
        <time>2010-08-27T06:38:52Z</time>
      </trkpt>
      <trkpt lat="42.11943" lon="9.10311">
        <ele>1250.3320312</ele>
        <time>2010-08-27T06:38:58Z</time>
      </trkpt>
      <trkpt lat="42.11946" lon="9.10306">
        <ele>1259.9448242</ele>
        <time>2010-08-27T06:39:05Z</time>
      </trkpt>
      <trkpt lat="42.11945" lon="9.10298">
        <ele>1242.6413574</ele>
        <time>2010-08-27T06:39:16Z</time>
      </trkpt>
      <trkpt lat="42.11945" lon="9.10296">
        <ele>1246.4868164</ele>
        <time>2010-08-27T06:39:20Z</time>
      </trkpt>
      <trkpt lat="42.11943" lon="9.10294">
        <ele>1246.4868164</ele>
        <time>2010-08-27T06:39:24Z</time>
      </trkpt>
      <trkpt lat="42.11937" lon="9.10286">
        <ele>1234.4702148</ele>
        <time>2010-08-27T06:39:31Z</time>
      </trkpt>
      <trkpt lat="42.11941" lon="9.10271">
        <ele>1239.7573242</ele>
        <time>2010-08-27T06:39:38Z</time>
      </trkpt>
      <trkpt lat="42.11947" lon="9.1026">
        <ele>1243.6025391</ele>
        <time>2010-08-27T06:39:44Z</time>
      </trkpt>
      <trkpt lat="42.11952" lon="9.10254">
        <ele>1227.2602539</ele>
        <time>2010-08-27T06:39:51Z</time>
      </trkpt>
      <trkpt lat="42.11948" lon="9.10244">
        <ele>1212.3598633</ele>
        <time>2010-08-27T06:39:58Z</time>
      </trkpt>
      <trkpt lat="42.11951" lon="9.10236">
        <ele>1208.0339355</ele>
        <time>2010-08-27T06:40:03Z</time>
      </trkpt>
      <trkpt lat="42.11952" lon="9.1023">
        <ele>1201.7854004</ele>
        <time>2010-08-27T06:40:08Z</time>
      </trkpt>
      <trkpt lat="42.11953" lon="9.10219">
        <ele>1202.746582</ele>
        <time>2010-08-27T06:40:16Z</time>
      </trkpt>
      <trkpt lat="42.11952" lon="9.10214">
        <ele>1207.0725098</ele>
        <time>2010-08-27T06:40:20Z</time>
      </trkpt>
      <trkpt lat="42.11949" lon="9.10201">
        <ele>1201.7854004</ele>
        <time>2010-08-27T06:40:28Z</time>
      </trkpt>
      <trkpt lat="42.1195" lon="9.10195">
        <ele>1202.746582</ele>
        <time>2010-08-27T06:40:33Z</time>
      </trkpt>
      <trkpt lat="42.11954" lon="9.1019">
        <ele>1212.3598633</ele>
        <time>2010-08-27T06:40:38Z</time>
      </trkpt>
      <trkpt lat="42.11955" lon="9.1019">
        <ele>1219.5698242</ele>
        <time>2010-08-27T06:40:44Z</time>
      </trkpt>
      <trkpt lat="42.11954" lon="9.10188">
        <ele>1229.6635742</ele>
        <time>2010-08-27T06:40:49Z</time>
      </trkpt>
      <trkpt lat="42.11956" lon="9.10169">
        <ele>1266.6743164</ele>
        <time>2010-08-27T06:41:18Z</time>
      </trkpt>
      <trkpt lat="42.11951" lon="9.10162">
        <ele>1257.0610352</ele>
        <time>2010-08-27T06:41:22Z</time>
      </trkpt>
      <trkpt lat="42.11949" lon="9.10157">
        <ele>1249.8513184</ele>
        <time>2010-08-27T06:41:27Z</time>
      </trkpt>
      <trkpt lat="42.11945" lon="9.10151">
        <ele>1245.0446777</ele>
        <time>2010-08-27T06:41:34Z</time>
      </trkpt>
      <trkpt lat="42.11945" lon="9.10147">
        <ele>1249.8513184</ele>
        <time>2010-08-27T06:41:39Z</time>
      </trkpt>
      <trkpt lat="42.11944" lon="9.10139">
        <ele>1240.7185059</ele>
        <time>2010-08-27T06:41:44Z</time>
      </trkpt>
      <trkpt lat="42.1194" lon="9.10142">
        <ele>1243.6025391</ele>
        <time>2010-08-27T06:41:49Z</time>
      </trkpt>
      <trkpt lat="42.11938" lon="9.10149">
        <ele>1267.1550293</ele>
        <time>2010-08-27T06:41:55Z</time>
      </trkpt>
      <trkpt lat="42.11928" lon="9.1016">
        <ele>1318.1047363</ele>
        <time>2010-08-27T06:42:24Z</time>
      </trkpt>
      <trkpt lat="42.11918" lon="9.1018">
        <ele>1359.4416504</ele>
        <time>2010-08-27T06:43:49Z</time>
      </trkpt>
      <trkpt lat="42.11931" lon="9.10167">
        <ele>1347.4250488</ele>
        <time>2010-08-27T06:43:55Z</time>
      </trkpt>
      <trkpt lat="42.11916" lon="9.10175">
        <ele>1244.5639648</ele>
        <time>2010-08-27T06:44:26Z</time>
      </trkpt>
      <trkpt lat="42.11922" lon="9.10151">
        <ele>1283.0166016</ele>
        <time>2010-08-27T06:45:05Z</time>
      </trkpt>
      <trkpt lat="42.1192" lon="9.10154">
        <ele>1279.6520996</ele>
        <time>2010-08-27T06:45:09Z</time>
      </trkpt>
      <trkpt lat="42.11917" lon="9.10159">
        <ele>1289.2651367</ele>
        <time>2010-08-27T06:45:15Z</time>
      </trkpt>
      <trkpt lat="42.11915" lon="9.10154">
        <ele>1285.4199219</ele>
        <time>2010-08-27T06:45:19Z</time>
      </trkpt>
      <trkpt lat="42.1192" lon="9.10149">
        <ele>1290.2265625</ele>
        <time>2010-08-27T06:45:26Z</time>
      </trkpt>
      <trkpt lat="42.11926" lon="9.10146">
        <ele>1293.1105957</ele>
        <time>2010-08-27T06:45:33Z</time>
      </trkpt>
      <trkpt lat="42.1192" lon="9.10136">
        <ele>1304.1657715</ele>
        <time>2010-08-27T06:45:38Z</time>
      </trkpt>
      <trkpt lat="42.11915" lon="9.10134">
        <ele>1303.6850586</ele>
        <time>2010-08-27T06:45:42Z</time>
      </trkpt>
      <trkpt lat="42.11915" lon="9.10123">
        <ele>1291.1877441</ele>
        <time>2010-08-27T06:45:46Z</time>
      </trkpt>
      <trkpt lat="42.1192" lon="9.10116">
        <ele>1301.2817383</ele>
        <time>2010-08-27T06:45:52Z</time>
      </trkpt>
      <trkpt lat="42.11912" lon="9.10104">
        <ele>1306.0881348</ele>
        <time>2010-08-27T06:46:04Z</time>
      </trkpt>
      <trkpt lat="42.11905" lon="9.10085">
        <ele>1278.690918</ele>
        <time>2010-08-27T06:46:12Z</time>
      </trkpt>
      <trkpt lat="42.1191" lon="9.10066">
        <ele>1263.3098145</ele>
        <time>2010-08-27T06:46:19Z</time>
      </trkpt>
      <trkpt lat="42.11902" lon="9.10059">
        <ele>1252.2543945</ele>
        <time>2010-08-27T06:46:25Z</time>
      </trkpt>
      <trkpt lat="42.11901" lon="9.10061">
        <ele>1252.7351074</ele>
        <time>2010-08-27T06:46:31Z</time>
      </trkpt>
      <trkpt lat="42.11893" lon="9.10063">
        <ele>1246.4868164</ele>
        <time>2010-08-27T06:46:36Z</time>
      </trkpt>
      <trkpt lat="42.11889" lon="9.10059">
        <ele>1239.7573242</ele>
        <time>2010-08-27T06:46:39Z</time>
      </trkpt>
      <trkpt lat="42.11887" lon="9.1005">
        <ele>1231.5861816</ele>
        <time>2010-08-27T06:46:44Z</time>
      </trkpt>
      <trkpt lat="42.1189" lon="9.10045">
        <ele>1239.2766113</ele>
        <time>2010-08-27T06:46:49Z</time>
      </trkpt>
      <trkpt lat="42.11892" lon="9.10039">
        <ele>1252.2543945</ele>
        <time>2010-08-27T06:47:05Z</time>
      </trkpt>
      <trkpt lat="42.11895" lon="9.10032">
        <ele>1262.3483887</ele>
        <time>2010-08-27T06:47:24Z</time>
      </trkpt>
      <trkpt lat="42.11896" lon="9.10032">
        <ele>1271.4807129</ele>
        <time>2010-08-27T06:47:33Z</time>
      </trkpt>
      <trkpt lat="42.11894" lon="9.10031">
        <ele>1276.2875977</ele>
        <time>2010-08-27T06:47:38Z</time>
      </trkpt>
      <trkpt lat="42.11892" lon="9.1003">
        <ele>1280.1328125</ele>
        <time>2010-08-27T06:47:43Z</time>
      </trkpt>
      <trkpt lat="42.11891" lon="9.10028">
        <ele>1287.3425293</ele>
        <time>2010-08-27T06:47:50Z</time>
      </trkpt>
      <trkpt lat="42.1189" lon="9.10027">
        <ele>1301.2817383</ele>
        <time>2010-08-27T06:47:59Z</time>
      </trkpt>
      <trkpt lat="42.11887" lon="9.10033">
        <ele>1308.9724121</ele>
        <time>2010-08-27T06:48:06Z</time>
      </trkpt>
      <trkpt lat="42.11885" lon="9.10028">
        <ele>1306.5688477</ele>
        <time>2010-08-27T06:48:12Z</time>
      </trkpt>
      <trkpt lat="42.11888" lon="9.10023">
        <ele>1300.8010254</ele>
        <time>2010-08-27T06:48:19Z</time>
      </trkpt>
      <trkpt lat="42.11891" lon="9.1001">
        <ele>1290.7070312</ele>
        <time>2010-08-27T06:48:27Z</time>
      </trkpt>
      <trkpt lat="42.11894" lon="9.10003">
        <ele>1286.8618164</ele>
        <time>2010-08-27T06:48:32Z</time>
      </trkpt>
      <trkpt lat="42.119" lon="9.09997">
        <ele>1283.4973145</ele>
        <time>2010-08-27T06:48:38Z</time>
      </trkpt>
      <trkpt lat="42.11903" lon="9.0999">
        <ele>1282.0554199</ele>
        <time>2010-08-27T06:48:45Z</time>
      </trkpt>
      <trkpt lat="42.11903" lon="9.09989">
        <ele>1282.0554199</ele>
        <time>2010-08-27T06:48:46Z</time>
      </trkpt>
      <trkpt lat="42.11904" lon="9.09986">
        <ele>1284.4587402</ele>
        <time>2010-08-27T06:48:52Z</time>
      </trkpt>
      <trkpt lat="42.11909" lon="9.09987">
        <ele>1284.4587402</ele>
        <time>2010-08-27T06:48:59Z</time>
      </trkpt>
      <trkpt lat="42.1191" lon="9.09986">
        <ele>1283.0166016</ele>
        <time>2010-08-27T06:49:02Z</time>
      </trkpt>
      <trkpt lat="42.1191" lon="9.0998">
        <ele>1278.690918</ele>
        <time>2010-08-27T06:49:08Z</time>
      </trkpt>
      <trkpt lat="42.11911" lon="9.09974">
        <ele>1276.2875977</ele>
        <time>2010-08-27T06:49:14Z</time>
      </trkpt>
      <trkpt lat="42.1191" lon="9.09963">
        <ele>1274.845459</ele>
        <time>2010-08-27T06:49:22Z</time>
      </trkpt>
      <trkpt lat="42.11914" lon="9.09955">
        <ele>1279.1713867</ele>
        <time>2010-08-27T06:49:30Z</time>
      </trkpt>
      <trkpt lat="42.11916" lon="9.09949">
        <ele>1287.3425293</ele>
        <time>2010-08-27T06:49:36Z</time>
      </trkpt>
      <trkpt lat="42.11918" lon="9.09942">
        <ele>1292.630127</ele>
        <time>2010-08-27T06:49:42Z</time>
      </trkpt>
      <trkpt lat="42.1192" lon="9.09935">
        <ele>1294.0720215</ele>
        <time>2010-08-27T06:49:47Z</time>
      </trkpt>
      <trkpt lat="42.11922" lon="9.09929">
        <ele>1294.5524902</ele>
        <time>2010-08-27T06:49:54Z</time>
      </trkpt>
      <trkpt lat="42.1192" lon="9.09924">
        <ele>1293.5913086</ele>
        <time>2010-08-27T06:49:58Z</time>
      </trkpt>
      <trkpt lat="42.11922" lon="9.09919">
        <ele>1295.513916</ele>
        <time>2010-08-27T06:50:03Z</time>
      </trkpt>
      <trkpt lat="42.1192" lon="9.0991">
        <ele>1296.4753418</ele>
        <time>2010-08-27T06:50:12Z</time>
      </trkpt>
      <trkpt lat="42.11923" lon="9.09906">
        <ele>1297.9172363</ele>
        <time>2010-08-27T06:50:19Z</time>
      </trkpt>
      <trkpt lat="42.11925" lon="9.09901">
        <ele>1298.878418</ele>
        <time>2010-08-27T06:50:25Z</time>
      </trkpt>
      <trkpt lat="42.11927" lon="9.09899">
        <ele>1305.607666</ele>
        <time>2010-08-27T06:50:31Z</time>
      </trkpt>
      <trkpt lat="42.11929" lon="9.09895">
        <ele>1314.7402344</ele>
        <time>2010-08-27T06:50:38Z</time>
      </trkpt>
      <trkpt lat="42.11934" lon="9.09892">
        <ele>1319.0661621</ele>
        <time>2010-08-27T06:50:44Z</time>
      </trkpt>
      <trkpt lat="42.11935" lon="9.09885">
        <ele>1319.546875</ele>
        <time>2010-08-27T06:50:52Z</time>
      </trkpt>
      <trkpt lat="42.11935" lon="9.0988">
        <ele>1319.546875</ele>
        <time>2010-08-27T06:51:00Z</time>
      </trkpt>
      <trkpt lat="42.11937" lon="9.09874">
        <ele>1317.1435547</ele>
        <time>2010-08-27T06:51:07Z</time>
      </trkpt>
      <trkpt lat="42.11938" lon="9.09869">
        <ele>1316.6628418</ele>
        <time>2010-08-27T06:51:12Z</time>
      </trkpt>
      <trkpt lat="42.11938" lon="9.09866">
        <ele>1315.2209473</ele>
        <time>2010-08-27T06:51:20Z</time>
      </trkpt>
      <trkpt lat="42.11946" lon="9.09852">
        <ele>1300.8010254</ele>
        <time>2010-08-27T06:51:36Z</time>
      </trkpt>
      <trkpt lat="42.11947" lon="9.09848">
        <ele>1298.3977051</ele>
        <time>2010-08-27T06:51:42Z</time>
      </trkpt>
      <trkpt lat="42.11946" lon="9.09843">
        <ele>1306.5688477</ele>
        <time>2010-08-27T06:51:52Z</time>
      </trkpt>
      <trkpt lat="42.11946" lon="9.0984">
        <ele>1308.0112305</ele>
        <time>2010-08-27T06:51:58Z</time>
      </trkpt>
      <trkpt lat="42.11947" lon="9.09836">
        <ele>1311.3757324</ele>
        <time>2010-08-27T06:52:06Z</time>
      </trkpt>
      <trkpt lat="42.1195" lon="9.0983">
        <ele>1313.7788086</ele>
        <time>2010-08-27T06:52:15Z</time>
      </trkpt>
      <trkpt lat="42.11952" lon="9.09821">
        <ele>1314.2595215</ele>
        <time>2010-08-27T06:52:24Z</time>
      </trkpt>
      <trkpt lat="42.11955" lon="9.0982">
        <ele>1316.1821289</ele>
        <time>2010-08-27T06:52:33Z</time>
      </trkpt>
      <trkpt lat="42.11955" lon="9.09819">
        <ele>1311.3757324</ele>
        <time>2010-08-27T06:52:41Z</time>
      </trkpt>
      <trkpt lat="42.11958" lon="9.09819">
        <ele>1311.3757324</ele>
        <time>2010-08-27T06:52:48Z</time>
      </trkpt>
      <trkpt lat="42.11963" lon="9.09813">
        <ele>1308.0112305</ele>
        <time>2010-08-27T06:52:55Z</time>
      </trkpt>
      <trkpt lat="42.11968" lon="9.0981">
        <ele>1307.0495605</ele>
        <time>2010-08-27T06:53:02Z</time>
      </trkpt>
      <trkpt lat="42.11969" lon="9.0981">
        <ele>1306.5688477</ele>
        <time>2010-08-27T06:53:04Z</time>
      </trkpt>
      <trkpt lat="42.11975" lon="9.09811">
        <ele>1307.5302734</ele>
        <time>2010-08-27T06:53:12Z</time>
      </trkpt>
      <trkpt lat="42.11971" lon="9.09808">
        <ele>1313.2983398</ele>
        <time>2010-08-27T06:53:19Z</time>
      </trkpt>
      <trkpt lat="42.11969" lon="9.09807">
        <ele>1314.7402344</ele>
        <time>2010-08-27T06:53:25Z</time>
      </trkpt>
      <trkpt lat="42.11971" lon="9.09805">
        <ele>1321.4692383</ele>
        <time>2010-08-27T06:53:36Z</time>
      </trkpt>
      <trkpt lat="42.11971" lon="9.09803">
        <ele>1322.911377</ele>
        <time>2010-08-27T06:53:42Z</time>
      </trkpt>
      <trkpt lat="42.11972" lon="9.09801">
        <ele>1324.3535156</ele>
        <time>2010-08-27T06:53:50Z</time>
      </trkpt>
      <trkpt lat="42.11972" lon="9.09799">
        <ele>1321.9499512</ele>
        <time>2010-08-27T06:53:57Z</time>
      </trkpt>
      <trkpt lat="42.11972" lon="9.098">
        <ele>1318.1047363</ele>
        <time>2010-08-27T06:54:09Z</time>
      </trkpt>
      <trkpt lat="42.11973" lon="9.09803">
        <ele>1321.9499512</ele>
        <time>2010-08-27T06:54:18Z</time>
      </trkpt>
      <trkpt lat="42.11971" lon="9.09804">
        <ele>1323.3920898</ele>
        <time>2010-08-27T06:54:30Z</time>
      </trkpt>
      <trkpt lat="42.11969" lon="9.09805">
        <ele>1324.8342285</ele>
        <time>2010-08-27T06:54:37Z</time>
      </trkpt>
      <trkpt lat="42.11968" lon="9.09804">
        <ele>1338.7731934</ele>
        <time>2010-08-27T06:55:00Z</time>
      </trkpt>
      <trkpt lat="42.11972" lon="9.09791">
        <ele>1332.0439453</ele>
        <time>2010-08-27T06:55:07Z</time>
      </trkpt>
      <trkpt lat="42.11972" lon="9.09786">
        <ele>1329.640625</ele>
        <time>2010-08-27T06:55:11Z</time>
      </trkpt>
      <trkpt lat="42.11976" lon="9.09777">
        <ele>1326.7568359</ele>
        <time>2010-08-27T06:55:16Z</time>
      </trkpt>
      <trkpt lat="42.11977" lon="9.09767">
        <ele>1325.7954102</ele>
        <time>2010-08-27T06:55:22Z</time>
      </trkpt>
      <trkpt lat="42.1198" lon="9.0976">
        <ele>1325.7954102</ele>
        <time>2010-08-27T06:55:27Z</time>
      </trkpt>
      <trkpt lat="42.11982" lon="9.09745">
        <ele>1324.8342285</ele>
        <time>2010-08-27T06:55:36Z</time>
      </trkpt>
      <trkpt lat="42.11985" lon="9.09736">
        <ele>1324.8342285</ele>
        <time>2010-08-27T06:55:43Z</time>
      </trkpt>
      <trkpt lat="42.11989" lon="9.09736">
        <ele>1325.7954102</ele>
        <time>2010-08-27T06:55:50Z</time>
      </trkpt>
      <trkpt lat="42.11992" lon="9.09723">
        <ele>1322.911377</ele>
        <time>2010-08-27T06:55:57Z</time>
      </trkpt>
      <trkpt lat="42.11995" lon="9.09711">
        <ele>1321.9499512</ele>
        <time>2010-08-27T06:56:05Z</time>
      </trkpt>
      <trkpt lat="42.11996" lon="9.09702">
        <ele>1331.0827637</ele>
        <time>2010-08-27T06:56:13Z</time>
      </trkpt>
      <trkpt lat="42.11998" lon="9.09698">
        <ele>1337.8117676</ele>
        <time>2010-08-27T06:56:19Z</time>
      </trkpt>
      <trkpt lat="42.12" lon="9.09698">
        <ele>1335.8891602</ele>
        <time>2010-08-27T06:56:25Z</time>
      </trkpt>
      <trkpt lat="42.12" lon="9.09695">
        <ele>1342.1379395</ele>
        <time>2010-08-27T06:56:30Z</time>
      </trkpt>
      <trkpt lat="42.12001" lon="9.09689">
        <ele>1342.1379395</ele>
        <time>2010-08-27T06:56:36Z</time>
      </trkpt>
      <trkpt lat="42.12005" lon="9.09683">
        <ele>1337.8117676</ele>
        <time>2010-08-27T06:56:39Z</time>
      </trkpt>
      <trkpt lat="42.12007" lon="9.09673">
        <ele>1336.369873</ele>
        <time>2010-08-27T06:56:46Z</time>
      </trkpt>
      <trkpt lat="42.12008" lon="9.09672">
        <ele>1335.8891602</ele>
        <time>2010-08-27T06:56:47Z</time>
      </trkpt>
      <trkpt lat="42.12008" lon="9.09668">
        <ele>1346.4638672</ele>
        <time>2010-08-27T06:56:54Z</time>
      </trkpt>
      <trkpt lat="42.12005" lon="9.09664">
        <ele>1352.2314453</ele>
        <time>2010-08-27T06:57:02Z</time>
      </trkpt>
      <trkpt lat="42.12011" lon="9.09655">
        <ele>1352.7121582</ele>
        <time>2010-08-27T06:57:08Z</time>
      </trkpt>
      <trkpt lat="42.12012" lon="9.09651">
        <ele>1350.7895508</ele>
        <time>2010-08-27T06:57:09Z</time>
      </trkpt>
      <trkpt lat="42.12018" lon="9.09633">
        <ele>1343.0991211</ele>
        <time>2010-08-27T06:57:17Z</time>
      </trkpt>
      <trkpt lat="42.1202" lon="9.09624">
        <ele>1346.4638672</ele>
        <time>2010-08-27T06:57:24Z</time>
      </trkpt>
      <trkpt lat="42.1202" lon="9.09623">
        <ele>1357.0383301</ele>
        <time>2010-08-27T06:57:30Z</time>
      </trkpt>
      <trkpt lat="42.12021" lon="9.0962">
        <ele>1361.3642578</ele>
        <time>2010-08-27T06:57:35Z</time>
      </trkpt>
      <trkpt lat="42.12027" lon="9.09613">
        <ele>1360.8835449</ele>
        <time>2010-08-27T06:57:41Z</time>
      </trkpt>
      <trkpt lat="42.12036" lon="9.09603">
        <ele>1357.519043</ele>
        <time>2010-08-27T06:57:47Z</time>
      </trkpt>
      <trkpt lat="42.1204" lon="9.09591">
        <ele>1351.2702637</ele>
        <time>2010-08-27T06:57:54Z</time>
      </trkpt>
      <trkpt lat="42.12042" lon="9.09584">
        <ele>1348.8669434</ele>
        <time>2010-08-27T06:58:00Z</time>
      </trkpt>
      <trkpt lat="42.12043" lon="9.09579">
        <ele>1346.9443359</ele>
        <time>2010-08-27T06:58:05Z</time>
      </trkpt>
      <trkpt lat="42.12044" lon="9.09578">
        <ele>1345.5024414</ele>
        <time>2010-08-27T06:58:13Z</time>
      </trkpt>
      <trkpt lat="42.12051" lon="9.09578">
        <ele>1345.0217285</ele>
        <time>2010-08-27T06:58:21Z</time>
      </trkpt>
      <trkpt lat="42.12055" lon="9.09572">
        <ele>1345.0217285</ele>
        <time>2010-08-27T06:58:28Z</time>
      </trkpt>
      <trkpt lat="42.12058" lon="9.09565">
        <ele>1345.0217285</ele>
        <time>2010-08-27T06:58:35Z</time>
      </trkpt>
      <trkpt lat="42.12064" lon="9.09559">
        <ele>1346.4638672</ele>
        <time>2010-08-27T06:58:43Z</time>
      </trkpt>
      <trkpt lat="42.12067" lon="9.09552">
        <ele>1348.3862305</ele>
        <time>2010-08-27T06:58:51Z</time>
      </trkpt>
      <trkpt lat="42.1207" lon="9.09545">
        <ele>1350.309082</ele>
        <time>2010-08-27T06:58:58Z</time>
      </trkpt>
      <trkpt lat="42.12069" lon="9.09542">
        <ele>1355.5961914</ele>
        <time>2010-08-27T06:59:05Z</time>
      </trkpt>
      <trkpt lat="42.12072" lon="9.09541">
        <ele>1360.8835449</ele>
        <time>2010-08-27T06:59:11Z</time>
      </trkpt>
      <trkpt lat="42.12076" lon="9.09535">
        <ele>1363.2868652</ele>
        <time>2010-08-27T06:59:18Z</time>
      </trkpt>
      <trkpt lat="42.12079" lon="9.09525">
        <ele>1359.4416504</ele>
        <time>2010-08-27T06:59:24Z</time>
      </trkpt>
      <trkpt lat="42.1208" lon="9.09513">
        <ele>1359.9221191</ele>
        <time>2010-08-27T06:59:33Z</time>
      </trkpt>
      <trkpt lat="42.12084" lon="9.09511">
        <ele>1364.2480469</ele>
        <time>2010-08-27T06:59:39Z</time>
      </trkpt>
      <trkpt lat="42.12088" lon="9.09508">
        <ele>1367.1320801</ele>
        <time>2010-08-27T06:59:45Z</time>
      </trkpt>
      <trkpt lat="42.12092" lon="9.09507">
        <ele>1370.496582</ele>
        <time>2010-08-27T06:59:52Z</time>
      </trkpt>
      <trkpt lat="42.12094" lon="9.09508">
        <ele>1379.6291504</ele>
        <time>2010-08-27T07:00:00Z</time>
      </trkpt>
      <trkpt lat="42.121" lon="9.09503">
        <ele>1376.2646484</ele>
        <time>2010-08-27T07:00:04Z</time>
      </trkpt>
      <trkpt lat="42.12105" lon="9.09494">
        <ele>1371.4577637</ele>
        <time>2010-08-27T07:00:10Z</time>
      </trkpt>
      <trkpt lat="42.12109" lon="9.0949">
        <ele>1370.0158691</ele>
        <time>2010-08-27T07:00:17Z</time>
      </trkpt>
      <trkpt lat="42.1211" lon="9.09485">
        <ele>1369.0546875</ele>
        <time>2010-08-27T07:00:22Z</time>
      </trkpt>
      <trkpt lat="42.1211" lon="9.09477">
        <ele>1366.6513672</ele>
        <time>2010-08-27T07:00:28Z</time>
      </trkpt>
      <trkpt lat="42.12108" lon="9.09474">
        <ele>1367.1320801</ele>
        <time>2010-08-27T07:00:35Z</time>
      </trkpt>
      <trkpt lat="42.12106" lon="9.09469">
        <ele>1368.5739746</ele>
        <time>2010-08-27T07:00:42Z</time>
      </trkpt>
      <trkpt lat="42.12108" lon="9.09463">
        <ele>1368.5739746</ele>
        <time>2010-08-27T07:00:48Z</time>
      </trkpt>
      <trkpt lat="42.12109" lon="9.09459">
        <ele>1369.0546875</ele>
        <time>2010-08-27T07:00:54Z</time>
      </trkpt>
      <trkpt lat="42.12113" lon="9.09455">
        <ele>1372.4194336</ele>
        <time>2010-08-27T07:01:01Z</time>
      </trkpt>
      <trkpt lat="42.12115" lon="9.09454">
        <ele>1373.8613281</ele>
        <time>2010-08-27T07:01:06Z</time>
      </trkpt>
      <trkpt lat="42.12116" lon="9.09451">
        <ele>1375.3032227</ele>
        <time>2010-08-27T07:01:11Z</time>
      </trkpt>
      <trkpt lat="42.12115" lon="9.09445">
        <ele>1376.2646484</ele>
        <time>2010-08-27T07:01:18Z</time>
      </trkpt>
      <trkpt lat="42.12116" lon="9.09441">
        <ele>1377.2260742</ele>
        <time>2010-08-27T07:01:24Z</time>
      </trkpt>
      <trkpt lat="42.12115" lon="9.09433">
        <ele>1378.1872559</ele>
        <time>2010-08-27T07:01:31Z</time>
      </trkpt>
      <trkpt lat="42.12115" lon="9.09431">
        <ele>1378.6679688</ele>
        <time>2010-08-27T07:01:33Z</time>
      </trkpt>
      <trkpt lat="42.12117" lon="9.09426">
        <ele>1377.2260742</ele>
        <time>2010-08-27T07:01:41Z</time>
      </trkpt>
      <trkpt lat="42.12116" lon="9.09424">
        <ele>1377.2260742</ele>
        <time>2010-08-27T07:01:45Z</time>
      </trkpt>
      <trkpt lat="42.12114" lon="9.09415">
        <ele>1376.2646484</ele>
        <time>2010-08-27T07:01:52Z</time>
      </trkpt>
      <trkpt lat="42.12113" lon="9.09406">
        <ele>1376.2646484</ele>
        <time>2010-08-27T07:02:00Z</time>
      </trkpt>
      <trkpt lat="42.12112" lon="9.09398">
        <ele>1377.706543</ele>
        <time>2010-08-27T07:02:08Z</time>
      </trkpt>
      <trkpt lat="42.1211" lon="9.09394">
        <ele>1378.1872559</ele>
        <time>2010-08-27T07:02:13Z</time>
      </trkpt>
      <trkpt lat="42.12109" lon="9.0939">
        <ele>1378.1872559</ele>
        <time>2010-08-27T07:02:18Z</time>
      </trkpt>
      <trkpt lat="42.12111" lon="9.09382">
        <ele>1377.706543</ele>
        <time>2010-08-27T07:02:26Z</time>
      </trkpt>
      <trkpt lat="42.12111" lon="9.09376">
        <ele>1379.6291504</ele>
        <time>2010-08-27T07:02:33Z</time>
      </trkpt>
      <trkpt lat="42.12111" lon="9.09373">
        <ele>1383.4743652</ele>
        <time>2010-08-27T07:02:40Z</time>
      </trkpt>
      <trkpt lat="42.12112" lon="9.09364">
        <ele>1384.9165039</ele>
        <time>2010-08-27T07:02:46Z</time>
      </trkpt>
      <trkpt lat="42.12111" lon="9.09358">
        <ele>1385.8776855</ele>
        <time>2010-08-27T07:02:52Z</time>
      </trkpt>
      <trkpt lat="42.1211" lon="9.09354">
        <ele>1386.3583984</ele>
        <time>2010-08-27T07:02:56Z</time>
      </trkpt>
      <trkpt lat="42.12104" lon="9.09343">
        <ele>1387.800293</ele>
        <time>2010-08-27T07:03:05Z</time>
      </trkpt>
      <trkpt lat="42.12103" lon="9.09342">
        <ele>1387.800293</ele>
        <time>2010-08-27T07:03:07Z</time>
      </trkpt>
      <trkpt lat="42.12102" lon="9.09336">
        <ele>1391.1650391</ele>
        <time>2010-08-27T07:03:15Z</time>
      </trkpt>
      <trkpt lat="42.12103" lon="9.09331">
        <ele>1393.0876465</ele>
        <time>2010-08-27T07:03:22Z</time>
      </trkpt>
      <trkpt lat="42.12105" lon="9.09324">
        <ele>1390.6843262</ele>
        <time>2010-08-27T07:03:27Z</time>
      </trkpt>
      <trkpt lat="42.12106" lon="9.09315">
        <ele>1389.2424316</ele>
        <time>2010-08-27T07:03:34Z</time>
      </trkpt>
      <trkpt lat="42.12108" lon="9.09311">
        <ele>1390.6843262</ele>
        <time>2010-08-27T07:03:41Z</time>
      </trkpt>
      <trkpt lat="42.1211" lon="9.09308">
        <ele>1393.5683594</ele>
        <time>2010-08-27T07:03:47Z</time>
      </trkpt>
      <trkpt lat="42.12111" lon="9.09305">
        <ele>1395.4909668</ele>
        <time>2010-08-27T07:03:52Z</time>
      </trkpt>
      <trkpt lat="42.12112" lon="9.09304">
        <ele>1400.2976074</ele>
        <time>2010-08-27T07:03:57Z</time>
      </trkpt>
      <trkpt lat="42.12115" lon="9.093">
        <ele>1405.5849609</ele>
        <time>2010-08-27T07:04:04Z</time>
      </trkpt>
      <trkpt lat="42.12116" lon="9.09295">
        <ele>1407.0268555</ele>
        <time>2010-08-27T07:04:10Z</time>
      </trkpt>
      <trkpt lat="42.12118" lon="9.09282">
        <ele>1404.6235352</ele>
        <time>2010-08-27T07:04:21Z</time>
      </trkpt>
      <trkpt lat="42.12122" lon="9.09275">
        <ele>1403.1813965</ele>
        <time>2010-08-27T07:04:29Z</time>
      </trkpt>
      <trkpt lat="42.12124" lon="9.09271">
        <ele>1400.7780762</ele>
        <time>2010-08-27T07:04:34Z</time>
      </trkpt>
      <trkpt lat="42.12127" lon="9.09261">
        <ele>1404.6235352</ele>
        <time>2010-08-27T07:04:50Z</time>
      </trkpt>
      <trkpt lat="42.12126" lon="9.09258">
        <ele>1409.9106445</ele>
        <time>2010-08-27T07:04:58Z</time>
      </trkpt>
      <trkpt lat="42.12127" lon="9.09252">
        <ele>1411.3527832</ele>
        <time>2010-08-27T07:05:07Z</time>
      </trkpt>
      <trkpt lat="42.12126" lon="9.09243">
        <ele>1409.9106445</ele>
        <time>2010-08-27T07:05:15Z</time>
      </trkpt>
      <trkpt lat="42.12127" lon="9.09237">
        <ele>1408.46875</ele>
        <time>2010-08-27T07:05:20Z</time>
      </trkpt>
      <trkpt lat="42.12128" lon="9.09232">
        <ele>1409.4301758</ele>
        <time>2010-08-27T07:05:27Z</time>
      </trkpt>
      <trkpt lat="42.12129" lon="9.0923">
        <ele>1408.46875</ele>
        <time>2010-08-27T07:05:28Z</time>
      </trkpt>
      <trkpt lat="42.1213" lon="9.09225">
        <ele>1407.5075684</ele>
        <time>2010-08-27T07:05:33Z</time>
      </trkpt>
      <trkpt lat="42.12132" lon="9.09221">
        <ele>1407.9882812</ele>
        <time>2010-08-27T07:05:38Z</time>
      </trkpt>
      <trkpt lat="42.12133" lon="9.09217">
        <ele>1406.5461426</ele>
        <time>2010-08-27T07:05:43Z</time>
      </trkpt>
      <trkpt lat="42.12134" lon="9.09213">
        <ele>1407.9882812</ele>
        <time>2010-08-27T07:05:48Z</time>
      </trkpt>
      <trkpt lat="42.12129" lon="9.09211">
        <ele>1408.9494629</ele>
        <time>2010-08-27T07:05:54Z</time>
      </trkpt>
      <trkpt lat="42.12128" lon="9.0921">
        <ele>1410.3913574</ele>
        <time>2010-08-27T07:05:59Z</time>
      </trkpt>
      <trkpt lat="42.12125" lon="9.09211">
        <ele>1410.3913574</ele>
        <time>2010-08-27T07:06:07Z</time>
      </trkpt>
      <trkpt lat="42.12122" lon="9.09217">
        <ele>1419.5239258</ele>
        <time>2010-08-27T07:06:23Z</time>
      </trkpt>
      <trkpt lat="42.12129" lon="9.0921">
        <ele>1412.7946777</ele>
        <time>2010-08-27T07:06:32Z</time>
      </trkpt>
      <trkpt lat="42.12124" lon="9.09212">
        <ele>1423.8498535</ele>
        <time>2010-08-27T07:06:58Z</time>
      </trkpt>
      <trkpt lat="42.12127" lon="9.09217">
        <ele>1425.7724609</ele>
        <time>2010-08-27T07:07:04Z</time>
      </trkpt>
      <trkpt lat="42.12132" lon="9.09219">
        <ele>1426.7338867</ele>
        <time>2010-08-27T07:07:10Z</time>
      </trkpt>
      <trkpt lat="42.12135" lon="9.09218">
        <ele>1430.5791016</ele>
        <time>2010-08-27T07:07:23Z</time>
      </trkpt>
      <trkpt lat="42.12136" lon="9.09217">
        <ele>1432.9821777</ele>
        <time>2010-08-27T07:07:29Z</time>
      </trkpt>
      <trkpt lat="42.12137" lon="9.09213">
        <ele>1429.6176758</ele>
        <time>2010-08-27T07:07:43Z</time>
      </trkpt>
      <trkpt lat="42.12137" lon="9.0921">
        <ele>1425.291748</ele>
        <time>2010-08-27T07:07:48Z</time>
      </trkpt>
      <trkpt lat="42.1213" lon="9.09209">
        <ele>1422.8886719</ele>
        <time>2010-08-27T07:07:58Z</time>
      </trkpt>
      <trkpt lat="42.1213" lon="9.09211">
        <ele>1422.407959</ele>
        <time>2010-08-27T07:08:13Z</time>
      </trkpt>
      <trkpt lat="42.12134" lon="9.09205">
        <ele>1428.6564941</ele>
        <time>2010-08-27T07:08:47Z</time>
      </trkpt>
      <trkpt lat="42.12137" lon="9.09197">
        <ele>1428.1757812</ele>
        <time>2010-08-27T07:08:54Z</time>
      </trkpt>
      <trkpt lat="42.12146" lon="9.09189">
        <ele>1424.3305664</ele>
        <time>2010-08-27T07:09:00Z</time>
      </trkpt>
      <trkpt lat="42.12151" lon="9.09184">
        <ele>1421.4465332</ele>
        <time>2010-08-27T07:09:05Z</time>
      </trkpt>
      <trkpt lat="42.12151" lon="9.09183">
        <ele>1420.4853516</ele>
        <time>2010-08-27T07:09:06Z</time>
      </trkpt>
      <trkpt lat="42.12152" lon="9.09181">
        <ele>1420.9660645</ele>
        <time>2010-08-27T07:09:12Z</time>
      </trkpt>
      <trkpt lat="42.12153" lon="9.09179">
        <ele>1420.9660645</ele>
        <time>2010-08-27T07:09:19Z</time>
      </trkpt>
      <trkpt lat="42.12156" lon="9.09175">
        <ele>1419.0432129</ele>
        <time>2010-08-27T07:09:27Z</time>
      </trkpt>
      <trkpt lat="42.12157" lon="9.09175">
        <ele>1417.6010742</ele>
        <time>2010-08-27T07:09:32Z</time>
      </trkpt>
      <trkpt lat="42.12158" lon="9.09175">
        <ele>1418.0817871</ele>
        <time>2010-08-27T07:09:42Z</time>
      </trkpt>
      <trkpt lat="42.12158" lon="9.09172">
        <ele>1418.5625</ele>
        <time>2010-08-27T07:09:44Z</time>
      </trkpt>
      <trkpt lat="42.12161" lon="9.09168">
        <ele>1423.3693848</ele>
        <time>2010-08-27T07:09:51Z</time>
      </trkpt>
      <trkpt lat="42.12168" lon="9.09168">
        <ele>1424.3305664</ele>
        <time>2010-08-27T07:09:56Z</time>
      </trkpt>
      <trkpt lat="42.12169" lon="9.09168">
        <ele>1424.3305664</ele>
        <time>2010-08-27T07:09:58Z</time>
      </trkpt>
      <trkpt lat="42.12173" lon="9.09168">
        <ele>1424.8112793</ele>
        <time>2010-08-27T07:10:04Z</time>
      </trkpt>
      <trkpt lat="42.12177" lon="9.0917">
        <ele>1424.3305664</ele>
        <time>2010-08-27T07:10:09Z</time>
      </trkpt>
      <trkpt lat="42.12185" lon="9.09168">
        <ele>1422.8886719</ele>
        <time>2010-08-27T07:10:16Z</time>
      </trkpt>
      <trkpt lat="42.1219" lon="9.09167">
        <ele>1422.407959</ele>
        <time>2010-08-27T07:10:21Z</time>
      </trkpt>
      <trkpt lat="42.12196" lon="9.09163">
        <ele>1423.8498535</ele>
        <time>2010-08-27T07:10:29Z</time>
      </trkpt>
      <trkpt lat="42.122" lon="9.09159">
        <ele>1424.3305664</ele>
        <time>2010-08-27T07:10:35Z</time>
      </trkpt>
      <trkpt lat="42.12204" lon="9.09157">
        <ele>1427.6950684</ele>
        <time>2010-08-27T07:10:41Z</time>
      </trkpt>
      <trkpt lat="42.12208" lon="9.09155">
        <ele>1427.6950684</ele>
        <time>2010-08-27T07:10:47Z</time>
      </trkpt>
      <trkpt lat="42.12212" lon="9.09156">
        <ele>1429.6176758</ele>
        <time>2010-08-27T07:10:52Z</time>
      </trkpt>
      <trkpt lat="42.12218" lon="9.09152">
        <ele>1430.5791016</ele>
        <time>2010-08-27T07:10:58Z</time>
      </trkpt>
      <trkpt lat="42.1222" lon="9.09144">
        <ele>1430.0983887</ele>
        <time>2010-08-27T07:11:05Z</time>
      </trkpt>
      <trkpt lat="42.12223" lon="9.09138">
        <ele>1426.2531738</ele>
        <time>2010-08-27T07:11:10Z</time>
      </trkpt>
      <trkpt lat="42.12225" lon="9.09131">
        <ele>1422.407959</ele>
        <time>2010-08-27T07:11:16Z</time>
      </trkpt>
      <trkpt lat="42.12228" lon="9.09125">
        <ele>1421.9272461</ele>
        <time>2010-08-27T07:11:22Z</time>
      </trkpt>
      <trkpt lat="42.12232" lon="9.0912">
        <ele>1422.407959</ele>
        <time>2010-08-27T07:11:28Z</time>
      </trkpt>
      <trkpt lat="42.12233" lon="9.09118">
        <ele>1422.8886719</ele>
        <time>2010-08-27T07:11:32Z</time>
      </trkpt>
      <trkpt lat="42.12237" lon="9.09115">
        <ele>1426.7338867</ele>
        <time>2010-08-27T07:11:39Z</time>
      </trkpt>
      <trkpt lat="42.12235" lon="9.09109">
        <ele>1428.6564941</ele>
        <time>2010-08-27T07:11:43Z</time>
      </trkpt>
      <trkpt lat="42.12235" lon="9.09103">
        <ele>1428.6564941</ele>
        <time>2010-08-27T07:11:49Z</time>
      </trkpt>
      <trkpt lat="42.12235" lon="9.09098">
        <ele>1430.5791016</ele>
        <time>2010-08-27T07:11:53Z</time>
      </trkpt>
      <trkpt lat="42.1223" lon="9.09094">
        <ele>1435.385498</ele>
        <time>2010-08-27T07:11:59Z</time>
      </trkpt>
      <trkpt lat="42.12236" lon="9.09093">
        <ele>1435.385498</ele>
        <time>2010-08-27T07:12:08Z</time>
      </trkpt>
      <trkpt lat="42.1224" lon="9.09092">
        <ele>1435.385498</ele>
        <time>2010-08-27T07:12:14Z</time>
      </trkpt>
      <trkpt lat="42.1224" lon="9.09091">
        <ele>1433.4628906</ele>
        <time>2010-08-27T07:12:18Z</time>
      </trkpt>
      <trkpt lat="42.12244" lon="9.09085">
        <ele>1432.0209961</ele>
        <time>2010-08-27T07:12:24Z</time>
      </trkpt>
      <trkpt lat="42.12247" lon="9.09081">
        <ele>1431.0598145</ele>
        <time>2010-08-27T07:12:29Z</time>
      </trkpt>
      <trkpt lat="42.12251" lon="9.09081">
        <ele>1431.5402832</ele>
        <time>2010-08-27T07:12:35Z</time>
      </trkpt>
      <trkpt lat="42.12257" lon="9.09078">
        <ele>1432.0209961</ele>
        <time>2010-08-27T07:12:41Z</time>
      </trkpt>
      <trkpt lat="42.12263" lon="9.09071">
        <ele>1431.5402832</ele>
        <time>2010-08-27T07:12:48Z</time>
      </trkpt>
      <trkpt lat="42.12265" lon="9.09069">
        <ele>1433.9436035</ele>
        <time>2010-08-27T07:12:54Z</time>
      </trkpt>
      <trkpt lat="42.12269" lon="9.09066">
        <ele>1436.8276367</ele>
        <time>2010-08-27T07:13:02Z</time>
      </trkpt>
      <trkpt lat="42.12273" lon="9.09063">
        <ele>1437.3083496</ele>
        <time>2010-08-27T07:13:06Z</time>
      </trkpt>
      <trkpt lat="42.12276" lon="9.09059">
        <ele>1436.347168</ele>
        <time>2010-08-27T07:13:11Z</time>
      </trkpt>
      <trkpt lat="42.12278" lon="9.09055">
        <ele>1436.347168</ele>
        <time>2010-08-27T07:13:15Z</time>
      </trkpt>
      <trkpt lat="42.1228" lon="9.09051">
        <ele>1438.2697754</ele>
        <time>2010-08-27T07:13:21Z</time>
      </trkpt>
      <trkpt lat="42.12279" lon="9.09047">
        <ele>1439.7116699</ele>
        <time>2010-08-27T07:13:25Z</time>
      </trkpt>
      <trkpt lat="42.1228" lon="9.09044">
        <ele>1440.1923828</ele>
        <time>2010-08-27T07:13:29Z</time>
      </trkpt>
      <trkpt lat="42.12281" lon="9.09045">
        <ele>1441.6342773</ele>
        <time>2010-08-27T07:13:34Z</time>
      </trkpt>
      <trkpt lat="42.12281" lon="9.09046">
        <ele>1442.1149902</ele>
        <time>2010-08-27T07:13:41Z</time>
      </trkpt>
      <trkpt lat="42.12283" lon="9.09046">
        <ele>1442.5957031</ele>
        <time>2010-08-27T07:13:51Z</time>
      </trkpt>
      <trkpt lat="42.12284" lon="9.09046">
        <ele>1442.5957031</ele>
        <time>2010-08-27T07:13:52Z</time>
      </trkpt>
      <trkpt lat="42.1229" lon="9.09049">
        <ele>1443.0761719</ele>
        <time>2010-08-27T07:13:59Z</time>
      </trkpt>
      <trkpt lat="42.12294" lon="9.09047">
        <ele>1443.0761719</ele>
        <time>2010-08-27T07:14:05Z</time>
      </trkpt>
      <trkpt lat="42.12299" lon="9.09047">
        <ele>1445.4794922</ele>
        <time>2010-08-27T07:14:12Z</time>
      </trkpt>
      <trkpt lat="42.12302" lon="9.09047">
        <ele>1446.440918</ele>
        <time>2010-08-27T07:14:17Z</time>
      </trkpt>
      <trkpt lat="42.12307" lon="9.09042">
        <ele>1446.440918</ele>
        <time>2010-08-27T07:14:23Z</time>
      </trkpt>
      <trkpt lat="42.12312" lon="9.09039">
        <ele>1446.9213867</ele>
        <time>2010-08-27T07:14:29Z</time>
      </trkpt>
      <trkpt lat="42.12317" lon="9.09036">
        <ele>1445.4794922</ele>
        <time>2010-08-27T07:14:35Z</time>
      </trkpt>
      <trkpt lat="42.12321" lon="9.09039">
        <ele>1446.440918</ele>
        <time>2010-08-27T07:14:41Z</time>
      </trkpt>
      <trkpt lat="42.12322" lon="9.09039">
        <ele>1446.440918</ele>
        <time>2010-08-27T07:14:42Z</time>
      </trkpt>
      <trkpt lat="42.12328" lon="9.09033">
        <ele>1447.4020996</ele>
        <time>2010-08-27T07:14:50Z</time>
      </trkpt>
      <trkpt lat="42.12333" lon="9.09032">
        <ele>1448.3632812</ele>
        <time>2010-08-27T07:14:57Z</time>
      </trkpt>
      <trkpt lat="42.1234" lon="9.09029">
        <ele>1448.8439941</ele>
        <time>2010-08-27T07:15:05Z</time>
      </trkpt>
      <trkpt lat="42.12345" lon="9.09028">
        <ele>1450.2861328</ele>
        <time>2010-08-27T07:15:11Z</time>
      </trkpt>
      <trkpt lat="42.1235" lon="9.09026">
        <ele>1450.7666016</ele>
        <time>2010-08-27T07:15:18Z</time>
      </trkpt>
      <trkpt lat="42.12353" lon="9.09022">
        <ele>1453.170166</ele>
        <time>2010-08-27T07:15:25Z</time>
      </trkpt>
      <trkpt lat="42.12358" lon="9.0902">
        <ele>1456.0539551</ele>
        <time>2010-08-27T07:15:32Z</time>
      </trkpt>
      <trkpt lat="42.1236" lon="9.09017">
        <ele>1455.0927734</ele>
        <time>2010-08-27T07:15:40Z</time>
      </trkpt>
      <trkpt lat="42.12362" lon="9.09013">
        <ele>1452.2087402</ele>
        <time>2010-08-27T07:15:55Z</time>
      </trkpt>
      <trkpt lat="42.12364" lon="9.0901">
        <ele>1452.2087402</ele>
        <time>2010-08-27T07:15:58Z</time>
      </trkpt>
      <trkpt lat="42.12368" lon="9.09004">
        <ele>1455.0927734</ele>
        <time>2010-08-27T07:16:06Z</time>
      </trkpt>
      <trkpt lat="42.1237" lon="9.08998">
        <ele>1457.0153809</ele>
        <time>2010-08-27T07:16:13Z</time>
      </trkpt>
      <trkpt lat="42.12376" lon="9.08999">
        <ele>1460.3798828</ele>
        <time>2010-08-27T07:16:20Z</time>
      </trkpt>
      <trkpt lat="42.12383" lon="9.09002">
        <ele>1462.3024902</ele>
        <time>2010-08-27T07:16:29Z</time>
      </trkpt>
      <trkpt lat="42.12383" lon="9.09003">
        <ele>1462.7832031</ele>
        <time>2010-08-27T07:16:30Z</time>
      </trkpt>
      <trkpt lat="42.12388" lon="9.09003">
        <ele>1465.1865234</ele>
        <time>2010-08-27T07:16:37Z</time>
      </trkpt>
      <trkpt lat="42.12392" lon="9.08999">
        <ele>1465.1865234</ele>
        <time>2010-08-27T07:16:41Z</time>
      </trkpt>
      <trkpt lat="42.12397" lon="9.08992">
        <ele>1465.6672363</ele>
        <time>2010-08-27T07:16:49Z</time>
      </trkpt>
      <trkpt lat="42.12402" lon="9.08988">
        <ele>1466.628418</ele>
        <time>2010-08-27T07:16:57Z</time>
      </trkpt>
      <trkpt lat="42.12405" lon="9.08984">
        <ele>1467.5895996</ele>
        <time>2010-08-27T07:17:02Z</time>
      </trkpt>
      <trkpt lat="42.12408" lon="9.0898">
        <ele>1468.0705566</ele>
        <time>2010-08-27T07:17:08Z</time>
      </trkpt>
      <trkpt lat="42.12413" lon="9.08979">
        <ele>1469.0319824</ele>
        <time>2010-08-27T07:17:14Z</time>
      </trkpt>
      <trkpt lat="42.12416" lon="9.08979">
        <ele>1469.5126953</ele>
        <time>2010-08-27T07:17:17Z</time>
      </trkpt>
      <trkpt lat="42.12422" lon="9.08979">
        <ele>1470.473877</ele>
        <time>2010-08-27T07:17:24Z</time>
      </trkpt>
      <trkpt lat="42.12424" lon="9.08975">
        <ele>1471.4350586</ele>
        <time>2010-08-27T07:17:30Z</time>
      </trkpt>
      <trkpt lat="42.12428" lon="9.08971">
        <ele>1472.3964844</ele>
        <time>2010-08-27T07:17:37Z</time>
      </trkpt>
      <trkpt lat="42.12432" lon="9.08969">
        <ele>1474.3190918</ele>
        <time>2010-08-27T07:17:43Z</time>
      </trkpt>
      <trkpt lat="42.12437" lon="9.08968">
        <ele>1477.203125</ele>
        <time>2010-08-27T07:17:50Z</time>
      </trkpt>
      <trkpt lat="42.12442" lon="9.08968">
        <ele>1478.6450195</ele>
        <time>2010-08-27T07:17:56Z</time>
      </trkpt>
      <trkpt lat="42.12446" lon="9.08962">
        <ele>1481.5288086</ele>
        <time>2010-08-27T07:18:04Z</time>
      </trkpt>
      <trkpt lat="42.12451" lon="9.08962">
        <ele>1483.451416</ele>
        <time>2010-08-27T07:18:11Z</time>
      </trkpt>
      <trkpt lat="42.12457" lon="9.0896">
        <ele>1482.9707031</ele>
        <time>2010-08-27T07:18:18Z</time>
      </trkpt>
      <trkpt lat="42.12459" lon="9.08958">
        <ele>1482.0095215</ele>
        <time>2010-08-27T07:18:24Z</time>
      </trkpt>
      <trkpt lat="42.12463" lon="9.08957">
        <ele>1482.0095215</ele>
        <time>2010-08-27T07:18:31Z</time>
      </trkpt>
      <trkpt lat="42.12468" lon="9.08955">
        <ele>1482.0095215</ele>
        <time>2010-08-27T07:18:38Z</time>
      </trkpt>
      <trkpt lat="42.12472" lon="9.08957">
        <ele>1482.9707031</ele>
        <time>2010-08-27T07:18:44Z</time>
      </trkpt>
      <trkpt lat="42.12477" lon="9.08954">
        <ele>1483.451416</ele>
        <time>2010-08-27T07:18:52Z</time>
      </trkpt>
      <trkpt lat="42.1248" lon="9.08949">
        <ele>1484.8937988</ele>
        <time>2010-08-27T07:18:58Z</time>
      </trkpt>
      <trkpt lat="42.12485" lon="9.08947">
        <ele>1485.8549805</ele>
        <time>2010-08-27T07:19:04Z</time>
      </trkpt>
      <trkpt lat="42.1249" lon="9.08945">
        <ele>1485.3742676</ele>
        <time>2010-08-27T07:19:11Z</time>
      </trkpt>
      <trkpt lat="42.12494" lon="9.08944">
        <ele>1485.3742676</ele>
        <time>2010-08-27T07:19:17Z</time>
      </trkpt>
      <trkpt lat="42.12499" lon="9.08945">
        <ele>1485.8549805</ele>
        <time>2010-08-27T07:19:24Z</time>
      </trkpt>
      <trkpt lat="42.12503" lon="9.08944">
        <ele>1487.296875</ele>
        <time>2010-08-27T07:19:29Z</time>
      </trkpt>
      <trkpt lat="42.12507" lon="9.08942">
        <ele>1488.2583008</ele>
        <time>2010-08-27T07:19:36Z</time>
      </trkpt>
      <trkpt lat="42.1251" lon="9.08939">
        <ele>1489.2194824</ele>
        <time>2010-08-27T07:19:42Z</time>
      </trkpt>
      <trkpt lat="42.12512" lon="9.0893">
        <ele>1489.2194824</ele>
        <time>2010-08-27T07:19:50Z</time>
      </trkpt>
      <trkpt lat="42.12512" lon="9.08921">
        <ele>1490.1809082</ele>
        <time>2010-08-27T07:19:58Z</time>
      </trkpt>
      <trkpt lat="42.12513" lon="9.08917">
        <ele>1490.1809082</ele>
        <time>2010-08-27T07:20:02Z</time>
      </trkpt>
      <trkpt lat="42.12516" lon="9.08911">
        <ele>1486.8161621</ele>
        <time>2010-08-27T07:20:08Z</time>
      </trkpt>
      <trkpt lat="42.12518" lon="9.08907">
        <ele>1487.296875</ele>
        <time>2010-08-27T07:20:13Z</time>
      </trkpt>
      <trkpt lat="42.1252" lon="9.08909">
        <ele>1488.2583008</ele>
        <time>2010-08-27T07:20:19Z</time>
      </trkpt>
      <trkpt lat="42.12522" lon="9.08913">
        <ele>1491.1420898</ele>
        <time>2010-08-27T07:20:26Z</time>
      </trkpt>
      <trkpt lat="42.12524" lon="9.0891">
        <ele>1493.0646973</ele>
        <time>2010-08-27T07:20:33Z</time>
      </trkpt>
      <trkpt lat="42.12525" lon="9.08904">
        <ele>1493.5454102</ele>
        <time>2010-08-27T07:20:40Z</time>
      </trkpt>
      <trkpt lat="42.12526" lon="9.08899">
        <ele>1494.026123</ele>
        <time>2010-08-27T07:20:47Z</time>
      </trkpt>
      <trkpt lat="42.12527" lon="9.08895">
        <ele>1494.5065918</ele>
        <time>2010-08-27T07:20:55Z</time>
      </trkpt>
      <trkpt lat="42.12528" lon="9.0889">
        <ele>1494.9873047</ele>
        <time>2010-08-27T07:21:02Z</time>
      </trkpt>
      <trkpt lat="42.12529" lon="9.08887">
        <ele>1495.4680176</ele>
        <time>2010-08-27T07:21:08Z</time>
      </trkpt>
      <trkpt lat="42.12529" lon="9.08882">
        <ele>1496.4294434</ele>
        <time>2010-08-27T07:21:14Z</time>
      </trkpt>
      <trkpt lat="42.12531" lon="9.08882">
        <ele>1498.3518066</ele>
        <time>2010-08-27T07:21:20Z</time>
      </trkpt>
      <trkpt lat="42.12533" lon="9.08882">
        <ele>1500.7553711</ele>
        <time>2010-08-27T07:21:27Z</time>
      </trkpt>
      <trkpt lat="42.12534" lon="9.08879">
        <ele>1501.7167969</ele>
        <time>2010-08-27T07:21:35Z</time>
      </trkpt>
      <trkpt lat="42.12538" lon="9.08877">
        <ele>1502.6779785</ele>
        <time>2010-08-27T07:21:42Z</time>
      </trkpt>
      <trkpt lat="42.12534" lon="9.08877">
        <ele>1507.0039062</ele>
        <time>2010-08-27T07:21:54Z</time>
      </trkpt>
      <trkpt lat="42.12536" lon="9.08877">
        <ele>1508.4458008</ele>
        <time>2010-08-27T07:22:01Z</time>
      </trkpt>
      <trkpt lat="42.12536" lon="9.08873">
        <ele>1507.965332</ele>
        <time>2010-08-27T07:22:06Z</time>
      </trkpt>
      <trkpt lat="42.12539" lon="9.08869">
        <ele>1504.6005859</ele>
        <time>2010-08-27T07:22:23Z</time>
      </trkpt>
      <trkpt lat="42.1254" lon="9.08868">
        <ele>1504.6005859</ele>
        <time>2010-08-27T07:22:24Z</time>
      </trkpt>
      <trkpt lat="42.12541" lon="9.08864">
        <ele>1504.1201172</ele>
        <time>2010-08-27T07:22:27Z</time>
      </trkpt>
      <trkpt lat="42.12544" lon="9.08859">
        <ele>1504.1201172</ele>
        <time>2010-08-27T07:22:33Z</time>
      </trkpt>
      <trkpt lat="42.12546" lon="9.08856">
        <ele>1506.0424805</ele>
        <time>2010-08-27T07:22:38Z</time>
      </trkpt>
      <trkpt lat="42.12548" lon="9.08853">
        <ele>1507.4846191</ele>
        <time>2010-08-27T07:22:44Z</time>
      </trkpt>
      <trkpt lat="42.12552" lon="9.08851">
        <ele>1508.9265137</ele>
        <time>2010-08-27T07:22:50Z</time>
      </trkpt>
      <trkpt lat="42.12554" lon="9.08843">
        <ele>1509.8876953</ele>
        <time>2010-08-27T07:22:57Z</time>
      </trkpt>
      <trkpt lat="42.12557" lon="9.08837">
        <ele>1510.3684082</ele>
        <time>2010-08-27T07:23:04Z</time>
      </trkpt>
      <trkpt lat="42.1256" lon="9.08834">
        <ele>1512.7717285</ele>
        <time>2010-08-27T07:23:11Z</time>
      </trkpt>
      <trkpt lat="42.12567" lon="9.08825">
        <ele>1513.2524414</ele>
        <time>2010-08-27T07:23:21Z</time>
      </trkpt>
      <trkpt lat="42.12568" lon="9.08823">
        <ele>1514.6943359</ele>
        <time>2010-08-27T07:23:28Z</time>
      </trkpt>
      <trkpt lat="42.12573" lon="9.08822">
        <ele>1513.2524414</ele>
        <time>2010-08-27T07:23:38Z</time>
      </trkpt>
      <trkpt lat="42.12576" lon="9.08823">
        <ele>1514.6943359</ele>
        <time>2010-08-27T07:23:44Z</time>
      </trkpt>
      <trkpt lat="42.1258" lon="9.08822">
        <ele>1516.6171875</ele>
        <time>2010-08-27T07:23:50Z</time>
      </trkpt>
      <trkpt lat="42.12583" lon="9.08821">
        <ele>1517.5783691</ele>
        <time>2010-08-27T07:23:56Z</time>
      </trkpt>
      <trkpt lat="42.12587" lon="9.08819">
        <ele>1518.059082</ele>
        <time>2010-08-27T07:24:04Z</time>
      </trkpt>
      <trkpt lat="42.12589" lon="9.08815">
        <ele>1519.0205078</ele>
        <time>2010-08-27T07:24:09Z</time>
      </trkpt>
      <trkpt lat="42.12592" lon="9.08814">
        <ele>1519.5012207</ele>
        <time>2010-08-27T07:24:13Z</time>
      </trkpt>
      <trkpt lat="42.12599" lon="9.08804">
        <ele>1519.0205078</ele>
        <time>2010-08-27T07:24:23Z</time>
      </trkpt>
      <trkpt lat="42.12599" lon="9.08804">
        <ele>1519.0205078</ele>
        <time>2010-08-27T07:24:24Z</time>
      </trkpt>
      <trkpt lat="42.12607" lon="9.08798">
        <ele>1519.0205078</ele>
        <time>2010-08-27T07:24:33Z</time>
      </trkpt>
      <trkpt lat="42.12607" lon="9.08796">
        <ele>1517.0979004</ele>
        <time>2010-08-27T07:24:39Z</time>
      </trkpt>
      <trkpt lat="42.12611" lon="9.08794">
        <ele>1513.2524414</ele>
        <time>2010-08-27T07:24:54Z</time>
      </trkpt>
      <trkpt lat="42.12614" lon="9.08794">
        <ele>1513.7329102</ele>
        <time>2010-08-27T07:25:00Z</time>
      </trkpt>
      <trkpt lat="42.12613" lon="9.08793">
        <ele>1512.2910156</ele>
        <time>2010-08-27T07:25:16Z</time>
      </trkpt>
      <trkpt lat="42.12613" lon="9.08789">
        <ele>1512.2910156</ele>
        <time>2010-08-27T07:25:20Z</time>
      </trkpt>
      <trkpt lat="42.12616" lon="9.08777">
        <ele>1512.2910156</ele>
        <time>2010-08-27T07:25:29Z</time>
      </trkpt>
      <trkpt lat="42.12622" lon="9.08766">
        <ele>1512.2910156</ele>
        <time>2010-08-27T07:25:37Z</time>
      </trkpt>
      <trkpt lat="42.12625" lon="9.08758">
        <ele>1513.2524414</ele>
        <time>2010-08-27T07:25:43Z</time>
      </trkpt>
      <trkpt lat="42.12629" lon="9.08755">
        <ele>1518.059082</ele>
        <time>2010-08-27T07:25:50Z</time>
      </trkpt>
      <trkpt lat="42.1263" lon="9.08755">
        <ele>1518.5397949</ele>
        <time>2010-08-27T07:25:51Z</time>
      </trkpt>
      <trkpt lat="42.12636" lon="9.08754">
        <ele>1521.423584</ele>
        <time>2010-08-27T07:25:58Z</time>
      </trkpt>
      <trkpt lat="42.1264" lon="9.08754">
        <ele>1522.8657227</ele>
        <time>2010-08-27T07:26:03Z</time>
      </trkpt>
      <trkpt lat="42.12644" lon="9.08755">
        <ele>1524.3076172</ele>
        <time>2010-08-27T07:26:10Z</time>
      </trkpt>
      <trkpt lat="42.12649" lon="9.08758">
        <ele>1524.7883301</ele>
        <time>2010-08-27T07:26:16Z</time>
      </trkpt>
      <trkpt lat="42.1265" lon="9.08758">
        <ele>1524.7883301</ele>
        <time>2010-08-27T07:26:17Z</time>
      </trkpt>
      <trkpt lat="42.12656" lon="9.08759">
        <ele>1524.3076172</ele>
        <time>2010-08-27T07:26:23Z</time>
      </trkpt>
      <trkpt lat="42.12662" lon="9.08755">
        <ele>1523.8269043</ele>
        <time>2010-08-27T07:26:30Z</time>
      </trkpt>
      <trkpt lat="42.12668" lon="9.08756">
        <ele>1524.7883301</ele>
        <time>2010-08-27T07:26:37Z</time>
      </trkpt>
      <trkpt lat="42.12672" lon="9.08757">
        <ele>1525.2687988</ele>
        <time>2010-08-27T07:26:44Z</time>
      </trkpt>
      <trkpt lat="42.12673" lon="9.08758">
        <ele>1527.1916504</ele>
        <time>2010-08-27T07:26:48Z</time>
      </trkpt>
      <trkpt lat="42.12677" lon="9.08757">
        <ele>1528.6335449</ele>
        <time>2010-08-27T07:26:54Z</time>
      </trkpt>
      <trkpt lat="42.12683" lon="9.08759">
        <ele>1530.0754395</ele>
        <time>2010-08-27T07:27:03Z</time>
      </trkpt>
      <trkpt lat="42.12687" lon="9.0876">
        <ele>1527.6721191</ele>
        <time>2010-08-27T07:27:09Z</time>
      </trkpt>
      <trkpt lat="42.12694" lon="9.08759">
        <ele>1525.7495117</ele>
        <time>2010-08-27T07:27:17Z</time>
      </trkpt>
      <trkpt lat="42.12696" lon="9.0876">
        <ele>1526.7109375</ele>
        <time>2010-08-27T07:27:23Z</time>
      </trkpt>
      <trkpt lat="42.12695" lon="9.08762">
        <ele>1529.1140137</ele>
        <time>2010-08-27T07:27:29Z</time>
      </trkpt>
      <trkpt lat="42.12699" lon="9.08762">
        <ele>1531.9980469</ele>
        <time>2010-08-27T07:27:36Z</time>
      </trkpt>
      <trkpt lat="42.12702" lon="9.08763">
        <ele>1533.9208984</ele>
        <time>2010-08-27T07:27:42Z</time>
      </trkpt>
      <trkpt lat="42.12709" lon="9.08764">
        <ele>1535.8435059</ele>
        <time>2010-08-27T07:27:51Z</time>
      </trkpt>
      <trkpt lat="42.12714" lon="9.08766">
        <ele>1535.8435059</ele>
        <time>2010-08-27T07:27:57Z</time>
      </trkpt>
      <trkpt lat="42.12718" lon="9.08766">
        <ele>1536.3242188</ele>
        <time>2010-08-27T07:28:02Z</time>
      </trkpt>
      <trkpt lat="42.12723" lon="9.08765">
        <ele>1537.7661133</ele>
        <time>2010-08-27T07:28:09Z</time>
      </trkpt>
      <trkpt lat="42.12727" lon="9.08764">
        <ele>1537.7661133</ele>
        <time>2010-08-27T07:28:15Z</time>
      </trkpt>
      <trkpt lat="42.12731" lon="9.08766">
        <ele>1539.2080078</ele>
        <time>2010-08-27T07:28:22Z</time>
      </trkpt>
      <trkpt lat="42.12732" lon="9.08764">
        <ele>1544.4951172</ele>
        <time>2010-08-27T07:28:28Z</time>
      </trkpt>
      <trkpt lat="42.12731" lon="9.08768">
        <ele>1547.8598633</ele>
        <time>2010-08-27T07:28:37Z</time>
      </trkpt>
      <trkpt lat="42.12732" lon="9.08768">
        <ele>1551.2246094</ele>
        <time>2010-08-27T07:28:46Z</time>
      </trkpt>
      <trkpt lat="42.12738" lon="9.08775">
        <ele>1546.8984375</ele>
        <time>2010-08-27T07:28:56Z</time>
      </trkpt>
      <trkpt lat="42.12745" lon="9.08775">
        <ele>1555.5505371</ele>
        <time>2010-08-27T07:29:12Z</time>
      </trkpt>
      <trkpt lat="42.12749" lon="9.08775">
        <ele>1554.1086426</ele>
        <time>2010-08-27T07:29:17Z</time>
      </trkpt>
      <trkpt lat="42.12754" lon="9.08775">
        <ele>1555.5505371</ele>
        <time>2010-08-27T07:29:25Z</time>
      </trkpt>
      <trkpt lat="42.12758" lon="9.08776">
        <ele>1555.0698242</ele>
        <time>2010-08-27T07:29:30Z</time>
      </trkpt>
      <trkpt lat="42.12763" lon="9.08775">
        <ele>1553.6279297</ele>
        <time>2010-08-27T07:29:35Z</time>
      </trkpt>
      <trkpt lat="42.12766" lon="9.08776">
        <ele>1554.5891113</ele>
        <time>2010-08-27T07:29:41Z</time>
      </trkpt>
      <trkpt lat="42.12772" lon="9.08778">
        <ele>1553.1472168</ele>
        <time>2010-08-27T07:29:46Z</time>
      </trkpt>
      <trkpt lat="42.12779" lon="9.08775">
        <ele>1556.0310059</ele>
        <time>2010-08-27T07:29:53Z</time>
      </trkpt>
      <trkpt lat="42.12781" lon="9.08774">
        <ele>1562.279541</ele>
        <time>2010-08-27T07:29:57Z</time>
      </trkpt>
      <trkpt lat="42.12785" lon="9.08773">
        <ele>1562.279541</ele>
        <time>2010-08-27T07:30:01Z</time>
      </trkpt>
      <trkpt lat="42.12789" lon="9.08772">
        <ele>1563.2409668</ele>
        <time>2010-08-27T07:30:06Z</time>
      </trkpt>
      <trkpt lat="42.12798" lon="9.08772">
        <ele>1564.6831055</ele>
        <time>2010-08-27T07:30:25Z</time>
      </trkpt>
      <trkpt lat="42.12806" lon="9.08776">
        <ele>1564.6831055</ele>
        <time>2010-08-27T07:30:40Z</time>
      </trkpt>
      <trkpt lat="42.12812" lon="9.08778">
        <ele>1563.7214355</ele>
        <time>2010-08-27T07:30:47Z</time>
      </trkpt>
      <trkpt lat="42.12814" lon="9.08779">
        <ele>1564.6831055</ele>
        <time>2010-08-27T07:30:51Z</time>
      </trkpt>
      <trkpt lat="42.12815" lon="9.08777">
        <ele>1572.3735352</ele>
        <time>2010-08-27T07:30:57Z</time>
      </trkpt>
      <trkpt lat="42.12828" lon="9.08782">
        <ele>1567.5668945</ele>
        <time>2010-08-27T07:31:14Z</time>
      </trkpt>
      <trkpt lat="42.12833" lon="9.08784">
        <ele>1566.6057129</ele>
        <time>2010-08-27T07:31:22Z</time>
      </trkpt>
      <trkpt lat="42.12837" lon="9.08786">
        <ele>1566.6057129</ele>
        <time>2010-08-27T07:31:30Z</time>
      </trkpt>
      <trkpt lat="42.1284" lon="9.08783">
        <ele>1568.5283203</ele>
        <time>2010-08-27T07:31:36Z</time>
      </trkpt>
      <trkpt lat="42.12845" lon="9.08776">
        <ele>1571.4121094</ele>
        <time>2010-08-27T07:31:43Z</time>
      </trkpt>
      <trkpt lat="42.12847" lon="9.08772">
        <ele>1574.7768555</ele>
        <time>2010-08-27T07:31:48Z</time>
      </trkpt>
      <trkpt lat="42.12856" lon="9.08767">
        <ele>1579.583252</ele>
        <time>2010-08-27T07:32:03Z</time>
      </trkpt>
      <trkpt lat="42.12877" lon="9.0876">
        <ele>1582.947998</ele>
        <time>2010-08-27T07:32:36Z</time>
      </trkpt>
      <trkpt lat="42.1288" lon="9.08759">
        <ele>1582.4675293</ele>
        <time>2010-08-27T07:32:40Z</time>
      </trkpt>
      <trkpt lat="42.12884" lon="9.08755">
        <ele>1584.8708496</ele>
        <time>2010-08-27T07:32:46Z</time>
      </trkpt>
      <trkpt lat="42.12889" lon="9.08754">
        <ele>1581.9868164</ele>
        <time>2010-08-27T07:32:52Z</time>
      </trkpt>
      <trkpt lat="42.12892" lon="9.0875">
        <ele>1581.9868164</ele>
        <time>2010-08-27T07:32:59Z</time>
      </trkpt>
      <trkpt lat="42.12898" lon="9.08745">
        <ele>1584.8708496</ele>
        <time>2010-08-27T07:33:06Z</time>
      </trkpt>
      <trkpt lat="42.12902" lon="9.08741">
        <ele>1584.8708496</ele>
        <time>2010-08-27T07:33:12Z</time>
      </trkpt>
      <trkpt lat="42.12905" lon="9.08736">
        <ele>1584.8708496</ele>
        <time>2010-08-27T07:33:19Z</time>
      </trkpt>
      <trkpt lat="42.12908" lon="9.08729">
        <ele>1583.9094238</ele>
        <time>2010-08-27T07:33:29Z</time>
      </trkpt>
      <trkpt lat="42.12914" lon="9.08732">
        <ele>1574.2961426</ele>
        <time>2010-08-27T07:33:46Z</time>
      </trkpt>
      <trkpt lat="42.12914" lon="9.08719">
        <ele>1584.8708496</ele>
        <time>2010-08-27T07:33:59Z</time>
      </trkpt>
      <trkpt lat="42.12915" lon="9.08721">
        <ele>1586.3127441</ele>
        <time>2010-08-27T07:34:05Z</time>
      </trkpt>
      <trkpt lat="42.12914" lon="9.08719">
        <ele>1587.7546387</ele>
        <time>2010-08-27T07:34:11Z</time>
      </trkpt>
      <trkpt lat="42.12916" lon="9.08716">
        <ele>1589.1965332</ele>
        <time>2010-08-27T07:34:17Z</time>
      </trkpt>
      <trkpt lat="42.12919" lon="9.08718">
        <ele>1590.157959</ele>
        <time>2010-08-27T07:34:22Z</time>
      </trkpt>
      <trkpt lat="42.1292" lon="9.08715">
        <ele>1591.1191406</ele>
        <time>2010-08-27T07:34:27Z</time>
      </trkpt>
      <trkpt lat="42.12922" lon="9.08709">
        <ele>1591.5998535</ele>
        <time>2010-08-27T07:34:34Z</time>
      </trkpt>
      <trkpt lat="42.12924" lon="9.08708">
        <ele>1592.5612793</ele>
        <time>2010-08-27T07:34:39Z</time>
      </trkpt>
      <trkpt lat="42.12925" lon="9.08706">
        <ele>1594.0031738</ele>
        <time>2010-08-27T07:34:44Z</time>
      </trkpt>
      <trkpt lat="42.12926" lon="9.08706">
        <ele>1595.9257812</ele>
        <time>2010-08-27T07:34:50Z</time>
      </trkpt>
      <trkpt lat="42.12927" lon="9.08707">
        <ele>1597.3679199</ele>
        <time>2010-08-27T07:34:56Z</time>
      </trkpt>
      <trkpt lat="42.1293" lon="9.08707">
        <ele>1598.8098145</ele>
        <time>2010-08-27T07:35:03Z</time>
      </trkpt>
      <trkpt lat="42.12932" lon="9.08707">
        <ele>1599.7712402</ele>
        <time>2010-08-27T07:35:09Z</time>
      </trkpt>
      <trkpt lat="42.12934" lon="9.08705">
        <ele>1600.7324219</ele>
        <time>2010-08-27T07:35:15Z</time>
      </trkpt>
      <trkpt lat="42.12933" lon="9.08699">
        <ele>1600.7324219</ele>
        <time>2010-08-27T07:35:22Z</time>
      </trkpt>
      <trkpt lat="42.12934" lon="9.08695">
        <ele>1601.2131348</ele>
        <time>2010-08-27T07:35:29Z</time>
      </trkpt>
      <trkpt lat="42.12934" lon="9.08693">
        <ele>1601.6938477</ele>
        <time>2010-08-27T07:35:34Z</time>
      </trkpt>
      <trkpt lat="42.12934" lon="9.08688">
        <ele>1603.1357422</ele>
        <time>2010-08-27T07:35:40Z</time>
      </trkpt>
      <trkpt lat="42.12934" lon="9.08683">
        <ele>1604.5776367</ele>
        <time>2010-08-27T07:35:48Z</time>
      </trkpt>
      <trkpt lat="42.12934" lon="9.08678">
        <ele>1606.5002441</ele>
        <time>2010-08-27T07:35:56Z</time>
      </trkpt>
      <trkpt lat="42.12934" lon="9.08671">
        <ele>1608.4228516</ele>
        <time>2010-08-27T07:36:04Z</time>
      </trkpt>
      <trkpt lat="42.12934" lon="9.08664">
        <ele>1610.345459</ele>
        <time>2010-08-27T07:36:12Z</time>
      </trkpt>
      <trkpt lat="42.12935" lon="9.08658">
        <ele>1611.7875977</ele>
        <time>2010-08-27T07:36:18Z</time>
      </trkpt>
      <trkpt lat="42.12934" lon="9.08648">
        <ele>1612.7490234</ele>
        <time>2010-08-27T07:36:27Z</time>
      </trkpt>
      <trkpt lat="42.12935" lon="9.08644">
        <ele>1613.7102051</ele>
        <time>2010-08-27T07:36:33Z</time>
      </trkpt>
      <trkpt lat="42.12934" lon="9.08639">
        <ele>1615.1523438</ele>
        <time>2010-08-27T07:36:41Z</time>
      </trkpt>
      <trkpt lat="42.12933" lon="9.08633">
        <ele>1615.6330566</ele>
        <time>2010-08-27T07:36:49Z</time>
      </trkpt>
      <trkpt lat="42.12931" lon="9.08634">
        <ele>1617.5554199</ele>
        <time>2010-08-27T07:36:58Z</time>
      </trkpt>
      <trkpt lat="42.12932" lon="9.08634">
        <ele>1616.5942383</ele>
        <time>2010-08-27T07:37:04Z</time>
      </trkpt>
      <trkpt lat="42.12933" lon="9.08635">
        <ele>1617.0749512</ele>
        <time>2010-08-27T07:37:12Z</time>
      </trkpt>
      <trkpt lat="42.12932" lon="9.08634">
        <ele>1617.5554199</ele>
        <time>2010-08-27T07:37:27Z</time>
      </trkpt>
      <trkpt lat="42.12927" lon="9.08635">
        <ele>1621.8813477</ele>
        <time>2010-08-27T07:38:06Z</time>
      </trkpt>
      <trkpt lat="42.12928" lon="9.08636">
        <ele>1620.920166</ele>
        <time>2010-08-27T07:38:13Z</time>
      </trkpt>
      <trkpt lat="42.12929" lon="9.08637">
        <ele>1621.8813477</ele>
        <time>2010-08-27T07:38:34Z</time>
      </trkpt>
      <trkpt lat="42.12935" lon="9.08628">
        <ele>1621.8813477</ele>
        <time>2010-08-27T07:38:42Z</time>
      </trkpt>
      <trkpt lat="42.12936" lon="9.08627">
        <ele>1621.8813477</ele>
        <time>2010-08-27T07:38:43Z</time>
      </trkpt>
      <trkpt lat="42.1294" lon="9.0862">
        <ele>1620.4394531</ele>
        <time>2010-08-27T07:38:50Z</time>
      </trkpt>
      <trkpt lat="42.12944" lon="9.08617">
        <ele>1619.9587402</ele>
        <time>2010-08-27T07:38:56Z</time>
      </trkpt>
      <trkpt lat="42.12949" lon="9.08613">
        <ele>1618.9975586</ele>
        <time>2010-08-27T07:39:01Z</time>
      </trkpt>
      <trkpt lat="42.12956" lon="9.08618">
        <ele>1620.920166</ele>
        <time>2010-08-27T07:39:09Z</time>
      </trkpt>
      <trkpt lat="42.1296" lon="9.08619">
        <ele>1622.3620605</ele>
        <time>2010-08-27T07:39:14Z</time>
      </trkpt>
      <trkpt lat="42.12964" lon="9.08617">
        <ele>1624.284668</ele>
        <time>2010-08-27T07:39:20Z</time>
      </trkpt>
      <trkpt lat="42.12966" lon="9.08615">
        <ele>1625.2458496</ele>
        <time>2010-08-27T07:39:23Z</time>
      </trkpt>
      <trkpt lat="42.1297" lon="9.08612">
        <ele>1624.7653809</ele>
        <time>2010-08-27T07:39:29Z</time>
      </trkpt>
      <trkpt lat="42.12977" lon="9.08611">
        <ele>1623.3234863</ele>
        <time>2010-08-27T07:39:37Z</time>
      </trkpt>
      <trkpt lat="42.12983" lon="9.08608">
        <ele>1623.8039551</ele>
        <time>2010-08-27T07:39:45Z</time>
      </trkpt>
      <trkpt lat="42.12988" lon="9.08607">
        <ele>1624.7653809</ele>
        <time>2010-08-27T07:39:52Z</time>
      </trkpt>
      <trkpt lat="42.12993" lon="9.08605">
        <ele>1624.7653809</ele>
        <time>2010-08-27T07:39:59Z</time>
      </trkpt>
      <trkpt lat="42.12997" lon="9.08602">
        <ele>1625.7265625</ele>
        <time>2010-08-27T07:40:04Z</time>
      </trkpt>
      <trkpt lat="42.13002" lon="9.08599">
        <ele>1624.7653809</ele>
        <time>2010-08-27T07:40:11Z</time>
      </trkpt>
      <trkpt lat="42.13008" lon="9.08595">
        <ele>1628.130127</ele>
        <time>2010-08-27T07:40:20Z</time>
      </trkpt>
      <trkpt lat="42.13012" lon="9.08591">
        <ele>1628.6108398</ele>
        <time>2010-08-27T07:40:27Z</time>
      </trkpt>
      <trkpt lat="42.13019" lon="9.0859">
        <ele>1629.5720215</ele>
        <time>2010-08-27T07:40:35Z</time>
      </trkpt>
      <trkpt lat="42.13025" lon="9.08588">
        <ele>1630.0527344</ele>
        <time>2010-08-27T07:40:41Z</time>
      </trkpt>
      <trkpt lat="42.13032" lon="9.08584">
        <ele>1630.0527344</ele>
        <time>2010-08-27T07:40:49Z</time>
      </trkpt>
      <trkpt lat="42.13037" lon="9.08585">
        <ele>1629.0913086</ele>
        <time>2010-08-27T07:40:55Z</time>
      </trkpt>
      <trkpt lat="42.13042" lon="9.08587">
        <ele>1629.5720215</ele>
        <time>2010-08-27T07:41:01Z</time>
      </trkpt>
      <trkpt lat="42.13045" lon="9.08586">
        <ele>1629.5720215</ele>
        <time>2010-08-27T07:41:05Z</time>
      </trkpt>
      <trkpt lat="42.1305" lon="9.08582">
        <ele>1631.0141602</ele>
        <time>2010-08-27T07:41:13Z</time>
      </trkpt>
      <trkpt lat="42.13053" lon="9.08578">
        <ele>1632.9365234</ele>
        <time>2010-08-27T07:41:20Z</time>
      </trkpt>
      <trkpt lat="42.13057" lon="9.08578">
        <ele>1633.8979492</ele>
        <time>2010-08-27T07:41:26Z</time>
      </trkpt>
      <trkpt lat="42.1306" lon="9.0858">
        <ele>1635.8205566</ele>
        <time>2010-08-27T07:41:31Z</time>
      </trkpt>
      <trkpt lat="42.13064" lon="9.08581">
        <ele>1638.7045898</ele>
        <time>2010-08-27T07:41:38Z</time>
      </trkpt>
      <trkpt lat="42.13066" lon="9.08581">
        <ele>1640.1464844</ele>
        <time>2010-08-27T07:41:43Z</time>
      </trkpt>
      <trkpt lat="42.13071" lon="9.08579">
        <ele>1640.1464844</ele>
        <time>2010-08-27T07:41:50Z</time>
      </trkpt>
      <trkpt lat="42.13076" lon="9.0858">
        <ele>1639.1850586</ele>
        <time>2010-08-27T07:41:56Z</time>
      </trkpt>
      <trkpt lat="42.1308" lon="9.08581">
        <ele>1640.6269531</ele>
        <time>2010-08-27T07:42:02Z</time>
      </trkpt>
      <trkpt lat="42.13085" lon="9.08583">
        <ele>1640.6269531</ele>
        <time>2010-08-27T07:42:08Z</time>
      </trkpt>
      <trkpt lat="42.1309" lon="9.08585">
        <ele>1642.5498047</ele>
        <time>2010-08-27T07:42:16Z</time>
      </trkpt>
      <trkpt lat="42.13093" lon="9.08589">
        <ele>1645.9145508</ele>
        <time>2010-08-27T07:42:23Z</time>
      </trkpt>
      <trkpt lat="42.13094" lon="9.08595">
        <ele>1649.2790527</ele>
        <time>2010-08-27T07:42:32Z</time>
      </trkpt>
      <trkpt lat="42.13095" lon="9.08601">
        <ele>1650.2404785</ele>
        <time>2010-08-27T07:42:38Z</time>
      </trkpt>
      <trkpt lat="42.13099" lon="9.08604">
        <ele>1650.7209473</ele>
        <time>2010-08-27T07:42:45Z</time>
      </trkpt>
      <trkpt lat="42.13105" lon="9.08606">
        <ele>1651.2016602</ele>
        <time>2010-08-27T07:42:52Z</time>
      </trkpt>
      <trkpt lat="42.1311" lon="9.08608">
        <ele>1651.2016602</ele>
        <time>2010-08-27T07:42:59Z</time>
      </trkpt>
      <trkpt lat="42.13112" lon="9.08607">
        <ele>1651.682373</ele>
        <time>2010-08-27T07:43:04Z</time>
      </trkpt>
      <trkpt lat="42.13117" lon="9.08606">
        <ele>1651.2016602</ele>
        <time>2010-08-27T07:43:10Z</time>
      </trkpt>
      <trkpt lat="42.13121" lon="9.08606">
        <ele>1651.2016602</ele>
        <time>2010-08-27T07:43:16Z</time>
      </trkpt>
      <trkpt lat="42.13126" lon="9.08607">
        <ele>1652.6435547</ele>
        <time>2010-08-27T07:43:23Z</time>
      </trkpt>
      <trkpt lat="42.13129" lon="9.08608">
        <ele>1654.5661621</ele>
        <time>2010-08-27T07:43:29Z</time>
      </trkpt>
      <trkpt lat="42.13133" lon="9.08607">
        <ele>1655.5275879</ele>
        <time>2010-08-27T07:43:35Z</time>
      </trkpt>
      <trkpt lat="42.13134" lon="9.08609">
        <ele>1656.4887695</ele>
        <time>2010-08-27T07:43:40Z</time>
      </trkpt>
      <trkpt lat="42.13138" lon="9.08607">
        <ele>1656.9694824</ele>
        <time>2010-08-27T07:43:49Z</time>
      </trkpt>
      <trkpt lat="42.13143" lon="9.08606">
        <ele>1657.9309082</ele>
        <time>2010-08-27T07:43:56Z</time>
      </trkpt>
      <trkpt lat="42.13146" lon="9.08607">
        <ele>1658.8920898</ele>
        <time>2010-08-27T07:44:02Z</time>
      </trkpt>
      <trkpt lat="42.13149" lon="9.08607">
        <ele>1660.3342285</ele>
        <time>2010-08-27T07:44:09Z</time>
      </trkpt>
      <trkpt lat="42.13153" lon="9.08609">
        <ele>1661.7763672</ele>
        <time>2010-08-27T07:44:17Z</time>
      </trkpt>
      <trkpt lat="42.13154" lon="9.08609">
        <ele>1661.7763672</ele>
        <time>2010-08-27T07:44:23Z</time>
      </trkpt>
      <trkpt lat="42.13157" lon="9.08608">
        <ele>1663.6987305</ele>
        <time>2010-08-27T07:44:30Z</time>
      </trkpt>
      <trkpt lat="42.13157" lon="9.08607">
        <ele>1663.6987305</ele>
        <time>2010-08-27T07:44:37Z</time>
      </trkpt>
      <trkpt lat="42.13157" lon="9.08607">
        <ele>1663.6987305</ele>
        <time>2010-08-27T07:44:45Z</time>
      </trkpt>
      <trkpt lat="42.13159" lon="9.08607">
        <ele>1664.6601562</ele>
        <time>2010-08-27T07:44:55Z</time>
      </trkpt>
      <trkpt lat="42.13159" lon="9.08607">
        <ele>1664.6601562</ele>
        <time>2010-08-27T07:45:09Z</time>
      </trkpt>
      <trkpt lat="42.13158" lon="9.08607">
        <ele>1664.6601562</ele>
        <time>2010-08-27T07:45:25Z</time>
      </trkpt>
      <trkpt lat="42.13158" lon="9.08606">
        <ele>1662.7375488</ele>
        <time>2010-08-27T07:45:53Z</time>
      </trkpt>
      <trkpt lat="42.13158" lon="9.08605">
        <ele>1662.2568359</ele>
        <time>2010-08-27T07:46:02Z</time>
      </trkpt>
      <trkpt lat="42.13158" lon="9.08606">
        <ele>1663.2182617</ele>
        <time>2010-08-27T07:46:14Z</time>
      </trkpt>
      <trkpt lat="42.13159" lon="9.08603">
        <ele>1653.1242676</ele>
        <time>2010-08-27T07:46:33Z</time>
      </trkpt>
      <trkpt lat="42.13162" lon="9.08603">
        <ele>1642.0690918</ele>
        <time>2010-08-27T07:47:17Z</time>
      </trkpt>
      <trkpt lat="42.1316" lon="9.08603">
        <ele>1652.1628418</ele>
        <time>2010-08-27T07:48:02Z</time>
      </trkpt>
      <trkpt lat="42.13161" lon="9.08603">
        <ele>1650.2404785</ele>
        <time>2010-08-27T07:48:36Z</time>
      </trkpt>
      <trkpt lat="42.13156" lon="9.08606">
        <ele>1664.1794434</ele>
        <time>2010-08-27T07:49:06Z</time>
      </trkpt>
      <trkpt lat="42.13155" lon="9.08607">
        <ele>1669.4667969</ele>
        <time>2010-08-27T07:50:19Z</time>
      </trkpt>
      <trkpt lat="42.13156" lon="9.08605">
        <ele>1655.5275879</ele>
        <time>2010-08-27T07:51:05Z</time>
      </trkpt>
      <trkpt lat="42.13157" lon="9.08609">
        <ele>1662.2568359</ele>
        <time>2010-08-27T07:51:19Z</time>
      </trkpt>
      <trkpt lat="42.13155" lon="9.08609">
        <ele>1661.2956543</ele>
        <time>2010-08-27T07:51:27Z</time>
      </trkpt>
      <trkpt lat="42.13155" lon="9.08608">
        <ele>1661.2956543</ele>
        <time>2010-08-27T07:52:08Z</time>
      </trkpt>
      <trkpt lat="42.13155" lon="9.08605">
        <ele>1658.411377</ele>
        <time>2010-08-27T07:52:18Z</time>
      </trkpt>
      <trkpt lat="42.13156" lon="9.08602">
        <ele>1658.8920898</ele>
        <time>2010-08-27T07:52:59Z</time>
      </trkpt>
      <trkpt lat="42.13157" lon="9.08603">
        <ele>1653.1242676</ele>
        <time>2010-08-27T07:53:50Z</time>
      </trkpt>
      <trkpt lat="42.13154" lon="9.08603">
        <ele>1656.9694824</ele>
        <time>2010-08-27T07:53:59Z</time>
      </trkpt>
      <trkpt lat="42.13153" lon="9.08604">
        <ele>1662.7375488</ele>
        <time>2010-08-27T07:54:14Z</time>
      </trkpt>
      <trkpt lat="42.13155" lon="9.08605">
        <ele>1660.3342285</ele>
        <time>2010-08-27T07:54:33Z</time>
      </trkpt>
      <trkpt lat="42.13153" lon="9.08607">
        <ele>1668.5053711</ele>
        <time>2010-08-27T07:54:50Z</time>
      </trkpt>
      <trkpt lat="42.1315" lon="9.08608">
        <ele>1675.7150879</ele>
        <time>2010-08-27T07:55:06Z</time>
      </trkpt>
      <trkpt lat="42.13158" lon="9.08602">
        <ele>1647.8371582</ele>
        <time>2010-08-27T07:56:06Z</time>
      </trkpt>
      <trkpt lat="42.13158" lon="9.08602">
        <ele>1647.8371582</ele>
        <time>2010-08-27T07:56:11Z</time>
      </trkpt>
      <trkpt lat="42.13158" lon="9.08604">
        <ele>1651.682373</ele>
        <time>2010-08-27T07:56:22Z</time>
      </trkpt>
      <trkpt lat="42.13153" lon="9.08609">
        <ele>1667.0634766</ele>
        <time>2010-08-27T07:57:01Z</time>
      </trkpt>
      <trkpt lat="42.13156" lon="9.08607">
        <ele>1664.1794434</ele>
        <time>2010-08-27T07:58:06Z</time>
      </trkpt>
      <trkpt lat="42.13156" lon="9.08607">
        <ele>1663.6987305</ele>
        <time>2010-08-27T07:58:22Z</time>
      </trkpt>
      <trkpt lat="42.13155" lon="9.08606">
        <ele>1663.6987305</ele>
        <time>2010-08-27T07:58:26Z</time>
      </trkpt>
      <trkpt lat="42.13155" lon="9.08601">
        <ele>1665.1408691</ele>
        <time>2010-08-27T07:58:32Z</time>
      </trkpt>
      <trkpt lat="42.13156" lon="9.08594">
        <ele>1666.5827637</ele>
        <time>2010-08-27T07:58:39Z</time>
      </trkpt>
      <trkpt lat="42.13154" lon="9.08589">
        <ele>1668.986084</ele>
        <time>2010-08-27T07:58:45Z</time>
      </trkpt>
      <trkpt lat="42.13153" lon="9.08583">
        <ele>1670.4279785</ele>
        <time>2010-08-27T07:58:52Z</time>
      </trkpt>
      <trkpt lat="42.13152" lon="9.08578">
        <ele>1671.3891602</ele>
        <time>2010-08-27T07:58:59Z</time>
      </trkpt>
      <trkpt lat="42.13153" lon="9.08574">
        <ele>1671.869873</ele>
        <time>2010-08-27T07:59:06Z</time>
      </trkpt>
      <trkpt lat="42.13151" lon="9.08568">
        <ele>1672.8312988</ele>
        <time>2010-08-27T07:59:14Z</time>
      </trkpt>
      <trkpt lat="42.1315" lon="9.08564">
        <ele>1673.3120117</ele>
        <time>2010-08-27T07:59:18Z</time>
      </trkpt>
      <trkpt lat="42.1315" lon="9.08561">
        <ele>1674.2731934</ele>
        <time>2010-08-27T07:59:23Z</time>
      </trkpt>
      <trkpt lat="42.1315" lon="9.08557">
        <ele>1676.6767578</ele>
        <time>2010-08-27T07:59:29Z</time>
      </trkpt>
      <trkpt lat="42.13149" lon="9.08553">
        <ele>1676.6767578</ele>
        <time>2010-08-27T07:59:34Z</time>
      </trkpt>
      <trkpt lat="42.13147" lon="9.08552">
        <ele>1677.6379395</ele>
        <time>2010-08-27T07:59:38Z</time>
      </trkpt>
      <trkpt lat="42.13143" lon="9.0855">
        <ele>1677.1574707</ele>
        <time>2010-08-27T07:59:44Z</time>
      </trkpt>
      <trkpt lat="42.13142" lon="9.08548">
        <ele>1681.4831543</ele>
        <time>2010-08-27T07:59:52Z</time>
      </trkpt>
      <trkpt lat="42.13139" lon="9.08546">
        <ele>1682.4445801</ele>
        <time>2010-08-27T07:59:57Z</time>
      </trkpt>
      <trkpt lat="42.13137" lon="9.08541">
        <ele>1683.8864746</ele>
        <time>2010-08-27T08:00:05Z</time>
      </trkpt>
      <trkpt lat="42.13138" lon="9.08533">
        <ele>1684.3671875</ele>
        <time>2010-08-27T08:00:13Z</time>
      </trkpt>
      <trkpt lat="42.13137" lon="9.08528">
        <ele>1686.2897949</ele>
        <time>2010-08-27T08:00:20Z</time>
      </trkpt>
      <trkpt lat="42.13141" lon="9.08522">
        <ele>1689.173584</ele>
        <time>2010-08-27T08:00:29Z</time>
      </trkpt>
      <trkpt lat="42.13141" lon="9.08515">
        <ele>1690.6154785</ele>
        <time>2010-08-27T08:00:36Z</time>
      </trkpt>
      <trkpt lat="42.13142" lon="9.08509">
        <ele>1691.5769043</ele>
        <time>2010-08-27T08:00:44Z</time>
      </trkpt>
      <trkpt lat="42.13143" lon="9.08502">
        <ele>1692.0578613</ele>
        <time>2010-08-27T08:00:51Z</time>
      </trkpt>
      <trkpt lat="42.13142" lon="9.08499">
        <ele>1693.9804688</ele>
        <time>2010-08-27T08:00:57Z</time>
      </trkpt>
      <trkpt lat="42.13141" lon="9.08495">
        <ele>1695.4223633</ele>
        <time>2010-08-27T08:01:04Z</time>
      </trkpt>
      <trkpt lat="42.13141" lon="9.08492">
        <ele>1696.8642578</ele>
        <time>2010-08-27T08:01:10Z</time>
      </trkpt>
      <trkpt lat="42.13139" lon="9.08488">
        <ele>1697.3449707</ele>
        <time>2010-08-27T08:01:16Z</time>
      </trkpt>
      <trkpt lat="42.13138" lon="9.08484">
        <ele>1700.2290039</ele>
        <time>2010-08-27T08:01:23Z</time>
      </trkpt>
      <trkpt lat="42.13138" lon="9.08483">
        <ele>1700.2290039</ele>
        <time>2010-08-27T08:01:30Z</time>
      </trkpt>
      <trkpt lat="42.13138" lon="9.08483">
        <ele>1699.748291</ele>
        <time>2010-08-27T08:01:34Z</time>
      </trkpt>
      <trkpt lat="42.13141" lon="9.0848">
        <ele>1698.3061523</ele>
        <time>2010-08-27T08:01:40Z</time>
      </trkpt>
      <trkpt lat="42.13141" lon="9.08478">
        <ele>1697.3449707</ele>
        <time>2010-08-27T08:01:42Z</time>
      </trkpt>
      <trkpt lat="42.13145" lon="9.08474">
        <ele>1697.3449707</ele>
        <time>2010-08-27T08:01:49Z</time>
      </trkpt>
      <trkpt lat="42.13147" lon="9.08471">
        <ele>1701.1901855</ele>
        <time>2010-08-27T08:01:57Z</time>
      </trkpt>
      <trkpt lat="42.13149" lon="9.08466">
        <ele>1706.4772949</ele>
        <time>2010-08-27T08:02:04Z</time>
      </trkpt>
      <trkpt lat="42.13151" lon="9.08463">
        <ele>1706.9580078</ele>
        <time>2010-08-27T08:02:10Z</time>
      </trkpt>
      <trkpt lat="42.13154" lon="9.08462">
        <ele>1706.9580078</ele>
        <time>2010-08-27T08:02:16Z</time>
      </trkpt>
      <trkpt lat="42.13155" lon="9.08464">
        <ele>1707.4387207</ele>
        <time>2010-08-27T08:02:22Z</time>
      </trkpt>
      <trkpt lat="42.13153" lon="9.08464">
        <ele>1708.8808594</ele>
        <time>2010-08-27T08:02:29Z</time>
      </trkpt>
      <trkpt lat="42.13157" lon="9.08466">
        <ele>1708.4001465</ele>
        <time>2010-08-27T08:02:34Z</time>
      </trkpt>
      <trkpt lat="42.13162" lon="9.08465">
        <ele>1708.8808594</ele>
        <time>2010-08-27T08:02:40Z</time>
      </trkpt>
      <trkpt lat="42.13166" lon="9.08464">
        <ele>1712.2453613</ele>
        <time>2010-08-27T08:02:46Z</time>
      </trkpt>
      <trkpt lat="42.13169" lon="9.08465">
        <ele>1712.7260742</ele>
        <time>2010-08-27T08:02:52Z</time>
      </trkpt>
      <trkpt lat="42.13172" lon="9.08464">
        <ele>1714.6486816</ele>
        <time>2010-08-27T08:02:57Z</time>
      </trkpt>
      <trkpt lat="42.13176" lon="9.08462">
        <ele>1715.6101074</ele>
        <time>2010-08-27T08:03:04Z</time>
      </trkpt>
      <trkpt lat="42.13178" lon="9.08464">
        <ele>1718.0131836</ele>
        <time>2010-08-27T08:03:10Z</time>
      </trkpt>
      <trkpt lat="42.13181" lon="9.08467">
        <ele>1718.4938965</ele>
        <time>2010-08-27T08:03:17Z</time>
      </trkpt>
      <trkpt lat="42.13184" lon="9.08466">
        <ele>1718.9746094</ele>
        <time>2010-08-27T08:03:23Z</time>
      </trkpt>
      <trkpt lat="42.13185" lon="9.08468">
        <ele>1720.8972168</ele>
        <time>2010-08-27T08:03:29Z</time>
      </trkpt>
      <trkpt lat="42.13183" lon="9.08472">
        <ele>1722.8198242</ele>
        <time>2010-08-27T08:03:35Z</time>
      </trkpt>
      <trkpt lat="42.13182" lon="9.08473">
        <ele>1724.2619629</ele>
        <time>2010-08-27T08:03:47Z</time>
      </trkpt>
      <trkpt lat="42.13185" lon="9.08478">
        <ele>1724.2619629</ele>
        <time>2010-08-27T08:03:53Z</time>
      </trkpt>
      <trkpt lat="42.13188" lon="9.08482">
        <ele>1724.2619629</ele>
        <time>2010-08-27T08:03:57Z</time>
      </trkpt>
      <trkpt lat="42.13191" lon="9.08486">
        <ele>1723.7810059</ele>
        <time>2010-08-27T08:04:02Z</time>
      </trkpt>
      <trkpt lat="42.13197" lon="9.08485">
        <ele>1722.8198242</ele>
        <time>2010-08-27T08:04:09Z</time>
      </trkpt>
      <trkpt lat="42.13201" lon="9.08485">
        <ele>1724.2619629</ele>
        <time>2010-08-27T08:04:16Z</time>
      </trkpt>
      <trkpt lat="42.13205" lon="9.08481">
        <ele>1725.7038574</ele>
        <time>2010-08-27T08:04:24Z</time>
      </trkpt>
      <trkpt lat="42.13206" lon="9.08483">
        <ele>1727.1459961</ele>
        <time>2010-08-27T08:04:30Z</time>
      </trkpt>
      <trkpt lat="42.13209" lon="9.08488">
        <ele>1727.6264648</ele>
        <time>2010-08-27T08:04:37Z</time>
      </trkpt>
      <trkpt lat="42.13214" lon="9.08491">
        <ele>1728.5878906</ele>
        <time>2010-08-27T08:04:45Z</time>
      </trkpt>
      <trkpt lat="42.13216" lon="9.08493">
        <ele>1729.5490723</ele>
        <time>2010-08-27T08:04:50Z</time>
      </trkpt>
      <trkpt lat="42.13217" lon="9.08496">
        <ele>1729.5490723</ele>
        <time>2010-08-27T08:04:52Z</time>
      </trkpt>
      <trkpt lat="42.13223" lon="9.08503">
        <ele>1729.5490723</ele>
        <time>2010-08-27T08:05:01Z</time>
      </trkpt>
      <trkpt lat="42.13228" lon="9.08507">
        <ele>1730.510498</ele>
        <time>2010-08-27T08:05:09Z</time>
      </trkpt>
      <trkpt lat="42.13233" lon="9.0851">
        <ele>1731.4716797</ele>
        <time>2010-08-27T08:05:17Z</time>
      </trkpt>
      <trkpt lat="42.13238" lon="9.08512">
        <ele>1732.9135742</ele>
        <time>2010-08-27T08:05:24Z</time>
      </trkpt>
      <trkpt lat="42.13243" lon="9.08514">
        <ele>1733.875</ele>
        <time>2010-08-27T08:05:31Z</time>
      </trkpt>
      <trkpt lat="42.13247" lon="9.08516">
        <ele>1734.8364258</ele>
        <time>2010-08-27T08:05:38Z</time>
      </trkpt>
      <trkpt lat="42.13254" lon="9.08514">
        <ele>1736.2783203</ele>
        <time>2010-08-27T08:05:47Z</time>
      </trkpt>
      <trkpt lat="42.13255" lon="9.08514">
        <ele>1736.2783203</ele>
        <time>2010-08-27T08:05:49Z</time>
      </trkpt>
      <trkpt lat="42.13262" lon="9.08516">
        <ele>1736.7587891</ele>
        <time>2010-08-27T08:05:57Z</time>
      </trkpt>
      <trkpt lat="42.13266" lon="9.0852">
        <ele>1737.7202148</ele>
        <time>2010-08-27T08:06:04Z</time>
      </trkpt>
      <trkpt lat="42.13269" lon="9.08516">
        <ele>1738.6816406</ele>
        <time>2010-08-27T08:06:10Z</time>
      </trkpt>
      <trkpt lat="42.13268" lon="9.08512">
        <ele>1740.1237793</ele>
        <time>2010-08-27T08:06:16Z</time>
      </trkpt>
      <trkpt lat="42.13268" lon="9.08508">
        <ele>1741.0849609</ele>
        <time>2010-08-27T08:06:22Z</time>
      </trkpt>
      <trkpt lat="42.13269" lon="9.08503">
        <ele>1741.0849609</ele>
        <time>2010-08-27T08:06:27Z</time>
      </trkpt>
      <trkpt lat="42.13269" lon="9.08495">
        <ele>1742.0463867</ele>
        <time>2010-08-27T08:06:34Z</time>
      </trkpt>
      <trkpt lat="42.13272" lon="9.08493">
        <ele>1742.0463867</ele>
        <time>2010-08-27T08:06:40Z</time>
      </trkpt>
      <trkpt lat="42.13273" lon="9.08491">
        <ele>1743.0075684</ele>
        <time>2010-08-27T08:06:45Z</time>
      </trkpt>
      <trkpt lat="42.13275" lon="9.0849">
        <ele>1744.9301758</ele>
        <time>2010-08-27T08:06:51Z</time>
      </trkpt>
      <trkpt lat="42.13277" lon="9.08489">
        <ele>1745.8916016</ele>
        <time>2010-08-27T08:06:57Z</time>
      </trkpt>
      <trkpt lat="42.13281" lon="9.08489">
        <ele>1746.3723145</ele>
        <time>2010-08-27T08:07:04Z</time>
      </trkpt>
      <trkpt lat="42.13283" lon="9.08487">
        <ele>1746.8527832</ele>
        <time>2010-08-27T08:07:10Z</time>
      </trkpt>
      <trkpt lat="42.13285" lon="9.08485">
        <ele>1747.814209</ele>
        <time>2010-08-27T08:07:16Z</time>
      </trkpt>
      <trkpt lat="42.13287" lon="9.08481">
        <ele>1749.2561035</ele>
        <time>2010-08-27T08:07:23Z</time>
      </trkpt>
      <trkpt lat="42.13289" lon="9.08477">
        <ele>1750.697998</ele>
        <time>2010-08-27T08:07:30Z</time>
      </trkpt>
      <trkpt lat="42.13291" lon="9.08473">
        <ele>1751.6594238</ele>
        <time>2010-08-27T08:07:36Z</time>
      </trkpt>
      <trkpt lat="42.13294" lon="9.08471">
        <ele>1752.6206055</ele>
        <time>2010-08-27T08:07:43Z</time>
      </trkpt>
      <trkpt lat="42.13296" lon="9.08469">
        <ele>1754.5432129</ele>
        <time>2010-08-27T08:07:50Z</time>
      </trkpt>
      <trkpt lat="42.13299" lon="9.08467">
        <ele>1756.4660645</ele>
        <time>2010-08-27T08:07:57Z</time>
      </trkpt>
      <trkpt lat="42.133" lon="9.08465">
        <ele>1756.4660645</ele>
        <time>2010-08-27T08:08:04Z</time>
      </trkpt>
      <trkpt lat="42.133" lon="9.08462">
        <ele>1756.4660645</ele>
        <time>2010-08-27T08:08:11Z</time>
      </trkpt>
      <trkpt lat="42.13303" lon="9.08459">
        <ele>1757.4274902</ele>
        <time>2010-08-27T08:08:17Z</time>
      </trkpt>
      <trkpt lat="42.13308" lon="9.08457">
        <ele>1758.3886719</ele>
        <time>2010-08-27T08:08:24Z</time>
      </trkpt>
      <trkpt lat="42.1331" lon="9.08456">
        <ele>1759.3500977</ele>
        <time>2010-08-27T08:08:30Z</time>
      </trkpt>
      <trkpt lat="42.13314" lon="9.08454">
        <ele>1760.3112793</ele>
        <time>2010-08-27T08:08:38Z</time>
      </trkpt>
      <trkpt lat="42.13315" lon="9.08452">
        <ele>1762.7145996</ele>
        <time>2010-08-27T08:08:46Z</time>
      </trkpt>
      <trkpt lat="42.13316" lon="9.08453">
        <ele>1763.6757812</ele>
        <time>2010-08-27T08:08:52Z</time>
      </trkpt>
      <trkpt lat="42.13319" lon="9.08454">
        <ele>1765.5986328</ele>
        <time>2010-08-27T08:09:01Z</time>
      </trkpt>
      <trkpt lat="42.1332" lon="9.08456">
        <ele>1767.5209961</ele>
        <time>2010-08-27T08:09:08Z</time>
      </trkpt>
      <trkpt lat="42.13322" lon="9.08457">
        <ele>1768.4824219</ele>
        <time>2010-08-27T08:09:14Z</time>
      </trkpt>
      <trkpt lat="42.13323" lon="9.08459">
        <ele>1769.4438477</ele>
        <time>2010-08-27T08:09:19Z</time>
      </trkpt>
      <trkpt lat="42.13324" lon="9.08463">
        <ele>1768.4824219</ele>
        <time>2010-08-27T08:09:25Z</time>
      </trkpt>
      <trkpt lat="42.13324" lon="9.08467">
        <ele>1768.001709</ele>
        <time>2010-08-27T08:09:31Z</time>
      </trkpt>
      <trkpt lat="42.13321" lon="9.08473">
        <ele>1769.9243164</ele>
        <time>2010-08-27T08:09:38Z</time>
      </trkpt>
      <trkpt lat="42.1332" lon="9.08477">
        <ele>1771.8469238</ele>
        <time>2010-08-27T08:09:44Z</time>
      </trkpt>
      <trkpt lat="42.13321" lon="9.08481">
        <ele>1771.3662109</ele>
        <time>2010-08-27T08:09:47Z</time>
      </trkpt>
      <trkpt lat="42.1332" lon="9.08486">
        <ele>1771.3662109</ele>
        <time>2010-08-27T08:09:54Z</time>
      </trkpt>
      <trkpt lat="42.13321" lon="9.08485">
        <ele>1770.8857422</ele>
        <time>2010-08-27T08:10:04Z</time>
      </trkpt>
      <trkpt lat="42.13323" lon="9.08482">
        <ele>1771.3662109</ele>
        <time>2010-08-27T08:10:07Z</time>
      </trkpt>
      <trkpt lat="42.13325" lon="9.08479">
        <ele>1771.3662109</ele>
        <time>2010-08-27T08:10:14Z</time>
      </trkpt>
      <trkpt lat="42.13324" lon="9.08481">
        <ele>1772.3278809</ele>
        <time>2010-08-27T08:10:23Z</time>
      </trkpt>
      <trkpt lat="42.13325" lon="9.08487">
        <ele>1772.3278809</ele>
        <time>2010-08-27T08:10:30Z</time>
      </trkpt>
      <trkpt lat="42.13327" lon="9.08492">
        <ele>1774.2504883</ele>
        <time>2010-08-27T08:10:37Z</time>
      </trkpt>
      <trkpt lat="42.1333" lon="9.08495">
        <ele>1775.6923828</ele>
        <time>2010-08-27T08:10:44Z</time>
      </trkpt>
      <trkpt lat="42.13334" lon="9.08496">
        <ele>1777.6149902</ele>
        <time>2010-08-27T08:10:52Z</time>
      </trkpt>
      <trkpt lat="42.13336" lon="9.085">
        <ele>1778.576416</ele>
        <time>2010-08-27T08:10:59Z</time>
      </trkpt>
      <trkpt lat="42.13333" lon="9.08501">
        <ele>1780.9797363</ele>
        <time>2010-08-27T08:11:04Z</time>
      </trkpt>
      <trkpt lat="42.13333" lon="9.08503">
        <ele>1780.4990234</ele>
        <time>2010-08-27T08:11:12Z</time>
      </trkpt>
      <trkpt lat="42.13333" lon="9.08504">
        <ele>1780.4990234</ele>
        <time>2010-08-27T08:11:28Z</time>
      </trkpt>
      <trkpt lat="42.13334" lon="9.08503">
        <ele>1780.9797363</ele>
        <time>2010-08-27T08:11:43Z</time>
      </trkpt>
      <trkpt lat="42.13333" lon="9.08504">
        <ele>1780.0183105</ele>
        <time>2010-08-27T08:11:53Z</time>
      </trkpt>
      <trkpt lat="42.13333" lon="9.08503">
        <ele>1778.0957031</ele>
        <time>2010-08-27T08:12:02Z</time>
      </trkpt>
      <trkpt lat="42.13333" lon="9.08502">
        <ele>1779.0568848</ele>
        <time>2010-08-27T08:12:16Z</time>
      </trkpt>
      <trkpt lat="42.13335" lon="9.08504">
        <ele>1778.576416</ele>
        <time>2010-08-27T08:12:22Z</time>
      </trkpt>
      <trkpt lat="42.13335" lon="9.08506">
        <ele>1778.0957031</ele>
        <time>2010-08-27T08:12:29Z</time>
      </trkpt>
      <trkpt lat="42.13337" lon="9.08507">
        <ele>1781.4602051</ele>
        <time>2010-08-27T08:12:43Z</time>
      </trkpt>
      <trkpt lat="42.13342" lon="9.08512">
        <ele>1780.9797363</ele>
        <time>2010-08-27T08:12:52Z</time>
      </trkpt>
      <trkpt lat="42.13344" lon="9.08517">
        <ele>1780.9797363</ele>
        <time>2010-08-27T08:12:58Z</time>
      </trkpt>
      <trkpt lat="42.13344" lon="9.08522">
        <ele>1780.9797363</ele>
        <time>2010-08-27T08:13:04Z</time>
      </trkpt>
      <trkpt lat="42.13345" lon="9.08526">
        <ele>1781.940918</ele>
        <time>2010-08-27T08:13:10Z</time>
      </trkpt>
      <trkpt lat="42.13345" lon="9.0853">
        <ele>1782.4216309</ele>
        <time>2010-08-27T08:13:14Z</time>
      </trkpt>
      <trkpt lat="42.13345" lon="9.08532">
        <ele>1783.8635254</ele>
        <time>2010-08-27T08:13:19Z</time>
      </trkpt>
      <trkpt lat="42.13347" lon="9.08532">
        <ele>1784.8249512</ele>
        <time>2010-08-27T08:13:26Z</time>
      </trkpt>
      <trkpt lat="42.13351" lon="9.08531">
        <ele>1785.7861328</ele>
        <time>2010-08-27T08:13:33Z</time>
      </trkpt>
      <trkpt lat="42.13352" lon="9.08533">
        <ele>1786.7473145</ele>
        <time>2010-08-27T08:13:38Z</time>
      </trkpt>
      <trkpt lat="42.13355" lon="9.08535">
        <ele>1788.1896973</ele>
        <time>2010-08-27T08:13:47Z</time>
      </trkpt>
      <trkpt lat="42.13355" lon="9.08538">
        <ele>1787.7087402</ele>
        <time>2010-08-27T08:13:53Z</time>
      </trkpt>
      <trkpt lat="42.13357" lon="9.08541">
        <ele>1789.1508789</ele>
        <time>2010-08-27T08:14:00Z</time>
      </trkpt>
      <trkpt lat="42.1336" lon="9.08542">
        <ele>1791.0734863</ele>
        <time>2010-08-27T08:14:07Z</time>
      </trkpt>
      <trkpt lat="42.13363" lon="9.08545">
        <ele>1791.5541992</ele>
        <time>2010-08-27T08:14:13Z</time>
      </trkpt>
      <trkpt lat="42.13366" lon="9.08546">
        <ele>1792.515625</ele>
        <time>2010-08-27T08:14:19Z</time>
      </trkpt>
      <trkpt lat="42.1337" lon="9.0855">
        <ele>1793.9575195</ele>
        <time>2010-08-27T08:14:28Z</time>
      </trkpt>
      <trkpt lat="42.13373" lon="9.08552">
        <ele>1795.3994141</ele>
        <time>2010-08-27T08:14:35Z</time>
      </trkpt>
      <trkpt lat="42.13376" lon="9.08555">
        <ele>1796.8413086</ele>
        <time>2010-08-27T08:14:41Z</time>
      </trkpt>
      <trkpt lat="42.13378" lon="9.08558">
        <ele>1799.2446289</ele>
        <time>2010-08-27T08:14:48Z</time>
      </trkpt>
      <trkpt lat="42.1338" lon="9.08558">
        <ele>1799.7253418</ele>
        <time>2010-08-27T08:14:53Z</time>
      </trkpt>
      <trkpt lat="42.13383" lon="9.0856">
        <ele>1801.1672363</ele>
        <time>2010-08-27T08:15:01Z</time>
      </trkpt>
      <trkpt lat="42.13386" lon="9.08558">
        <ele>1801.1672363</ele>
        <time>2010-08-27T08:15:07Z</time>
      </trkpt>
      <trkpt lat="42.13387" lon="9.08554">
        <ele>1802.128418</ele>
        <time>2010-08-27T08:15:14Z</time>
      </trkpt>
      <trkpt lat="42.13387" lon="9.08552">
        <ele>1802.6091309</ele>
        <time>2010-08-27T08:15:19Z</time>
      </trkpt>
      <trkpt lat="42.13389" lon="9.08551">
        <ele>1805.4934082</ele>
        <time>2010-08-27T08:15:26Z</time>
      </trkpt>
      <trkpt lat="42.1339" lon="9.08548">
        <ele>1806.9353027</ele>
        <time>2010-08-27T08:15:33Z</time>
      </trkpt>
      <trkpt lat="42.13392" lon="9.08549">
        <ele>1807.4160156</ele>
        <time>2010-08-27T08:15:38Z</time>
      </trkpt>
      <trkpt lat="42.13392" lon="9.0855">
        <ele>1808.3771973</ele>
        <time>2010-08-27T08:15:44Z</time>
      </trkpt>
      <trkpt lat="42.13395" lon="9.08545">
        <ele>1808.8579102</ele>
        <time>2010-08-27T08:15:57Z</time>
      </trkpt>
      <trkpt lat="42.13396" lon="9.08542">
        <ele>1810.7805176</ele>
        <time>2010-08-27T08:16:03Z</time>
      </trkpt>
      <trkpt lat="42.13395" lon="9.08541">
        <ele>1810.2998047</ele>
        <time>2010-08-27T08:16:13Z</time>
      </trkpt>
      <trkpt lat="42.13394" lon="9.08537">
        <ele>1810.7805176</ele>
        <time>2010-08-27T08:16:26Z</time>
      </trkpt>
      <trkpt lat="42.13393" lon="9.08534">
        <ele>1812.2224121</ele>
        <time>2010-08-27T08:16:32Z</time>
      </trkpt>
      <trkpt lat="42.13392" lon="9.08534">
        <ele>1811.7419434</ele>
        <time>2010-08-27T08:16:44Z</time>
      </trkpt>
      <trkpt lat="42.13394" lon="9.08532">
        <ele>1813.1838379</ele>
        <time>2010-08-27T08:16:51Z</time>
      </trkpt>
      <trkpt lat="42.13395" lon="9.08528">
        <ele>1813.1838379</ele>
        <time>2010-08-27T08:16:54Z</time>
      </trkpt>
      <trkpt lat="42.13397" lon="9.0852">
        <ele>1814.1450195</ele>
        <time>2010-08-27T08:17:01Z</time>
      </trkpt>
      <trkpt lat="42.13398" lon="9.08516">
        <ele>1815.1064453</ele>
        <time>2010-08-27T08:17:07Z</time>
      </trkpt>
      <trkpt lat="42.134" lon="9.08512">
        <ele>1816.5483398</ele>
        <time>2010-08-27T08:17:14Z</time>
      </trkpt>
      <trkpt lat="42.13399" lon="9.08505">
        <ele>1817.0290527</ele>
        <time>2010-08-27T08:17:21Z</time>
      </trkpt>
      <trkpt lat="42.134" lon="9.08497">
        <ele>1816.5483398</ele>
        <time>2010-08-27T08:17:28Z</time>
      </trkpt>
      <trkpt lat="42.13401" lon="9.08493">
        <ele>1817.9902344</ele>
        <time>2010-08-27T08:17:35Z</time>
      </trkpt>
      <trkpt lat="42.13404" lon="9.08487">
        <ele>1819.432373</ele>
        <time>2010-08-27T08:17:43Z</time>
      </trkpt>
      <trkpt lat="42.13407" lon="9.08487">
        <ele>1820.3937988</ele>
        <time>2010-08-27T08:17:48Z</time>
      </trkpt>
      <trkpt lat="42.1341" lon="9.08487">
        <ele>1821.8356934</ele>
        <time>2010-08-27T08:17:54Z</time>
      </trkpt>
      <trkpt lat="42.13412" lon="9.0849">
        <ele>1823.277832</ele>
        <time>2010-08-27T08:18:00Z</time>
      </trkpt>
      <trkpt lat="42.13413" lon="9.08487">
        <ele>1824.7197266</ele>
        <time>2010-08-27T08:18:05Z</time>
      </trkpt>
      <trkpt lat="42.13415" lon="9.08484">
        <ele>1827.6035156</ele>
        <time>2010-08-27T08:18:13Z</time>
      </trkpt>
      <trkpt lat="42.13417" lon="9.08484">
        <ele>1829.0454102</ele>
        <time>2010-08-27T08:18:19Z</time>
      </trkpt>
      <trkpt lat="42.13419" lon="9.0848">
        <ele>1831.9294434</ele>
        <time>2010-08-27T08:18:27Z</time>
      </trkpt>
      <trkpt lat="42.13422" lon="9.08478">
        <ele>1832.890625</ele>
        <time>2010-08-27T08:18:34Z</time>
      </trkpt>
      <trkpt lat="42.13423" lon="9.08474">
        <ele>1833.3713379</ele>
        <time>2010-08-27T08:18:40Z</time>
      </trkpt>
      <trkpt lat="42.13424" lon="9.0847">
        <ele>1835.7746582</ele>
        <time>2010-08-27T08:18:47Z</time>
      </trkpt>
      <trkpt lat="42.13426" lon="9.08464">
        <ele>1835.2939453</ele>
        <time>2010-08-27T08:18:55Z</time>
      </trkpt>
      <trkpt lat="42.13427" lon="9.08461">
        <ele>1836.2556152</ele>
        <time>2010-08-27T08:19:00Z</time>
      </trkpt>
      <trkpt lat="42.13429" lon="9.08459">
        <ele>1836.736084</ele>
        <time>2010-08-27T08:19:06Z</time>
      </trkpt>
      <trkpt lat="42.13432" lon="9.08457">
        <ele>1838.6589355</ele>
        <time>2010-08-27T08:19:12Z</time>
      </trkpt>
      <trkpt lat="42.13436" lon="9.08456">
        <ele>1840.1008301</ele>
        <time>2010-08-27T08:19:20Z</time>
      </trkpt>
      <trkpt lat="42.13439" lon="9.08457">
        <ele>1841.5427246</ele>
        <time>2010-08-27T08:19:28Z</time>
      </trkpt>
      <trkpt lat="42.13441" lon="9.08455">
        <ele>1842.0234375</ele>
        <time>2010-08-27T08:19:32Z</time>
      </trkpt>
      <trkpt lat="42.13441" lon="9.08449">
        <ele>1844.9072266</ele>
        <time>2010-08-27T08:19:39Z</time>
      </trkpt>
      <trkpt lat="42.13443" lon="9.08445">
        <ele>1845.3879395</ele>
        <time>2010-08-27T08:19:45Z</time>
      </trkpt>
      <trkpt lat="42.13446" lon="9.08445">
        <ele>1846.3493652</ele>
        <time>2010-08-27T08:19:52Z</time>
      </trkpt>
      <trkpt lat="42.13449" lon="9.08445">
        <ele>1847.7912598</ele>
        <time>2010-08-27T08:19:59Z</time>
      </trkpt>
      <trkpt lat="42.1345" lon="9.0844">
        <ele>1849.2331543</ele>
        <time>2010-08-27T08:20:05Z</time>
      </trkpt>
      <trkpt lat="42.13449" lon="9.08438">
        <ele>1850.1945801</ele>
        <time>2010-08-27T08:20:13Z</time>
      </trkpt>
      <trkpt lat="42.13451" lon="9.08435">
        <ele>1850.6750488</ele>
        <time>2010-08-27T08:20:19Z</time>
      </trkpt>
      <trkpt lat="42.13451" lon="9.0843">
        <ele>1850.1945801</ele>
        <time>2010-08-27T08:20:24Z</time>
      </trkpt>
      <trkpt lat="42.13455" lon="9.08432">
        <ele>1849.7138672</ele>
        <time>2010-08-27T08:20:30Z</time>
      </trkpt>
      <trkpt lat="42.13458" lon="9.08435">
        <ele>1849.7138672</ele>
        <time>2010-08-27T08:20:35Z</time>
      </trkpt>
      <trkpt lat="42.13459" lon="9.08446">
        <ele>1849.7138672</ele>
        <time>2010-08-27T08:20:43Z</time>
      </trkpt>
      <trkpt lat="42.1346" lon="9.08453">
        <ele>1849.7138672</ele>
        <time>2010-08-27T08:20:50Z</time>
      </trkpt>
      <trkpt lat="42.1346" lon="9.08455">
        <ele>1850.1945801</ele>
        <time>2010-08-27T08:20:59Z</time>
      </trkpt>
      <trkpt lat="42.1346" lon="9.08459">
        <ele>1851.1557617</ele>
        <time>2010-08-27T08:21:04Z</time>
      </trkpt>
      <trkpt lat="42.13463" lon="9.0846">
        <ele>1852.5979004</ele>
        <time>2010-08-27T08:21:10Z</time>
      </trkpt>
      <trkpt lat="42.13465" lon="9.08458">
        <ele>1854.5205078</ele>
        <time>2010-08-27T08:21:16Z</time>
      </trkpt>
      <trkpt lat="42.13468" lon="9.08458">
        <ele>1855.0012207</ele>
        <time>2010-08-27T08:21:23Z</time>
      </trkpt>
      <trkpt lat="42.13469" lon="9.08458">
        <ele>1856.4431152</ele>
        <time>2010-08-27T08:21:29Z</time>
      </trkpt>
      <trkpt lat="42.13471" lon="9.0846">
        <ele>1857.404541</ele>
        <time>2010-08-27T08:21:35Z</time>
      </trkpt>
      <trkpt lat="42.13474" lon="9.08461">
        <ele>1859.3271484</ele>
        <time>2010-08-27T08:21:43Z</time>
      </trkpt>
      <trkpt lat="42.13476" lon="9.08461">
        <ele>1861.2497559</ele>
        <time>2010-08-27T08:21:50Z</time>
      </trkpt>
      <trkpt lat="42.13478" lon="9.08462">
        <ele>1862.2109375</ele>
        <time>2010-08-27T08:21:56Z</time>
      </trkpt>
      <trkpt lat="42.1348" lon="9.08465">
        <ele>1864.1335449</ele>
        <time>2010-08-27T08:22:03Z</time>
      </trkpt>
      <trkpt lat="42.13482" lon="9.08469">
        <ele>1865.5756836</ele>
        <time>2010-08-27T08:22:10Z</time>
      </trkpt>
      <trkpt lat="42.13483" lon="9.0847">
        <ele>1865.5756836</ele>
        <time>2010-08-27T08:22:34Z</time>
      </trkpt>
      <trkpt lat="42.13485" lon="9.08469">
        <ele>1864.6142578</ele>
        <time>2010-08-27T08:22:50Z</time>
      </trkpt>
      <trkpt lat="42.13483" lon="9.08469">
        <ele>1863.1723633</ele>
        <time>2010-08-27T08:23:02Z</time>
      </trkpt>
      <trkpt lat="42.13482" lon="9.08469">
        <ele>1864.6142578</ele>
        <time>2010-08-27T08:23:09Z</time>
      </trkpt>
      <trkpt lat="42.13485" lon="9.08471">
        <ele>1865.0949707</ele>
        <time>2010-08-27T08:23:27Z</time>
      </trkpt>
      <trkpt lat="42.13485" lon="9.08468">
        <ele>1864.6142578</ele>
        <time>2010-08-27T08:23:43Z</time>
      </trkpt>
      <trkpt lat="42.13482" lon="9.08467">
        <ele>1865.0949707</ele>
        <time>2010-08-27T08:24:01Z</time>
      </trkpt>
      <trkpt lat="42.13482" lon="9.08469">
        <ele>1866.0561523</ele>
        <time>2010-08-27T08:24:18Z</time>
      </trkpt>
      <trkpt lat="42.13482" lon="9.08469">
        <ele>1865.0949707</ele>
        <time>2010-08-27T08:24:28Z</time>
      </trkpt>
      <trkpt lat="42.13481" lon="9.08469">
        <ele>1862.6916504</ele>
        <time>2010-08-27T08:24:40Z</time>
      </trkpt>
      <trkpt lat="42.13481" lon="9.0847">
        <ele>1864.1335449</ele>
        <time>2010-08-27T08:24:54Z</time>
      </trkpt>
      <trkpt lat="42.13482" lon="9.08467">
        <ele>1861.7304688</ele>
        <time>2010-08-27T08:25:08Z</time>
      </trkpt>
      <trkpt lat="42.13484" lon="9.08469">
        <ele>1862.6916504</ele>
        <time>2010-08-27T08:25:20Z</time>
      </trkpt>
      <trkpt lat="42.13484" lon="9.08468">
        <ele>1862.2109375</ele>
        <time>2010-08-27T08:25:31Z</time>
      </trkpt>
      <trkpt lat="42.13483" lon="9.08468">
        <ele>1862.2109375</ele>
        <time>2010-08-27T08:25:45Z</time>
      </trkpt>
      <trkpt lat="42.13483" lon="9.08467">
        <ele>1862.2109375</ele>
        <time>2010-08-27T08:25:55Z</time>
      </trkpt>
      <trkpt lat="42.13484" lon="9.08468">
        <ele>1865.5756836</ele>
        <time>2010-08-27T08:26:18Z</time>
      </trkpt>
      <trkpt lat="42.13481" lon="9.08471">
        <ele>1862.2109375</ele>
        <time>2010-08-27T08:26:42Z</time>
      </trkpt>
      <trkpt lat="42.13483" lon="9.0847">
        <ele>1864.1335449</ele>
        <time>2010-08-27T08:26:50Z</time>
      </trkpt>
      <trkpt lat="42.13487" lon="9.08473">
        <ele>1864.6142578</ele>
        <time>2010-08-27T08:26:56Z</time>
      </trkpt>
      <trkpt lat="42.13489" lon="9.08473">
        <ele>1866.0561523</ele>
        <time>2010-08-27T08:27:01Z</time>
      </trkpt>
      <trkpt lat="42.13492" lon="9.08473">
        <ele>1866.5368652</ele>
        <time>2010-08-27T08:27:07Z</time>
      </trkpt>
      <trkpt lat="42.13495" lon="9.0847">
        <ele>1868.4597168</ele>
        <time>2010-08-27T08:27:14Z</time>
      </trkpt>
      <trkpt lat="42.13496" lon="9.08467">
        <ele>1869.9016113</ele>
        <time>2010-08-27T08:27:20Z</time>
      </trkpt>
      <trkpt lat="42.13495" lon="9.08462">
        <ele>1871.8242188</ele>
        <time>2010-08-27T08:27:27Z</time>
      </trkpt>
      <trkpt lat="42.13496" lon="9.08457">
        <ele>1874.708252</ele>
        <time>2010-08-27T08:27:34Z</time>
      </trkpt>
      <trkpt lat="42.13497" lon="9.08454">
        <ele>1875.6694336</ele>
        <time>2010-08-27T08:27:40Z</time>
      </trkpt>
      <trkpt lat="42.13498" lon="9.08453">
        <ele>1876.1501465</ele>
        <time>2010-08-27T08:27:46Z</time>
      </trkpt>
      <trkpt lat="42.13499" lon="9.0845">
        <ele>1877.1115723</ele>
        <time>2010-08-27T08:27:52Z</time>
      </trkpt>
      <trkpt lat="42.135" lon="9.08445">
        <ele>1877.592041</ele>
        <time>2010-08-27T08:27:58Z</time>
      </trkpt>
      <trkpt lat="42.13501" lon="9.08442">
        <ele>1878.0727539</ele>
        <time>2010-08-27T08:28:04Z</time>
      </trkpt>
      <trkpt lat="42.13503" lon="9.08441">
        <ele>1879.5146484</ele>
        <time>2010-08-27T08:28:12Z</time>
      </trkpt>
      <trkpt lat="42.13504" lon="9.08442">
        <ele>1880.9567871</ele>
        <time>2010-08-27T08:28:18Z</time>
      </trkpt>
      <trkpt lat="42.13505" lon="9.08436">
        <ele>1882.3986816</ele>
        <time>2010-08-27T08:28:24Z</time>
      </trkpt>
      <trkpt lat="42.13506" lon="9.08427">
        <ele>1884.3215332</ele>
        <time>2010-08-27T08:28:32Z</time>
      </trkpt>
      <trkpt lat="42.13507" lon="9.08419">
        <ele>1884.3215332</ele>
        <time>2010-08-27T08:28:39Z</time>
      </trkpt>
      <trkpt lat="42.1351" lon="9.08417">
        <ele>1884.8022461</ele>
        <time>2010-08-27T08:28:45Z</time>
      </trkpt>
      <trkpt lat="42.13513" lon="9.08417">
        <ele>1885.2827148</ele>
        <time>2010-08-27T08:28:52Z</time>
      </trkpt>
      <trkpt lat="42.13516" lon="9.08418">
        <ele>1886.2441406</ele>
        <time>2010-08-27T08:28:59Z</time>
      </trkpt>
      <trkpt lat="42.13519" lon="9.08415">
        <ele>1888.166748</ele>
        <time>2010-08-27T08:29:08Z</time>
      </trkpt>
      <trkpt lat="42.13519" lon="9.08413">
        <ele>1889.1279297</ele>
        <time>2010-08-27T08:29:15Z</time>
      </trkpt>
      <trkpt lat="42.1352" lon="9.08415">
        <ele>1888.6474609</ele>
        <time>2010-08-27T08:29:18Z</time>
      </trkpt>
      <trkpt lat="42.13522" lon="9.08421">
        <ele>1888.166748</ele>
        <time>2010-08-27T08:29:25Z</time>
      </trkpt>
      <trkpt lat="42.13525" lon="9.08424">
        <ele>1889.1279297</ele>
        <time>2010-08-27T08:29:32Z</time>
      </trkpt>
      <trkpt lat="42.13526" lon="9.08426">
        <ele>1892.0119629</ele>
        <time>2010-08-27T08:29:39Z</time>
      </trkpt>
      <trkpt lat="42.13527" lon="9.08425">
        <ele>1893.4538574</ele>
        <time>2010-08-27T08:29:45Z</time>
      </trkpt>
      <trkpt lat="42.1353" lon="9.08424">
        <ele>1895.8571777</ele>
        <time>2010-08-27T08:29:53Z</time>
      </trkpt>
      <trkpt lat="42.13532" lon="9.08421">
        <ele>1896.8183594</ele>
        <time>2010-08-27T08:30:00Z</time>
      </trkpt>
      <trkpt lat="42.13533" lon="9.08418">
        <ele>1897.2990723</ele>
        <time>2010-08-27T08:30:07Z</time>
      </trkpt>
      <trkpt lat="42.13534" lon="9.08421">
        <ele>1897.7797852</ele>
        <time>2010-08-27T08:30:14Z</time>
      </trkpt>
      <trkpt lat="42.13537" lon="9.08425">
        <ele>1898.7409668</ele>
        <time>2010-08-27T08:30:20Z</time>
      </trkpt>
      <trkpt lat="42.13539" lon="9.0843">
        <ele>1901.1445312</ele>
        <time>2010-08-27T08:30:28Z</time>
      </trkpt>
      <trkpt lat="42.13541" lon="9.08431">
        <ele>1903.0671387</ele>
        <time>2010-08-27T08:30:35Z</time>
      </trkpt>
      <trkpt lat="42.13543" lon="9.08434">
        <ele>1903.5478516</ele>
        <time>2010-08-27T08:30:40Z</time>
      </trkpt>
      <trkpt lat="42.13546" lon="9.08438">
        <ele>1904.5090332</ele>
        <time>2010-08-27T08:30:46Z</time>
      </trkpt>
      <trkpt lat="42.13547" lon="9.08437">
        <ele>1905.9509277</ele>
        <time>2010-08-27T08:30:51Z</time>
      </trkpt>
      <trkpt lat="42.1355" lon="9.08435">
        <ele>1907.3930664</ele>
        <time>2010-08-27T08:30:57Z</time>
      </trkpt>
      <trkpt lat="42.13552" lon="9.08437">
        <ele>1908.8349609</ele>
        <time>2010-08-27T08:31:04Z</time>
      </trkpt>
      <trkpt lat="42.13555" lon="9.08438">
        <ele>1909.7961426</ele>
        <time>2010-08-27T08:31:11Z</time>
      </trkpt>
      <trkpt lat="42.13557" lon="9.08436">
        <ele>1911.2382812</ele>
        <time>2010-08-27T08:31:17Z</time>
      </trkpt>
      <trkpt lat="42.13561" lon="9.08434">
        <ele>1912.6801758</ele>
        <time>2010-08-27T08:31:25Z</time>
      </trkpt>
      <trkpt lat="42.13563" lon="9.08432">
        <ele>1914.1220703</ele>
        <time>2010-08-27T08:31:32Z</time>
      </trkpt>
      <trkpt lat="42.13566" lon="9.08434">
        <ele>1916.0449219</ele>
        <time>2010-08-27T08:31:40Z</time>
      </trkpt>
      <trkpt lat="42.1357" lon="9.08436">
        <ele>1917.4868164</ele>
        <time>2010-08-27T08:31:47Z</time>
      </trkpt>
      <trkpt lat="42.13573" lon="9.08439">
        <ele>1917.9675293</ele>
        <time>2010-08-27T08:31:54Z</time>
      </trkpt>
      <trkpt lat="42.13576" lon="9.08441">
        <ele>1918.9289551</ele>
        <time>2010-08-27T08:31:59Z</time>
      </trkpt>
      <trkpt lat="42.13578" lon="9.08443">
        <ele>1919.8901367</ele>
        <time>2010-08-27T08:32:04Z</time>
      </trkpt>
      <trkpt lat="42.13581" lon="9.08448">
        <ele>1920.8515625</ele>
        <time>2010-08-27T08:32:11Z</time>
      </trkpt>
      <trkpt lat="42.13583" lon="9.08452">
        <ele>1921.8127441</ele>
        <time>2010-08-27T08:32:17Z</time>
      </trkpt>
      <trkpt lat="42.13587" lon="9.08456">
        <ele>1922.7741699</ele>
        <time>2010-08-27T08:32:24Z</time>
      </trkpt>
      <trkpt lat="42.13589" lon="9.08458">
        <ele>1923.7353516</ele>
        <time>2010-08-27T08:32:31Z</time>
      </trkpt>
      <trkpt lat="42.13591" lon="9.0846">
        <ele>1925.657959</ele>
        <time>2010-08-27T08:32:38Z</time>
      </trkpt>
      <trkpt lat="42.13594" lon="9.08463">
        <ele>1927.1000977</ele>
        <time>2010-08-27T08:32:45Z</time>
      </trkpt>
      <trkpt lat="42.13597" lon="9.08467">
        <ele>1927.5805664</ele>
        <time>2010-08-27T08:32:53Z</time>
      </trkpt>
      <trkpt lat="42.13598" lon="9.08472">
        <ele>1928.0612793</ele>
        <time>2010-08-27T08:32:59Z</time>
      </trkpt>
      <trkpt lat="42.13598" lon="9.08473">
        <ele>1928.0612793</ele>
        <time>2010-08-27T08:33:04Z</time>
      </trkpt>
      <trkpt lat="42.13598" lon="9.08473">
        <ele>1927.5805664</ele>
        <time>2010-08-27T08:33:05Z</time>
      </trkpt>
      <trkpt lat="42.13601" lon="9.08482">
        <ele>1926.6193848</ele>
        <time>2010-08-27T08:33:12Z</time>
      </trkpt>
      <trkpt lat="42.13602" lon="9.08488">
        <ele>1927.5805664</ele>
        <time>2010-08-27T08:33:19Z</time>
      </trkpt>
      <trkpt lat="42.13604" lon="9.08492">
        <ele>1929.0224609</ele>
        <time>2010-08-27T08:33:27Z</time>
      </trkpt>
      <trkpt lat="42.13606" lon="9.08494">
        <ele>1930.4645996</ele>
        <time>2010-08-27T08:33:33Z</time>
      </trkpt>
      <trkpt lat="42.13608" lon="9.08501">
        <ele>1930.9453125</ele>
        <time>2010-08-27T08:33:40Z</time>
      </trkpt>
      <trkpt lat="42.13609" lon="9.08506">
        <ele>1932.3874512</ele>
        <time>2010-08-27T08:33:47Z</time>
      </trkpt>
      <trkpt lat="42.1361" lon="9.08511">
        <ele>1932.8679199</ele>
        <time>2010-08-27T08:33:53Z</time>
      </trkpt>
      <trkpt lat="42.13612" lon="9.08517">
        <ele>1933.8293457</ele>
        <time>2010-08-27T08:34:00Z</time>
      </trkpt>
      <trkpt lat="42.13613" lon="9.08522">
        <ele>1934.7907715</ele>
        <time>2010-08-27T08:34:06Z</time>
      </trkpt>
      <trkpt lat="42.13614" lon="9.08528">
        <ele>1935.2712402</ele>
        <time>2010-08-27T08:34:12Z</time>
      </trkpt>
      <trkpt lat="42.13615" lon="9.08535">
        <ele>1936.232666</ele>
        <time>2010-08-27T08:34:19Z</time>
      </trkpt>
      <trkpt lat="42.13616" lon="9.08541">
        <ele>1938.1552734</ele>
        <time>2010-08-27T08:34:27Z</time>
      </trkpt>
      <trkpt lat="42.1362" lon="9.08546">
        <ele>1939.597168</ele>
        <time>2010-08-27T08:34:35Z</time>
      </trkpt>
      <trkpt lat="42.13623" lon="9.08549">
        <ele>1941.0390625</ele>
        <time>2010-08-27T08:34:42Z</time>
      </trkpt>
      <trkpt lat="42.13627" lon="9.08547">
        <ele>1942.9616699</ele>
        <time>2010-08-27T08:34:50Z</time>
      </trkpt>
      <trkpt lat="42.13629" lon="9.08546">
        <ele>1943.9230957</ele>
        <time>2010-08-27T08:34:56Z</time>
      </trkpt>
      <trkpt lat="42.13632" lon="9.08547">
        <ele>1945.3649902</ele>
        <time>2010-08-27T08:35:02Z</time>
      </trkpt>
      <trkpt lat="42.13634" lon="9.08545">
        <ele>1947.7683105</ele>
        <time>2010-08-27T08:35:09Z</time>
      </trkpt>
      <trkpt lat="42.13635" lon="9.0854">
        <ele>1949.6911621</ele>
        <time>2010-08-27T08:35:16Z</time>
      </trkpt>
      <trkpt lat="42.13636" lon="9.08535">
        <ele>1950.171875</ele>
        <time>2010-08-27T08:35:23Z</time>
      </trkpt>
      <trkpt lat="42.1364" lon="9.08534">
        <ele>1951.1330566</ele>
        <time>2010-08-27T08:35:30Z</time>
      </trkpt>
      <trkpt lat="42.13641" lon="9.08532">
        <ele>1953.536377</ele>
        <time>2010-08-27T08:35:36Z</time>
      </trkpt>
      <trkpt lat="42.13643" lon="9.08532">
        <ele>1952.0942383</ele>
        <time>2010-08-27T08:35:42Z</time>
      </trkpt>
      <trkpt lat="42.13646" lon="9.08535">
        <ele>1952.0942383</ele>
        <time>2010-08-27T08:35:49Z</time>
      </trkpt>
      <trkpt lat="42.13648" lon="9.08539">
        <ele>1953.536377</ele>
        <time>2010-08-27T08:35:57Z</time>
      </trkpt>
      <trkpt lat="42.13652" lon="9.0854">
        <ele>1955.4589844</ele>
        <time>2010-08-27T08:36:05Z</time>
      </trkpt>
      <trkpt lat="42.13654" lon="9.08536">
        <ele>1956.420166</ele>
        <time>2010-08-27T08:36:11Z</time>
      </trkpt>
      <trkpt lat="42.13656" lon="9.08533">
        <ele>1958.3427734</ele>
        <time>2010-08-27T08:36:18Z</time>
      </trkpt>
      <trkpt lat="42.13657" lon="9.08529">
        <ele>1959.784668</ele>
        <time>2010-08-27T08:36:24Z</time>
      </trkpt>
      <trkpt lat="42.13659" lon="9.08526">
        <ele>1960.2653809</ele>
        <time>2010-08-27T08:36:29Z</time>
      </trkpt>
      <trkpt lat="42.1366" lon="9.08522">
        <ele>1961.2268066</ele>
        <time>2010-08-27T08:36:36Z</time>
      </trkpt>
      <trkpt lat="42.13663" lon="9.08525">
        <ele>1962.1879883</ele>
        <time>2010-08-27T08:36:43Z</time>
      </trkpt>
      <trkpt lat="42.13664" lon="9.08523">
        <ele>1964.1108398</ele>
        <time>2010-08-27T08:36:49Z</time>
      </trkpt>
      <trkpt lat="42.13666" lon="9.08517">
        <ele>1966.5141602</ele>
        <time>2010-08-27T08:36:58Z</time>
      </trkpt>
      <trkpt lat="42.13669" lon="9.08518">
        <ele>1966.994873</ele>
        <time>2010-08-27T08:37:05Z</time>
      </trkpt>
      <trkpt lat="42.13671" lon="9.08517">
        <ele>1967.9560547</ele>
        <time>2010-08-27T08:37:11Z</time>
      </trkpt>
      <trkpt lat="42.13673" lon="9.08515">
        <ele>1969.8786621</ele>
        <time>2010-08-27T08:37:18Z</time>
      </trkpt>
      <trkpt lat="42.13675" lon="9.08513">
        <ele>1971.8012695</ele>
        <time>2010-08-27T08:37:25Z</time>
      </trkpt>
      <trkpt lat="42.13675" lon="9.08515">
        <ele>1973.2434082</ele>
        <time>2010-08-27T08:37:32Z</time>
      </trkpt>
      <trkpt lat="42.13677" lon="9.08514">
        <ele>1973.2434082</ele>
        <time>2010-08-27T08:37:40Z</time>
      </trkpt>
      <trkpt lat="42.13677" lon="9.08512">
        <ele>1971.8012695</ele>
        <time>2010-08-27T08:37:48Z</time>
      </trkpt>
      <trkpt lat="42.13678" lon="9.08513">
        <ele>1971.8012695</ele>
        <time>2010-08-27T08:38:04Z</time>
      </trkpt>
      <trkpt lat="42.13678" lon="9.08513">
        <ele>1974.6853027</ele>
        <time>2010-08-27T08:38:10Z</time>
      </trkpt>
      <trkpt lat="42.1368" lon="9.0851">
        <ele>1976.1271973</ele>
        <time>2010-08-27T08:38:17Z</time>
      </trkpt>
      <trkpt lat="42.13681" lon="9.08509">
        <ele>1976.6079102</ele>
        <time>2010-08-27T08:38:22Z</time>
      </trkpt>
      <trkpt lat="42.13684" lon="9.0851">
        <ele>1977.088623</ele>
        <time>2010-08-27T08:38:29Z</time>
      </trkpt>
      <trkpt lat="42.13687" lon="9.08511">
        <ele>1977.5690918</ele>
        <time>2010-08-27T08:38:36Z</time>
      </trkpt>
      <trkpt lat="42.13689" lon="9.08507">
        <ele>1980.934082</ele>
        <time>2010-08-27T08:38:43Z</time>
      </trkpt>
      <trkpt lat="42.13691" lon="9.08506">
        <ele>1981.4145508</ele>
        <time>2010-08-27T08:38:49Z</time>
      </trkpt>
      <trkpt lat="42.13692" lon="9.08505">
        <ele>1982.3759766</ele>
        <time>2010-08-27T08:38:55Z</time>
      </trkpt>
      <trkpt lat="42.13694" lon="9.08503">
        <ele>1984.298584</ele>
        <time>2010-08-27T08:39:01Z</time>
      </trkpt>
      <trkpt lat="42.13696" lon="9.08502">
        <ele>1984.7792969</ele>
        <time>2010-08-27T08:39:08Z</time>
      </trkpt>
      <trkpt lat="42.13698" lon="9.08499">
        <ele>1987.182373</ele>
        <time>2010-08-27T08:39:15Z</time>
      </trkpt>
      <trkpt lat="42.13698" lon="9.08494">
        <ele>1988.1437988</ele>
        <time>2010-08-27T08:39:21Z</time>
      </trkpt>
      <trkpt lat="42.13701" lon="9.08495">
        <ele>1988.1437988</ele>
        <time>2010-08-27T08:39:27Z</time>
      </trkpt>
      <trkpt lat="42.13702" lon="9.08492">
        <ele>1989.5856934</ele>
        <time>2010-08-27T08:39:34Z</time>
      </trkpt>
      <trkpt lat="42.13704" lon="9.08489">
        <ele>1990.546875</ele>
        <time>2010-08-27T08:39:41Z</time>
      </trkpt>
      <trkpt lat="42.13705" lon="9.08487">
        <ele>1991.0275879</ele>
        <time>2010-08-27T08:39:48Z</time>
      </trkpt>
      <trkpt lat="42.13707" lon="9.08487">
        <ele>1991.5083008</ele>
        <time>2010-08-27T08:39:54Z</time>
      </trkpt>
      <trkpt lat="42.1371" lon="9.08485">
        <ele>1992.9501953</ele>
        <time>2010-08-27T08:40:01Z</time>
      </trkpt>
      <trkpt lat="42.1371" lon="9.08482">
        <ele>1993.9116211</ele>
        <time>2010-08-27T08:40:07Z</time>
      </trkpt>
      <trkpt lat="42.1371" lon="9.08479">
        <ele>1994.3920898</ele>
        <time>2010-08-27T08:40:13Z</time>
      </trkpt>
      <trkpt lat="42.13711" lon="9.08476">
        <ele>1994.8728027</ele>
        <time>2010-08-27T08:40:20Z</time>
      </trkpt>
      <trkpt lat="42.1371" lon="9.08473">
        <ele>1996.7956543</ele>
        <time>2010-08-27T08:40:27Z</time>
      </trkpt>
      <trkpt lat="42.13711" lon="9.08472">
        <ele>1998.7182617</ele>
        <time>2010-08-27T08:40:32Z</time>
      </trkpt>
      <trkpt lat="42.13714" lon="9.08468">
        <ele>2000.6408691</ele>
        <time>2010-08-27T08:40:40Z</time>
      </trkpt>
      <trkpt lat="42.13717" lon="9.08467">
        <ele>2000.6408691</ele>
        <time>2010-08-27T08:40:47Z</time>
      </trkpt>
      <trkpt lat="42.1372" lon="9.08465">
        <ele>2002.0827637</ele>
        <time>2010-08-27T08:40:53Z</time>
      </trkpt>
      <trkpt lat="42.13719" lon="9.08463">
        <ele>2003.0441895</ele>
        <time>2010-08-27T08:40:58Z</time>
      </trkpt>
      <trkpt lat="42.13719" lon="9.08459">
        <ele>2005.9279785</ele>
        <time>2010-08-27T08:41:05Z</time>
      </trkpt>
      <trkpt lat="42.13718" lon="9.08456">
        <ele>2006.8894043</ele>
        <time>2010-08-27T08:41:10Z</time>
      </trkpt>
      <trkpt lat="42.13719" lon="9.08453">
        <ele>2007.8508301</ele>
        <time>2010-08-27T08:41:16Z</time>
      </trkpt>
      <trkpt lat="42.13718" lon="9.08448">
        <ele>2008.8120117</ele>
        <time>2010-08-27T08:41:23Z</time>
      </trkpt>
      <trkpt lat="42.13717" lon="9.08444">
        <ele>2011.215332</ele>
        <time>2010-08-27T08:41:31Z</time>
      </trkpt>
      <trkpt lat="42.13718" lon="9.08439">
        <ele>2013.1381836</ele>
        <time>2010-08-27T08:41:39Z</time>
      </trkpt>
      <trkpt lat="42.13718" lon="9.08435">
        <ele>2014.5800781</ele>
        <time>2010-08-27T08:41:47Z</time>
      </trkpt>
      <trkpt lat="42.13719" lon="9.08432">
        <ele>2016.0219727</ele>
        <time>2010-08-27T08:41:54Z</time>
      </trkpt>
      <trkpt lat="42.1372" lon="9.0843">
        <ele>2016.0219727</ele>
        <time>2010-08-27T08:42:01Z</time>
      </trkpt>
      <trkpt lat="42.13721" lon="9.08428">
        <ele>2016.5026855</ele>
        <time>2010-08-27T08:42:08Z</time>
      </trkpt>
      <trkpt lat="42.13722" lon="9.08427">
        <ele>2015.060791</ele>
        <time>2010-08-27T08:42:15Z</time>
      </trkpt>
      <trkpt lat="42.13723" lon="9.08427">
        <ele>2016.0219727</ele>
        <time>2010-08-27T08:42:20Z</time>
      </trkpt>
      <trkpt lat="42.13725" lon="9.08425">
        <ele>2017.4638672</ele>
        <time>2010-08-27T08:42:26Z</time>
      </trkpt>
      <trkpt lat="42.13725" lon="9.08423">
        <ele>2019.8671875</ele>
        <time>2010-08-27T08:42:33Z</time>
      </trkpt>
      <trkpt lat="42.13725" lon="9.08422">
        <ele>2019.3867188</ele>
        <time>2010-08-27T08:42:41Z</time>
      </trkpt>
      <trkpt lat="42.13725" lon="9.08422">
        <ele>2017.4638672</ele>
        <time>2010-08-27T08:42:47Z</time>
      </trkpt>
      <trkpt lat="42.13725" lon="9.08422">
        <ele>2017.9445801</ele>
        <time>2010-08-27T08:43:03Z</time>
      </trkpt>
      <trkpt lat="42.13726" lon="9.08421">
        <ele>2018.9060059</ele>
        <time>2010-08-27T08:43:08Z</time>
      </trkpt>
      <trkpt lat="42.13727" lon="9.08421">
        <ele>2020.8286133</ele>
        <time>2010-08-27T08:43:15Z</time>
      </trkpt>
      <trkpt lat="42.13726" lon="9.08419">
        <ele>2017.9445801</ele>
        <time>2010-08-27T08:43:27Z</time>
      </trkpt>
      <trkpt lat="42.13726" lon="9.08417">
        <ele>2019.3867188</ele>
        <time>2010-08-27T08:43:39Z</time>
      </trkpt>
      <trkpt lat="42.13726" lon="9.08417">
        <ele>2018.9060059</ele>
        <time>2010-08-27T08:44:18Z</time>
      </trkpt>
      <trkpt lat="42.13727" lon="9.08418">
        <ele>2018.425293</ele>
        <time>2010-08-27T08:44:29Z</time>
      </trkpt>
      <trkpt lat="42.13727" lon="9.08419">
        <ele>2017.9445801</ele>
        <time>2010-08-27T08:45:22Z</time>
      </trkpt>
      <trkpt lat="42.13727" lon="9.08417">
        <ele>2020.8286133</ele>
        <time>2010-08-27T08:46:23Z</time>
      </trkpt>
      <trkpt lat="42.13725" lon="9.08414">
        <ele>2024.6738281</ele>
        <time>2010-08-27T08:46:36Z</time>
      </trkpt>
      <trkpt lat="42.13725" lon="9.08415">
        <ele>2023.7124023</ele>
        <time>2010-08-27T08:46:44Z</time>
      </trkpt>
      <trkpt lat="42.13726" lon="9.08416">
        <ele>2019.8671875</ele>
        <time>2010-08-27T08:47:08Z</time>
      </trkpt>
      <trkpt lat="42.13725" lon="9.08416">
        <ele>2019.3867188</ele>
        <time>2010-08-27T08:47:15Z</time>
      </trkpt>
      <trkpt lat="42.13723" lon="9.08415">
        <ele>2016.0219727</ele>
        <time>2010-08-27T08:47:28Z</time>
      </trkpt>
      <trkpt lat="42.13724" lon="9.08418">
        <ele>2016.9833984</ele>
        <time>2010-08-27T08:47:33Z</time>
      </trkpt>
      <trkpt lat="42.13726" lon="9.08418">
        <ele>2016.0219727</ele>
        <time>2010-08-27T08:47:40Z</time>
      </trkpt>
      <trkpt lat="42.13725" lon="9.08418">
        <ele>2016.9833984</ele>
        <time>2010-08-27T08:47:46Z</time>
      </trkpt>
      <trkpt lat="42.13725" lon="9.08418">
        <ele>2016.5026855</ele>
        <time>2010-08-27T08:47:53Z</time>
      </trkpt>
      <trkpt lat="42.13727" lon="9.08419">
        <ele>2015.5415039</ele>
        <time>2010-08-27T08:48:08Z</time>
      </trkpt>
      <trkpt lat="42.13727" lon="9.0842">
        <ele>2016.0219727</ele>
        <time>2010-08-27T08:48:29Z</time>
      </trkpt>
      <trkpt lat="42.13727" lon="9.0842">
        <ele>2016.5026855</ele>
        <time>2010-08-27T08:48:44Z</time>
      </trkpt>
      <trkpt lat="42.13727" lon="9.08419">
        <ele>2016.5026855</ele>
        <time>2010-08-27T08:49:09Z</time>
      </trkpt>
      <trkpt lat="42.13727" lon="9.08419">
        <ele>2017.4638672</ele>
        <time>2010-08-27T08:49:37Z</time>
      </trkpt>
      <trkpt lat="42.13726" lon="9.08419">
        <ele>2017.4638672</ele>
        <time>2010-08-27T08:50:29Z</time>
      </trkpt>
      <trkpt lat="42.13726" lon="9.08419">
        <ele>2017.9445801</ele>
        <time>2010-08-27T08:50:41Z</time>
      </trkpt>
      <trkpt lat="42.13726" lon="9.08419">
        <ele>2017.9445801</ele>
        <time>2010-08-27T08:50:50Z</time>
      </trkpt>
      <trkpt lat="42.13725" lon="9.08418">
        <ele>2019.3867188</ele>
        <time>2010-08-27T08:51:01Z</time>
      </trkpt>
      <trkpt lat="42.13725" lon="9.08419">
        <ele>2018.9060059</ele>
        <time>2010-08-27T08:51:09Z</time>
      </trkpt>
      <trkpt lat="42.13725" lon="9.08421">
        <ele>2018.425293</ele>
        <time>2010-08-27T08:51:18Z</time>
      </trkpt>
      <trkpt lat="42.13725" lon="9.0842">
        <ele>2018.425293</ele>
        <time>2010-08-27T08:51:25Z</time>
      </trkpt>
      <trkpt lat="42.13727" lon="9.08423">
        <ele>2018.425293</ele>
        <time>2010-08-27T08:51:36Z</time>
      </trkpt>
      <trkpt lat="42.13729" lon="9.08428">
        <ele>2018.425293</ele>
        <time>2010-08-27T08:51:44Z</time>
      </trkpt>
      <trkpt lat="42.13731" lon="9.08431">
        <ele>2019.3867188</ele>
        <time>2010-08-27T08:51:50Z</time>
      </trkpt>
      <trkpt lat="42.13732" lon="9.0843">
        <ele>2020.3479004</ele>
        <time>2010-08-27T08:51:57Z</time>
      </trkpt>
      <trkpt lat="42.13733" lon="9.08432">
        <ele>2016.9833984</ele>
        <time>2010-08-27T08:52:16Z</time>
      </trkpt>
      <trkpt lat="42.13738" lon="9.08436">
        <ele>2015.5415039</ele>
        <time>2010-08-27T08:52:22Z</time>
      </trkpt>
      <trkpt lat="42.13743" lon="9.08439">
        <ele>2015.5415039</ele>
        <time>2010-08-27T08:52:30Z</time>
      </trkpt>
      <trkpt lat="42.13746" lon="9.08445">
        <ele>2015.5415039</ele>
        <time>2010-08-27T08:52:37Z</time>
      </trkpt>
      <trkpt lat="42.13749" lon="9.08448">
        <ele>2016.9833984</ele>
        <time>2010-08-27T08:52:44Z</time>
      </trkpt>
      <trkpt lat="42.13753" lon="9.08449">
        <ele>2018.9060059</ele>
        <time>2010-08-27T08:52:50Z</time>
      </trkpt>
      <trkpt lat="42.13755" lon="9.08453">
        <ele>2018.425293</ele>
        <time>2010-08-27T08:52:57Z</time>
      </trkpt>
      <trkpt lat="42.13756" lon="9.08457">
        <ele>2019.3867188</ele>
        <time>2010-08-27T08:53:04Z</time>
      </trkpt>
      <trkpt lat="42.13759" lon="9.0846">
        <ele>2019.3867188</ele>
        <time>2010-08-27T08:53:10Z</time>
      </trkpt>
      <trkpt lat="42.13761" lon="9.08467">
        <ele>2020.3479004</ele>
        <time>2010-08-27T08:53:16Z</time>
      </trkpt>
      <trkpt lat="42.13763" lon="9.08474">
        <ele>2022.2705078</ele>
        <time>2010-08-27T08:53:24Z</time>
      </trkpt>
      <trkpt lat="42.13768" lon="9.08483">
        <ele>2023.2319336</ele>
        <time>2010-08-27T08:53:33Z</time>
      </trkpt>
      <trkpt lat="42.13773" lon="9.08486">
        <ele>2024.1931152</ele>
        <time>2010-08-27T08:53:39Z</time>
      </trkpt>
      <trkpt lat="42.13772" lon="9.08486">
        <ele>2026.5964355</ele>
        <time>2010-08-27T08:53:46Z</time>
      </trkpt>
      <trkpt lat="42.13775" lon="9.08485">
        <ele>2027.5576172</ele>
        <time>2010-08-27T08:54:02Z</time>
      </trkpt>
      <trkpt lat="42.13779" lon="9.0849">
        <ele>2027.5576172</ele>
        <time>2010-08-27T08:54:10Z</time>
      </trkpt>
      <trkpt lat="42.13783" lon="9.08496">
        <ele>2027.0771484</ele>
        <time>2010-08-27T08:54:17Z</time>
      </trkpt>
      <trkpt lat="42.13784" lon="9.08505">
        <ele>2029.4804688</ele>
        <time>2010-08-27T08:54:25Z</time>
      </trkpt>
      <trkpt lat="42.13785" lon="9.08507">
        <ele>2030.4418945</ele>
        <time>2010-08-27T08:54:30Z</time>
      </trkpt>
      <trkpt lat="42.13786" lon="9.08514">
        <ele>2030.4418945</ele>
        <time>2010-08-27T08:54:36Z</time>
      </trkpt>
      <trkpt lat="42.13788" lon="9.08523">
        <ele>2029.9611816</ele>
        <time>2010-08-27T08:54:43Z</time>
      </trkpt>
      <trkpt lat="42.13791" lon="9.08529">
        <ele>2029.9611816</ele>
        <time>2010-08-27T08:54:49Z</time>
      </trkpt>
      <trkpt lat="42.13792" lon="9.08533">
        <ele>2030.9226074</ele>
        <time>2010-08-27T08:54:54Z</time>
      </trkpt>
      <trkpt lat="42.13794" lon="9.08533">
        <ele>2036.2097168</ele>
        <time>2010-08-27T08:55:11Z</time>
      </trkpt>
      <trkpt lat="42.13794" lon="9.08538">
        <ele>2034.2871094</ele>
        <time>2010-08-27T08:55:25Z</time>
      </trkpt>
      <trkpt lat="42.13795" lon="9.08542">
        <ele>2034.2871094</ele>
        <time>2010-08-27T08:55:32Z</time>
      </trkpt>
      <trkpt lat="42.13796" lon="9.08547">
        <ele>2034.7678223</ele>
        <time>2010-08-27T08:55:42Z</time>
      </trkpt>
      <trkpt lat="42.13798" lon="9.08551">
        <ele>2034.7678223</ele>
        <time>2010-08-27T08:55:48Z</time>
      </trkpt>
      <trkpt lat="42.13799" lon="9.08552">
        <ele>2034.7678223</ele>
        <time>2010-08-27T08:55:55Z</time>
      </trkpt>
      <trkpt lat="42.13798" lon="9.08555">
        <ele>2033.8063965</ele>
        <time>2010-08-27T08:56:06Z</time>
      </trkpt>
      <trkpt lat="42.13799" lon="9.08556">
        <ele>2034.2871094</ele>
        <time>2010-08-27T08:56:11Z</time>
      </trkpt>
      <trkpt lat="42.13799" lon="9.08559">
        <ele>2033.3256836</ele>
        <time>2010-08-27T08:56:18Z</time>
      </trkpt>
      <trkpt lat="42.13798" lon="9.08566">
        <ele>2033.3256836</ele>
        <time>2010-08-27T08:56:25Z</time>
      </trkpt>
      <trkpt lat="42.13797" lon="9.08574">
        <ele>2033.8063965</ele>
        <time>2010-08-27T08:56:31Z</time>
      </trkpt>
      <trkpt lat="42.13796" lon="9.08578">
        <ele>2034.7678223</ele>
        <time>2010-08-27T08:56:34Z</time>
      </trkpt>
      <trkpt lat="42.13797" lon="9.08587">
        <ele>2035.248291</ele>
        <time>2010-08-27T08:56:41Z</time>
      </trkpt>
      <trkpt lat="42.13797" lon="9.08599">
        <ele>2035.248291</ele>
        <time>2010-08-27T08:56:49Z</time>
      </trkpt>
      <trkpt lat="42.13799" lon="9.08607">
        <ele>2035.248291</ele>
        <time>2010-08-27T08:56:55Z</time>
      </trkpt>
      <trkpt lat="42.13801" lon="9.08614">
        <ele>2033.8063965</ele>
        <time>2010-08-27T08:57:02Z</time>
      </trkpt>
      <trkpt lat="42.13801" lon="9.08622">
        <ele>2032.8449707</ele>
        <time>2010-08-27T08:57:08Z</time>
      </trkpt>
      <trkpt lat="42.13801" lon="9.08623">
        <ele>2032.8449707</ele>
        <time>2010-08-27T08:57:09Z</time>
      </trkpt>
      <trkpt lat="42.13802" lon="9.08636">
        <ele>2034.7678223</ele>
        <time>2010-08-27T08:57:19Z</time>
      </trkpt>
      <trkpt lat="42.13803" lon="9.08643">
        <ele>2035.248291</ele>
        <time>2010-08-27T08:57:25Z</time>
      </trkpt>
      <trkpt lat="42.13804" lon="9.08651">
        <ele>2035.7290039</ele>
        <time>2010-08-27T08:57:32Z</time>
      </trkpt>
      <trkpt lat="42.13805" lon="9.08658">
        <ele>2036.6901855</ele>
        <time>2010-08-27T08:57:39Z</time>
      </trkpt>
      <trkpt lat="42.13805" lon="9.08661">
        <ele>2036.6901855</ele>
        <time>2010-08-27T08:57:46Z</time>
      </trkpt>
      <trkpt lat="42.13806" lon="9.08664">
        <ele>2039.0935059</ele>
        <time>2010-08-27T08:57:57Z</time>
      </trkpt>
      <trkpt lat="42.13806" lon="9.08674">
        <ele>2039.5742188</ele>
        <time>2010-08-27T08:58:05Z</time>
      </trkpt>
      <trkpt lat="42.13808" lon="9.08681">
        <ele>2040.0549316</ele>
        <time>2010-08-27T08:58:12Z</time>
      </trkpt>
      <trkpt lat="42.13809" lon="9.08689">
        <ele>2041.0161133</ele>
        <time>2010-08-27T08:58:21Z</time>
      </trkpt>
      <trkpt lat="42.1381" lon="9.08695">
        <ele>2041.4968262</ele>
        <time>2010-08-27T08:58:27Z</time>
      </trkpt>
      <trkpt lat="42.13811" lon="9.08703">
        <ele>2042.458252</ele>
        <time>2010-08-27T08:58:35Z</time>
      </trkpt>
      <trkpt lat="42.13814" lon="9.08712">
        <ele>2042.458252</ele>
        <time>2010-08-27T08:58:43Z</time>
      </trkpt>
      <trkpt lat="42.13816" lon="9.08718">
        <ele>2042.458252</ele>
        <time>2010-08-27T08:58:49Z</time>
      </trkpt>
      <trkpt lat="42.13818" lon="9.08725">
        <ele>2044.3808594</ele>
        <time>2010-08-27T08:58:57Z</time>
      </trkpt>
      <trkpt lat="42.1382" lon="9.0873">
        <ele>2045.3422852</ele>
        <time>2010-08-27T08:59:03Z</time>
      </trkpt>
      <trkpt lat="42.13822" lon="9.08736">
        <ele>2046.7841797</ele>
        <time>2010-08-27T08:59:10Z</time>
      </trkpt>
      <trkpt lat="42.13826" lon="9.08742">
        <ele>2048.2260742</ele>
        <time>2010-08-27T08:59:18Z</time>
      </trkpt>
      <trkpt lat="42.13829" lon="9.0875">
        <ele>2049.1875</ele>
        <time>2010-08-27T08:59:26Z</time>
      </trkpt>
      <trkpt lat="42.13831" lon="9.08754">
        <ele>2050.1489258</ele>
        <time>2010-08-27T08:59:31Z</time>
      </trkpt>
      <trkpt lat="42.13832" lon="9.08764">
        <ele>2050.6293945</ele>
        <time>2010-08-27T08:59:40Z</time>
      </trkpt>
      <trkpt lat="42.13832" lon="9.08765">
        <ele>2052.552002</ele>
        <time>2010-08-27T09:00:24Z</time>
      </trkpt>
      <trkpt lat="42.13834" lon="9.08767">
        <ele>2050.6293945</ele>
        <time>2010-08-27T09:00:35Z</time>
      </trkpt>
      <trkpt lat="42.13835" lon="9.08768">
        <ele>2049.6682129</ele>
        <time>2010-08-27T09:00:41Z</time>
      </trkpt>
      <trkpt lat="42.13838" lon="9.08771">
        <ele>2050.6293945</ele>
        <time>2010-08-27T09:00:45Z</time>
      </trkpt>
      <trkpt lat="42.13842" lon="9.08781">
        <ele>2051.1101074</ele>
        <time>2010-08-27T09:00:53Z</time>
      </trkpt>
      <trkpt lat="42.13846" lon="9.08792">
        <ele>2051.5908203</ele>
        <time>2010-08-27T09:01:01Z</time>
      </trkpt>
      <trkpt lat="42.1385" lon="9.08804">
        <ele>2052.0712891</ele>
        <time>2010-08-27T09:01:10Z</time>
      </trkpt>
      <trkpt lat="42.13853" lon="9.08811">
        <ele>2052.0712891</ele>
        <time>2010-08-27T09:01:17Z</time>
      </trkpt>
      <trkpt lat="42.13856" lon="9.08815">
        <ele>2053.0327148</ele>
        <time>2010-08-27T09:01:23Z</time>
      </trkpt>
      <trkpt lat="42.13857" lon="9.08822">
        <ele>2054.9553223</ele>
        <time>2010-08-27T09:01:30Z</time>
      </trkpt>
      <trkpt lat="42.1386" lon="9.08829">
        <ele>2054.4746094</ele>
        <time>2010-08-27T09:01:37Z</time>
      </trkpt>
      <trkpt lat="42.1386" lon="9.08834">
        <ele>2054.9553223</ele>
        <time>2010-08-27T09:01:44Z</time>
      </trkpt>
      <trkpt lat="42.13861" lon="9.08839">
        <ele>2054.4746094</ele>
        <time>2010-08-27T09:01:50Z</time>
      </trkpt>
      <trkpt lat="42.1386" lon="9.08841">
        <ele>2053.5134277</ele>
        <time>2010-08-27T09:01:53Z</time>
      </trkpt>
      <trkpt lat="42.13861" lon="9.08851">
        <ele>2053.5134277</ele>
        <time>2010-08-27T09:02:01Z</time>
      </trkpt>
      <trkpt lat="42.13866" lon="9.08857">
        <ele>2053.9941406</ele>
        <time>2010-08-27T09:02:08Z</time>
      </trkpt>
      <trkpt lat="42.13871" lon="9.08866">
        <ele>2053.5134277</ele>
        <time>2010-08-27T09:02:16Z</time>
      </trkpt>
      <trkpt lat="42.13873" lon="9.08872">
        <ele>2053.9941406</ele>
        <time>2010-08-27T09:02:22Z</time>
      </trkpt>
      <trkpt lat="42.13874" lon="9.08875">
        <ele>2055.9165039</ele>
        <time>2010-08-27T09:02:29Z</time>
      </trkpt>
      <trkpt lat="42.13877" lon="9.08876">
        <ele>2058.3198242</ele>
        <time>2010-08-27T09:02:35Z</time>
      </trkpt>
      <trkpt lat="42.13877" lon="9.08879">
        <ele>2062.1652832</ele>
        <time>2010-08-27T09:02:42Z</time>
      </trkpt>
      <trkpt lat="42.13879" lon="9.08884">
        <ele>2061.2041016</ele>
        <time>2010-08-27T09:02:49Z</time>
      </trkpt>
      <trkpt lat="42.1388" lon="9.08889">
        <ele>2065.5300293</ele>
        <time>2010-08-27T09:02:59Z</time>
      </trkpt>
      <trkpt lat="42.13879" lon="9.08891">
        <ele>2069.8557129</ele>
        <time>2010-08-27T09:03:06Z</time>
      </trkpt>
      <trkpt lat="42.13878" lon="9.08893">
        <ele>2068.8945312</ele>
        <time>2010-08-27T09:03:20Z</time>
      </trkpt>
      <trkpt lat="42.1388" lon="9.08899">
        <ele>2067.4523926</ele>
        <time>2010-08-27T09:03:29Z</time>
      </trkpt>
      <trkpt lat="42.1388" lon="9.08901">
        <ele>2068.8945312</ele>
        <time>2010-08-27T09:03:36Z</time>
      </trkpt>
      <trkpt lat="42.13883" lon="9.08902">
        <ele>2073.220459</ele>
        <time>2010-08-27T09:03:44Z</time>
      </trkpt>
      <trkpt lat="42.13884" lon="9.08898">
        <ele>2074.1816406</ele>
        <time>2010-08-27T09:04:25Z</time>
      </trkpt>
      <trkpt lat="42.13882" lon="9.08896">
        <ele>2075.6235352</ele>
        <time>2010-08-27T09:04:39Z</time>
      </trkpt>
      <trkpt lat="42.1388" lon="9.08902">
        <ele>2071.2976074</ele>
        <time>2010-08-27T09:04:45Z</time>
      </trkpt>
      <trkpt lat="42.13879" lon="9.08907">
        <ele>2068.8945312</ele>
        <time>2010-08-27T09:04:52Z</time>
      </trkpt>
      <trkpt lat="42.13879" lon="9.0891">
        <ele>2068.4138184</ele>
        <time>2010-08-27T09:04:58Z</time>
      </trkpt>
      <trkpt lat="42.13878" lon="9.08911">
        <ele>2070.3364258</ele>
        <time>2010-08-27T09:05:05Z</time>
      </trkpt>
      <trkpt lat="42.13876" lon="9.08913">
        <ele>2073.7009277</ele>
        <time>2010-08-27T09:05:12Z</time>
      </trkpt>
      <trkpt lat="42.13875" lon="9.08912">
        <ele>2074.6623535</ele>
        <time>2010-08-27T09:05:18Z</time>
      </trkpt>
      <trkpt lat="42.13876" lon="9.08913">
        <ele>2072.2590332</ele>
        <time>2010-08-27T09:05:53Z</time>
      </trkpt>
      <trkpt lat="42.13876" lon="9.08916">
        <ele>2069.8557129</ele>
        <time>2010-08-27T09:06:05Z</time>
      </trkpt>
      <trkpt lat="42.13875" lon="9.08916">
        <ele>2069.8557129</ele>
        <time>2010-08-27T09:06:06Z</time>
      </trkpt>
      <trkpt lat="42.13873" lon="9.08918">
        <ele>2066.4912109</ele>
        <time>2010-08-27T09:06:13Z</time>
      </trkpt>
      <trkpt lat="42.13874" lon="9.08916">
        <ele>2066.9719238</ele>
        <time>2010-08-27T09:06:21Z</time>
      </trkpt>
      <trkpt lat="42.13874" lon="9.08914">
        <ele>2078.5078125</ele>
        <time>2010-08-27T09:06:45Z</time>
      </trkpt>
      <trkpt lat="42.13871" lon="9.08917">
        <ele>2079.4689941</ele>
        <time>2010-08-27T09:06:52Z</time>
      </trkpt>
      <trkpt lat="42.1387" lon="9.08921">
        <ele>2078.9882812</ele>
        <time>2010-08-27T09:07:02Z</time>
      </trkpt>
      <trkpt lat="42.13867" lon="9.08923">
        <ele>2080.4304199</ele>
        <time>2010-08-27T09:07:07Z</time>
      </trkpt>
      <trkpt lat="42.13863" lon="9.08923">
        <ele>2082.3530273</ele>
        <time>2010-08-27T09:07:14Z</time>
      </trkpt>
      <trkpt lat="42.13862" lon="9.08926">
        <ele>2082.3530273</ele>
        <time>2010-08-27T09:07:20Z</time>
      </trkpt>
      <trkpt lat="42.13859" lon="9.08929">
        <ele>2082.3530273</ele>
        <time>2010-08-27T09:07:26Z</time>
      </trkpt>
      <trkpt lat="42.13855" lon="9.08935">
        <ele>2083.314209</ele>
        <time>2010-08-27T09:07:33Z</time>
      </trkpt>
      <trkpt lat="42.13855" lon="9.0894">
        <ele>2082.3530273</ele>
        <time>2010-08-27T09:07:40Z</time>
      </trkpt>
      <trkpt lat="42.13857" lon="9.08943">
        <ele>2081.8723145</ele>
        <time>2010-08-27T09:07:46Z</time>
      </trkpt>
      <trkpt lat="42.13859" lon="9.08947">
        <ele>2081.8723145</ele>
        <time>2010-08-27T09:07:53Z</time>
      </trkpt>
      <trkpt lat="42.13858" lon="9.08951">
        <ele>2081.8723145</ele>
        <time>2010-08-27T09:07:59Z</time>
      </trkpt>
      <trkpt lat="42.13856" lon="9.08955">
        <ele>2083.314209</ele>
        <time>2010-08-27T09:08:07Z</time>
      </trkpt>
      <trkpt lat="42.13856" lon="9.08958">
        <ele>2085.2368164</ele>
        <time>2010-08-27T09:08:20Z</time>
      </trkpt>
      <trkpt lat="42.13855" lon="9.08958">
        <ele>2087.1594238</ele>
        <time>2010-08-27T09:08:26Z</time>
      </trkpt>
      <trkpt lat="42.13851" lon="9.08961">
        <ele>2090.5239258</ele>
        <time>2010-08-27T09:08:39Z</time>
      </trkpt>
      <trkpt lat="42.13849" lon="9.08963">
        <ele>2091.4853516</ele>
        <time>2010-08-27T09:08:44Z</time>
      </trkpt>
      <trkpt lat="42.13846" lon="9.08968">
        <ele>2092.9274902</ele>
        <time>2010-08-27T09:08:51Z</time>
      </trkpt>
      <trkpt lat="42.13841" lon="9.08976">
        <ele>2091.4853516</ele>
        <time>2010-08-27T09:08:59Z</time>
      </trkpt>
      <trkpt lat="42.13838" lon="9.0898">
        <ele>2092.9274902</ele>
        <time>2010-08-27T09:09:06Z</time>
      </trkpt>
      <trkpt lat="42.13835" lon="9.08982">
        <ele>2096.2922363</ele>
        <time>2010-08-27T09:09:14Z</time>
      </trkpt>
      <trkpt lat="42.13834" lon="9.08984">
        <ele>2097.7341309</ele>
        <time>2010-08-27T09:09:21Z</time>
      </trkpt>
      <trkpt lat="42.13833" lon="9.08987">
        <ele>2099.6567383</ele>
        <time>2010-08-27T09:09:27Z</time>
      </trkpt>
      <trkpt lat="42.13834" lon="9.08987">
        <ele>2100.6179199</ele>
        <time>2010-08-27T09:09:32Z</time>
      </trkpt>
      <trkpt lat="42.13833" lon="9.08992">
        <ele>2102.0598145</ele>
        <time>2010-08-27T09:09:39Z</time>
      </trkpt>
      <trkpt lat="42.13833" lon="9.08996">
        <ele>2104.4631348</ele>
        <time>2010-08-27T09:09:47Z</time>
      </trkpt>
      <trkpt lat="42.13832" lon="9.08999">
        <ele>2105.4245605</ele>
        <time>2010-08-27T09:09:54Z</time>
      </trkpt>
      <trkpt lat="42.1383" lon="9.09004">
        <ele>2107.347168</ele>
        <time>2010-08-27T09:10:03Z</time>
      </trkpt>
      <trkpt lat="42.13833" lon="9.09005">
        <ele>2108.7893066</ele>
        <time>2010-08-27T09:10:09Z</time>
      </trkpt>
      <trkpt lat="42.13832" lon="9.09009">
        <ele>2109.2700195</ele>
        <time>2010-08-27T09:10:16Z</time>
      </trkpt>
      <trkpt lat="42.13833" lon="9.0901">
        <ele>2108.3085938</ele>
        <time>2010-08-27T09:10:26Z</time>
      </trkpt>
      <trkpt lat="42.13833" lon="9.09014">
        <ele>2108.3085938</ele>
        <time>2010-08-27T09:10:32Z</time>
      </trkpt>
      <trkpt lat="42.13831" lon="9.09018">
        <ele>2108.3085938</ele>
        <time>2010-08-27T09:10:38Z</time>
      </trkpt>
      <trkpt lat="42.13831" lon="9.09021">
        <ele>2110.2312012</ele>
        <time>2010-08-27T09:10:45Z</time>
      </trkpt>
      <trkpt lat="42.13829" lon="9.09024">
        <ele>2112.1538086</ele>
        <time>2010-08-27T09:10:51Z</time>
      </trkpt>
      <trkpt lat="42.13828" lon="9.09029">
        <ele>2114.076416</ele>
        <time>2010-08-27T09:10:58Z</time>
      </trkpt>
      <trkpt lat="42.13826" lon="9.09034">
        <ele>2115.9990234</ele>
        <time>2010-08-27T09:11:07Z</time>
      </trkpt>
      <trkpt lat="42.13824" lon="9.09038">
        <ele>2117.440918</ele>
        <time>2010-08-27T09:11:13Z</time>
      </trkpt>
      <trkpt lat="42.13823" lon="9.09043">
        <ele>2118.8830566</ele>
        <time>2010-08-27T09:11:21Z</time>
      </trkpt>
      <trkpt lat="42.13823" lon="9.09047">
        <ele>2120.3249512</ele>
        <time>2010-08-27T09:11:28Z</time>
      </trkpt>
      <trkpt lat="42.13821" lon="9.0905">
        <ele>2121.7668457</ele>
        <time>2010-08-27T09:11:34Z</time>
      </trkpt>
      <trkpt lat="42.1382" lon="9.0905">
        <ele>2120.3249512</ele>
        <time>2010-08-27T09:12:04Z</time>
      </trkpt>
      <trkpt lat="42.1382" lon="9.0905">
        <ele>2118.4023438</ele>
        <time>2010-08-27T09:12:13Z</time>
      </trkpt>
      <trkpt lat="42.13819" lon="9.09056">
        <ele>2119.3637695</ele>
        <time>2010-08-27T09:12:21Z</time>
      </trkpt>
      <trkpt lat="42.13818" lon="9.09058">
        <ele>2121.2861328</ele>
        <time>2010-08-27T09:12:30Z</time>
      </trkpt>
      <trkpt lat="42.13818" lon="9.09062">
        <ele>2123.6894531</ele>
        <time>2010-08-27T09:12:37Z</time>
      </trkpt>
      <trkpt lat="42.13819" lon="9.09064">
        <ele>2127.5349121</ele>
        <time>2010-08-27T09:12:43Z</time>
      </trkpt>
      <trkpt lat="42.13817" lon="9.09071">
        <ele>2129.9382324</ele>
        <time>2010-08-27T09:12:51Z</time>
      </trkpt>
      <trkpt lat="42.13819" lon="9.09068">
        <ele>2132.8220215</ele>
        <time>2010-08-27T09:12:57Z</time>
      </trkpt>
      <trkpt lat="42.13818" lon="9.09071">
        <ele>2134.744873</ele>
        <time>2010-08-27T09:13:03Z</time>
      </trkpt>
      <trkpt lat="42.13821" lon="9.09072">
        <ele>2135.2253418</ele>
        <time>2010-08-27T09:13:09Z</time>
      </trkpt>
      <trkpt lat="42.13821" lon="9.09076">
        <ele>2134.744873</ele>
        <time>2010-08-27T09:13:15Z</time>
      </trkpt>
      <trkpt lat="42.1382" lon="9.0908">
        <ele>2134.744873</ele>
        <time>2010-08-27T09:13:22Z</time>
      </trkpt>
      <trkpt lat="42.13818" lon="9.09084">
        <ele>2135.7060547</ele>
        <time>2010-08-27T09:13:29Z</time>
      </trkpt>
      <trkpt lat="42.13818" lon="9.09088">
        <ele>2137.1479492</ele>
        <time>2010-08-27T09:13:35Z</time>
      </trkpt>
      <trkpt lat="42.13816" lon="9.09092">
        <ele>2138.5900879</ele>
        <time>2010-08-27T09:13:42Z</time>
      </trkpt>
      <trkpt lat="42.13814" lon="9.09097">
        <ele>2140.0322266</ele>
        <time>2010-08-27T09:13:49Z</time>
      </trkpt>
      <trkpt lat="42.13812" lon="9.09101">
        <ele>2141.4741211</ele>
        <time>2010-08-27T09:13:56Z</time>
      </trkpt>
      <trkpt lat="42.13812" lon="9.09105">
        <ele>2143.3967285</ele>
        <time>2010-08-27T09:14:05Z</time>
      </trkpt>
      <trkpt lat="42.13812" lon="9.09105">
        <ele>2145.3193359</ele>
        <time>2010-08-27T09:14:16Z</time>
      </trkpt>
      <trkpt lat="42.13814" lon="9.09109">
        <ele>2145.8000488</ele>
        <time>2010-08-27T09:14:22Z</time>
      </trkpt>
      <trkpt lat="42.13817" lon="9.09113">
        <ele>2145.8000488</ele>
        <time>2010-08-27T09:14:28Z</time>
      </trkpt>
      <trkpt lat="42.13815" lon="9.09117">
        <ele>2145.8000488</ele>
        <time>2010-08-27T09:14:33Z</time>
      </trkpt>
      <trkpt lat="42.1381" lon="9.09125">
        <ele>2146.7612305</ele>
        <time>2010-08-27T09:14:43Z</time>
      </trkpt>
      <trkpt lat="42.13807" lon="9.0913">
        <ele>2147.7226562</ele>
        <time>2010-08-27T09:14:50Z</time>
      </trkpt>
      <trkpt lat="42.13802" lon="9.09135">
        <ele>2149.6452637</ele>
        <time>2010-08-27T09:14:57Z</time>
      </trkpt>
      <trkpt lat="42.13801" lon="9.09138">
        <ele>2150.1259766</ele>
        <time>2010-08-27T09:15:03Z</time>
      </trkpt>
      <trkpt lat="42.13803" lon="9.09138">
        <ele>2153.0097656</ele>
        <time>2010-08-27T09:15:09Z</time>
      </trkpt>
      <trkpt lat="42.13805" lon="9.09138">
        <ele>2154.4516602</ele>
        <time>2010-08-27T09:15:16Z</time>
      </trkpt>
      <trkpt lat="42.13804" lon="9.09141">
        <ele>2154.932373</ele>
        <time>2010-08-27T09:15:22Z</time>
      </trkpt>
      <trkpt lat="42.13801" lon="9.09146">
        <ele>2155.8935547</ele>
        <time>2010-08-27T09:15:29Z</time>
      </trkpt>
      <trkpt lat="42.13799" lon="9.09148">
        <ele>2157.3359375</ele>
        <time>2010-08-27T09:15:35Z</time>
      </trkpt>
      <trkpt lat="42.13801" lon="9.09148">
        <ele>2158.777832</ele>
        <time>2010-08-27T09:15:42Z</time>
      </trkpt>
      <trkpt lat="42.13805" lon="9.09151">
        <ele>2161.1811523</ele>
        <time>2010-08-27T09:15:48Z</time>
      </trkpt>
      <trkpt lat="42.1381" lon="9.09155">
        <ele>2164.0649414</ele>
        <time>2010-08-27T09:15:55Z</time>
      </trkpt>
      <trkpt lat="42.1381" lon="9.09157">
        <ele>2164.0649414</ele>
        <time>2010-08-27T09:16:00Z</time>
      </trkpt>
      <trkpt lat="42.1381" lon="9.09156">
        <ele>2164.5456543</ele>
        <time>2010-08-27T09:16:13Z</time>
      </trkpt>
      <trkpt lat="42.13807" lon="9.09156">
        <ele>2161.1811523</ele>
        <time>2010-08-27T09:16:23Z</time>
      </trkpt>
      <trkpt lat="42.13809" lon="9.09156">
        <ele>2161.1811523</ele>
        <time>2010-08-27T09:16:34Z</time>
      </trkpt>
      <trkpt lat="42.1381" lon="9.09154">
        <ele>2163.5842285</ele>
        <time>2010-08-27T09:16:44Z</time>
      </trkpt>
      <trkpt lat="42.1381" lon="9.09152">
        <ele>2164.0649414</ele>
        <time>2010-08-27T09:16:49Z</time>
      </trkpt>
      <trkpt lat="42.1381" lon="9.09152">
        <ele>2164.5456543</ele>
        <time>2010-08-27T09:16:58Z</time>
      </trkpt>
      <trkpt lat="42.13811" lon="9.09153">
        <ele>2166.9489746</ele>
        <time>2010-08-27T09:17:08Z</time>
      </trkpt>
      <trkpt lat="42.13811" lon="9.09154">
        <ele>2169.8327637</ele>
        <time>2010-08-27T09:17:19Z</time>
      </trkpt>
      <trkpt lat="42.1381" lon="9.09152">
        <ele>2167.9101562</ele>
        <time>2010-08-27T09:17:26Z</time>
      </trkpt>
      <trkpt lat="42.1381" lon="9.09152">
        <ele>2165.9875488</ele>
        <time>2010-08-27T09:17:37Z</time>
      </trkpt>
      <trkpt lat="42.13813" lon="9.09147">
        <ele>2165.5070801</ele>
        <time>2010-08-27T09:17:43Z</time>
      </trkpt>
      <trkpt lat="42.1381" lon="9.09141">
        <ele>2163.1037598</ele>
        <time>2010-08-27T09:17:50Z</time>
      </trkpt>
      <trkpt lat="42.13805" lon="9.09136">
        <ele>2158.777832</ele>
        <time>2010-08-27T09:17:58Z</time>
      </trkpt>
      <trkpt lat="42.13806" lon="9.09137">
        <ele>2156.8552246</ele>
        <time>2010-08-27T09:18:08Z</time>
      </trkpt>
      <trkpt lat="42.13805" lon="9.09137">
        <ele>2157.8166504</ele>
        <time>2010-08-27T09:18:18Z</time>
      </trkpt>
      <trkpt lat="42.13803" lon="9.09139">
        <ele>2159.2585449</ele>
        <time>2010-08-27T09:18:28Z</time>
      </trkpt>
      <trkpt lat="42.13802" lon="9.09143">
        <ele>2160.2197266</ele>
        <time>2010-08-27T09:18:35Z</time>
      </trkpt>
      <trkpt lat="42.138" lon="9.09147">
        <ele>2160.2197266</ele>
        <time>2010-08-27T09:18:41Z</time>
      </trkpt>
      <trkpt lat="42.13796" lon="9.09151">
        <ele>2161.1811523</ele>
        <time>2010-08-27T09:18:47Z</time>
      </trkpt>
      <trkpt lat="42.13794" lon="9.09156">
        <ele>2162.142334</ele>
        <time>2010-08-27T09:18:53Z</time>
      </trkpt>
      <trkpt lat="42.13791" lon="9.09161">
        <ele>2164.0649414</ele>
        <time>2010-08-27T09:19:00Z</time>
      </trkpt>
      <trkpt lat="42.13788" lon="9.09165">
        <ele>2165.9875488</ele>
        <time>2010-08-27T09:19:06Z</time>
      </trkpt>
      <trkpt lat="42.13785" lon="9.09167">
        <ele>2167.4294434</ele>
        <time>2010-08-27T09:19:12Z</time>
      </trkpt>
      <trkpt lat="42.13783" lon="9.09172">
        <ele>2168.3908691</ele>
        <time>2010-08-27T09:19:18Z</time>
      </trkpt>
      <trkpt lat="42.13783" lon="9.09178">
        <ele>2169.8327637</ele>
        <time>2010-08-27T09:19:25Z</time>
      </trkpt>
      <trkpt lat="42.13786" lon="9.09179">
        <ele>2171.2746582</ele>
        <time>2010-08-27T09:19:30Z</time>
      </trkpt>
      <trkpt lat="42.13789" lon="9.09183">
        <ele>2172.717041</ele>
        <time>2010-08-27T09:19:36Z</time>
      </trkpt>
      <trkpt lat="42.13789" lon="9.09185">
        <ele>2172.717041</ele>
        <time>2010-08-27T09:19:43Z</time>
      </trkpt>
      <trkpt lat="42.13788" lon="9.09184">
        <ele>2173.6782227</ele>
        <time>2010-08-27T09:19:51Z</time>
      </trkpt>
      <trkpt lat="42.13787" lon="9.09184">
        <ele>2174.1589355</ele>
        <time>2010-08-27T09:20:00Z</time>
      </trkpt>
      <trkpt lat="42.13786" lon="9.09184">
        <ele>2172.717041</ele>
        <time>2010-08-27T09:20:07Z</time>
      </trkpt>
      <trkpt lat="42.13787" lon="9.09185">
        <ele>2171.7553711</ele>
        <time>2010-08-27T09:20:15Z</time>
      </trkpt>
      <trkpt lat="42.13787" lon="9.09185">
        <ele>2172.717041</ele>
        <time>2010-08-27T09:20:25Z</time>
      </trkpt>
      <trkpt lat="42.13788" lon="9.09184">
        <ele>2169.8327637</ele>
        <time>2010-08-27T09:20:36Z</time>
      </trkpt>
      <trkpt lat="42.13788" lon="9.09184">
        <ele>2170.3134766</ele>
        <time>2010-08-27T09:20:44Z</time>
      </trkpt>
      <trkpt lat="42.13786" lon="9.09187">
        <ele>2171.2746582</ele>
        <time>2010-08-27T09:20:51Z</time>
      </trkpt>
      <trkpt lat="42.13783" lon="9.0919">
        <ele>2172.717041</ele>
        <time>2010-08-27T09:20:57Z</time>
      </trkpt>
      <trkpt lat="42.13781" lon="9.09196">
        <ele>2173.6782227</ele>
        <time>2010-08-27T09:21:03Z</time>
      </trkpt>
      <trkpt lat="42.13782" lon="9.09199">
        <ele>2173.1977539</ele>
        <time>2010-08-27T09:21:08Z</time>
      </trkpt>
      <trkpt lat="42.13781" lon="9.09198">
        <ele>2172.717041</ele>
        <time>2010-08-27T09:21:16Z</time>
      </trkpt>
      <trkpt lat="42.13781" lon="9.09201">
        <ele>2172.717041</ele>
        <time>2010-08-27T09:21:22Z</time>
      </trkpt>
      <trkpt lat="42.13779" lon="9.09204">
        <ele>2172.2363281</ele>
        <time>2010-08-27T09:21:28Z</time>
      </trkpt>
      <trkpt lat="42.13777" lon="9.09208">
        <ele>2171.7553711</ele>
        <time>2010-08-27T09:21:36Z</time>
      </trkpt>
      <trkpt lat="42.13776" lon="9.09214">
        <ele>2171.2746582</ele>
        <time>2010-08-27T09:21:43Z</time>
      </trkpt>
      <trkpt lat="42.13776" lon="9.09211">
        <ele>2171.7553711</ele>
        <time>2010-08-27T09:21:56Z</time>
      </trkpt>
      <trkpt lat="42.13777" lon="9.09212">
        <ele>2171.7553711</ele>
        <time>2010-08-27T09:22:14Z</time>
      </trkpt>
      <trkpt lat="42.13777" lon="9.09213">
        <ele>2172.2363281</ele>
        <time>2010-08-27T09:22:23Z</time>
      </trkpt>
      <trkpt lat="42.13775" lon="9.09212">
        <ele>2171.2746582</ele>
        <time>2010-08-27T09:22:33Z</time>
      </trkpt>
      <trkpt lat="42.13776" lon="9.09214">
        <ele>2170.7941895</ele>
        <time>2010-08-27T09:22:48Z</time>
      </trkpt>
      <trkpt lat="42.13774" lon="9.09217">
        <ele>2169.8327637</ele>
        <time>2010-08-27T09:23:11Z</time>
      </trkpt>
      <trkpt lat="42.13771" lon="9.0922">
        <ele>2162.6230469</ele>
        <time>2010-08-27T09:23:48Z</time>
      </trkpt>
      <trkpt lat="42.13772" lon="9.09228">
        <ele>2146.7612305</ele>
        <time>2010-08-27T09:23:59Z</time>
      </trkpt>
      <trkpt lat="42.13767" lon="9.0923">
        <ele>2141.4741211</ele>
        <time>2010-08-27T09:24:06Z</time>
      </trkpt>
      <trkpt lat="42.13768" lon="9.09225">
        <ele>2150.6064453</ele>
        <time>2010-08-27T09:24:13Z</time>
      </trkpt>
      <trkpt lat="42.13775" lon="9.0921">
        <ele>2177.0429688</ele>
        <time>2010-08-27T09:24:31Z</time>
      </trkpt>
      <trkpt lat="42.13776" lon="9.09213">
        <ele>2174.1589355</ele>
        <time>2010-08-27T09:25:22Z</time>
      </trkpt>
      <trkpt lat="42.13775" lon="9.09213">
        <ele>2172.2363281</ele>
        <time>2010-08-27T09:26:44Z</time>
      </trkpt>
      <trkpt lat="42.13776" lon="9.09213">
        <ele>2174.6396484</ele>
        <time>2010-08-27T09:26:52Z</time>
      </trkpt>
      <trkpt lat="42.13775" lon="9.09212">
        <ele>2174.1589355</ele>
        <time>2010-08-27T09:27:00Z</time>
      </trkpt>
      <trkpt lat="42.13775" lon="9.09211">
        <ele>2173.1977539</ele>
        <time>2010-08-27T09:27:15Z</time>
      </trkpt>
      <trkpt lat="42.13774" lon="9.09211">
        <ele>2172.2363281</ele>
        <time>2010-08-27T09:27:26Z</time>
      </trkpt>
      <trkpt lat="42.13774" lon="9.09211">
        <ele>2171.2746582</ele>
        <time>2010-08-27T09:27:38Z</time>
      </trkpt>
      <trkpt lat="42.13775" lon="9.09211">
        <ele>2170.3134766</ele>
        <time>2010-08-27T09:27:44Z</time>
      </trkpt>
      <trkpt lat="42.13775" lon="9.09212">
        <ele>2170.3134766</ele>
        <time>2010-08-27T09:27:56Z</time>
      </trkpt>
      <trkpt lat="42.13774" lon="9.09208">
        <ele>2171.7553711</ele>
        <time>2010-08-27T09:28:08Z</time>
      </trkpt>
      <trkpt lat="42.13774" lon="9.09208">
        <ele>2171.7553711</ele>
        <time>2010-08-27T09:28:14Z</time>
      </trkpt>
      <trkpt lat="42.13775" lon="9.09208">
        <ele>2171.7553711</ele>
        <time>2010-08-27T09:28:21Z</time>
      </trkpt>
      <trkpt lat="42.13775" lon="9.09205">
        <ele>2173.1977539</ele>
        <time>2010-08-27T09:28:27Z</time>
      </trkpt>
      <trkpt lat="42.13775" lon="9.09204">
        <ele>2174.6396484</ele>
        <time>2010-08-27T09:28:33Z</time>
      </trkpt>
      <trkpt lat="42.13776" lon="9.09206">
        <ele>2174.6396484</ele>
        <time>2010-08-27T09:28:40Z</time>
      </trkpt>
      <trkpt lat="42.13779" lon="9.09201">
        <ele>2174.1589355</ele>
        <time>2010-08-27T09:28:47Z</time>
      </trkpt>
      <trkpt lat="42.13781" lon="9.09195">
        <ele>2176.081543</ele>
        <time>2010-08-27T09:28:54Z</time>
      </trkpt>
      <trkpt lat="42.1378" lon="9.09195">
        <ele>2176.081543</ele>
        <time>2010-08-27T09:28:55Z</time>
      </trkpt>
      <trkpt lat="42.13774" lon="9.09199">
        <ele>2177.0429688</ele>
        <time>2010-08-27T09:29:03Z</time>
      </trkpt>
      <trkpt lat="42.13772" lon="9.09201">
        <ele>2177.5234375</ele>
        <time>2010-08-27T09:29:06Z</time>
      </trkpt>
      <trkpt lat="42.1377" lon="9.09205">
        <ele>2178.0041504</ele>
        <time>2010-08-27T09:29:11Z</time>
      </trkpt>
      <trkpt lat="42.13769" lon="9.09206">
        <ele>2178.4848633</ele>
        <time>2010-08-27T09:29:13Z</time>
      </trkpt>
      <trkpt lat="42.13767" lon="9.0921">
        <ele>2179.4460449</ele>
        <time>2010-08-27T09:29:17Z</time>
      </trkpt>
      <trkpt lat="42.13762" lon="9.09217">
        <ele>2181.3686523</ele>
        <time>2010-08-27T09:29:25Z</time>
      </trkpt>
      <trkpt lat="42.13759" lon="9.09219">
        <ele>2183.2912598</ele>
        <time>2010-08-27T09:29:31Z</time>
      </trkpt>
      <trkpt lat="42.13755" lon="9.09222">
        <ele>2185.2138672</ele>
        <time>2010-08-27T09:29:38Z</time>
      </trkpt>
      <trkpt lat="42.13753" lon="9.09225">
        <ele>2186.6557617</ele>
        <time>2010-08-27T09:29:44Z</time>
      </trkpt>
      <trkpt lat="42.13751" lon="9.09227">
        <ele>2188.0981445</ele>
        <time>2010-08-27T09:29:50Z</time>
      </trkpt>
      <trkpt lat="42.1375" lon="9.0923">
        <ele>2189.5400391</ele>
        <time>2010-08-27T09:29:55Z</time>
      </trkpt>
      <trkpt lat="42.13747" lon="9.09231">
        <ele>2190.020752</ele>
        <time>2010-08-27T09:30:00Z</time>
      </trkpt>
      <trkpt lat="42.13743" lon="9.09233">
        <ele>2190.9819336</ele>
        <time>2010-08-27T09:30:06Z</time>
      </trkpt>
      <trkpt lat="42.1374" lon="9.09235">
        <ele>2191.9433594</ele>
        <time>2010-08-27T09:30:12Z</time>
      </trkpt>
      <trkpt lat="42.13739" lon="9.09238">
        <ele>2193.8659668</ele>
        <time>2010-08-27T09:30:18Z</time>
      </trkpt>
      <trkpt lat="42.13739" lon="9.0924">
        <ele>2194.3464355</ele>
        <time>2010-08-27T09:30:23Z</time>
      </trkpt>
      <trkpt lat="42.13736" lon="9.09244">
        <ele>2195.3078613</ele>
        <time>2010-08-27T09:30:29Z</time>
      </trkpt>
      <trkpt lat="42.13731" lon="9.09246">
        <ele>2196.7497559</ele>
        <time>2010-08-27T09:30:36Z</time>
      </trkpt>
      <trkpt lat="42.13728" lon="9.0925">
        <ele>2198.6723633</ele>
        <time>2010-08-27T09:30:43Z</time>
      </trkpt>
      <trkpt lat="42.13726" lon="9.09252">
        <ele>2200.114502</ele>
        <time>2010-08-27T09:30:48Z</time>
      </trkpt>
      <trkpt lat="42.13725" lon="9.09254">
        <ele>2201.5563965</ele>
        <time>2010-08-27T09:30:54Z</time>
      </trkpt>
      <trkpt lat="42.13724" lon="9.09256">
        <ele>2202.5175781</ele>
        <time>2010-08-27T09:31:00Z</time>
      </trkpt>
      <trkpt lat="42.13722" lon="9.09259">
        <ele>2204.4404297</ele>
        <time>2010-08-27T09:31:09Z</time>
      </trkpt>
      <trkpt lat="42.1372" lon="9.09263">
        <ele>2206.3630371</ele>
        <time>2010-08-27T09:31:15Z</time>
      </trkpt>
      <trkpt lat="42.13718" lon="9.09266">
        <ele>2207.8051758</ele>
        <time>2010-08-27T09:31:19Z</time>
      </trkpt>
      <trkpt lat="42.13717" lon="9.0927">
        <ele>2209.2470703</ele>
        <time>2010-08-27T09:31:25Z</time>
      </trkpt>
      <trkpt lat="42.13716" lon="9.09273">
        <ele>2210.6889648</ele>
        <time>2010-08-27T09:31:31Z</time>
      </trkpt>
      <trkpt lat="42.13715" lon="9.09278">
        <ele>2212.6115723</ele>
        <time>2010-08-27T09:31:38Z</time>
      </trkpt>
      <trkpt lat="42.13715" lon="9.0928">
        <ele>2213.5727539</ele>
        <time>2010-08-27T09:31:42Z</time>
      </trkpt>
      <trkpt lat="42.13713" lon="9.09283">
        <ele>2215.0148926</ele>
        <time>2010-08-27T09:31:47Z</time>
      </trkpt>
      <trkpt lat="42.13716" lon="9.09288">
        <ele>2216.9375</ele>
        <time>2010-08-27T09:31:53Z</time>
      </trkpt>
      <trkpt lat="42.13718" lon="9.0929">
        <ele>2218.3793945</ele>
        <time>2010-08-27T09:31:56Z</time>
      </trkpt>
      <trkpt lat="42.13721" lon="9.09296">
        <ele>2220.782959</ele>
        <time>2010-08-27T09:32:03Z</time>
      </trkpt>
      <trkpt lat="42.13718" lon="9.09299">
        <ele>2222.2248535</ele>
        <time>2010-08-27T09:32:09Z</time>
      </trkpt>
      <trkpt lat="42.1372" lon="9.09303">
        <ele>2223.666748</ele>
        <time>2010-08-27T09:32:15Z</time>
      </trkpt>
      <trkpt lat="42.13718" lon="9.09306">
        <ele>2225.1086426</ele>
        <time>2010-08-27T09:32:21Z</time>
      </trkpt>
      <trkpt lat="42.13717" lon="9.09309">
        <ele>2226.5507812</ele>
        <time>2010-08-27T09:32:27Z</time>
      </trkpt>
      <trkpt lat="42.1372" lon="9.09315">
        <ele>2227.9926758</ele>
        <time>2010-08-27T09:32:33Z</time>
      </trkpt>
      <trkpt lat="42.13717" lon="9.09319">
        <ele>2230.3959961</ele>
        <time>2010-08-27T09:32:40Z</time>
      </trkpt>
      <trkpt lat="42.13715" lon="9.09324">
        <ele>2232.3186035</ele>
        <time>2010-08-27T09:32:47Z</time>
      </trkpt>
      <trkpt lat="42.13711" lon="9.09326">
        <ele>2233.2797852</ele>
        <time>2010-08-27T09:32:53Z</time>
      </trkpt>
      <trkpt lat="42.13708" lon="9.0933">
        <ele>2234.7219238</ele>
        <time>2010-08-27T09:32:59Z</time>
      </trkpt>
      <trkpt lat="42.13708" lon="9.09333">
        <ele>2235.6831055</ele>
        <time>2010-08-27T09:33:04Z</time>
      </trkpt>
      <trkpt lat="42.13706" lon="9.09337">
        <ele>2236.1640625</ele>
        <time>2010-08-27T09:33:08Z</time>
      </trkpt>
      <trkpt lat="42.13706" lon="9.0934">
        <ele>2237.1252441</ele>
        <time>2010-08-27T09:33:11Z</time>
      </trkpt>
      <trkpt lat="42.13706" lon="9.09349">
        <ele>2238.5673828</ele>
        <time>2010-08-27T09:33:19Z</time>
      </trkpt>
      <trkpt lat="42.13705" lon="9.09352">
        <ele>2238.5673828</ele>
        <time>2010-08-27T09:33:28Z</time>
      </trkpt>
      <trkpt lat="42.13702" lon="9.09352">
        <ele>2239.5285645</ele>
        <time>2010-08-27T09:33:31Z</time>
      </trkpt>
      <trkpt lat="42.13698" lon="9.09354">
        <ele>2240.970459</ele>
        <time>2010-08-27T09:33:35Z</time>
      </trkpt>
      <trkpt lat="42.13694" lon="9.09364">
        <ele>2242.4125977</ele>
        <time>2010-08-27T09:33:42Z</time>
      </trkpt>
      <trkpt lat="42.13693" lon="9.09371">
        <ele>2241.9318848</ele>
        <time>2010-08-27T09:33:48Z</time>
      </trkpt>
      <trkpt lat="42.13693" lon="9.0937">
        <ele>2242.8930664</ele>
        <time>2010-08-27T09:33:53Z</time>
      </trkpt>
      <trkpt lat="42.13691" lon="9.09369">
        <ele>2243.3737793</ele>
        <time>2010-08-27T09:33:55Z</time>
      </trkpt>
      <trkpt lat="42.13687" lon="9.09372">
        <ele>2244.3349609</ele>
        <time>2010-08-27T09:34:00Z</time>
      </trkpt>
      <trkpt lat="42.13681" lon="9.09382">
        <ele>2245.7770996</ele>
        <time>2010-08-27T09:34:08Z</time>
      </trkpt>
      <trkpt lat="42.13678" lon="9.09384">
        <ele>2246.7382812</ele>
        <time>2010-08-27T09:34:15Z</time>
      </trkpt>
      <trkpt lat="42.1368" lon="9.09383">
        <ele>2246.2578125</ele>
        <time>2010-08-27T09:34:21Z</time>
      </trkpt>
      <trkpt lat="42.13678" lon="9.09385">
        <ele>2247.2189941</ele>
        <time>2010-08-27T09:34:26Z</time>
      </trkpt>
      <trkpt lat="42.13677" lon="9.09384">
        <ele>2247.2189941</ele>
        <time>2010-08-27T09:34:27Z</time>
      </trkpt>
      <trkpt lat="42.13676" lon="9.09382">
        <ele>2246.7382812</ele>
        <time>2010-08-27T09:34:33Z</time>
      </trkpt>
      <trkpt lat="42.13675" lon="9.09386">
        <ele>2248.1801758</ele>
        <time>2010-08-27T09:34:38Z</time>
      </trkpt>
      <trkpt lat="42.13673" lon="9.09388">
        <ele>2250.1030273</ele>
        <time>2010-08-27T09:34:44Z</time>
      </trkpt>
      <trkpt lat="42.1367" lon="9.09391">
        <ele>2251.5449219</ele>
        <time>2010-08-27T09:34:49Z</time>
      </trkpt>
      <trkpt lat="42.13671" lon="9.09393">
        <ele>2252.9870605</ele>
        <time>2010-08-27T09:34:54Z</time>
      </trkpt>
      <trkpt lat="42.13671" lon="9.09397">
        <ele>2254.909668</ele>
        <time>2010-08-27T09:35:01Z</time>
      </trkpt>
      <trkpt lat="42.1367" lon="9.09399">
        <ele>2255.3903809</ele>
        <time>2010-08-27T09:35:04Z</time>
      </trkpt>
      <trkpt lat="42.13668" lon="9.09404">
        <ele>2257.3129883</ele>
        <time>2010-08-27T09:35:09Z</time>
      </trkpt>
      <trkpt lat="42.13665" lon="9.0941">
        <ele>2257.3129883</ele>
        <time>2010-08-27T09:35:15Z</time>
      </trkpt>
      <trkpt lat="42.13661" lon="9.09415">
        <ele>2257.3129883</ele>
        <time>2010-08-27T09:35:21Z</time>
      </trkpt>
      <trkpt lat="42.1366" lon="9.09419">
        <ele>2257.7937012</ele>
        <time>2010-08-27T09:35:28Z</time>
      </trkpt>
      <trkpt lat="42.13657" lon="9.09421">
        <ele>2256.3515625</ele>
        <time>2010-08-27T09:35:33Z</time>
      </trkpt>
      <trkpt lat="42.13656" lon="9.09421">
        <ele>2255.8708496</ele>
        <time>2010-08-27T09:35:35Z</time>
      </trkpt>
      <trkpt lat="42.13652" lon="9.09425">
        <ele>2254.909668</ele>
        <time>2010-08-27T09:35:40Z</time>
      </trkpt>
      <trkpt lat="42.13647" lon="9.09435">
        <ele>2256.3515625</ele>
        <time>2010-08-27T09:35:49Z</time>
      </trkpt>
      <trkpt lat="42.13645" lon="9.09441">
        <ele>2257.3129883</ele>
        <time>2010-08-27T09:35:55Z</time>
      </trkpt>
      <trkpt lat="42.13642" lon="9.09446">
        <ele>2258.2741699</ele>
        <time>2010-08-27T09:36:02Z</time>
      </trkpt>
      <trkpt lat="42.13639" lon="9.09449">
        <ele>2258.7548828</ele>
        <time>2010-08-27T09:36:07Z</time>
      </trkpt>
      <trkpt lat="42.13635" lon="9.09452">
        <ele>2259.2355957</ele>
        <time>2010-08-27T09:36:13Z</time>
      </trkpt>
      <trkpt lat="42.13632" lon="9.09457">
        <ele>2258.2741699</ele>
        <time>2010-08-27T09:36:19Z</time>
      </trkpt>
      <trkpt lat="42.13631" lon="9.09462">
        <ele>2259.7160645</ele>
        <time>2010-08-27T09:36:24Z</time>
      </trkpt>
      <trkpt lat="42.1363" lon="9.09465">
        <ele>2261.1582031</ele>
        <time>2010-08-27T09:36:29Z</time>
      </trkpt>
      <trkpt lat="42.1363" lon="9.09469">
        <ele>2262.1193848</ele>
        <time>2010-08-27T09:36:36Z</time>
      </trkpt>
      <trkpt lat="42.13629" lon="9.09473">
        <ele>2264.0419922</ele>
        <time>2010-08-27T09:36:42Z</time>
      </trkpt>
      <trkpt lat="42.1363" lon="9.09475">
        <ele>2265.4841309</ele>
        <time>2010-08-27T09:36:48Z</time>
      </trkpt>
      <trkpt lat="42.1363" lon="9.09479">
        <ele>2266.4453125</ele>
        <time>2010-08-27T09:36:54Z</time>
      </trkpt>
      <trkpt lat="42.13629" lon="9.09481">
        <ele>2267.4064941</ele>
        <time>2010-08-27T09:37:00Z</time>
      </trkpt>
      <trkpt lat="42.13632" lon="9.09481">
        <ele>2268.3681641</ele>
        <time>2010-08-27T09:37:04Z</time>
      </trkpt>
      <trkpt lat="42.13638" lon="9.09483">
        <ele>2271.2519531</ele>
        <time>2010-08-27T09:37:11Z</time>
      </trkpt>
      <trkpt lat="42.1364" lon="9.09488">
        <ele>2273.6552734</ele>
        <time>2010-08-27T09:37:17Z</time>
      </trkpt>
      <trkpt lat="42.1364" lon="9.0949">
        <ele>2274.1359863</ele>
        <time>2010-08-27T09:37:20Z</time>
      </trkpt>
      <trkpt lat="42.13639" lon="9.09496">
        <ele>2276.0585938</ele>
        <time>2010-08-27T09:37:26Z</time>
      </trkpt>
      <trkpt lat="42.13639" lon="9.09501">
        <ele>2277.0200195</ele>
        <time>2010-08-27T09:37:32Z</time>
      </trkpt>
      <trkpt lat="42.13639" lon="9.09504">
        <ele>2277.9812012</ele>
        <time>2010-08-27T09:37:37Z</time>
      </trkpt>
      <trkpt lat="42.13639" lon="9.09507">
        <ele>2279.4230957</ele>
        <time>2010-08-27T09:37:44Z</time>
      </trkpt>
      <trkpt lat="42.13639" lon="9.09512">
        <ele>2279.4230957</ele>
        <time>2010-08-27T09:37:50Z</time>
      </trkpt>
      <trkpt lat="42.13639" lon="9.09514">
        <ele>2278.9423828</ele>
        <time>2010-08-27T09:37:58Z</time>
      </trkpt>
      <trkpt lat="42.13638" lon="9.09519">
        <ele>2277.0200195</ele>
        <time>2010-08-27T09:38:03Z</time>
      </trkpt>
      <trkpt lat="42.13637" lon="9.09526">
        <ele>2275.5778809</ele>
        <time>2010-08-27T09:38:08Z</time>
      </trkpt>
      <trkpt lat="42.13636" lon="9.09533">
        <ele>2274.6166992</ele>
        <time>2010-08-27T09:38:15Z</time>
      </trkpt>
      <trkpt lat="42.13636" lon="9.09533">
        <ele>2273.1748047</ele>
        <time>2010-08-27T09:38:23Z</time>
      </trkpt>
      <trkpt lat="42.13636" lon="9.09534">
        <ele>2273.1748047</ele>
        <time>2010-08-27T09:38:33Z</time>
      </trkpt>
      <trkpt lat="42.13635" lon="9.09533">
        <ele>2273.6552734</ele>
        <time>2010-08-27T09:38:43Z</time>
      </trkpt>
      <trkpt lat="42.13636" lon="9.09534">
        <ele>2273.1748047</ele>
        <time>2010-08-27T09:38:48Z</time>
      </trkpt>
      <trkpt lat="42.13639" lon="9.09544">
        <ele>2269.8100586</ele>
        <time>2010-08-27T09:38:55Z</time>
      </trkpt>
      <trkpt lat="42.13639" lon="9.09552">
        <ele>2267.887207</ele>
        <time>2010-08-27T09:39:01Z</time>
      </trkpt>
      <trkpt lat="42.13639" lon="9.09554">
        <ele>2266.9260254</ele>
        <time>2010-08-27T09:39:04Z</time>
      </trkpt>
      <trkpt lat="42.13642" lon="9.09563">
        <ele>2267.4064941</ele>
        <time>2010-08-27T09:39:10Z</time>
      </trkpt>
      <trkpt lat="42.13644" lon="9.09565">
        <ele>2268.3681641</ele>
        <time>2010-08-27T09:39:16Z</time>
      </trkpt>
      <trkpt lat="42.13645" lon="9.09565">
        <ele>2268.848877</ele>
        <time>2010-08-27T09:39:21Z</time>
      </trkpt>
      <trkpt lat="42.13646" lon="9.09564">
        <ele>2268.848877</ele>
        <time>2010-08-27T09:39:27Z</time>
      </trkpt>
      <trkpt lat="42.13646" lon="9.09565">
        <ele>2269.3295898</ele>
        <time>2010-08-27T09:39:33Z</time>
      </trkpt>
      <trkpt lat="42.13643" lon="9.09563">
        <ele>2267.887207</ele>
        <time>2010-08-27T09:39:56Z</time>
      </trkpt>
      <trkpt lat="42.1364" lon="9.09558">
        <ele>2271.2519531</ele>
        <time>2010-08-27T09:40:09Z</time>
      </trkpt>
      <trkpt lat="42.13646" lon="9.09558">
        <ele>2268.3681641</ele>
        <time>2010-08-27T09:40:29Z</time>
      </trkpt>
      <trkpt lat="42.13646" lon="9.09559">
        <ele>2266.9260254</ele>
        <time>2010-08-27T09:40:37Z</time>
      </trkpt>
      <trkpt lat="42.13646" lon="9.09559">
        <ele>2270.2907715</ele>
        <time>2010-08-27T09:40:43Z</time>
      </trkpt>
      <trkpt lat="42.13645" lon="9.09561">
        <ele>2270.2907715</ele>
        <time>2010-08-27T09:40:51Z</time>
      </trkpt>
      <trkpt lat="42.13646" lon="9.09563">
        <ele>2271.2519531</ele>
        <time>2010-08-27T09:41:00Z</time>
      </trkpt>
      <trkpt lat="42.13648" lon="9.09567">
        <ele>2272.2133789</ele>
        <time>2010-08-27T09:41:06Z</time>
      </trkpt>
      <trkpt lat="42.13652" lon="9.09573">
        <ele>2272.6940918</ele>
        <time>2010-08-27T09:41:13Z</time>
      </trkpt>
      <trkpt lat="42.13654" lon="9.09581">
        <ele>2274.6166992</ele>
        <time>2010-08-27T09:41:21Z</time>
      </trkpt>
      <trkpt lat="42.13656" lon="9.09586">
        <ele>2275.097168</ele>
        <time>2010-08-27T09:41:26Z</time>
      </trkpt>
      <trkpt lat="42.13655" lon="9.09591">
        <ele>2275.097168</ele>
        <time>2010-08-27T09:41:30Z</time>
      </trkpt>
      <trkpt lat="42.13655" lon="9.09598">
        <ele>2275.5778809</ele>
        <time>2010-08-27T09:41:37Z</time>
      </trkpt>
      <trkpt lat="42.13657" lon="9.096">
        <ele>2276.5393066</ele>
        <time>2010-08-27T09:41:42Z</time>
      </trkpt>
      <trkpt lat="42.13656" lon="9.09601">
        <ele>2277.0200195</ele>
        <time>2010-08-27T09:41:44Z</time>
      </trkpt>
      <trkpt lat="42.13657" lon="9.09604">
        <ele>2278.4619141</ele>
        <time>2010-08-27T09:41:50Z</time>
      </trkpt>
      <trkpt lat="42.13658" lon="9.09608">
        <ele>2280.3845215</ele>
        <time>2010-08-27T09:41:56Z</time>
      </trkpt>
      <trkpt lat="42.13657" lon="9.09611">
        <ele>2281.826416</ele>
        <time>2010-08-27T09:42:01Z</time>
      </trkpt>
      <trkpt lat="42.13659" lon="9.09615">
        <ele>2283.2683105</ele>
        <time>2010-08-27T09:42:07Z</time>
      </trkpt>
      <trkpt lat="42.13659" lon="9.0962">
        <ele>2282.7875977</ele>
        <time>2010-08-27T09:42:13Z</time>
      </trkpt>
      <trkpt lat="42.13658" lon="9.09628">
        <ele>2280.8652344</ele>
        <time>2010-08-27T09:42:20Z</time>
      </trkpt>
      <trkpt lat="42.13659" lon="9.09634">
        <ele>2281.826416</ele>
        <time>2010-08-27T09:42:26Z</time>
      </trkpt>
      <trkpt lat="42.13659" lon="9.09635">
        <ele>2282.3071289</ele>
        <time>2010-08-27T09:42:32Z</time>
      </trkpt>
      <trkpt lat="42.13661" lon="9.09634">
        <ele>2284.7106934</ele>
        <time>2010-08-27T09:42:38Z</time>
      </trkpt>
      <trkpt lat="42.13662" lon="9.09636">
        <ele>2287.5944824</ele>
        <time>2010-08-27T09:42:46Z</time>
      </trkpt>
      <trkpt lat="42.13662" lon="9.09637">
        <ele>2293.3623047</ele>
        <time>2010-08-27T09:42:58Z</time>
      </trkpt>
      <trkpt lat="42.13664" lon="9.09638">
        <ele>2292.8815918</ele>
        <time>2010-08-27T09:43:07Z</time>
      </trkpt>
      <trkpt lat="42.13663" lon="9.0964">
        <ele>2292.8815918</ele>
        <time>2010-08-27T09:43:09Z</time>
      </trkpt>
      <trkpt lat="42.13663" lon="9.09643">
        <ele>2293.8430176</ele>
        <time>2010-08-27T09:43:15Z</time>
      </trkpt>
      <trkpt lat="42.13665" lon="9.09645">
        <ele>2295.765625</ele>
        <time>2010-08-27T09:43:21Z</time>
      </trkpt>
      <trkpt lat="42.13666" lon="9.09648">
        <ele>2298.1687012</ele>
        <time>2010-08-27T09:43:28Z</time>
      </trkpt>
      <trkpt lat="42.13667" lon="9.09651">
        <ele>2300.0917969</ele>
        <time>2010-08-27T09:43:33Z</time>
      </trkpt>
      <trkpt lat="42.13667" lon="9.09655">
        <ele>2301.0529785</ele>
        <time>2010-08-27T09:43:38Z</time>
      </trkpt>
      <trkpt lat="42.13664" lon="9.0966">
        <ele>2302.0141602</ele>
        <time>2010-08-27T09:43:44Z</time>
      </trkpt>
      <trkpt lat="42.13663" lon="9.09662">
        <ele>2303.4562988</ele>
        <time>2010-08-27T09:43:50Z</time>
      </trkpt>
      <trkpt lat="42.13661" lon="9.09662">
        <ele>2302.9755859</ele>
        <time>2010-08-27T09:43:55Z</time>
      </trkpt>
      <trkpt lat="42.1366" lon="9.09666">
        <ele>2302.494873</ele>
        <time>2010-08-27T09:44:00Z</time>
      </trkpt>
      <trkpt lat="42.1366" lon="9.09668">
        <ele>2302.9755859</ele>
        <time>2010-08-27T09:44:03Z</time>
      </trkpt>
      <trkpt lat="42.13663" lon="9.09674">
        <ele>2303.9370117</ele>
        <time>2010-08-27T09:44:10Z</time>
      </trkpt>
      <trkpt lat="42.13663" lon="9.09675">
        <ele>2303.9370117</ele>
        <time>2010-08-27T09:44:21Z</time>
      </trkpt>
      <trkpt lat="42.13664" lon="9.09684">
        <ele>2304.8981934</ele>
        <time>2010-08-27T09:44:28Z</time>
      </trkpt>
      <trkpt lat="42.13666" lon="9.09688">
        <ele>2305.3789062</ele>
        <time>2010-08-27T09:44:34Z</time>
      </trkpt>
      <trkpt lat="42.13666" lon="9.09688">
        <ele>2305.859375</ele>
        <time>2010-08-27T09:44:45Z</time>
      </trkpt>
      <trkpt lat="42.13665" lon="9.0969">
        <ele>2304.4174805</ele>
        <time>2010-08-27T09:44:51Z</time>
      </trkpt>
      <trkpt lat="42.13663" lon="9.09692">
        <ele>2303.4562988</ele>
        <time>2010-08-27T09:44:55Z</time>
      </trkpt>
      <trkpt lat="42.13658" lon="9.09687">
        <ele>2302.494873</ele>
        <time>2010-08-27T09:45:02Z</time>
      </trkpt>
      <trkpt lat="42.13655" lon="9.09689">
        <ele>2301.5336914</ele>
        <time>2010-08-27T09:45:09Z</time>
      </trkpt>
      <trkpt lat="42.13652" lon="9.09687">
        <ele>2301.5336914</ele>
        <time>2010-08-27T09:45:18Z</time>
      </trkpt>
      <trkpt lat="42.13651" lon="9.09691">
        <ele>2299.6108398</ele>
        <time>2010-08-27T09:45:23Z</time>
      </trkpt>
      <trkpt lat="42.13651" lon="9.09693">
        <ele>2299.130127</ele>
        <time>2010-08-27T09:45:26Z</time>
      </trkpt>
      <trkpt lat="42.13654" lon="9.09697">
        <ele>2298.1687012</ele>
        <time>2010-08-27T09:45:34Z</time>
      </trkpt>
      <trkpt lat="42.13653" lon="9.09697">
        <ele>2298.1687012</ele>
        <time>2010-08-27T09:45:45Z</time>
      </trkpt>
      <trkpt lat="42.13652" lon="9.09698">
        <ele>2298.1687012</ele>
        <time>2010-08-27T09:45:49Z</time>
      </trkpt>
      <trkpt lat="42.13652" lon="9.09702">
        <ele>2296.2463379</ele>
        <time>2010-08-27T09:45:54Z</time>
      </trkpt>
      <trkpt lat="42.13652" lon="9.09704">
        <ele>2294.8041992</ele>
        <time>2010-08-27T09:45:59Z</time>
      </trkpt>
      <trkpt lat="42.1365" lon="9.09707">
        <ele>2292.401123</ele>
        <time>2010-08-27T09:46:04Z</time>
      </trkpt>
      <trkpt lat="42.13651" lon="9.09708">
        <ele>2291.9204102</ele>
        <time>2010-08-27T09:46:06Z</time>
      </trkpt>
      <trkpt lat="42.13652" lon="9.09715">
        <ele>2289.5170898</ele>
        <time>2010-08-27T09:46:13Z</time>
      </trkpt>
      <trkpt lat="42.13654" lon="9.09719">
        <ele>2285.1911621</ele>
        <time>2010-08-27T09:46:18Z</time>
      </trkpt>
      <trkpt lat="42.13654" lon="9.09725">
        <ele>2284.2299805</ele>
        <time>2010-08-27T09:46:23Z</time>
      </trkpt>
      <trkpt lat="42.1365" lon="9.09726">
        <ele>2289.5170898</ele>
        <time>2010-08-27T09:46:36Z</time>
      </trkpt>
      <trkpt lat="42.13647" lon="9.09728">
        <ele>2289.036377</ele>
        <time>2010-08-27T09:47:01Z</time>
      </trkpt>
      <trkpt lat="42.13646" lon="9.09729">
        <ele>2289.036377</ele>
        <time>2010-08-27T09:47:06Z</time>
      </trkpt>
      <trkpt lat="42.13643" lon="9.09729">
        <ele>2288.0751953</ele>
        <time>2010-08-27T09:47:10Z</time>
      </trkpt>
      <trkpt lat="42.13641" lon="9.09734">
        <ele>2285.1911621</ele>
        <time>2010-08-27T09:47:16Z</time>
      </trkpt>
      <trkpt lat="42.13641" lon="9.09746">
        <ele>2283.2683105</ele>
        <time>2010-08-27T09:47:24Z</time>
      </trkpt>
      <trkpt lat="42.13641" lon="9.09757">
        <ele>2282.7875977</ele>
        <time>2010-08-27T09:47:31Z</time>
      </trkpt>
      <trkpt lat="42.1364" lon="9.09763">
        <ele>2282.7875977</ele>
        <time>2010-08-27T09:47:37Z</time>
      </trkpt>
      <trkpt lat="42.13639" lon="9.09769">
        <ele>2281.3457031</ele>
        <time>2010-08-27T09:47:43Z</time>
      </trkpt>
      <trkpt lat="42.13638" lon="9.0977">
        <ele>2280.8652344</ele>
        <time>2010-08-27T09:47:45Z</time>
      </trkpt>
      <trkpt lat="42.13636" lon="9.09776">
        <ele>2280.3845215</ele>
        <time>2010-08-27T09:47:49Z</time>
      </trkpt>
      <trkpt lat="42.13631" lon="9.09786">
        <ele>2279.4230957</ele>
        <time>2010-08-27T09:47:58Z</time>
      </trkpt>
      <trkpt lat="42.13627" lon="9.09792">
        <ele>2278.4619141</ele>
        <time>2010-08-27T09:48:03Z</time>
      </trkpt>
      <trkpt lat="42.13625" lon="9.09794">
        <ele>2277.9812012</ele>
        <time>2010-08-27T09:48:06Z</time>
      </trkpt>
      <trkpt lat="42.13621" lon="9.09803">
        <ele>2279.4230957</ele>
        <time>2010-08-27T09:48:14Z</time>
      </trkpt>
      <trkpt lat="42.1362" lon="9.09806">
        <ele>2278.9423828</ele>
        <time>2010-08-27T09:48:16Z</time>
      </trkpt>
      <trkpt lat="42.13619" lon="9.0981">
        <ele>2279.4230957</ele>
        <time>2010-08-27T09:48:19Z</time>
      </trkpt>
      <trkpt lat="42.13618" lon="9.09818">
        <ele>2280.8652344</ele>
        <time>2010-08-27T09:48:26Z</time>
      </trkpt>
      <trkpt lat="42.13618" lon="9.09824">
        <ele>2283.2683105</ele>
        <time>2010-08-27T09:48:34Z</time>
      </trkpt>
      <trkpt lat="42.13618" lon="9.09826">
        <ele>2283.2683105</ele>
        <time>2010-08-27T09:48:41Z</time>
      </trkpt>
      <trkpt lat="42.13616" lon="9.09832">
        <ele>2284.7106934</ele>
        <time>2010-08-27T09:48:47Z</time>
      </trkpt>
      <trkpt lat="42.1361" lon="9.09843">
        <ele>2286.1525879</ele>
        <time>2010-08-27T09:48:57Z</time>
      </trkpt>
      <trkpt lat="42.13607" lon="9.09852">
        <ele>2287.5944824</ele>
        <time>2010-08-27T09:49:05Z</time>
      </trkpt>
      <trkpt lat="42.13603" lon="9.09859">
        <ele>2288.0751953</ele>
        <time>2010-08-27T09:49:12Z</time>
      </trkpt>
      <trkpt lat="42.13605" lon="9.09863">
        <ele>2289.5170898</ele>
        <time>2010-08-27T09:49:18Z</time>
      </trkpt>
      <trkpt lat="42.13605" lon="9.09865">
        <ele>2289.5170898</ele>
        <time>2010-08-27T09:49:25Z</time>
      </trkpt>
      <trkpt lat="42.13607" lon="9.09866">
        <ele>2290.4782715</ele>
        <time>2010-08-27T09:49:31Z</time>
      </trkpt>
      <trkpt lat="42.13609" lon="9.09867">
        <ele>2291.9204102</ele>
        <time>2010-08-27T09:49:37Z</time>
      </trkpt>
      <trkpt lat="42.13612" lon="9.09868">
        <ele>2293.8430176</ele>
        <time>2010-08-27T09:49:43Z</time>
      </trkpt>
      <trkpt lat="42.13612" lon="9.09872">
        <ele>2294.8041992</ele>
        <time>2010-08-27T09:49:49Z</time>
      </trkpt>
      <trkpt lat="42.13615" lon="9.09873">
        <ele>2296.7268066</ele>
        <time>2010-08-27T09:49:57Z</time>
      </trkpt>
      <trkpt lat="42.13617" lon="9.09872">
        <ele>2298.6494141</ele>
        <time>2010-08-27T09:50:03Z</time>
      </trkpt>
      <trkpt lat="42.13619" lon="9.09874">
        <ele>2299.6108398</ele>
        <time>2010-08-27T09:50:08Z</time>
      </trkpt>
      <trkpt lat="42.13621" lon="9.09873">
        <ele>2301.5336914</ele>
        <time>2010-08-27T09:50:13Z</time>
      </trkpt>
      <trkpt lat="42.13625" lon="9.09872">
        <ele>2303.9370117</ele>
        <time>2010-08-27T09:50:21Z</time>
      </trkpt>
      <trkpt lat="42.13628" lon="9.09872">
        <ele>2305.859375</ele>
        <time>2010-08-27T09:50:28Z</time>
      </trkpt>
      <trkpt lat="42.13629" lon="9.09876">
        <ele>2307.3015137</ele>
        <time>2010-08-27T09:50:35Z</time>
      </trkpt>
      <trkpt lat="42.13629" lon="9.09878">
        <ele>2309.2241211</ele>
        <time>2010-08-27T09:50:40Z</time>
      </trkpt>
      <trkpt lat="42.13629" lon="9.09882">
        <ele>2310.1853027</ele>
        <time>2010-08-27T09:50:46Z</time>
      </trkpt>
      <trkpt lat="42.13632" lon="9.09882">
        <ele>2312.1079102</ele>
        <time>2010-08-27T09:50:53Z</time>
      </trkpt>
      <trkpt lat="42.13634" lon="9.09884">
        <ele>2314.0305176</ele>
        <time>2010-08-27T09:50:59Z</time>
      </trkpt>
      <trkpt lat="42.13635" lon="9.09883">
        <ele>2315.4726562</ele>
        <time>2010-08-27T09:51:05Z</time>
      </trkpt>
      <trkpt lat="42.13637" lon="9.09883">
        <ele>2317.3952637</ele>
        <time>2010-08-27T09:51:24Z</time>
      </trkpt>
      <trkpt lat="42.1364" lon="9.09885">
        <ele>2319.3181152</ele>
        <time>2010-08-27T09:51:31Z</time>
      </trkpt>
      <trkpt lat="42.13641" lon="9.09887">
        <ele>2321.2404785</ele>
        <time>2010-08-27T09:51:37Z</time>
      </trkpt>
      <trkpt lat="42.13643" lon="9.09887">
        <ele>2322.2019043</ele>
        <time>2010-08-27T09:51:45Z</time>
      </trkpt>
      <trkpt lat="42.13642" lon="9.0989">
        <ele>2322.6826172</ele>
        <time>2010-08-27T09:51:50Z</time>
      </trkpt>
      <trkpt lat="42.13644" lon="9.09892">
        <ele>2323.1633301</ele>
        <time>2010-08-27T09:51:56Z</time>
      </trkpt>
      <trkpt lat="42.13645" lon="9.09895">
        <ele>2325.5664062</ele>
        <time>2010-08-27T09:52:04Z</time>
      </trkpt>
      <trkpt lat="42.13646" lon="9.09897">
        <ele>2326.527832</ele>
        <time>2010-08-27T09:52:10Z</time>
      </trkpt>
      <trkpt lat="42.13646" lon="9.099">
        <ele>2327.9697266</ele>
        <time>2010-08-27T09:52:16Z</time>
      </trkpt>
      <trkpt lat="42.13648" lon="9.09902">
        <ele>2329.4116211</ele>
        <time>2010-08-27T09:52:23Z</time>
      </trkpt>
      <trkpt lat="42.13648" lon="9.09905">
        <ele>2330.3730469</ele>
        <time>2010-08-27T09:52:28Z</time>
      </trkpt>
      <trkpt lat="42.13649" lon="9.09909">
        <ele>2331.3342285</ele>
        <time>2010-08-27T09:52:35Z</time>
      </trkpt>
      <trkpt lat="42.1365" lon="9.09914">
        <ele>2333.2570801</ele>
        <time>2010-08-27T09:52:41Z</time>
      </trkpt>
      <trkpt lat="42.13652" lon="9.0992">
        <ele>2334.2185059</ele>
        <time>2010-08-27T09:52:47Z</time>
      </trkpt>
      <trkpt lat="42.13651" lon="9.09923">
        <ele>2334.2185059</ele>
        <time>2010-08-27T09:52:50Z</time>
      </trkpt>
      <trkpt lat="42.13651" lon="9.0993">
        <ele>2334.2185059</ele>
        <time>2010-08-27T09:52:56Z</time>
      </trkpt>
      <trkpt lat="42.13651" lon="9.09929">
        <ele>2335.1796875</ele>
        <time>2010-08-27T09:53:09Z</time>
      </trkpt>
      <trkpt lat="42.13654" lon="9.09927">
        <ele>2335.1796875</ele>
        <time>2010-08-27T09:53:14Z</time>
      </trkpt>
      <trkpt lat="42.13658" lon="9.09926">
        <ele>2336.1411133</ele>
        <time>2010-08-27T09:53:20Z</time>
      </trkpt>
      <trkpt lat="42.13662" lon="9.09926">
        <ele>2337.1022949</ele>
        <time>2010-08-27T09:53:28Z</time>
      </trkpt>
      <trkpt lat="42.13668" lon="9.09926">
        <ele>2338.5444336</ele>
        <time>2010-08-27T09:53:34Z</time>
      </trkpt>
      <trkpt lat="42.13673" lon="9.09924">
        <ele>2340.9475098</ele>
        <time>2010-08-27T09:53:42Z</time>
      </trkpt>
      <trkpt lat="42.13676" lon="9.09921">
        <ele>2342.3896484</ele>
        <time>2010-08-27T09:53:49Z</time>
      </trkpt>
      <trkpt lat="42.13676" lon="9.09917">
        <ele>2343.831543</ele>
        <time>2010-08-27T09:53:55Z</time>
      </trkpt>
      <trkpt lat="42.13676" lon="9.09911">
        <ele>2345.2734375</ele>
        <time>2010-08-27T09:54:03Z</time>
      </trkpt>
      <trkpt lat="42.13678" lon="9.09905">
        <ele>2347.1960449</ele>
        <time>2010-08-27T09:54:10Z</time>
      </trkpt>
      <trkpt lat="42.13678" lon="9.09899">
        <ele>2348.1574707</ele>
        <time>2010-08-27T09:54:15Z</time>
      </trkpt>
      <trkpt lat="42.13683" lon="9.0989">
        <ele>2349.5996094</ele>
        <time>2010-08-27T09:54:24Z</time>
      </trkpt>
      <trkpt lat="42.13685" lon="9.09887">
        <ele>2351.5222168</ele>
        <time>2010-08-27T09:54:30Z</time>
      </trkpt>
      <trkpt lat="42.13686" lon="9.09885">
        <ele>2352.9641113</ele>
        <time>2010-08-27T09:54:36Z</time>
      </trkpt>
      <trkpt lat="42.13688" lon="9.09879">
        <ele>2354.4060059</ele>
        <time>2010-08-27T09:54:42Z</time>
      </trkpt>
      <trkpt lat="42.13692" lon="9.09877">
        <ele>2355.8479004</ele>
        <time>2010-08-27T09:54:48Z</time>
      </trkpt>
      <trkpt lat="42.13693" lon="9.09873">
        <ele>2356.3286133</ele>
        <time>2010-08-27T09:54:53Z</time>
      </trkpt>
      <trkpt lat="42.13693" lon="9.0987">
        <ele>2358.2512207</ele>
        <time>2010-08-27T09:54:59Z</time>
      </trkpt>
      <trkpt lat="42.13695" lon="9.09869">
        <ele>2360.1738281</ele>
        <time>2010-08-27T09:55:06Z</time>
      </trkpt>
      <trkpt lat="42.13696" lon="9.0987">
        <ele>2361.6159668</ele>
        <time>2010-08-27T09:55:12Z</time>
      </trkpt>
      <trkpt lat="42.13698" lon="9.0987">
        <ele>2363.0578613</ele>
        <time>2010-08-27T09:55:20Z</time>
      </trkpt>
      <trkpt lat="42.13701" lon="9.09873">
        <ele>2364.9807129</ele>
        <time>2010-08-27T09:55:27Z</time>
      </trkpt>
      <trkpt lat="42.13703" lon="9.09869">
        <ele>2364.9807129</ele>
        <time>2010-08-27T09:55:38Z</time>
      </trkpt>
      <trkpt lat="42.13703" lon="9.09867">
        <ele>2364.9807129</ele>
        <time>2010-08-27T09:55:39Z</time>
      </trkpt>
      <trkpt lat="42.13704" lon="9.09862">
        <ele>2364.9807129</ele>
        <time>2010-08-27T09:55:44Z</time>
      </trkpt>
      <trkpt lat="42.13707" lon="9.09859">
        <ele>2366.4226074</ele>
        <time>2010-08-27T09:55:51Z</time>
      </trkpt>
      <trkpt lat="42.13709" lon="9.09857">
        <ele>2368.3452148</ele>
        <time>2010-08-27T09:55:57Z</time>
      </trkpt>
      <trkpt lat="42.13712" lon="9.09855">
        <ele>2370.2678223</ele>
        <time>2010-08-27T09:56:04Z</time>
      </trkpt>
      <trkpt lat="42.13714" lon="9.09854">
        <ele>2371.2290039</ele>
        <time>2010-08-27T09:56:13Z</time>
      </trkpt>
      <trkpt lat="42.13717" lon="9.09853">
        <ele>2374.1130371</ele>
        <time>2010-08-27T09:56:21Z</time>
      </trkpt>
      <trkpt lat="42.13717" lon="9.09855">
        <ele>2374.59375</ele>
        <time>2010-08-27T09:56:26Z</time>
      </trkpt>
      <trkpt lat="42.13718" lon="9.09856">
        <ele>2374.59375</ele>
        <time>2010-08-27T09:56:32Z</time>
      </trkpt>
      <trkpt lat="42.13719" lon="9.0986">
        <ele>2374.1130371</ele>
        <time>2010-08-27T09:56:39Z</time>
      </trkpt>
      <trkpt lat="42.13719" lon="9.09863">
        <ele>2375.0742188</ele>
        <time>2010-08-27T09:56:45Z</time>
      </trkpt>
      <trkpt lat="42.13719" lon="9.09868">
        <ele>2376.0356445</ele>
        <time>2010-08-27T09:56:51Z</time>
      </trkpt>
      <trkpt lat="42.13723" lon="9.0987">
        <ele>2378.4389648</ele>
        <time>2010-08-27T09:56:58Z</time>
      </trkpt>
      <trkpt lat="42.13724" lon="9.0987">
        <ele>2380.8425293</ele>
        <time>2010-08-27T09:57:04Z</time>
      </trkpt>
      <trkpt lat="42.13724" lon="9.0987">
        <ele>2383.7263184</ele>
        <time>2010-08-27T09:57:12Z</time>
      </trkpt>
      <trkpt lat="42.13724" lon="9.09872">
        <ele>2386.1296387</ele>
        <time>2010-08-27T09:57:17Z</time>
      </trkpt>
      <trkpt lat="42.13725" lon="9.09876">
        <ele>2385.6489258</ele>
        <time>2010-08-27T09:57:23Z</time>
      </trkpt>
      <trkpt lat="42.13728" lon="9.09876">
        <ele>2385.6489258</ele>
        <time>2010-08-27T09:57:29Z</time>
      </trkpt>
      <trkpt lat="42.13728" lon="9.09876">
        <ele>2385.6489258</ele>
        <time>2010-08-27T09:57:34Z</time>
      </trkpt>
      <trkpt lat="42.13729" lon="9.09873">
        <ele>2386.6101074</ele>
        <time>2010-08-27T09:57:40Z</time>
      </trkpt>
      <trkpt lat="42.13731" lon="9.0987">
        <ele>2388.0522461</ele>
        <time>2010-08-27T09:57:46Z</time>
      </trkpt>
      <trkpt lat="42.13735" lon="9.09867">
        <ele>2389.0134277</ele>
        <time>2010-08-27T09:57:53Z</time>
      </trkpt>
      <trkpt lat="42.13738" lon="9.09866">
        <ele>2389.9748535</ele>
        <time>2010-08-27T09:57:59Z</time>
      </trkpt>
      <trkpt lat="42.13741" lon="9.09866">
        <ele>2391.416748</ele>
        <time>2010-08-27T09:58:09Z</time>
      </trkpt>
      <trkpt lat="42.13741" lon="9.09865">
        <ele>2391.416748</ele>
        <time>2010-08-27T09:58:10Z</time>
      </trkpt>
      <trkpt lat="42.13747" lon="9.09863">
        <ele>2391.8974609</ele>
        <time>2010-08-27T09:58:17Z</time>
      </trkpt>
      <trkpt lat="42.13749" lon="9.09861">
        <ele>2392.3781738</ele>
        <time>2010-08-27T09:58:23Z</time>
      </trkpt>
      <trkpt lat="42.13754" lon="9.09856">
        <ele>2392.3781738</ele>
        <time>2010-08-27T09:58:30Z</time>
      </trkpt>
      <trkpt lat="42.13756" lon="9.09853">
        <ele>2390.9360352</ele>
        <time>2010-08-27T09:58:36Z</time>
      </trkpt>
      <trkpt lat="42.13756" lon="9.09853">
        <ele>2389.4941406</ele>
        <time>2010-08-27T09:58:51Z</time>
      </trkpt>
      <trkpt lat="42.13756" lon="9.09854">
        <ele>2389.0134277</ele>
        <time>2010-08-27T09:59:13Z</time>
      </trkpt>
      <trkpt lat="42.13756" lon="9.09852">
        <ele>2389.0134277</ele>
        <time>2010-08-27T09:59:31Z</time>
      </trkpt>
      <trkpt lat="42.13751" lon="9.09852">
        <ele>2388.532959</ele>
        <time>2010-08-27T09:59:37Z</time>
      </trkpt>
      <trkpt lat="42.13751" lon="9.09851">
        <ele>2388.532959</ele>
        <time>2010-08-27T09:59:45Z</time>
      </trkpt>
      <trkpt lat="42.1375" lon="9.09854">
        <ele>2389.0134277</ele>
        <time>2010-08-27T09:59:50Z</time>
      </trkpt>
      <trkpt lat="42.13745" lon="9.09858">
        <ele>2389.4941406</ele>
        <time>2010-08-27T09:59:56Z</time>
      </trkpt>
      <trkpt lat="42.13745" lon="9.09861">
        <ele>2389.9748535</ele>
        <time>2010-08-27T10:00:01Z</time>
      </trkpt>
      <trkpt lat="42.13742" lon="9.09865">
        <ele>2390.4553223</ele>
        <time>2010-08-27T10:00:07Z</time>
      </trkpt>
      <trkpt lat="42.1374" lon="9.09867">
        <ele>2389.9748535</ele>
        <time>2010-08-27T10:00:13Z</time>
      </trkpt>
      <trkpt lat="42.1374" lon="9.09866">
        <ele>2389.9748535</ele>
        <time>2010-08-27T10:00:21Z</time>
      </trkpt>
      <trkpt lat="42.1374" lon="9.09866">
        <ele>2390.4553223</ele>
        <time>2010-08-27T10:00:31Z</time>
      </trkpt>
      <trkpt lat="42.13741" lon="9.09867">
        <ele>2391.416748</ele>
        <time>2010-08-27T10:00:46Z</time>
      </trkpt>
      <trkpt lat="42.1374" lon="9.09866">
        <ele>2391.8974609</ele>
        <time>2010-08-27T10:00:53Z</time>
      </trkpt>
      <trkpt lat="42.13739" lon="9.09869">
        <ele>2389.9748535</ele>
        <time>2010-08-27T10:01:01Z</time>
      </trkpt>
      <trkpt lat="42.13738" lon="9.09871">
        <ele>2388.532959</ele>
        <time>2010-08-27T10:01:07Z</time>
      </trkpt>
      <trkpt lat="42.1374" lon="9.09873">
        <ele>2388.0522461</ele>
        <time>2010-08-27T10:01:12Z</time>
      </trkpt>
      <trkpt lat="42.1374" lon="9.09876">
        <ele>2386.6101074</ele>
        <time>2010-08-27T10:01:18Z</time>
      </trkpt>
      <trkpt lat="42.1374" lon="9.09877">
        <ele>2386.1296387</ele>
        <time>2010-08-27T10:01:23Z</time>
      </trkpt>
      <trkpt lat="42.13739" lon="9.09877">
        <ele>2385.6489258</ele>
        <time>2010-08-27T10:01:33Z</time>
      </trkpt>
      <trkpt lat="42.13736" lon="9.09874">
        <ele>2384.6877441</ele>
        <time>2010-08-27T10:01:42Z</time>
      </trkpt>
      <trkpt lat="42.13734" lon="9.09874">
        <ele>2383.7263184</ele>
        <time>2010-08-27T10:01:48Z</time>
      </trkpt>
      <trkpt lat="42.13733" lon="9.09874">
        <ele>2383.7263184</ele>
        <time>2010-08-27T10:01:51Z</time>
      </trkpt>
      <trkpt lat="42.13731" lon="9.09874">
        <ele>2382.7648926</ele>
        <time>2010-08-27T10:01:57Z</time>
      </trkpt>
      <trkpt lat="42.13728" lon="9.09874">
        <ele>2384.2070312</ele>
        <time>2010-08-27T10:02:02Z</time>
      </trkpt>
      <trkpt lat="42.13727" lon="9.09874">
        <ele>2382.7648926</ele>
        <time>2010-08-27T10:02:07Z</time>
      </trkpt>
      <trkpt lat="42.13726" lon="9.0987">
        <ele>2382.2844238</ele>
        <time>2010-08-27T10:02:13Z</time>
      </trkpt>
      <trkpt lat="42.13725" lon="9.09871">
        <ele>2381.8037109</ele>
        <time>2010-08-27T10:02:22Z</time>
      </trkpt>
      <trkpt lat="42.13725" lon="9.09869">
        <ele>2381.322998</ele>
        <time>2010-08-27T10:02:31Z</time>
      </trkpt>
      <trkpt lat="42.13723" lon="9.09868">
        <ele>2380.8425293</ele>
        <time>2010-08-27T10:02:55Z</time>
      </trkpt>
      <trkpt lat="42.13721" lon="9.09867">
        <ele>2380.3618164</ele>
        <time>2010-08-27T10:03:03Z</time>
      </trkpt>
      <trkpt lat="42.1372" lon="9.09865">
        <ele>2379.4001465</ele>
        <time>2010-08-27T10:03:08Z</time>
      </trkpt>
      <trkpt lat="42.13718" lon="9.09864">
        <ele>2378.4389648</ele>
        <time>2010-08-27T10:03:14Z</time>
      </trkpt>
      <trkpt lat="42.13717" lon="9.09861">
        <ele>2378.9194336</ele>
        <time>2010-08-27T10:03:20Z</time>
      </trkpt>
      <trkpt lat="42.13718" lon="9.09858">
        <ele>2378.9194336</ele>
        <time>2010-08-27T10:03:25Z</time>
      </trkpt>
      <trkpt lat="42.13718" lon="9.09854">
        <ele>2378.9194336</ele>
        <time>2010-08-27T10:03:30Z</time>
      </trkpt>
      <trkpt lat="42.13718" lon="9.0985">
        <ele>2377.958252</ele>
        <time>2010-08-27T10:03:36Z</time>
      </trkpt>
      <trkpt lat="42.13717" lon="9.09849">
        <ele>2376.9970703</ele>
        <time>2010-08-27T10:03:41Z</time>
      </trkpt>
      <trkpt lat="42.13716" lon="9.09849">
        <ele>2376.0356445</ele>
        <time>2010-08-27T10:03:48Z</time>
      </trkpt>
      <trkpt lat="42.13714" lon="9.09851">
        <ele>2375.0742188</ele>
        <time>2010-08-27T10:03:54Z</time>
      </trkpt>
      <trkpt lat="42.13712" lon="9.09853">
        <ele>2375.0742188</ele>
        <time>2010-08-27T10:04:02Z</time>
      </trkpt>
      <trkpt lat="42.13709" lon="9.09854">
        <ele>2371.7097168</ele>
        <time>2010-08-27T10:04:09Z</time>
      </trkpt>
      <trkpt lat="42.13704" lon="9.09859">
        <ele>2364.9807129</ele>
        <time>2010-08-27T10:04:24Z</time>
      </trkpt>
      <trkpt lat="42.13701" lon="9.09864">
        <ele>2364.0192871</ele>
        <time>2010-08-27T10:04:30Z</time>
      </trkpt>
      <trkpt lat="42.13696" lon="9.09867">
        <ele>2363.5383301</ele>
        <time>2010-08-27T10:04:37Z</time>
      </trkpt>
      <trkpt lat="42.13693" lon="9.09866">
        <ele>2362.5771484</ele>
        <time>2010-08-27T10:04:43Z</time>
      </trkpt>
      <trkpt lat="42.13692" lon="9.09866">
        <ele>2361.6159668</ele>
        <time>2010-08-27T10:04:48Z</time>
      </trkpt>
      <trkpt lat="42.13693" lon="9.09865">
        <ele>2362.0964355</ele>
        <time>2010-08-27T10:04:53Z</time>
      </trkpt>
      <trkpt lat="42.13691" lon="9.09867">
        <ele>2361.1352539</ele>
        <time>2010-08-27T10:05:00Z</time>
      </trkpt>
      <trkpt lat="42.13691" lon="9.09869">
        <ele>2360.1738281</ele>
        <time>2010-08-27T10:05:04Z</time>
      </trkpt>
      <trkpt lat="42.13688" lon="9.09873">
        <ele>2360.1738281</ele>
        <time>2010-08-27T10:05:11Z</time>
      </trkpt>
      <trkpt lat="42.13687" lon="9.09873">
        <ele>2360.1738281</ele>
        <time>2010-08-27T10:05:13Z</time>
      </trkpt>
      <trkpt lat="42.13684" lon="9.09882">
        <ele>2356.8093262</ele>
        <time>2010-08-27T10:05:20Z</time>
      </trkpt>
      <trkpt lat="42.13683" lon="9.09884">
        <ele>2354.4060059</ele>
        <time>2010-08-27T10:05:26Z</time>
      </trkpt>
      <trkpt lat="42.13682" lon="9.09886">
        <ele>2353.4448242</ele>
        <time>2010-08-27T10:05:28Z</time>
      </trkpt>
      <trkpt lat="42.13681" lon="9.0989">
        <ele>2352.4833984</ele>
        <time>2010-08-27T10:05:31Z</time>
      </trkpt>
      <trkpt lat="42.13678" lon="9.09892">
        <ele>2349.1188965</ele>
        <time>2010-08-27T10:05:38Z</time>
      </trkpt>
      <trkpt lat="42.13677" lon="9.09889">
        <ele>2347.6767578</ele>
        <time>2010-08-27T10:05:45Z</time>
      </trkpt>
      <trkpt lat="42.13676" lon="9.09886">
        <ele>2345.7541504</ele>
        <time>2010-08-27T10:05:51Z</time>
      </trkpt>
      <trkpt lat="42.13676" lon="9.09883">
        <ele>2343.3508301</ele>
        <time>2010-08-27T10:05:57Z</time>
      </trkpt>
      <trkpt lat="42.13677" lon="9.09877">
        <ele>2342.3896484</ele>
        <time>2010-08-27T10:06:03Z</time>
      </trkpt>
      <trkpt lat="42.13675" lon="9.09873">
        <ele>2341.4282227</ele>
        <time>2010-08-27T10:06:08Z</time>
      </trkpt>
      <trkpt lat="42.13674" lon="9.0987">
        <ele>2341.4282227</ele>
        <time>2010-08-27T10:06:13Z</time>
      </trkpt>
      <trkpt lat="42.13671" lon="9.09865">
        <ele>2341.9089355</ele>
        <time>2010-08-27T10:06:19Z</time>
      </trkpt>
      <trkpt lat="42.13668" lon="9.09862">
        <ele>2342.8701172</ele>
        <time>2010-08-27T10:06:25Z</time>
      </trkpt>
      <trkpt lat="42.13667" lon="9.09862">
        <ele>2342.8701172</ele>
        <time>2010-08-27T10:06:26Z</time>
      </trkpt>
      <trkpt lat="42.13664" lon="9.09858">
        <ele>2341.4282227</ele>
        <time>2010-08-27T10:06:32Z</time>
      </trkpt>
      <trkpt lat="42.13663" lon="9.09858">
        <ele>2338.0637207</ele>
        <time>2010-08-27T10:06:40Z</time>
      </trkpt>
      <trkpt lat="42.13661" lon="9.09855">
        <ele>2334.6992188</ele>
        <time>2010-08-27T10:06:46Z</time>
      </trkpt>
      <trkpt lat="42.1366" lon="9.09855">
        <ele>2334.2185059</ele>
        <time>2010-08-27T10:06:53Z</time>
      </trkpt>
      <trkpt lat="42.13662" lon="9.09853">
        <ele>2333.737793</ele>
        <time>2010-08-27T10:06:58Z</time>
      </trkpt>
      <trkpt lat="42.13661" lon="9.0985">
        <ele>2332.7763672</ele>
        <time>2010-08-27T10:07:03Z</time>
      </trkpt>
      <trkpt lat="42.13659" lon="9.09846">
        <ele>2331.8149414</ele>
        <time>2010-08-27T10:07:09Z</time>
      </trkpt>
      <trkpt lat="42.1366" lon="9.09845">
        <ele>2330.8537598</ele>
        <time>2010-08-27T10:07:14Z</time>
      </trkpt>
      <trkpt lat="42.13659" lon="9.09845">
        <ele>2327.9697266</ele>
        <time>2010-08-27T10:07:20Z</time>
      </trkpt>
      <trkpt lat="42.13659" lon="9.09845">
        <ele>2327.9697266</ele>
        <time>2010-08-27T10:07:21Z</time>
      </trkpt>
      <trkpt lat="42.13662" lon="9.09845">
        <ele>2329.4116211</ele>
        <time>2010-08-27T10:07:26Z</time>
      </trkpt>
      <trkpt lat="42.13663" lon="9.09845">
        <ele>2329.4116211</ele>
        <time>2010-08-27T10:07:32Z</time>
      </trkpt>
      <trkpt lat="42.13663" lon="9.09843">
        <ele>2327.9697266</ele>
        <time>2010-08-27T10:07:38Z</time>
      </trkpt>
      <trkpt lat="42.13665" lon="9.09841">
        <ele>2326.527832</ele>
        <time>2010-08-27T10:07:44Z</time>
      </trkpt>
      <trkpt lat="42.13666" lon="9.0984">
        <ele>2325.5664062</ele>
        <time>2010-08-27T10:07:50Z</time>
      </trkpt>
      <trkpt lat="42.13667" lon="9.09841">
        <ele>2325.0856934</ele>
        <time>2010-08-27T10:07:55Z</time>
      </trkpt>
      <trkpt lat="42.13668" lon="9.09838">
        <ele>2323.6437988</ele>
        <time>2010-08-27T10:08:00Z</time>
      </trkpt>
      <trkpt lat="42.13667" lon="9.09834">
        <ele>2323.1633301</ele>
        <time>2010-08-27T10:08:07Z</time>
      </trkpt>
      <trkpt lat="42.13667" lon="9.09831">
        <ele>2322.2019043</ele>
        <time>2010-08-27T10:08:12Z</time>
      </trkpt>
      <trkpt lat="42.13667" lon="9.09827">
        <ele>2321.2404785</ele>
        <time>2010-08-27T10:08:20Z</time>
      </trkpt>
      <trkpt lat="42.13663" lon="9.09825">
        <ele>2325.0856934</ele>
        <time>2010-08-27T10:08:27Z</time>
      </trkpt>
      <trkpt lat="42.13659" lon="9.09824">
        <ele>2327.0085449</ele>
        <time>2010-08-27T10:08:33Z</time>
      </trkpt>
      <trkpt lat="42.13657" lon="9.09825">
        <ele>2327.0085449</ele>
        <time>2010-08-27T10:08:39Z</time>
      </trkpt>
      <trkpt lat="42.13658" lon="9.09821">
        <ele>2320.2792969</ele>
        <time>2010-08-27T10:08:49Z</time>
      </trkpt>
      <trkpt lat="42.13656" lon="9.09822">
        <ele>2317.3952637</ele>
        <time>2010-08-27T10:08:53Z</time>
      </trkpt>
      <trkpt lat="42.13657" lon="9.09823">
        <ele>2310.6660156</ele>
        <time>2010-08-27T10:09:02Z</time>
      </trkpt>
      <trkpt lat="42.13658" lon="9.0982">
        <ele>2309.2241211</ele>
        <time>2010-08-27T10:09:08Z</time>
      </trkpt>
      <trkpt lat="42.13654" lon="9.0982">
        <ele>2305.859375</ele>
        <time>2010-08-27T10:09:16Z</time>
      </trkpt>
      <trkpt lat="42.13653" lon="9.09816">
        <ele>2305.3789062</ele>
        <time>2010-08-27T10:09:22Z</time>
      </trkpt>
      <trkpt lat="42.13652" lon="9.09813">
        <ele>2302.9755859</ele>
        <time>2010-08-27T10:09:30Z</time>
      </trkpt>
      <trkpt lat="42.13649" lon="9.09811">
        <ele>2302.0141602</ele>
        <time>2010-08-27T10:09:36Z</time>
      </trkpt>
      <trkpt lat="42.13648" lon="9.09806">
        <ele>2301.0529785</ele>
        <time>2010-08-27T10:09:43Z</time>
      </trkpt>
      <trkpt lat="42.13646" lon="9.09806">
        <ele>2297.6882324</ele>
        <time>2010-08-27T10:09:50Z</time>
      </trkpt>
      <trkpt lat="42.13646" lon="9.09808">
        <ele>2296.7268066</ele>
        <time>2010-08-27T10:09:55Z</time>
      </trkpt>
      <trkpt lat="42.13645" lon="9.09809">
        <ele>2295.2849121</ele>
        <time>2010-08-27T10:10:01Z</time>
      </trkpt>
      <trkpt lat="42.13643" lon="9.0981">
        <ele>2293.3623047</ele>
        <time>2010-08-27T10:10:07Z</time>
      </trkpt>
      <trkpt lat="42.13642" lon="9.09808">
        <ele>2296.2463379</ele>
        <time>2010-08-27T10:10:18Z</time>
      </trkpt>
      <trkpt lat="42.13641" lon="9.09807">
        <ele>2297.6882324</ele>
        <time>2010-08-27T10:10:26Z</time>
      </trkpt>
      <trkpt lat="42.1364" lon="9.09809">
        <ele>2296.2463379</ele>
        <time>2010-08-27T10:10:32Z</time>
      </trkpt>
      <trkpt lat="42.13641" lon="9.0981">
        <ele>2293.8430176</ele>
        <time>2010-08-27T10:10:43Z</time>
      </trkpt>
      <trkpt lat="42.1364" lon="9.09812">
        <ele>2292.401123</ele>
        <time>2010-08-27T10:10:52Z</time>
      </trkpt>
      <trkpt lat="42.13638" lon="9.09813">
        <ele>2291.9204102</ele>
        <time>2010-08-27T10:10:59Z</time>
      </trkpt>
      <trkpt lat="42.13634" lon="9.09817">
        <ele>2289.9978027</ele>
        <time>2010-08-27T10:11:06Z</time>
      </trkpt>
      <trkpt lat="42.13632" lon="9.09818">
        <ele>2288.0751953</ele>
        <time>2010-08-27T10:11:12Z</time>
      </trkpt>
      <trkpt lat="42.13633" lon="9.09817">
        <ele>2287.1137695</ele>
        <time>2010-08-27T10:11:18Z</time>
      </trkpt>
      <trkpt lat="42.13632" lon="9.09813">
        <ele>2286.1525879</ele>
        <time>2010-08-27T10:11:24Z</time>
      </trkpt>
      <trkpt lat="42.13632" lon="9.0981">
        <ele>2284.7106934</ele>
        <time>2010-08-27T10:11:30Z</time>
      </trkpt>
      <trkpt lat="42.1363" lon="9.09812">
        <ele>2282.3071289</ele>
        <time>2010-08-27T10:11:36Z</time>
      </trkpt>
      <trkpt lat="42.13626" lon="9.0981">
        <ele>2280.8652344</ele>
        <time>2010-08-27T10:11:42Z</time>
      </trkpt>
      <trkpt lat="42.13626" lon="9.09806">
        <ele>2281.3457031</ele>
        <time>2010-08-27T10:11:47Z</time>
      </trkpt>
      <trkpt lat="42.13627" lon="9.09801">
        <ele>2279.4230957</ele>
        <time>2010-08-27T10:11:53Z</time>
      </trkpt>
      <trkpt lat="42.1363" lon="9.09797">
        <ele>2279.9038086</ele>
        <time>2010-08-27T10:12:00Z</time>
      </trkpt>
      <trkpt lat="42.13631" lon="9.09791">
        <ele>2281.3457031</ele>
        <time>2010-08-27T10:12:05Z</time>
      </trkpt>
      <trkpt lat="42.13632" lon="9.09785">
        <ele>2281.826416</ele>
        <time>2010-08-27T10:12:11Z</time>
      </trkpt>
      <trkpt lat="42.13636" lon="9.09774">
        <ele>2281.3457031</ele>
        <time>2010-08-27T10:12:19Z</time>
      </trkpt>
      <trkpt lat="42.13638" lon="9.09771">
        <ele>2281.3457031</ele>
        <time>2010-08-27T10:12:22Z</time>
      </trkpt>
      <trkpt lat="42.13641" lon="9.09763">
        <ele>2281.3457031</ele>
        <time>2010-08-27T10:12:29Z</time>
      </trkpt>
      <trkpt lat="42.13641" lon="9.09758">
        <ele>2281.3457031</ele>
        <time>2010-08-27T10:12:35Z</time>
      </trkpt>
      <trkpt lat="42.13641" lon="9.0975">
        <ele>2283.7490234</ele>
        <time>2010-08-27T10:12:42Z</time>
      </trkpt>
      <trkpt lat="42.13641" lon="9.09747">
        <ele>2283.7490234</ele>
        <time>2010-08-27T10:12:47Z</time>
      </trkpt>
      <trkpt lat="42.1364" lon="9.09739">
        <ele>2285.1911621</ele>
        <time>2010-08-27T10:12:53Z</time>
      </trkpt>
      <trkpt lat="42.13642" lon="9.09733">
        <ele>2286.6330566</ele>
        <time>2010-08-27T10:12:59Z</time>
      </trkpt>
      <trkpt lat="42.13645" lon="9.0973">
        <ele>2287.5944824</ele>
        <time>2010-08-27T10:13:05Z</time>
      </trkpt>
      <trkpt lat="42.13647" lon="9.09725">
        <ele>2288.0751953</ele>
        <time>2010-08-27T10:13:11Z</time>
      </trkpt>
      <trkpt lat="42.13644" lon="9.09723">
        <ele>2294.8041992</ele>
        <time>2010-08-27T10:13:16Z</time>
      </trkpt>
      <trkpt lat="42.13642" lon="9.09721">
        <ele>2302.9755859</ele>
        <time>2010-08-27T10:13:23Z</time>
      </trkpt>
      <trkpt lat="42.13641" lon="9.09721">
        <ele>2309.7045898</ele>
        <time>2010-08-27T10:13:30Z</time>
      </trkpt>
      <trkpt lat="42.13645" lon="9.09718">
        <ele>2308.2626953</ele>
        <time>2010-08-27T10:13:37Z</time>
      </trkpt>
      <trkpt lat="42.13648" lon="9.09714">
        <ele>2302.9755859</ele>
        <time>2010-08-27T10:13:43Z</time>
      </trkpt>
      <trkpt lat="42.13649" lon="9.0971">
        <ele>2301.0529785</ele>
        <time>2010-08-27T10:13:50Z</time>
      </trkpt>
      <trkpt lat="42.13648" lon="9.09705">
        <ele>2300.0917969</ele>
        <time>2010-08-27T10:13:57Z</time>
      </trkpt>
      <trkpt lat="42.13648" lon="9.09702">
        <ele>2301.0529785</ele>
        <time>2010-08-27T10:14:02Z</time>
      </trkpt>
      <trkpt lat="42.13644" lon="9.09697">
        <ele>2302.0141602</ele>
        <time>2010-08-27T10:14:08Z</time>
      </trkpt>
      <trkpt lat="42.13646" lon="9.09691">
        <ele>2301.0529785</ele>
        <time>2010-08-27T10:14:15Z</time>
      </trkpt>
      <trkpt lat="42.13648" lon="9.09688">
        <ele>2302.0141602</ele>
        <time>2010-08-27T10:14:22Z</time>
      </trkpt>
      <trkpt lat="42.13651" lon="9.09685">
        <ele>2300.5722656</ele>
        <time>2010-08-27T10:14:28Z</time>
      </trkpt>
      <trkpt lat="42.13649" lon="9.09678">
        <ele>2299.130127</ele>
        <time>2010-08-27T10:14:35Z</time>
      </trkpt>
      <trkpt lat="42.13646" lon="9.09677">
        <ele>2297.2075195</ele>
        <time>2010-08-27T10:14:40Z</time>
      </trkpt>
      <trkpt lat="42.13646" lon="9.09676">
        <ele>2295.765625</ele>
        <time>2010-08-27T10:14:46Z</time>
      </trkpt>
      <trkpt lat="42.13646" lon="9.09675">
        <ele>2294.3234863</ele>
        <time>2010-08-27T10:14:54Z</time>
      </trkpt>
      <trkpt lat="42.13648" lon="9.09671">
        <ele>2294.8041992</ele>
        <time>2010-08-27T10:15:01Z</time>
      </trkpt>
      <trkpt lat="42.13647" lon="9.09668">
        <ele>2294.3234863</ele>
        <time>2010-08-27T10:15:05Z</time>
      </trkpt>
      <trkpt lat="42.13648" lon="9.09666">
        <ele>2292.8815918</ele>
        <time>2010-08-27T10:15:14Z</time>
      </trkpt>
      <trkpt lat="42.13648" lon="9.09661">
        <ele>2293.8430176</ele>
        <time>2010-08-27T10:15:22Z</time>
      </trkpt>
      <trkpt lat="42.13649" lon="9.09659">
        <ele>2292.401123</ele>
        <time>2010-08-27T10:15:25Z</time>
      </trkpt>
      <trkpt lat="42.13652" lon="9.09651">
        <ele>2291.4396973</ele>
        <time>2010-08-27T10:15:33Z</time>
      </trkpt>
      <trkpt lat="42.13653" lon="9.09648">
        <ele>2290.4782715</ele>
        <time>2010-08-27T10:15:38Z</time>
      </trkpt>
      <trkpt lat="42.13652" lon="9.09642">
        <ele>2292.401123</ele>
        <time>2010-08-27T10:15:44Z</time>
      </trkpt>
      <trkpt lat="42.13653" lon="9.09638">
        <ele>2293.3623047</ele>
        <time>2010-08-27T10:15:49Z</time>
      </trkpt>
      <trkpt lat="42.13652" lon="9.09636">
        <ele>2291.9204102</ele>
        <time>2010-08-27T10:15:55Z</time>
      </trkpt>
      <trkpt lat="42.13653" lon="9.09635">
        <ele>2288.5559082</ele>
        <time>2010-08-27T10:16:01Z</time>
      </trkpt>
      <trkpt lat="42.13656" lon="9.09633">
        <ele>2286.6330566</ele>
        <time>2010-08-27T10:16:07Z</time>
      </trkpt>
      <trkpt lat="42.13657" lon="9.09629">
        <ele>2286.6330566</ele>
        <time>2010-08-27T10:16:12Z</time>
      </trkpt>
      <trkpt lat="42.13656" lon="9.09627">
        <ele>2286.1525879</ele>
        <time>2010-08-27T10:16:15Z</time>
      </trkpt>
      <trkpt lat="42.13657" lon="9.09619">
        <ele>2288.0751953</ele>
        <time>2010-08-27T10:16:21Z</time>
      </trkpt>
      <trkpt lat="42.13656" lon="9.0961">
        <ele>2289.5170898</ele>
        <time>2010-08-27T10:16:28Z</time>
      </trkpt>
      <trkpt lat="42.13656" lon="9.09608">
        <ele>2289.036377</ele>
        <time>2010-08-27T10:16:34Z</time>
      </trkpt>
      <trkpt lat="42.13655" lon="9.09606">
        <ele>2288.0751953</ele>
        <time>2010-08-27T10:16:42Z</time>
      </trkpt>
      <trkpt lat="42.13653" lon="9.09602">
        <ele>2291.4396973</ele>
        <time>2010-08-27T10:16:49Z</time>
      </trkpt>
      <trkpt lat="42.13653" lon="9.096">
        <ele>2290.9589844</ele>
        <time>2010-08-27T10:17:02Z</time>
      </trkpt>
      <trkpt lat="42.13653" lon="9.096">
        <ele>2287.5944824</ele>
        <time>2010-08-27T10:17:13Z</time>
      </trkpt>
      <trkpt lat="42.13658" lon="9.09602">
        <ele>2283.2683105</ele>
        <time>2010-08-27T10:17:24Z</time>
      </trkpt>
      <trkpt lat="42.13659" lon="9.09597">
        <ele>2282.3071289</ele>
        <time>2010-08-27T10:17:30Z</time>
      </trkpt>
      <trkpt lat="42.1366" lon="9.09595">
        <ele>2281.3457031</ele>
        <time>2010-08-27T10:17:35Z</time>
      </trkpt>
      <trkpt lat="42.13658" lon="9.09592">
        <ele>2281.826416</ele>
        <time>2010-08-27T10:17:41Z</time>
      </trkpt>
      <trkpt lat="42.13657" lon="9.0959">
        <ele>2281.826416</ele>
        <time>2010-08-27T10:17:46Z</time>
      </trkpt>
      <trkpt lat="42.13654" lon="9.09585">
        <ele>2278.9423828</ele>
        <time>2010-08-27T10:17:52Z</time>
      </trkpt>
      <trkpt lat="42.13652" lon="9.0958">
        <ele>2280.8652344</ele>
        <time>2010-08-27T10:17:58Z</time>
      </trkpt>
      <trkpt lat="42.13652" lon="9.09576">
        <ele>2278.9423828</ele>
        <time>2010-08-27T10:18:02Z</time>
      </trkpt>
      <trkpt lat="42.13651" lon="9.09571">
        <ele>2278.4619141</ele>
        <time>2010-08-27T10:18:07Z</time>
      </trkpt>
      <trkpt lat="42.13648" lon="9.09565">
        <ele>2277.0200195</ele>
        <time>2010-08-27T10:18:14Z</time>
      </trkpt>
      <trkpt lat="42.13647" lon="9.09562">
        <ele>2274.1359863</ele>
        <time>2010-08-27T10:18:20Z</time>
      </trkpt>
      <trkpt lat="42.13647" lon="9.09562">
        <ele>2271.732666</ele>
        <time>2010-08-27T10:18:25Z</time>
      </trkpt>
      <trkpt lat="42.13645" lon="9.0956">
        <ele>2271.2519531</ele>
        <time>2010-08-27T10:18:30Z</time>
      </trkpt>
      <trkpt lat="42.13645" lon="9.09558">
        <ele>2269.8100586</ele>
        <time>2010-08-27T10:18:34Z</time>
      </trkpt>
      <trkpt lat="42.13643" lon="9.09559">
        <ele>2267.887207</ele>
        <time>2010-08-27T10:18:39Z</time>
      </trkpt>
      <trkpt lat="42.13638" lon="9.09551">
        <ele>2268.848877</ele>
        <time>2010-08-27T10:18:47Z</time>
      </trkpt>
      <trkpt lat="42.13632" lon="9.09543">
        <ele>2266.9260254</ele>
        <time>2010-08-27T10:18:55Z</time>
      </trkpt>
      <trkpt lat="42.1363" lon="9.09541">
        <ele>2266.4453125</ele>
        <time>2010-08-27T10:19:00Z</time>
      </trkpt>
      <trkpt lat="42.13632" lon="9.0954">
        <ele>2267.887207</ele>
        <time>2010-08-27T10:19:05Z</time>
      </trkpt>
      <trkpt lat="42.13633" lon="9.09541">
        <ele>2268.3681641</ele>
        <time>2010-08-27T10:19:07Z</time>
      </trkpt>
      <trkpt lat="42.13638" lon="9.0954">
        <ele>2271.732666</ele>
        <time>2010-08-27T10:19:14Z</time>
      </trkpt>
      <trkpt lat="42.13638" lon="9.09537">
        <ele>2272.2133789</ele>
        <time>2010-08-27T10:19:17Z</time>
      </trkpt>
      <trkpt lat="42.13639" lon="9.09531">
        <ele>2272.2133789</ele>
        <time>2010-08-27T10:19:24Z</time>
      </trkpt>
      <trkpt lat="42.1364" lon="9.09529">
        <ele>2271.732666</ele>
        <time>2010-08-27T10:19:28Z</time>
      </trkpt>
      <trkpt lat="42.13644" lon="9.09521">
        <ele>2270.7714844</ele>
        <time>2010-08-27T10:19:36Z</time>
      </trkpt>
      <trkpt lat="42.13644" lon="9.0952">
        <ele>2270.2907715</ele>
        <time>2010-08-27T10:19:45Z</time>
      </trkpt>
      <trkpt lat="42.13644" lon="9.0952">
        <ele>2270.2907715</ele>
        <time>2010-08-27T10:19:54Z</time>
      </trkpt>
      <trkpt lat="42.13645" lon="9.09515">
        <ele>2270.2907715</ele>
        <time>2010-08-27T10:19:59Z</time>
      </trkpt>
      <trkpt lat="42.13645" lon="9.09515">
        <ele>2270.2907715</ele>
        <time>2010-08-27T10:20:04Z</time>
      </trkpt>
      <trkpt lat="42.13644" lon="9.09516">
        <ele>2270.7714844</ele>
        <time>2010-08-27T10:20:07Z</time>
      </trkpt>
      <trkpt lat="42.13639" lon="9.0952">
        <ele>2272.6940918</ele>
        <time>2010-08-27T10:20:15Z</time>
      </trkpt>
      <trkpt lat="42.13639" lon="9.09516">
        <ele>2274.6166992</ele>
        <time>2010-08-27T10:20:21Z</time>
      </trkpt>
      <trkpt lat="42.1364" lon="9.0951">
        <ele>2277.0200195</ele>
        <time>2010-08-27T10:20:28Z</time>
      </trkpt>
      <trkpt lat="42.13638" lon="9.09504">
        <ele>2277.5004883</ele>
        <time>2010-08-27T10:20:36Z</time>
      </trkpt>
      <trkpt lat="42.13639" lon="9.09501">
        <ele>2276.5393066</ele>
        <time>2010-08-27T10:20:43Z</time>
      </trkpt>
      <trkpt lat="42.13639" lon="9.09498">
        <ele>2276.0585938</ele>
        <time>2010-08-27T10:20:48Z</time>
      </trkpt>
      <trkpt lat="42.13641" lon="9.09494">
        <ele>2275.097168</ele>
        <time>2010-08-27T10:20:53Z</time>
      </trkpt>
      <trkpt lat="42.1364" lon="9.09488">
        <ele>2273.1748047</ele>
        <time>2010-08-27T10:20:59Z</time>
      </trkpt>
      <trkpt lat="42.1364" lon="9.09484">
        <ele>2271.2519531</ele>
        <time>2010-08-27T10:21:05Z</time>
      </trkpt>
      <trkpt lat="42.1364" lon="9.09481">
        <ele>2270.2907715</ele>
        <time>2010-08-27T10:21:08Z</time>
      </trkpt>
      <trkpt lat="42.13642" lon="9.09477">
        <ele>2268.3681641</ele>
        <time>2010-08-27T10:21:14Z</time>
      </trkpt>
      <trkpt lat="42.13643" lon="9.09473">
        <ele>2266.9260254</ele>
        <time>2010-08-27T10:21:20Z</time>
      </trkpt>
      <trkpt lat="42.13645" lon="9.09468">
        <ele>2265.4841309</ele>
        <time>2010-08-27T10:21:27Z</time>
      </trkpt>
      <trkpt lat="42.13641" lon="9.09462">
        <ele>2263.0808105</ele>
        <time>2010-08-27T10:21:32Z</time>
      </trkpt>
      <trkpt lat="42.13644" lon="9.09453">
        <ele>2261.1582031</ele>
        <time>2010-08-27T10:21:40Z</time>
      </trkpt>
      <trkpt lat="42.13644" lon="9.09452">
        <ele>2260.6774902</ele>
        <time>2010-08-27T10:21:47Z</time>
      </trkpt>
      <trkpt lat="42.13645" lon="9.0945">
        <ele>2259.7160645</ele>
        <time>2010-08-27T10:21:53Z</time>
      </trkpt>
      <trkpt lat="42.13647" lon="9.09445">
        <ele>2260.6774902</ele>
        <time>2010-08-27T10:21:58Z</time>
      </trkpt>
      <trkpt lat="42.13645" lon="9.09438">
        <ele>2261.638916</ele>
        <time>2010-08-27T10:22:05Z</time>
      </trkpt>
      <trkpt lat="42.13644" lon="9.09435">
        <ele>2261.638916</ele>
        <time>2010-08-27T10:22:11Z</time>
      </trkpt>
      <trkpt lat="42.13644" lon="9.09429">
        <ele>2261.638916</ele>
        <time>2010-08-27T10:22:17Z</time>
      </trkpt>
      <trkpt lat="42.13645" lon="9.09427">
        <ele>2261.638916</ele>
        <time>2010-08-27T10:22:19Z</time>
      </trkpt>
      <trkpt lat="42.13645" lon="9.09421">
        <ele>2263.0808105</ele>
        <time>2010-08-27T10:22:26Z</time>
      </trkpt>
      <trkpt lat="42.13645" lon="9.09416">
        <ele>2263.0808105</ele>
        <time>2010-08-27T10:22:32Z</time>
      </trkpt>
      <trkpt lat="42.13644" lon="9.09412">
        <ele>2263.0808105</ele>
        <time>2010-08-27T10:22:38Z</time>
      </trkpt>
      <trkpt lat="42.13645" lon="9.09408">
        <ele>2262.6000977</ele>
        <time>2010-08-27T10:22:46Z</time>
      </trkpt>
      <trkpt lat="42.13647" lon="9.09405">
        <ele>2259.2355957</ele>
        <time>2010-08-27T10:22:51Z</time>
      </trkpt>
      <trkpt lat="42.13645" lon="9.09404">
        <ele>2254.909668</ele>
        <time>2010-08-27T10:23:01Z</time>
      </trkpt>
      <trkpt lat="42.13643" lon="9.09403">
        <ele>2251.064209</ele>
        <time>2010-08-27T10:23:07Z</time>
      </trkpt>
      <trkpt lat="42.13643" lon="9.09402">
        <ele>2249.6223145</ele>
        <time>2010-08-27T10:23:15Z</time>
      </trkpt>
      <trkpt lat="42.13644" lon="9.09399">
        <ele>2248.6608887</ele>
        <time>2010-08-27T10:23:21Z</time>
      </trkpt>
      <trkpt lat="42.13643" lon="9.09397">
        <ele>2247.699707</ele>
        <time>2010-08-27T10:23:27Z</time>
      </trkpt>
      <trkpt lat="42.13641" lon="9.09393">
        <ele>2245.2963867</ele>
        <time>2010-08-27T10:23:33Z</time>
      </trkpt>
      <trkpt lat="42.13641" lon="9.09393">
        <ele>2243.8544922</ele>
        <time>2010-08-27T10:23:38Z</time>
      </trkpt>
      <trkpt lat="42.13638" lon="9.09392">
        <ele>2241.9318848</ele>
        <time>2010-08-27T10:23:43Z</time>
      </trkpt>
      <trkpt lat="42.13638" lon="9.09391">
        <ele>2241.4511719</ele>
        <time>2010-08-27T10:23:45Z</time>
      </trkpt>
      <trkpt lat="42.13638" lon="9.09385">
        <ele>2240.4897461</ele>
        <time>2010-08-27T10:23:52Z</time>
      </trkpt>
      <trkpt lat="42.1364" lon="9.09382">
        <ele>2239.5285645</ele>
        <time>2010-08-27T10:23:57Z</time>
      </trkpt>
      <trkpt lat="42.13639" lon="9.09377">
        <ele>2239.0478516</ele>
        <time>2010-08-27T10:24:03Z</time>
      </trkpt>
      <trkpt lat="42.13638" lon="9.09371">
        <ele>2238.5673828</ele>
        <time>2010-08-27T10:24:08Z</time>
      </trkpt>
      <trkpt lat="42.13641" lon="9.09363">
        <ele>2239.5285645</ele>
        <time>2010-08-27T10:24:15Z</time>
      </trkpt>
      <trkpt lat="42.13641" lon="9.09361">
        <ele>2237.605957</ele>
        <time>2010-08-27T10:24:18Z</time>
      </trkpt>
      <trkpt lat="42.13638" lon="9.09351">
        <ele>2239.5285645</ele>
        <time>2010-08-27T10:24:25Z</time>
      </trkpt>
      <trkpt lat="42.13638" lon="9.09345">
        <ele>2240.0092773</ele>
        <time>2010-08-27T10:24:30Z</time>
      </trkpt>
      <trkpt lat="42.1364" lon="9.09335">
        <ele>2237.605957</ele>
        <time>2010-08-27T10:24:38Z</time>
      </trkpt>
      <trkpt lat="42.13645" lon="9.09323">
        <ele>2235.2023926</ele>
        <time>2010-08-27T10:24:46Z</time>
      </trkpt>
      <trkpt lat="42.13647" lon="9.0932">
        <ele>2234.7219238</ele>
        <time>2010-08-27T10:24:51Z</time>
      </trkpt>
      <trkpt lat="42.13648" lon="9.09313">
        <ele>2234.2412109</ele>
        <time>2010-08-27T10:24:55Z</time>
      </trkpt>
      <trkpt lat="42.13655" lon="9.09301">
        <ele>2231.3571777</ele>
        <time>2010-08-27T10:25:03Z</time>
      </trkpt>
      <trkpt lat="42.13658" lon="9.09299">
        <ele>2229.9152832</ele>
        <time>2010-08-27T10:25:07Z</time>
      </trkpt>
      <trkpt lat="42.13664" lon="9.09294">
        <ele>2228.4733887</ele>
        <time>2010-08-27T10:25:13Z</time>
      </trkpt>
      <trkpt lat="42.13668" lon="9.0929">
        <ele>2227.5119629</ele>
        <time>2010-08-27T10:25:17Z</time>
      </trkpt>
      <trkpt lat="42.13671" lon="9.09289">
        <ele>2227.0314941</ele>
        <time>2010-08-27T10:25:19Z</time>
      </trkpt>
      <trkpt lat="42.13677" lon="9.09284">
        <ele>2225.5893555</ele>
        <time>2010-08-27T10:25:25Z</time>
      </trkpt>
      <trkpt lat="42.13683" lon="9.09281">
        <ele>2222.7055664</ele>
        <time>2010-08-27T10:25:32Z</time>
      </trkpt>
      <trkpt lat="42.13686" lon="9.09281">
        <ele>2221.2634277</ele>
        <time>2010-08-27T10:25:39Z</time>
      </trkpt>
      <trkpt lat="42.13691" lon="9.09279">
        <ele>2219.8212891</ele>
        <time>2010-08-27T10:25:45Z</time>
      </trkpt>
      <trkpt lat="42.13697" lon="9.09273">
        <ele>2217.8986816</ele>
        <time>2010-08-27T10:25:53Z</time>
      </trkpt>
      <trkpt lat="42.13704" lon="9.09269">
        <ele>2217.8986816</ele>
        <time>2010-08-27T10:26:00Z</time>
      </trkpt>
      <trkpt lat="42.13707" lon="9.09266">
        <ele>2217.4179688</ele>
        <time>2010-08-27T10:26:07Z</time>
      </trkpt>
      <trkpt lat="42.13712" lon="9.09264">
        <ele>2216.4567871</ele>
        <time>2010-08-27T10:26:12Z</time>
      </trkpt>
      <trkpt lat="42.13719" lon="9.0926">
        <ele>2214.0534668</ele>
        <time>2010-08-27T10:26:21Z</time>
      </trkpt>
      <trkpt lat="42.13721" lon="9.09258">
        <ele>2209.2470703</ele>
        <time>2010-08-27T10:26:28Z</time>
      </trkpt>
      <trkpt lat="42.13724" lon="9.09256">
        <ele>2206.84375</ele>
        <time>2010-08-27T10:26:34Z</time>
      </trkpt>
      <trkpt lat="42.13726" lon="9.09253">
        <ele>2205.8823242</ele>
        <time>2010-08-27T10:26:40Z</time>
      </trkpt>
      <trkpt lat="42.13727" lon="9.09248">
        <ele>2204.4404297</ele>
        <time>2010-08-27T10:26:47Z</time>
      </trkpt>
      <trkpt lat="42.1373" lon="9.09245">
        <ele>2202.5175781</ele>
        <time>2010-08-27T10:26:53Z</time>
      </trkpt>
      <trkpt lat="42.13735" lon="9.09242">
        <ele>2200.5949707</ele>
        <time>2010-08-27T10:26:59Z</time>
      </trkpt>
      <trkpt lat="42.13738" lon="9.09237">
        <ele>2198.1916504</ele>
        <time>2010-08-27T10:27:06Z</time>
      </trkpt>
      <trkpt lat="42.1374" lon="9.09236">
        <ele>2195.3078613</ele>
        <time>2010-08-27T10:27:11Z</time>
      </trkpt>
      <trkpt lat="42.13743" lon="9.09233">
        <ele>2193.3852539</ele>
        <time>2010-08-27T10:27:16Z</time>
      </trkpt>
      <trkpt lat="42.13745" lon="9.09232">
        <ele>2192.904541</ele>
        <time>2010-08-27T10:27:18Z</time>
      </trkpt>
      <trkpt lat="42.13751" lon="9.09231">
        <ele>2191.4626465</ele>
        <time>2010-08-27T10:27:25Z</time>
      </trkpt>
      <trkpt lat="42.13751" lon="9.09227">
        <ele>2189.5400391</ele>
        <time>2010-08-27T10:27:30Z</time>
      </trkpt>
      <trkpt lat="42.13753" lon="9.09226">
        <ele>2188.0981445</ele>
        <time>2010-08-27T10:27:32Z</time>
      </trkpt>
      <trkpt lat="42.13755" lon="9.09223">
        <ele>2185.6945801</ele>
        <time>2010-08-27T10:27:37Z</time>
      </trkpt>
      <trkpt lat="42.13759" lon="9.09221">
        <ele>2183.7719727</ele>
        <time>2010-08-27T10:27:43Z</time>
      </trkpt>
      <trkpt lat="42.13762" lon="9.09218">
        <ele>2182.3300781</ele>
        <time>2010-08-27T10:27:50Z</time>
      </trkpt>
      <trkpt lat="42.13766" lon="9.09215">
        <ele>2180.8881836</ele>
        <time>2010-08-27T10:27:56Z</time>
      </trkpt>
      <trkpt lat="42.13767" lon="9.09213">
        <ele>2180.4074707</ele>
        <time>2010-08-27T10:27:58Z</time>
      </trkpt>
      <trkpt lat="42.13772" lon="9.09206">
        <ele>2178.965332</ele>
        <time>2010-08-27T10:28:06Z</time>
      </trkpt>
      <trkpt lat="42.13774" lon="9.09202">
        <ele>2177.5234375</ele>
        <time>2010-08-27T10:28:12Z</time>
      </trkpt>
      <trkpt lat="42.13775" lon="9.09198">
        <ele>2175.6008301</ele>
        <time>2010-08-27T10:28:16Z</time>
      </trkpt>
      <trkpt lat="42.13778" lon="9.09196">
        <ele>2175.1201172</ele>
        <time>2010-08-27T10:28:20Z</time>
      </trkpt>
      <trkpt lat="42.13781" lon="9.09196">
        <ele>2173.6782227</ele>
        <time>2010-08-27T10:28:25Z</time>
      </trkpt>
      <trkpt lat="42.13782" lon="9.092">
        <ele>2172.2363281</ele>
        <time>2010-08-27T10:28:30Z</time>
      </trkpt>
      <trkpt lat="42.13781" lon="9.09206">
        <ele>2171.2746582</ele>
        <time>2010-08-27T10:28:37Z</time>
      </trkpt>
      <trkpt lat="42.13781" lon="9.09206">
        <ele>2171.2746582</ele>
        <time>2010-08-27T10:28:42Z</time>
      </trkpt>
      <trkpt lat="42.13781" lon="9.09205">
        <ele>2170.3134766</ele>
        <time>2010-08-27T10:28:49Z</time>
      </trkpt>
      <trkpt lat="42.13782" lon="9.09206">
        <ele>2169.8327637</ele>
        <time>2010-08-27T10:28:55Z</time>
      </trkpt>
      <trkpt lat="42.13782" lon="9.09206">
        <ele>2170.3134766</ele>
        <time>2010-08-27T10:29:00Z</time>
      </trkpt>
      <trkpt lat="42.1378" lon="9.09205">
        <ele>2170.7941895</ele>
        <time>2010-08-27T10:29:05Z</time>
      </trkpt>
      <trkpt lat="42.13777" lon="9.09206">
        <ele>2170.3134766</ele>
        <time>2010-08-27T10:29:11Z</time>
      </trkpt>
      <trkpt lat="42.13778" lon="9.09207">
        <ele>2170.7941895</ele>
        <time>2010-08-27T10:29:17Z</time>
      </trkpt>
      <trkpt lat="42.13782" lon="9.09205">
        <ele>2170.3134766</ele>
        <time>2010-08-27T10:29:32Z</time>
      </trkpt>
      <trkpt lat="42.13783" lon="9.09204">
        <ele>2170.3134766</ele>
        <time>2010-08-27T10:29:39Z</time>
      </trkpt>
      <trkpt lat="42.13785" lon="9.09203">
        <ele>2170.3134766</ele>
        <time>2010-08-27T10:29:46Z</time>
      </trkpt>
      <trkpt lat="42.13782" lon="9.09203">
        <ele>2167.9101562</ele>
        <time>2010-08-27T10:29:55Z</time>
      </trkpt>
      <trkpt lat="42.13781" lon="9.09202">
        <ele>2168.871582</ele>
        <time>2010-08-27T10:30:03Z</time>
      </trkpt>
      <trkpt lat="42.13783" lon="9.09203">
        <ele>2167.9101562</ele>
        <time>2010-08-27T10:30:11Z</time>
      </trkpt>
      <trkpt lat="42.1378" lon="9.09203">
        <ele>2171.7553711</ele>
        <time>2010-08-27T10:30:19Z</time>
      </trkpt>
      <trkpt lat="42.13773" lon="9.09211">
        <ele>2167.4294434</ele>
        <time>2010-08-27T10:30:29Z</time>
      </trkpt>
      <trkpt lat="42.13766" lon="9.09212">
        <ele>2162.6230469</ele>
        <time>2010-08-27T10:30:35Z</time>
      </trkpt>
      <trkpt lat="42.13787" lon="9.09206">
        <ele>2178.0041504</ele>
        <time>2010-08-27T10:31:12Z</time>
      </trkpt>
      <trkpt lat="42.13789" lon="9.09205">
        <ele>2180.4074707</ele>
        <time>2010-08-27T10:31:15Z</time>
      </trkpt>
      <trkpt lat="42.1379" lon="9.09204">
        <ele>2181.3686523</ele>
        <time>2010-08-27T10:31:22Z</time>
      </trkpt>
      <trkpt lat="42.13785" lon="9.09206">
        <ele>2176.081543</ele>
        <time>2010-08-27T10:31:37Z</time>
      </trkpt>
      <trkpt lat="42.13783" lon="9.092">
        <ele>2175.6008301</ele>
        <time>2010-08-27T10:32:08Z</time>
      </trkpt>
      <trkpt lat="42.13775" lon="9.09205">
        <ele>2177.5234375</ele>
        <time>2010-08-27T10:32:14Z</time>
      </trkpt>
      <trkpt lat="42.13777" lon="9.09205">
        <ele>2176.081543</ele>
        <time>2010-08-27T10:32:15Z</time>
      </trkpt>
      <trkpt lat="42.13789" lon="9.09203">
        <ele>2170.3134766</ele>
        <time>2010-08-27T10:32:21Z</time>
      </trkpt>
      <trkpt lat="42.1379" lon="9.09203">
        <ele>2164.5456543</ele>
        <time>2010-08-27T10:32:27Z</time>
      </trkpt>
      <trkpt lat="42.13795" lon="9.09204">
        <ele>2163.5842285</ele>
        <time>2010-08-27T10:32:40Z</time>
      </trkpt>
      <trkpt lat="42.13795" lon="9.09204">
        <ele>2162.6230469</ele>
        <time>2010-08-27T10:32:46Z</time>
      </trkpt>
      <trkpt lat="42.13791" lon="9.09204">
        <ele>2161.6618652</ele>
        <time>2010-08-27T10:32:50Z</time>
      </trkpt>
      <trkpt lat="42.13789" lon="9.09202">
        <ele>2172.2363281</ele>
        <time>2010-08-27T10:33:05Z</time>
      </trkpt>
      <trkpt lat="42.1379" lon="9.09203">
        <ele>2175.1201172</ele>
        <time>2010-08-27T10:33:42Z</time>
      </trkpt>
      <trkpt lat="42.13795" lon="9.09201">
        <ele>2177.5234375</ele>
        <time>2010-08-27T10:33:59Z</time>
      </trkpt>
      <trkpt lat="42.13792" lon="9.09201">
        <ele>2171.7553711</ele>
        <time>2010-08-27T10:34:06Z</time>
      </trkpt>
      <trkpt lat="42.13787" lon="9.092">
        <ele>2174.6396484</ele>
        <time>2010-08-27T10:34:13Z</time>
      </trkpt>
      <trkpt lat="42.13787" lon="9.092">
        <ele>2175.6008301</ele>
        <time>2010-08-27T10:34:19Z</time>
      </trkpt>
      <trkpt lat="42.13798" lon="9.09201">
        <ele>2173.6782227</ele>
        <time>2010-08-27T10:34:26Z</time>
      </trkpt>
      <trkpt lat="42.13795" lon="9.09201">
        <ele>2174.1589355</ele>
        <time>2010-08-27T10:34:37Z</time>
      </trkpt>
      <trkpt lat="42.13803" lon="9.09201">
        <ele>2173.6782227</ele>
        <time>2010-08-27T10:34:43Z</time>
      </trkpt>
      <trkpt lat="42.13795" lon="9.09202">
        <ele>2176.081543</ele>
        <time>2010-08-27T10:34:52Z</time>
      </trkpt>
      <trkpt lat="42.13791" lon="9.09201">
        <ele>2179.9267578</ele>
        <time>2010-08-27T10:34:58Z</time>
      </trkpt>
      <trkpt lat="42.13785" lon="9.09202">
        <ele>2169.8327637</ele>
        <time>2010-08-27T10:36:22Z</time>
      </trkpt>
      <trkpt lat="42.13781" lon="9.092">
        <ele>2178.4848633</ele>
        <time>2010-08-27T10:37:16Z</time>
      </trkpt>
      <trkpt lat="42.13786" lon="9.092">
        <ele>2177.0429688</ele>
        <time>2010-08-27T10:37:20Z</time>
      </trkpt>
      <trkpt lat="42.13782" lon="9.09205">
        <ele>2173.1977539</ele>
        <time>2010-08-27T10:47:45Z</time>
      </trkpt>
      <trkpt lat="42.13775" lon="9.09203">
        <ele>2176.5622559</ele>
        <time>2010-08-27T10:48:33Z</time>
      </trkpt>
      <trkpt lat="42.13779" lon="9.09204">
        <ele>2175.6008301</ele>
        <time>2010-08-27T10:48:58Z</time>
      </trkpt>
      <trkpt lat="42.1378" lon="9.09204">
        <ele>2174.1589355</ele>
        <time>2010-08-27T10:49:06Z</time>
      </trkpt>
      <trkpt lat="42.13779" lon="9.09204">
        <ele>2173.6782227</ele>
        <time>2010-08-27T10:49:13Z</time>
      </trkpt>
      <trkpt lat="42.13778" lon="9.09204">
        <ele>2174.6396484</ele>
        <time>2010-08-27T10:49:20Z</time>
      </trkpt>
      <trkpt lat="42.1378" lon="9.09205">
        <ele>2172.717041</ele>
        <time>2010-08-27T10:49:26Z</time>
      </trkpt>
      <trkpt lat="42.1378" lon="9.09205">
        <ele>2172.2363281</ele>
        <time>2010-08-27T10:49:33Z</time>
      </trkpt>
      <trkpt lat="42.1378" lon="9.09205">
        <ele>2171.2746582</ele>
        <time>2010-08-27T10:49:44Z</time>
      </trkpt>
      <trkpt lat="42.1378" lon="9.09206">
        <ele>2170.3134766</ele>
        <time>2010-08-27T10:49:51Z</time>
      </trkpt>
      <trkpt lat="42.1378" lon="9.09206">
        <ele>2168.871582</ele>
        <time>2010-08-27T10:50:00Z</time>
      </trkpt>
      <trkpt lat="42.13782" lon="9.09206">
        <ele>2168.3908691</ele>
        <time>2010-08-27T10:50:07Z</time>
      </trkpt>
      <trkpt lat="42.13783" lon="9.09206">
        <ele>2167.9101562</ele>
        <time>2010-08-27T10:50:12Z</time>
      </trkpt>
      <trkpt lat="42.13783" lon="9.09205">
        <ele>2169.8327637</ele>
        <time>2010-08-27T10:50:21Z</time>
      </trkpt>
      <trkpt lat="42.13781" lon="9.09205">
        <ele>2170.7941895</ele>
        <time>2010-08-27T10:50:33Z</time>
      </trkpt>
      <trkpt lat="42.13781" lon="9.09204">
        <ele>2173.6782227</ele>
        <time>2010-08-27T10:50:47Z</time>
      </trkpt>
      <trkpt lat="42.13779" lon="9.09204">
        <ele>2175.1201172</ele>
        <time>2010-08-27T10:50:59Z</time>
      </trkpt>
      <trkpt lat="42.1378" lon="9.09204">
        <ele>2174.1589355</ele>
        <time>2010-08-27T10:51:07Z</time>
      </trkpt>
      <trkpt lat="42.13782" lon="9.09204">
        <ele>2172.717041</ele>
        <time>2010-08-27T10:51:16Z</time>
      </trkpt>
      <trkpt lat="42.13782" lon="9.09205">
        <ele>2171.7553711</ele>
        <time>2010-08-27T10:51:26Z</time>
      </trkpt>
      <trkpt lat="42.13781" lon="9.09205">
        <ele>2171.7553711</ele>
        <time>2010-08-27T10:51:33Z</time>
      </trkpt>
      <trkpt lat="42.1378" lon="9.09204">
        <ele>2173.6782227</ele>
        <time>2010-08-27T10:53:50Z</time>
      </trkpt>
      <trkpt lat="42.1378" lon="9.09205">
        <ele>2172.717041</ele>
        <time>2010-08-27T10:53:55Z</time>
      </trkpt>
      <trkpt lat="42.13781" lon="9.09205">
        <ele>2172.717041</ele>
        <time>2010-08-27T10:54:02Z</time>
      </trkpt>
      <trkpt lat="42.1378" lon="9.09205">
        <ele>2172.2363281</ele>
        <time>2010-08-27T10:54:09Z</time>
      </trkpt>
      <trkpt lat="42.13781" lon="9.09205">
        <ele>2173.1977539</ele>
        <time>2010-08-27T10:54:19Z</time>
      </trkpt>
      <trkpt lat="42.1378" lon="9.09205">
        <ele>2174.1589355</ele>
        <time>2010-08-27T10:54:27Z</time>
      </trkpt>
      <trkpt lat="42.13781" lon="9.09205">
        <ele>2173.6782227</ele>
        <time>2010-08-27T10:54:33Z</time>
      </trkpt>
      <trkpt lat="42.1378" lon="9.09205">
        <ele>2173.1977539</ele>
        <time>2010-08-27T10:54:41Z</time>
      </trkpt>
      <trkpt lat="42.1378" lon="9.09205">
        <ele>2173.1977539</ele>
        <time>2010-08-27T10:54:50Z</time>
      </trkpt>
      <trkpt lat="42.1378" lon="9.09204">
        <ele>2175.1201172</ele>
        <time>2010-08-27T10:54:59Z</time>
      </trkpt>
      <trkpt lat="42.13781" lon="9.09205">
        <ele>2175.1201172</ele>
        <time>2010-08-27T10:55:05Z</time>
      </trkpt>
      <trkpt lat="42.13779" lon="9.09206">
        <ele>2169.3522949</ele>
        <time>2010-08-27T10:55:30Z</time>
      </trkpt>
      <trkpt lat="42.13778" lon="9.09206">
        <ele>2171.7553711</ele>
        <time>2010-08-27T10:55:43Z</time>
      </trkpt>
      <trkpt lat="42.13781" lon="9.09206">
        <ele>2176.081543</ele>
        <time>2010-08-27T10:55:58Z</time>
      </trkpt>
      <trkpt lat="42.1378" lon="9.09207">
        <ele>2172.2363281</ele>
        <time>2010-08-27T10:56:08Z</time>
      </trkpt>
      <trkpt lat="42.1378" lon="9.09206">
        <ele>2169.3522949</ele>
        <time>2010-08-27T10:56:24Z</time>
      </trkpt>
      <trkpt lat="42.13782" lon="9.09209">
        <ele>2172.717041</ele>
        <time>2010-08-27T10:58:35Z</time>
      </trkpt>
      <trkpt lat="42.13784" lon="9.09204">
        <ele>2170.7941895</ele>
        <time>2010-08-27T11:00:25Z</time>
      </trkpt>
      <trkpt lat="42.13781" lon="9.09209">
        <ele>2173.1977539</ele>
        <time>2010-08-27T11:01:01Z</time>
      </trkpt>
      <trkpt lat="42.13777" lon="9.09205">
        <ele>2163.5842285</ele>
        <time>2010-08-27T11:01:25Z</time>
      </trkpt>
      <trkpt lat="42.13778" lon="9.09206">
        <ele>2166.4682617</ele>
        <time>2010-08-27T11:01:48Z</time>
      </trkpt>
      <trkpt lat="42.13777" lon="9.09206">
        <ele>2168.3908691</ele>
        <time>2010-08-27T11:01:57Z</time>
      </trkpt>
      <trkpt lat="42.13777" lon="9.09206">
        <ele>2170.3134766</ele>
        <time>2010-08-27T11:02:05Z</time>
      </trkpt>
      <trkpt lat="42.13776" lon="9.09208">
        <ele>2172.2363281</ele>
        <time>2010-08-27T11:02:17Z</time>
      </trkpt>
      <trkpt lat="42.13774" lon="9.09202">
        <ele>2167.4294434</ele>
        <time>2010-08-27T11:02:59Z</time>
      </trkpt>
      <trkpt lat="42.13778" lon="9.09198">
        <ele>2168.3908691</ele>
        <time>2010-08-27T11:03:06Z</time>
      </trkpt>
      <trkpt lat="42.13778" lon="9.09198">
        <ele>2168.871582</ele>
        <time>2010-08-27T11:03:13Z</time>
      </trkpt>
      <trkpt lat="42.1378" lon="9.09195">
        <ele>2168.871582</ele>
        <time>2010-08-27T11:03:22Z</time>
      </trkpt>
      <trkpt lat="42.1378" lon="9.09195">
        <ele>2168.3908691</ele>
        <time>2010-08-27T11:03:27Z</time>
      </trkpt>
      <trkpt lat="42.1378" lon="9.09194">
        <ele>2169.3522949</ele>
        <time>2010-08-27T11:03:33Z</time>
      </trkpt>
      <trkpt lat="42.1378" lon="9.0919">
        <ele>2168.871582</ele>
        <time>2010-08-27T11:03:39Z</time>
      </trkpt>
      <trkpt lat="42.13783" lon="9.09184">
        <ele>2167.4294434</ele>
        <time>2010-08-27T11:03:47Z</time>
      </trkpt>
      <trkpt lat="42.13785" lon="9.09182">
        <ele>2167.4294434</ele>
        <time>2010-08-27T11:03:50Z</time>
      </trkpt>
      <trkpt lat="42.13786" lon="9.09177">
        <ele>2166.9489746</ele>
        <time>2010-08-27T11:03:56Z</time>
      </trkpt>
      <trkpt lat="42.13782" lon="9.09177">
        <ele>2165.9875488</ele>
        <time>2010-08-27T11:04:02Z</time>
      </trkpt>
      <trkpt lat="42.13784" lon="9.09168">
        <ele>2165.0263672</ele>
        <time>2010-08-27T11:04:11Z</time>
      </trkpt>
      <trkpt lat="42.13787" lon="9.09162">
        <ele>2164.0649414</ele>
        <time>2010-08-27T11:04:18Z</time>
      </trkpt>
      <trkpt lat="42.1379" lon="9.09156">
        <ele>2163.5842285</ele>
        <time>2010-08-27T11:04:24Z</time>
      </trkpt>
      <trkpt lat="42.13791" lon="9.09151">
        <ele>2163.1037598</ele>
        <time>2010-08-27T11:04:28Z</time>
      </trkpt>
      <trkpt lat="42.13794" lon="9.09147">
        <ele>2161.1811523</ele>
        <time>2010-08-27T11:04:33Z</time>
      </trkpt>
      <trkpt lat="42.13794" lon="9.09146">
        <ele>2160.7004395</ele>
        <time>2010-08-27T11:04:34Z</time>
      </trkpt>
      <trkpt lat="42.13798" lon="9.09142">
        <ele>2159.7390137</ele>
        <time>2010-08-27T11:04:40Z</time>
      </trkpt>
      <trkpt lat="42.13801" lon="9.09135">
        <ele>2161.1811523</ele>
        <time>2010-08-27T11:04:47Z</time>
      </trkpt>
      <trkpt lat="42.13799" lon="9.09131">
        <ele>2161.6618652</ele>
        <time>2010-08-27T11:04:53Z</time>
      </trkpt>
      <trkpt lat="42.13795" lon="9.09129">
        <ele>2163.5842285</ele>
        <time>2010-08-27T11:04:58Z</time>
      </trkpt>
      <trkpt lat="42.13798" lon="9.09125">
        <ele>2163.5842285</ele>
        <time>2010-08-27T11:05:03Z</time>
      </trkpt>
      <trkpt lat="42.138" lon="9.09122">
        <ele>2162.142334</ele>
        <time>2010-08-27T11:05:07Z</time>
      </trkpt>
      <trkpt lat="42.13803" lon="9.09116">
        <ele>2162.142334</ele>
        <time>2010-08-27T11:05:14Z</time>
      </trkpt>
      <trkpt lat="42.13802" lon="9.09108">
        <ele>2170.7941895</ele>
        <time>2010-08-27T11:05:20Z</time>
      </trkpt>
      <trkpt lat="42.13795" lon="9.09099">
        <ele>2178.4848633</ele>
        <time>2010-08-27T11:05:29Z</time>
      </trkpt>
      <trkpt lat="42.13787" lon="9.09093">
        <ele>2187.1364746</ele>
        <time>2010-08-27T11:05:33Z</time>
      </trkpt>
      <trkpt lat="42.13786" lon="9.09089">
        <ele>2189.5400391</ele>
        <time>2010-08-27T11:05:37Z</time>
      </trkpt>
      <trkpt lat="42.13782" lon="9.0908">
        <ele>2194.8271484</ele>
        <time>2010-08-27T11:05:42Z</time>
      </trkpt>
      <trkpt lat="42.13783" lon="9.09071">
        <ele>2194.8271484</ele>
        <time>2010-08-27T11:05:49Z</time>
      </trkpt>
      <trkpt lat="42.13786" lon="9.09067">
        <ele>2191.9433594</ele>
        <time>2010-08-27T11:05:53Z</time>
      </trkpt>
      <trkpt lat="42.1379" lon="9.09064">
        <ele>2186.175293</ele>
        <time>2010-08-27T11:05:58Z</time>
      </trkpt>
      <trkpt lat="42.13803" lon="9.09063">
        <ele>2166.9489746</ele>
        <time>2010-08-27T11:06:05Z</time>
      </trkpt>
      <trkpt lat="42.13816" lon="9.09062">
        <ele>2141.4741211</ele>
        <time>2010-08-27T11:06:18Z</time>
      </trkpt>
      <trkpt lat="42.13819" lon="9.09062">
        <ele>2131.380127</ele>
        <time>2010-08-27T11:06:30Z</time>
      </trkpt>
      <trkpt lat="42.13823" lon="9.09058">
        <ele>2129.9382324</ele>
        <time>2010-08-27T11:06:36Z</time>
      </trkpt>
      <trkpt lat="42.13825" lon="9.09061">
        <ele>2125.1315918</ele>
        <time>2010-08-27T11:06:40Z</time>
      </trkpt>
      <trkpt lat="42.13823" lon="9.09058">
        <ele>2122.7282715</ele>
        <time>2010-08-27T11:06:50Z</time>
      </trkpt>
      <trkpt lat="42.13827" lon="9.09053">
        <ele>2115.5185547</ele>
        <time>2010-08-27T11:06:57Z</time>
      </trkpt>
      <trkpt lat="42.13829" lon="9.09047">
        <ele>2115.5185547</ele>
        <time>2010-08-27T11:07:02Z</time>
      </trkpt>
      <trkpt lat="42.13827" lon="9.09036">
        <ele>2115.0378418</ele>
        <time>2010-08-27T11:07:13Z</time>
      </trkpt>
      <trkpt lat="42.13826" lon="9.09032">
        <ele>2116.4797363</ele>
        <time>2010-08-27T11:07:19Z</time>
      </trkpt>
      <trkpt lat="42.13825" lon="9.09022">
        <ele>2121.7668457</ele>
        <time>2010-08-27T11:07:26Z</time>
      </trkpt>
      <trkpt lat="42.13819" lon="9.09005">
        <ele>2131.380127</ele>
        <time>2010-08-27T11:07:41Z</time>
      </trkpt>
      <trkpt lat="42.13818" lon="9.08999">
        <ele>2138.109375</ele>
        <time>2010-08-27T11:07:48Z</time>
      </trkpt>
      <trkpt lat="42.13818" lon="9.08987">
        <ele>2134.744873</ele>
        <time>2010-08-27T11:08:13Z</time>
      </trkpt>
      <trkpt lat="42.13824" lon="9.08978">
        <ele>2124.1704102</ele>
        <time>2010-08-27T11:08:29Z</time>
      </trkpt>
      <trkpt lat="42.13834" lon="9.08976">
        <ele>2106.8664551</ele>
        <time>2010-08-27T11:08:46Z</time>
      </trkpt>
      <trkpt lat="42.13837" lon="9.08973">
        <ele>2103.982666</ele>
        <time>2010-08-27T11:08:51Z</time>
      </trkpt>
      <trkpt lat="42.13842" lon="9.0897">
        <ele>2100.1374512</ele>
        <time>2010-08-27T11:08:57Z</time>
      </trkpt>
      <trkpt lat="42.13841" lon="9.08965">
        <ele>2104.4631348</ele>
        <time>2010-08-27T11:09:02Z</time>
      </trkpt>
      <trkpt lat="42.13843" lon="9.08958">
        <ele>2107.8278809</ele>
        <time>2010-08-27T11:09:09Z</time>
      </trkpt>
      <trkpt lat="42.13849" lon="9.08955">
        <ele>2103.0212402</ele>
        <time>2010-08-27T11:09:15Z</time>
      </trkpt>
      <trkpt lat="42.1385" lon="9.08951">
        <ele>2103.5019531</ele>
        <time>2010-08-27T11:09:20Z</time>
      </trkpt>
      <trkpt lat="42.13859" lon="9.08943">
        <ele>2083.314209</ele>
        <time>2010-08-27T11:09:57Z</time>
      </trkpt>
      <trkpt lat="42.13861" lon="9.08934">
        <ele>2077.5463867</ele>
        <time>2010-08-27T11:10:15Z</time>
      </trkpt>
      <trkpt lat="42.13867" lon="9.08928">
        <ele>2076.1044922</ele>
        <time>2010-08-27T11:10:23Z</time>
      </trkpt>
      <trkpt lat="42.13873" lon="9.08926">
        <ele>2067.9331055</ele>
        <time>2010-08-27T11:10:29Z</time>
      </trkpt>
      <trkpt lat="42.13881" lon="9.08922">
        <ele>2064.0878906</ele>
        <time>2010-08-27T11:10:37Z</time>
      </trkpt>
      <trkpt lat="42.13881" lon="9.08917">
        <ele>2062.6459961</ele>
        <time>2010-08-27T11:10:42Z</time>
      </trkpt>
      <trkpt lat="42.13887" lon="9.08916">
        <ele>2056.3972168</ele>
        <time>2010-08-27T11:10:46Z</time>
      </trkpt>
      <trkpt lat="42.13893" lon="9.08916">
        <ele>2051.5908203</ele>
        <time>2010-08-27T11:10:52Z</time>
      </trkpt>
      <trkpt lat="42.13885" lon="9.08904">
        <ele>2062.1652832</ele>
        <time>2010-08-27T11:11:35Z</time>
      </trkpt>
      <trkpt lat="42.13887" lon="9.08904">
        <ele>2059.7617188</ele>
        <time>2010-08-27T11:11:41Z</time>
      </trkpt>
      <trkpt lat="42.13889" lon="9.08904">
        <ele>2057.8393555</ele>
        <time>2010-08-27T11:11:45Z</time>
      </trkpt>
      <trkpt lat="42.13891" lon="9.08901">
        <ele>2055.9165039</ele>
        <time>2010-08-27T11:11:51Z</time>
      </trkpt>
      <trkpt lat="42.13877" lon="9.08896">
        <ele>2071.2976074</ele>
        <time>2010-08-27T11:12:34Z</time>
      </trkpt>
      <trkpt lat="42.13873" lon="9.08893">
        <ele>2078.5078125</ele>
        <time>2010-08-27T11:13:17Z</time>
      </trkpt>
      <trkpt lat="42.13884" lon="9.08894">
        <ele>2068.4138184</ele>
        <time>2010-08-27T11:15:12Z</time>
      </trkpt>
      <trkpt lat="42.13885" lon="9.08896">
        <ele>2067.9331055</ele>
        <time>2010-08-27T11:15:14Z</time>
      </trkpt>
      <trkpt lat="42.13886" lon="9.08898">
        <ele>2068.8945312</ele>
        <time>2010-08-27T11:15:17Z</time>
      </trkpt>
      <trkpt lat="42.1389" lon="9.08896">
        <ele>2066.010498</ele>
        <time>2010-08-27T11:15:22Z</time>
      </trkpt>
      <trkpt lat="42.13897" lon="9.08902">
        <ele>2060.2426758</ele>
        <time>2010-08-27T11:15:29Z</time>
      </trkpt>
      <trkpt lat="42.139" lon="9.08904">
        <ele>2060.2426758</ele>
        <time>2010-08-27T11:15:34Z</time>
      </trkpt>
      <trkpt lat="42.13901" lon="9.08906">
        <ele>2061.2041016</ele>
        <time>2010-08-27T11:15:39Z</time>
      </trkpt>
      <trkpt lat="42.13902" lon="9.08907">
        <ele>2062.1652832</ele>
        <time>2010-08-27T11:15:44Z</time>
      </trkpt>
      <trkpt lat="42.13898" lon="9.08908">
        <ele>2071.2976074</ele>
        <time>2010-08-27T11:15:50Z</time>
      </trkpt>
      <trkpt lat="42.13898" lon="9.08905">
        <ele>2072.7397461</ele>
        <time>2010-08-27T11:15:55Z</time>
      </trkpt>
      <trkpt lat="42.13896" lon="9.08905">
        <ele>2073.7009277</ele>
        <time>2010-08-27T11:16:01Z</time>
      </trkpt>
      <trkpt lat="42.13892" lon="9.08903">
        <ele>2077.065918</ele>
        <time>2010-08-27T11:16:06Z</time>
      </trkpt>
      <trkpt lat="42.13889" lon="9.08901">
        <ele>2077.065918</ele>
        <time>2010-08-27T11:16:13Z</time>
      </trkpt>
      <trkpt lat="42.13886" lon="9.08899">
        <ele>2077.5463867</ele>
        <time>2010-08-27T11:16:21Z</time>
      </trkpt>
      <trkpt lat="42.13882" lon="9.08897">
        <ele>2079.949707</ele>
        <time>2010-08-27T11:16:31Z</time>
      </trkpt>
      <trkpt lat="42.13883" lon="9.08897">
        <ele>2073.220459</ele>
        <time>2010-08-27T11:16:36Z</time>
      </trkpt>
      <trkpt lat="42.13886" lon="9.08899">
        <ele>2066.9719238</ele>
        <time>2010-08-27T11:16:44Z</time>
      </trkpt>
      <trkpt lat="42.13891" lon="9.08902">
        <ele>2058.8005371</ele>
        <time>2010-08-27T11:16:56Z</time>
      </trkpt>
      <trkpt lat="42.13891" lon="9.08899">
        <ele>2054.4746094</ele>
        <time>2010-08-27T11:17:03Z</time>
      </trkpt>
      <trkpt lat="42.13888" lon="9.08895">
        <ele>2054.4746094</ele>
        <time>2010-08-27T11:17:10Z</time>
      </trkpt>
      <trkpt lat="42.13884" lon="9.08889">
        <ele>2054.9553223</ele>
        <time>2010-08-27T11:17:18Z</time>
      </trkpt>
      <trkpt lat="42.1388" lon="9.08882">
        <ele>2057.8393555</ele>
        <time>2010-08-27T11:17:23Z</time>
      </trkpt>
      <trkpt lat="42.13875" lon="9.08874">
        <ele>2063.6071777</ele>
        <time>2010-08-27T11:17:30Z</time>
      </trkpt>
      <trkpt lat="42.13873" lon="9.08874">
        <ele>2064.5686035</ele>
        <time>2010-08-27T11:17:31Z</time>
      </trkpt>
      <trkpt lat="42.13868" lon="9.0887">
        <ele>2067.4523926</ele>
        <time>2010-08-27T11:17:36Z</time>
      </trkpt>
      <trkpt lat="42.13866" lon="9.08863">
        <ele>2066.4912109</ele>
        <time>2010-08-27T11:17:41Z</time>
      </trkpt>
      <trkpt lat="42.13863" lon="9.08856">
        <ele>2064.0878906</ele>
        <time>2010-08-27T11:17:49Z</time>
      </trkpt>
      <trkpt lat="42.13861" lon="9.08854">
        <ele>2065.5300293</ele>
        <time>2010-08-27T11:17:51Z</time>
      </trkpt>
      <trkpt lat="42.1386" lon="9.08848">
        <ele>2061.2041016</ele>
        <time>2010-08-27T11:17:56Z</time>
      </trkpt>
      <trkpt lat="42.13859" lon="9.08833">
        <ele>2063.6071777</ele>
        <time>2010-08-27T11:18:04Z</time>
      </trkpt>
      <trkpt lat="42.13859" lon="9.08824">
        <ele>2061.2041016</ele>
        <time>2010-08-27T11:18:10Z</time>
      </trkpt>
      <trkpt lat="42.13861" lon="9.08817">
        <ele>2053.5134277</ele>
        <time>2010-08-27T11:18:16Z</time>
      </trkpt>
      <trkpt lat="42.13862" lon="9.08811">
        <ele>2049.1875</ele>
        <time>2010-08-27T11:18:24Z</time>
      </trkpt>
      <trkpt lat="42.1386" lon="9.08809">
        <ele>2046.3037109</ele>
        <time>2010-08-27T11:18:30Z</time>
      </trkpt>
      <trkpt lat="42.13856" lon="9.08801">
        <ele>2043.4194336</ele>
        <time>2010-08-27T11:18:37Z</time>
      </trkpt>
      <trkpt lat="42.1385" lon="9.08788">
        <ele>2046.7841797</ele>
        <time>2010-08-27T11:18:44Z</time>
      </trkpt>
      <trkpt lat="42.13842" lon="9.08776">
        <ele>2050.6293945</ele>
        <time>2010-08-27T11:18:52Z</time>
      </trkpt>
      <trkpt lat="42.13838" lon="9.0877">
        <ele>2052.552002</ele>
        <time>2010-08-27T11:18:57Z</time>
      </trkpt>
      <trkpt lat="42.13833" lon="9.08764">
        <ele>2056.8779297</ele>
        <time>2010-08-27T11:19:03Z</time>
      </trkpt>
      <trkpt lat="42.13837" lon="9.08767">
        <ele>2049.6682129</ele>
        <time>2010-08-27T11:19:09Z</time>
      </trkpt>
      <trkpt lat="42.13838" lon="9.08755">
        <ele>2045.3422852</ele>
        <time>2010-08-27T11:19:17Z</time>
      </trkpt>
      <trkpt lat="42.13838" lon="9.08752">
        <ele>2040.5354004</ele>
        <time>2010-08-27T11:19:22Z</time>
      </trkpt>
      <trkpt lat="42.13835" lon="9.08748">
        <ele>2040.5354004</ele>
        <time>2010-08-27T11:19:26Z</time>
      </trkpt>
      <trkpt lat="42.13833" lon="9.08746">
        <ele>2040.5354004</ele>
        <time>2010-08-27T11:19:29Z</time>
      </trkpt>
      <trkpt lat="42.13826" lon="9.08737">
        <ele>2042.9387207</ele>
        <time>2010-08-27T11:19:37Z</time>
      </trkpt>
      <trkpt lat="42.13821" lon="9.08727">
        <ele>2045.3422852</ele>
        <time>2010-08-27T11:19:44Z</time>
      </trkpt>
      <trkpt lat="42.13817" lon="9.08718">
        <ele>2045.3422852</ele>
        <time>2010-08-27T11:19:51Z</time>
      </trkpt>
      <trkpt lat="42.13815" lon="9.08713">
        <ele>2045.822998</ele>
        <time>2010-08-27T11:19:56Z</time>
      </trkpt>
      <trkpt lat="42.13812" lon="9.08708">
        <ele>2044.8615723</ele>
        <time>2010-08-27T11:20:00Z</time>
      </trkpt>
      <trkpt lat="42.1381" lon="9.08695">
        <ele>2043.4194336</ele>
        <time>2010-08-27T11:20:08Z</time>
      </trkpt>
      <trkpt lat="42.13809" lon="9.08689">
        <ele>2041.9775391</ele>
        <time>2010-08-27T11:20:13Z</time>
      </trkpt>
      <trkpt lat="42.13808" lon="9.08688">
        <ele>2041.9775391</ele>
        <time>2010-08-27T11:20:14Z</time>
      </trkpt>
      <trkpt lat="42.13806" lon="9.08681">
        <ele>2039.5742188</ele>
        <time>2010-08-27T11:20:21Z</time>
      </trkpt>
      <trkpt lat="42.13805" lon="9.08674">
        <ele>2038.6130371</ele>
        <time>2010-08-27T11:20:27Z</time>
      </trkpt>
      <trkpt lat="42.13805" lon="9.08669">
        <ele>2038.1323242</ele>
        <time>2010-08-27T11:20:31Z</time>
      </trkpt>
      <trkpt lat="42.13804" lon="9.08656">
        <ele>2038.6130371</ele>
        <time>2010-08-27T11:20:40Z</time>
      </trkpt>
      <trkpt lat="42.13804" lon="9.08649">
        <ele>2037.6516113</ele>
        <time>2010-08-27T11:20:48Z</time>
      </trkpt>
      <trkpt lat="42.13804" lon="9.08644">
        <ele>2034.2871094</ele>
        <time>2010-08-27T11:20:53Z</time>
      </trkpt>
      <trkpt lat="42.13803" lon="9.08637">
        <ele>2034.2871094</ele>
        <time>2010-08-27T11:21:00Z</time>
      </trkpt>
      <trkpt lat="42.13803" lon="9.08631">
        <ele>2032.8449707</ele>
        <time>2010-08-27T11:21:05Z</time>
      </trkpt>
      <trkpt lat="42.13803" lon="9.08621">
        <ele>2032.8449707</ele>
        <time>2010-08-27T11:21:11Z</time>
      </trkpt>
      <trkpt lat="42.13802" lon="9.08611">
        <ele>2031.8837891</ele>
        <time>2010-08-27T11:21:18Z</time>
      </trkpt>
      <trkpt lat="42.13801" lon="9.08601">
        <ele>2029.9611816</ele>
        <time>2010-08-27T11:21:26Z</time>
      </trkpt>
      <trkpt lat="42.138" lon="9.08592">
        <ele>2031.4030762</ele>
        <time>2010-08-27T11:21:33Z</time>
      </trkpt>
      <trkpt lat="42.13799" lon="9.08582">
        <ele>2030.4418945</ele>
        <time>2010-08-27T11:21:40Z</time>
      </trkpt>
      <trkpt lat="42.13798" lon="9.08579">
        <ele>2031.4030762</ele>
        <time>2010-08-27T11:21:42Z</time>
      </trkpt>
      <trkpt lat="42.138" lon="9.0857">
        <ele>2031.8837891</ele>
        <time>2010-08-27T11:21:49Z</time>
      </trkpt>
      <trkpt lat="42.138" lon="9.08567">
        <ele>2031.4030762</ele>
        <time>2010-08-27T11:21:51Z</time>
      </trkpt>
      <trkpt lat="42.13801" lon="9.08561">
        <ele>2031.8837891</ele>
        <time>2010-08-27T11:21:58Z</time>
      </trkpt>
      <trkpt lat="42.13801" lon="9.08557">
        <ele>2031.4030762</ele>
        <time>2010-08-27T11:22:05Z</time>
      </trkpt>
      <trkpt lat="42.13798" lon="9.08551">
        <ele>2033.3256836</ele>
        <time>2010-08-27T11:22:12Z</time>
      </trkpt>
      <trkpt lat="42.13799" lon="9.08546">
        <ele>2034.7678223</ele>
        <time>2010-08-27T11:22:18Z</time>
      </trkpt>
      <trkpt lat="42.13797" lon="9.08541">
        <ele>2035.7290039</ele>
        <time>2010-08-27T11:22:24Z</time>
      </trkpt>
      <trkpt lat="42.13795" lon="9.08534">
        <ele>2034.7678223</ele>
        <time>2010-08-27T11:22:32Z</time>
      </trkpt>
      <trkpt lat="42.13794" lon="9.08531">
        <ele>2034.2871094</ele>
        <time>2010-08-27T11:22:38Z</time>
      </trkpt>
      <trkpt lat="42.13792" lon="9.08526">
        <ele>2033.3256836</ele>
        <time>2010-08-27T11:22:43Z</time>
      </trkpt>
      <trkpt lat="42.13789" lon="9.08518">
        <ele>2032.364502</ele>
        <time>2010-08-27T11:22:50Z</time>
      </trkpt>
      <trkpt lat="42.13788" lon="9.08514">
        <ele>2032.8449707</ele>
        <time>2010-08-27T11:22:57Z</time>
      </trkpt>
      <trkpt lat="42.13788" lon="9.08511">
        <ele>2031.4030762</ele>
        <time>2010-08-27T11:23:04Z</time>
      </trkpt>
      <trkpt lat="42.13786" lon="9.08505">
        <ele>2030.4418945</ele>
        <time>2010-08-27T11:23:11Z</time>
      </trkpt>
      <trkpt lat="42.13785" lon="9.085">
        <ele>2029.4804688</ele>
        <time>2010-08-27T11:23:16Z</time>
      </trkpt>
      <trkpt lat="42.13782" lon="9.08494">
        <ele>2028.9997559</ele>
        <time>2010-08-27T11:23:23Z</time>
      </trkpt>
      <trkpt lat="42.13781" lon="9.0849">
        <ele>2028.0385742</ele>
        <time>2010-08-27T11:23:30Z</time>
      </trkpt>
      <trkpt lat="42.13778" lon="9.08485">
        <ele>2029.4804688</ele>
        <time>2010-08-27T11:23:38Z</time>
      </trkpt>
      <trkpt lat="42.13776" lon="9.08484">
        <ele>2030.9226074</ele>
        <time>2010-08-27T11:23:44Z</time>
      </trkpt>
      <trkpt lat="42.13775" lon="9.08484">
        <ele>2029.4804688</ele>
        <time>2010-08-27T11:23:50Z</time>
      </trkpt>
      <trkpt lat="42.13774" lon="9.08485">
        <ele>2028.9997559</ele>
        <time>2010-08-27T11:23:52Z</time>
      </trkpt>
      <trkpt lat="42.1377" lon="9.08486">
        <ele>2028.0385742</ele>
        <time>2010-08-27T11:23:57Z</time>
      </trkpt>
      <trkpt lat="42.13766" lon="9.08478">
        <ele>2026.1157227</ele>
        <time>2010-08-27T11:24:06Z</time>
      </trkpt>
      <trkpt lat="42.13763" lon="9.08467">
        <ele>2023.2319336</ele>
        <time>2010-08-27T11:24:13Z</time>
      </trkpt>
      <trkpt lat="42.1376" lon="9.08462">
        <ele>2024.1931152</ele>
        <time>2010-08-27T11:24:20Z</time>
      </trkpt>
      <trkpt lat="42.13758" lon="9.08461">
        <ele>2025.6350098</ele>
        <time>2010-08-27T11:24:26Z</time>
      </trkpt>
      <trkpt lat="42.13756" lon="9.08457">
        <ele>2025.1542969</ele>
        <time>2010-08-27T11:24:32Z</time>
      </trkpt>
      <trkpt lat="42.13755" lon="9.08454">
        <ele>2024.6738281</ele>
        <time>2010-08-27T11:24:40Z</time>
      </trkpt>
      <trkpt lat="42.13751" lon="9.08454">
        <ele>2023.2319336</ele>
        <time>2010-08-27T11:24:47Z</time>
      </trkpt>
      <trkpt lat="42.13751" lon="9.08455">
        <ele>2023.2319336</ele>
        <time>2010-08-27T11:24:53Z</time>
      </trkpt>
      <trkpt lat="42.13748" lon="9.08453">
        <ele>2023.2319336</ele>
        <time>2010-08-27T11:24:59Z</time>
      </trkpt>
      <trkpt lat="42.13747" lon="9.0845">
        <ele>2023.7124023</ele>
        <time>2010-08-27T11:25:05Z</time>
      </trkpt>
      <trkpt lat="42.13744" lon="9.08446">
        <ele>2023.2319336</ele>
        <time>2010-08-27T11:25:12Z</time>
      </trkpt>
      <trkpt lat="42.13742" lon="9.08446">
        <ele>2022.7512207</ele>
        <time>2010-08-27T11:25:18Z</time>
      </trkpt>
      <trkpt lat="42.13741" lon="9.08444">
        <ele>2022.2705078</ele>
        <time>2010-08-27T11:25:22Z</time>
      </trkpt>
      <trkpt lat="42.1374" lon="9.0844">
        <ele>2022.2705078</ele>
        <time>2010-08-27T11:25:28Z</time>
      </trkpt>
      <trkpt lat="42.13738" lon="9.08437">
        <ele>2022.2705078</ele>
        <time>2010-08-27T11:25:34Z</time>
      </trkpt>
      <trkpt lat="42.13734" lon="9.08432">
        <ele>2021.7897949</ele>
        <time>2010-08-27T11:25:42Z</time>
      </trkpt>
      <trkpt lat="42.13731" lon="9.08427">
        <ele>2021.309082</ele>
        <time>2010-08-27T11:25:49Z</time>
      </trkpt>
      <trkpt lat="42.13727" lon="9.08423">
        <ele>2023.2319336</ele>
        <time>2010-08-27T11:25:57Z</time>
      </trkpt>
      <trkpt lat="42.13725" lon="9.08423">
        <ele>2021.7897949</ele>
        <time>2010-08-27T11:26:04Z</time>
      </trkpt>
      <trkpt lat="42.13725" lon="9.08424">
        <ele>2018.9060059</ele>
        <time>2010-08-27T11:26:10Z</time>
      </trkpt>
      <trkpt lat="42.13724" lon="9.08425">
        <ele>2016.0219727</ele>
        <time>2010-08-27T11:26:17Z</time>
      </trkpt>
      <trkpt lat="42.13724" lon="9.08426">
        <ele>2014.0993652</ele>
        <time>2010-08-27T11:26:23Z</time>
      </trkpt>
      <trkpt lat="42.13723" lon="9.08428">
        <ele>2012.6574707</ele>
        <time>2010-08-27T11:26:30Z</time>
      </trkpt>
      <trkpt lat="42.13721" lon="9.08428">
        <ele>2011.6960449</ele>
        <time>2010-08-27T11:26:36Z</time>
      </trkpt>
      <trkpt lat="42.13719" lon="9.08429">
        <ele>2010.2539062</ele>
        <time>2010-08-27T11:26:42Z</time>
      </trkpt>
      <trkpt lat="42.13719" lon="9.08432">
        <ele>2010.2539062</ele>
        <time>2010-08-27T11:26:48Z</time>
      </trkpt>
      <trkpt lat="42.13716" lon="9.08436">
        <ele>2011.6960449</ele>
        <time>2010-08-27T11:26:54Z</time>
      </trkpt>
      <trkpt lat="42.13717" lon="9.08441">
        <ele>2010.2539062</ele>
        <time>2010-08-27T11:27:01Z</time>
      </trkpt>
      <trkpt lat="42.13717" lon="9.08443">
        <ele>2008.8120117</ele>
        <time>2010-08-27T11:27:05Z</time>
      </trkpt>
      <trkpt lat="42.1372" lon="9.08449">
        <ele>2007.3701172</ele>
        <time>2010-08-27T11:27:13Z</time>
      </trkpt>
      <trkpt lat="42.13719" lon="9.08451">
        <ele>2005.4475098</ele>
        <time>2010-08-27T11:27:18Z</time>
      </trkpt>
      <trkpt lat="42.13721" lon="9.08454">
        <ele>2003.0441895</ele>
        <time>2010-08-27T11:27:24Z</time>
      </trkpt>
      <trkpt lat="42.13721" lon="9.08458">
        <ele>2001.6022949</ele>
        <time>2010-08-27T11:27:30Z</time>
      </trkpt>
      <trkpt lat="42.13721" lon="9.08462">
        <ele>1998.7182617</ele>
        <time>2010-08-27T11:27:37Z</time>
      </trkpt>
      <trkpt lat="42.13718" lon="9.08463">
        <ele>1996.7956543</ele>
        <time>2010-08-27T11:27:43Z</time>
      </trkpt>
      <trkpt lat="42.13714" lon="9.08468">
        <ele>1995.3535156</ele>
        <time>2010-08-27T11:27:50Z</time>
      </trkpt>
      <trkpt lat="42.13714" lon="9.08472">
        <ele>1995.3535156</ele>
        <time>2010-08-27T11:27:56Z</time>
      </trkpt>
      <trkpt lat="42.13713" lon="9.08478">
        <ele>1995.8342285</ele>
        <time>2010-08-27T11:28:03Z</time>
      </trkpt>
      <trkpt lat="42.13714" lon="9.08482">
        <ele>1993.9116211</ele>
        <time>2010-08-27T11:28:10Z</time>
      </trkpt>
      <trkpt lat="42.1371" lon="9.08482">
        <ele>1993.4309082</ele>
        <time>2010-08-27T11:28:16Z</time>
      </trkpt>
      <trkpt lat="42.13707" lon="9.08485">
        <ele>1991.9890137</ele>
        <time>2010-08-27T11:28:23Z</time>
      </trkpt>
      <trkpt lat="42.13705" lon="9.08489">
        <ele>1991.5083008</ele>
        <time>2010-08-27T11:28:30Z</time>
      </trkpt>
      <trkpt lat="42.13704" lon="9.08494">
        <ele>1988.1437988</ele>
        <time>2010-08-27T11:28:38Z</time>
      </trkpt>
      <trkpt lat="42.13701" lon="9.08496">
        <ele>1988.1437988</ele>
        <time>2010-08-27T11:28:45Z</time>
      </trkpt>
      <trkpt lat="42.137" lon="9.085">
        <ele>1986.7016602</ele>
        <time>2010-08-27T11:28:51Z</time>
      </trkpt>
      <trkpt lat="42.13697" lon="9.08502">
        <ele>1986.7016602</ele>
        <time>2010-08-27T11:28:57Z</time>
      </trkpt>
      <trkpt lat="42.13696" lon="9.08504">
        <ele>1986.7016602</ele>
        <time>2010-08-27T11:29:02Z</time>
      </trkpt>
      <trkpt lat="42.13694" lon="9.08502">
        <ele>1988.1437988</ele>
        <time>2010-08-27T11:29:07Z</time>
      </trkpt>
      <trkpt lat="42.13692" lon="9.08504">
        <ele>1986.7016602</ele>
        <time>2010-08-27T11:29:13Z</time>
      </trkpt>
      <trkpt lat="42.1369" lon="9.08508">
        <ele>1983.8178711</ele>
        <time>2010-08-27T11:29:21Z</time>
      </trkpt>
      <trkpt lat="42.13687" lon="9.08511">
        <ele>1983.8178711</ele>
        <time>2010-08-27T11:29:29Z</time>
      </trkpt>
      <trkpt lat="42.13684" lon="9.08511">
        <ele>1983.3371582</ele>
        <time>2010-08-27T11:29:36Z</time>
      </trkpt>
      <trkpt lat="42.13682" lon="9.08513">
        <ele>1979.9724121</ele>
        <time>2010-08-27T11:29:43Z</time>
      </trkpt>
      <trkpt lat="42.1368" lon="9.08515">
        <ele>1979.9724121</ele>
        <time>2010-08-27T11:29:49Z</time>
      </trkpt>
      <trkpt lat="42.13678" lon="9.0851">
        <ele>1979.9724121</ele>
        <time>2010-08-27T11:29:55Z</time>
      </trkpt>
      <trkpt lat="42.13676" lon="9.08509">
        <ele>1978.0498047</ele>
        <time>2010-08-27T11:30:01Z</time>
      </trkpt>
      <trkpt lat="42.13673" lon="9.08509">
        <ele>1975.6464844</ele>
        <time>2010-08-27T11:30:09Z</time>
      </trkpt>
      <trkpt lat="42.13674" lon="9.08511">
        <ele>1974.2045898</ele>
        <time>2010-08-27T11:30:16Z</time>
      </trkpt>
      <trkpt lat="42.13673" lon="9.08515">
        <ele>1970.359375</ele>
        <time>2010-08-27T11:30:23Z</time>
      </trkpt>
      <trkpt lat="42.1367" lon="9.08518">
        <ele>1967.9560547</ele>
        <time>2010-08-27T11:30:30Z</time>
      </trkpt>
      <trkpt lat="42.13668" lon="9.08518">
        <ele>1967.4753418</ele>
        <time>2010-08-27T11:30:35Z</time>
      </trkpt>
      <trkpt lat="42.13665" lon="9.08525">
        <ele>1967.4753418</ele>
        <time>2010-08-27T11:30:43Z</time>
      </trkpt>
      <trkpt lat="42.13663" lon="9.08529">
        <ele>1965.5529785</ele>
        <time>2010-08-27T11:30:49Z</time>
      </trkpt>
      <trkpt lat="42.1366" lon="9.08531">
        <ele>1963.1494141</ele>
        <time>2010-08-27T11:30:57Z</time>
      </trkpt>
      <trkpt lat="42.13657" lon="9.08533">
        <ele>1961.2268066</ele>
        <time>2010-08-27T11:31:03Z</time>
      </trkpt>
      <trkpt lat="42.13654" lon="9.08535">
        <ele>1961.7075195</ele>
        <time>2010-08-27T11:31:08Z</time>
      </trkpt>
      <trkpt lat="42.13653" lon="9.08541">
        <ele>1960.2653809</ele>
        <time>2010-08-27T11:31:15Z</time>
      </trkpt>
      <trkpt lat="42.13652" lon="9.0854">
        <ele>1958.8234863</ele>
        <time>2010-08-27T11:31:23Z</time>
      </trkpt>
      <trkpt lat="42.13647" lon="9.08537">
        <ele>1954.9782715</ele>
        <time>2010-08-27T11:31:32Z</time>
      </trkpt>
      <trkpt lat="42.13643" lon="9.08537">
        <ele>1954.9782715</ele>
        <time>2010-08-27T11:31:38Z</time>
      </trkpt>
      <trkpt lat="42.1364" lon="9.08538">
        <ele>1954.4975586</ele>
        <time>2010-08-27T11:31:43Z</time>
      </trkpt>
      <trkpt lat="42.13637" lon="9.08538">
        <ele>1953.536377</ele>
        <time>2010-08-27T11:31:49Z</time>
      </trkpt>
      <trkpt lat="42.13635" lon="9.08539">
        <ele>1952.5749512</ele>
        <time>2010-08-27T11:31:55Z</time>
      </trkpt>
      <trkpt lat="42.13634" lon="9.08542">
        <ele>1952.5749512</ele>
        <time>2010-08-27T11:32:01Z</time>
      </trkpt>
      <trkpt lat="42.13633" lon="9.08546">
        <ele>1951.1330566</ele>
        <time>2010-08-27T11:32:07Z</time>
      </trkpt>
      <trkpt lat="42.13631" lon="9.08546">
        <ele>1948.2490234</ele>
        <time>2010-08-27T11:32:12Z</time>
      </trkpt>
      <trkpt lat="42.13634" lon="9.08547">
        <ele>1944.8842773</ele>
        <time>2010-08-27T11:32:21Z</time>
      </trkpt>
      <trkpt lat="42.13633" lon="9.08548">
        <ele>1945.8457031</ele>
        <time>2010-08-27T11:32:27Z</time>
      </trkpt>
      <trkpt lat="42.13631" lon="9.08548">
        <ele>1947.2875977</ele>
        <time>2010-08-27T11:32:35Z</time>
      </trkpt>
      <trkpt lat="42.13631" lon="9.08548">
        <ele>1949.6911621</ele>
        <time>2010-08-27T11:32:47Z</time>
      </trkpt>
      <trkpt lat="42.1363" lon="9.08548">
        <ele>1949.2104492</ele>
        <time>2010-08-27T11:33:02Z</time>
      </trkpt>
      <trkpt lat="42.13632" lon="9.08549">
        <ele>1948.2490234</ele>
        <time>2010-08-27T11:33:17Z</time>
      </trkpt>
      <trkpt lat="42.13632" lon="9.08549">
        <ele>1948.2490234</ele>
        <time>2010-08-27T11:33:26Z</time>
      </trkpt>
      <trkpt lat="42.13633" lon="9.0855">
        <ele>1948.2490234</ele>
        <time>2010-08-27T11:33:33Z</time>
      </trkpt>
      <trkpt lat="42.13632" lon="9.0855">
        <ele>1948.2490234</ele>
        <time>2010-08-27T11:33:45Z</time>
      </trkpt>
      <trkpt lat="42.13629" lon="9.08549">
        <ele>1949.6911621</ele>
        <time>2010-08-27T11:34:02Z</time>
      </trkpt>
      <trkpt lat="42.13628" lon="9.08549">
        <ele>1949.2104492</ele>
        <time>2010-08-27T11:34:07Z</time>
      </trkpt>
      <trkpt lat="42.13631" lon="9.08549">
        <ele>1949.2104492</ele>
        <time>2010-08-27T11:34:22Z</time>
      </trkpt>
      <trkpt lat="42.1363" lon="9.08549">
        <ele>1942.0004883</ele>
        <time>2010-08-27T11:34:45Z</time>
      </trkpt>
      <trkpt lat="42.13628" lon="9.0855">
        <ele>1944.8842773</ele>
        <time>2010-08-27T11:35:05Z</time>
      </trkpt>
      <trkpt lat="42.13627" lon="9.08548">
        <ele>1943.9230957</ele>
        <time>2010-08-27T11:35:26Z</time>
      </trkpt>
      <trkpt lat="42.1363" lon="9.08549">
        <ele>1941.0390625</ele>
        <time>2010-08-27T11:35:42Z</time>
      </trkpt>
      <trkpt lat="42.13631" lon="9.0855">
        <ele>1940.0778809</ele>
        <time>2010-08-27T11:35:54Z</time>
      </trkpt>
      <trkpt lat="42.13631" lon="9.08549">
        <ele>1943.9230957</ele>
        <time>2010-08-27T11:36:02Z</time>
      </trkpt>
      <trkpt lat="42.13631" lon="9.08548">
        <ele>1947.7683105</ele>
        <time>2010-08-27T11:36:13Z</time>
      </trkpt>
      <trkpt lat="42.13631" lon="9.08548">
        <ele>1948.7297363</ele>
        <time>2010-08-27T11:36:24Z</time>
      </trkpt>
      <trkpt lat="42.1363" lon="9.08546">
        <ele>1947.2875977</ele>
        <time>2010-08-27T11:36:34Z</time>
      </trkpt>
      <trkpt lat="42.13631" lon="9.08544">
        <ele>1942.9616699</ele>
        <time>2010-08-27T11:36:43Z</time>
      </trkpt>
      <trkpt lat="42.13633" lon="9.08545">
        <ele>1941.0390625</ele>
        <time>2010-08-27T11:36:48Z</time>
      </trkpt>
      <trkpt lat="42.13631" lon="9.08544">
        <ele>1939.597168</ele>
        <time>2010-08-27T11:36:53Z</time>
      </trkpt>
      <trkpt lat="42.13631" lon="9.08545">
        <ele>1939.597168</ele>
        <time>2010-08-27T11:37:02Z</time>
      </trkpt>
      <trkpt lat="42.13631" lon="9.08547">
        <ele>1941.0390625</ele>
        <time>2010-08-27T11:37:11Z</time>
      </trkpt>
      <trkpt lat="42.13629" lon="9.08547">
        <ele>1942.9616699</ele>
        <time>2010-08-27T11:37:18Z</time>
      </trkpt>
      <trkpt lat="42.1363" lon="9.08547">
        <ele>1944.4035645</ele>
        <time>2010-08-27T11:37:26Z</time>
      </trkpt>
      <trkpt lat="42.13632" lon="9.08548">
        <ele>1945.3649902</ele>
        <time>2010-08-27T11:37:33Z</time>
      </trkpt>
      <trkpt lat="42.13631" lon="9.08547">
        <ele>1944.8842773</ele>
        <time>2010-08-27T11:37:41Z</time>
      </trkpt>
      <trkpt lat="42.13623" lon="9.08545">
        <ele>1959.784668</ele>
        <time>2010-08-27T11:38:10Z</time>
      </trkpt>
      <trkpt lat="42.13625" lon="9.08544">
        <ele>1956.420166</ele>
        <time>2010-08-27T11:38:20Z</time>
      </trkpt>
      <trkpt lat="42.13631" lon="9.08544">
        <ele>1943.9230957</ele>
        <time>2010-08-27T11:38:40Z</time>
      </trkpt>
      <trkpt lat="42.13629" lon="9.08544">
        <ele>1946.8068848</ele>
        <time>2010-08-27T11:39:01Z</time>
      </trkpt>
      <trkpt lat="42.13629" lon="9.08546">
        <ele>1945.8457031</ele>
        <time>2010-08-27T11:39:13Z</time>
      </trkpt>
      <trkpt lat="42.13623" lon="9.08545">
        <ele>1954.0170898</ele>
        <time>2010-08-27T11:39:32Z</time>
      </trkpt>
      <trkpt lat="42.13622" lon="9.08547">
        <ele>1953.0556641</ele>
        <time>2010-08-27T11:39:39Z</time>
      </trkpt>
      <trkpt lat="42.13622" lon="9.08546">
        <ele>1948.2490234</ele>
        <time>2010-08-27T11:39:44Z</time>
      </trkpt>
      <trkpt lat="42.13621" lon="9.08546">
        <ele>1944.8842773</ele>
        <time>2010-08-27T11:39:50Z</time>
      </trkpt>
      <trkpt lat="42.13623" lon="9.08544">
        <ele>1942.0004883</ele>
        <time>2010-08-27T11:40:04Z</time>
      </trkpt>
      <trkpt lat="42.13621" lon="9.08542">
        <ele>1948.7297363</ele>
        <time>2010-08-27T11:40:26Z</time>
      </trkpt>
      <trkpt lat="42.13622" lon="9.08542">
        <ele>1944.8842773</ele>
        <time>2010-08-27T11:40:36Z</time>
      </trkpt>
      <trkpt lat="42.1362" lon="9.08544">
        <ele>1943.4423828</ele>
        <time>2010-08-27T11:40:54Z</time>
      </trkpt>
      <trkpt lat="42.13617" lon="9.08543">
        <ele>1941.5197754</ele>
        <time>2010-08-27T11:41:00Z</time>
      </trkpt>
      <trkpt lat="42.13613" lon="9.08538">
        <ele>1939.597168</ele>
        <time>2010-08-27T11:41:06Z</time>
      </trkpt>
      <trkpt lat="42.13613" lon="9.08531">
        <ele>1937.1938477</ele>
        <time>2010-08-27T11:41:13Z</time>
      </trkpt>
      <trkpt lat="42.13613" lon="9.0853">
        <ele>1936.7131348</ele>
        <time>2010-08-27T11:41:14Z</time>
      </trkpt>
      <trkpt lat="42.13611" lon="9.08522">
        <ele>1932.3874512</ele>
        <time>2010-08-27T11:41:21Z</time>
      </trkpt>
      <trkpt lat="42.1361" lon="9.08517">
        <ele>1931.9064941</ele>
        <time>2010-08-27T11:41:27Z</time>
      </trkpt>
      <trkpt lat="42.13608" lon="9.0851">
        <ele>1929.5031738</ele>
        <time>2010-08-27T11:41:35Z</time>
      </trkpt>
      <trkpt lat="42.13607" lon="9.08507">
        <ele>1929.0224609</ele>
        <time>2010-08-27T11:41:40Z</time>
      </trkpt>
      <trkpt lat="42.13605" lon="9.08505">
        <ele>1928.5419922</ele>
        <time>2010-08-27T11:41:46Z</time>
      </trkpt>
      <trkpt lat="42.13604" lon="9.08498">
        <ele>1925.657959</ele>
        <time>2010-08-27T11:41:53Z</time>
      </trkpt>
      <trkpt lat="42.13601" lon="9.08491">
        <ele>1925.657959</ele>
        <time>2010-08-27T11:42:00Z</time>
      </trkpt>
      <trkpt lat="42.136" lon="9.08488">
        <ele>1925.1772461</ele>
        <time>2010-08-27T11:42:06Z</time>
      </trkpt>
      <trkpt lat="42.13598" lon="9.08482">
        <ele>1925.657959</ele>
        <time>2010-08-27T11:42:12Z</time>
      </trkpt>
      <trkpt lat="42.13598" lon="9.08481">
        <ele>1926.1386719</ele>
        <time>2010-08-27T11:42:13Z</time>
      </trkpt>
      <trkpt lat="42.13597" lon="9.08473">
        <ele>1926.6193848</ele>
        <time>2010-08-27T11:42:21Z</time>
      </trkpt>
      <trkpt lat="42.13594" lon="9.08468">
        <ele>1927.1000977</ele>
        <time>2010-08-27T11:42:27Z</time>
      </trkpt>
      <trkpt lat="42.13593" lon="9.08467">
        <ele>1926.6193848</ele>
        <time>2010-08-27T11:42:28Z</time>
      </trkpt>
      <trkpt lat="42.13594" lon="9.08461">
        <ele>1925.1772461</ele>
        <time>2010-08-27T11:42:34Z</time>
      </trkpt>
      <trkpt lat="42.13592" lon="9.0846">
        <ele>1923.7353516</ele>
        <time>2010-08-27T11:42:41Z</time>
      </trkpt>
      <trkpt lat="42.13589" lon="9.08458">
        <ele>1921.8127441</ele>
        <time>2010-08-27T11:42:48Z</time>
      </trkpt>
      <trkpt lat="42.13586" lon="9.08453">
        <ele>1922.293457</ele>
        <time>2010-08-27T11:42:55Z</time>
      </trkpt>
      <trkpt lat="42.13583" lon="9.0845">
        <ele>1921.3320312</ele>
        <time>2010-08-27T11:43:01Z</time>
      </trkpt>
      <trkpt lat="42.1358" lon="9.08447">
        <ele>1920.3708496</ele>
        <time>2010-08-27T11:43:07Z</time>
      </trkpt>
      <trkpt lat="42.13576" lon="9.08444">
        <ele>1918.9289551</ele>
        <time>2010-08-27T11:43:14Z</time>
      </trkpt>
      <trkpt lat="42.13573" lon="9.08439">
        <ele>1919.8901367</ele>
        <time>2010-08-27T11:43:20Z</time>
      </trkpt>
      <trkpt lat="42.13574" lon="9.0844">
        <ele>1917.0063477</ele>
        <time>2010-08-27T11:43:28Z</time>
      </trkpt>
      <trkpt lat="42.13572" lon="9.08438">
        <ele>1917.0063477</ele>
        <time>2010-08-27T11:43:34Z</time>
      </trkpt>
      <trkpt lat="42.13569" lon="9.08435">
        <ele>1915.0834961</ele>
        <time>2010-08-27T11:43:41Z</time>
      </trkpt>
      <trkpt lat="42.13564" lon="9.08435">
        <ele>1912.1994629</ele>
        <time>2010-08-27T11:43:48Z</time>
      </trkpt>
      <trkpt lat="42.13562" lon="9.08435">
        <ele>1910.7575684</ele>
        <time>2010-08-27T11:43:54Z</time>
      </trkpt>
      <trkpt lat="42.13557" lon="9.08437">
        <ele>1907.8737793</ele>
        <time>2010-08-27T11:44:01Z</time>
      </trkpt>
      <trkpt lat="42.13555" lon="9.08438">
        <ele>1904.9897461</ele>
        <time>2010-08-27T11:44:08Z</time>
      </trkpt>
      <trkpt lat="42.13554" lon="9.08436">
        <ele>1904.9897461</ele>
        <time>2010-08-27T11:44:13Z</time>
      </trkpt>
      <trkpt lat="42.13549" lon="9.08437">
        <ele>1904.9897461</ele>
        <time>2010-08-27T11:44:21Z</time>
      </trkpt>
      <trkpt lat="42.13546" lon="9.08439">
        <ele>1904.9897461</ele>
        <time>2010-08-27T11:44:27Z</time>
      </trkpt>
      <trkpt lat="42.13543" lon="9.08434">
        <ele>1907.3930664</ele>
        <time>2010-08-27T11:44:32Z</time>
      </trkpt>
      <trkpt lat="42.1354" lon="9.0843">
        <ele>1905.9509277</ele>
        <time>2010-08-27T11:44:39Z</time>
      </trkpt>
      <trkpt lat="42.13539" lon="9.08428">
        <ele>1903.5478516</ele>
        <time>2010-08-27T11:44:46Z</time>
      </trkpt>
      <trkpt lat="42.13537" lon="9.08425">
        <ele>1902.5864258</ele>
        <time>2010-08-27T11:44:51Z</time>
      </trkpt>
      <trkpt lat="42.13535" lon="9.08422">
        <ele>1900.6638184</ele>
        <time>2010-08-27T11:44:58Z</time>
      </trkpt>
      <trkpt lat="42.13534" lon="9.08419">
        <ele>1900.1833496</ele>
        <time>2010-08-27T11:45:03Z</time>
      </trkpt>
      <trkpt lat="42.13533" lon="9.08414">
        <ele>1900.1833496</ele>
        <time>2010-08-27T11:45:09Z</time>
      </trkpt>
      <trkpt lat="42.1353" lon="9.08413">
        <ele>1899.7023926</ele>
        <time>2010-08-27T11:45:15Z</time>
      </trkpt>
      <trkpt lat="42.13527" lon="9.08416">
        <ele>1899.2216797</ele>
        <time>2010-08-27T11:45:21Z</time>
      </trkpt>
      <trkpt lat="42.13527" lon="9.08419">
        <ele>1897.2990723</ele>
        <time>2010-08-27T11:45:27Z</time>
      </trkpt>
      <trkpt lat="42.13525" lon="9.08416">
        <ele>1897.2990723</ele>
        <time>2010-08-27T11:45:32Z</time>
      </trkpt>
      <trkpt lat="42.13522" lon="9.08412">
        <ele>1893.9345703</ele>
        <time>2010-08-27T11:45:38Z</time>
      </trkpt>
      <trkpt lat="42.1352" lon="9.08414">
        <ele>1889.6086426</ele>
        <time>2010-08-27T11:45:44Z</time>
      </trkpt>
      <trkpt lat="42.13519" lon="9.08417">
        <ele>1885.7634277</ele>
        <time>2010-08-27T11:45:51Z</time>
      </trkpt>
      <trkpt lat="42.13518" lon="9.08417">
        <ele>1881.4372559</ele>
        <time>2010-08-27T11:45:56Z</time>
      </trkpt>
      <trkpt lat="42.13515" lon="9.08412">
        <ele>1880.9567871</ele>
        <time>2010-08-27T11:46:03Z</time>
      </trkpt>
      <trkpt lat="42.13513" lon="9.08416">
        <ele>1881.4372559</ele>
        <time>2010-08-27T11:46:08Z</time>
      </trkpt>
      <trkpt lat="42.13511" lon="9.08418">
        <ele>1882.8791504</ele>
        <time>2010-08-27T11:46:10Z</time>
      </trkpt>
      <trkpt lat="42.13507" lon="9.08422">
        <ele>1884.8022461</ele>
        <time>2010-08-27T11:46:16Z</time>
      </trkpt>
      <trkpt lat="42.13506" lon="9.08431">
        <ele>1884.3215332</ele>
        <time>2010-08-27T11:46:24Z</time>
      </trkpt>
      <trkpt lat="42.13504" lon="9.08433">
        <ele>1885.2827148</ele>
        <time>2010-08-27T11:46:28Z</time>
      </trkpt>
      <trkpt lat="42.13504" lon="9.08439">
        <ele>1884.3215332</ele>
        <time>2010-08-27T11:46:35Z</time>
      </trkpt>
      <trkpt lat="42.13503" lon="9.08439">
        <ele>1883.3598633</ele>
        <time>2010-08-27T11:46:41Z</time>
      </trkpt>
      <trkpt lat="42.13501" lon="9.0844">
        <ele>1878.0727539</ele>
        <time>2010-08-27T11:46:46Z</time>
      </trkpt>
      <trkpt lat="42.13501" lon="9.08443">
        <ele>1876.1501465</ele>
        <time>2010-08-27T11:46:51Z</time>
      </trkpt>
      <trkpt lat="42.135" lon="9.08446">
        <ele>1875.1887207</ele>
        <time>2010-08-27T11:46:56Z</time>
      </trkpt>
      <trkpt lat="42.13499" lon="9.08449">
        <ele>1875.1887207</ele>
        <time>2010-08-27T11:47:02Z</time>
      </trkpt>
      <trkpt lat="42.13497" lon="9.08451">
        <ele>1878.0727539</ele>
        <time>2010-08-27T11:47:08Z</time>
      </trkpt>
      <trkpt lat="42.13496" lon="9.08454">
        <ele>1878.0727539</ele>
        <time>2010-08-27T11:47:13Z</time>
      </trkpt>
      <trkpt lat="42.13493" lon="9.08456">
        <ele>1880.9567871</ele>
        <time>2010-08-27T11:47:19Z</time>
      </trkpt>
      <trkpt lat="42.13494" lon="9.08459">
        <ele>1881.4372559</ele>
        <time>2010-08-27T11:47:25Z</time>
      </trkpt>
      <trkpt lat="42.13497" lon="9.08465">
        <ele>1876.1501465</ele>
        <time>2010-08-27T11:47:32Z</time>
      </trkpt>
      <trkpt lat="42.13496" lon="9.08469">
        <ele>1874.2275391</ele>
        <time>2010-08-27T11:47:38Z</time>
      </trkpt>
      <trkpt lat="42.13493" lon="9.08469">
        <ele>1874.2275391</ele>
        <time>2010-08-27T11:47:44Z</time>
      </trkpt>
      <trkpt lat="42.1349" lon="9.0847">
        <ele>1872.7856445</ele>
        <time>2010-08-27T11:47:51Z</time>
      </trkpt>
      <trkpt lat="42.13485" lon="9.08467">
        <ele>1868.9404297</ele>
        <time>2010-08-27T11:47:57Z</time>
      </trkpt>
      <trkpt lat="42.13482" lon="9.0847">
        <ele>1866.0561523</ele>
        <time>2010-08-27T11:48:05Z</time>
      </trkpt>
      <trkpt lat="42.13481" lon="9.08465">
        <ele>1866.5368652</ele>
        <time>2010-08-27T11:48:11Z</time>
      </trkpt>
      <trkpt lat="42.1348" lon="9.0846">
        <ele>1867.0175781</ele>
        <time>2010-08-27T11:48:17Z</time>
      </trkpt>
      <trkpt lat="42.13479" lon="9.08463">
        <ele>1867.4980469</ele>
        <time>2010-08-27T11:48:23Z</time>
      </trkpt>
      <trkpt lat="42.13477" lon="9.08462">
        <ele>1865.0949707</ele>
        <time>2010-08-27T11:48:28Z</time>
      </trkpt>
      <trkpt lat="42.13475" lon="9.0846">
        <ele>1861.7304688</ele>
        <time>2010-08-27T11:48:33Z</time>
      </trkpt>
      <trkpt lat="42.13474" lon="9.08461">
        <ele>1858.3657227</ele>
        <time>2010-08-27T11:48:40Z</time>
      </trkpt>
      <trkpt lat="42.13472" lon="9.08462">
        <ele>1856.4431152</ele>
        <time>2010-08-27T11:48:46Z</time>
      </trkpt>
      <trkpt lat="42.13471" lon="9.08459">
        <ele>1855.4819336</ele>
        <time>2010-08-27T11:48:52Z</time>
      </trkpt>
      <trkpt lat="42.13468" lon="9.0846">
        <ele>1855.4819336</ele>
        <time>2010-08-27T11:48:57Z</time>
      </trkpt>
      <trkpt lat="42.13466" lon="9.08459">
        <ele>1856.9238281</ele>
        <time>2010-08-27T11:49:03Z</time>
      </trkpt>
      <trkpt lat="42.13465" lon="9.08458">
        <ele>1855.9624023</ele>
        <time>2010-08-27T11:49:08Z</time>
      </trkpt>
      <trkpt lat="42.13462" lon="9.08457">
        <ele>1855.9624023</ele>
        <time>2010-08-27T11:49:13Z</time>
      </trkpt>
      <trkpt lat="42.13462" lon="9.08454">
        <ele>1855.0012207</ele>
        <time>2010-08-27T11:49:16Z</time>
      </trkpt>
      <trkpt lat="42.13459" lon="9.08447">
        <ele>1851.6364746</ele>
        <time>2010-08-27T11:49:23Z</time>
      </trkpt>
      <trkpt lat="42.13458" lon="9.08441">
        <ele>1850.1945801</ele>
        <time>2010-08-27T11:49:30Z</time>
      </trkpt>
      <trkpt lat="42.13457" lon="9.08439">
        <ele>1847.3105469</ele>
        <time>2010-08-27T11:49:36Z</time>
      </trkpt>
      <trkpt lat="42.13454" lon="9.08436">
        <ele>1846.3493652</ele>
        <time>2010-08-27T11:49:41Z</time>
      </trkpt>
      <trkpt lat="42.13453" lon="9.08436">
        <ele>1846.3493652</ele>
        <time>2010-08-27T11:49:47Z</time>
      </trkpt>
      <trkpt lat="42.13449" lon="9.08437">
        <ele>1845.3879395</ele>
        <time>2010-08-27T11:49:53Z</time>
      </trkpt>
      <trkpt lat="42.13449" lon="9.08438">
        <ele>1847.7912598</ele>
        <time>2010-08-27T11:50:05Z</time>
      </trkpt>
      <trkpt lat="42.1345" lon="9.08439">
        <ele>1848.7524414</ele>
        <time>2010-08-27T11:50:11Z</time>
      </trkpt>
      <trkpt lat="42.13452" lon="9.08438">
        <ele>1848.7524414</ele>
        <time>2010-08-27T11:50:27Z</time>
      </trkpt>
      <trkpt lat="42.1345" lon="9.0844">
        <ele>1850.6750488</ele>
        <time>2010-08-27T11:50:40Z</time>
      </trkpt>
      <trkpt lat="42.13451" lon="9.08439">
        <ele>1847.3105469</ele>
        <time>2010-08-27T11:50:49Z</time>
      </trkpt>
      <trkpt lat="42.13453" lon="9.0844">
        <ele>1842.5041504</ele>
        <time>2010-08-27T11:50:57Z</time>
      </trkpt>
      <trkpt lat="42.13451" lon="9.08444">
        <ele>1841.0620117</ele>
        <time>2010-08-27T11:51:03Z</time>
      </trkpt>
      <trkpt lat="42.13447" lon="9.08446">
        <ele>1842.5041504</ele>
        <time>2010-08-27T11:51:09Z</time>
      </trkpt>
      <trkpt lat="42.13444" lon="9.08449">
        <ele>1841.5427246</ele>
        <time>2010-08-27T11:51:15Z</time>
      </trkpt>
      <trkpt lat="42.13441" lon="9.08454">
        <ele>1841.5427246</ele>
        <time>2010-08-27T11:51:21Z</time>
      </trkpt>
      <trkpt lat="42.13439" lon="9.08457">
        <ele>1841.0620117</ele>
        <time>2010-08-27T11:51:27Z</time>
      </trkpt>
      <trkpt lat="42.13434" lon="9.08459">
        <ele>1841.5427246</ele>
        <time>2010-08-27T11:51:35Z</time>
      </trkpt>
      <trkpt lat="42.13429" lon="9.08459">
        <ele>1840.5812988</ele>
        <time>2010-08-27T11:51:41Z</time>
      </trkpt>
      <trkpt lat="42.13428" lon="9.08461">
        <ele>1839.6201172</ele>
        <time>2010-08-27T11:51:43Z</time>
      </trkpt>
      <trkpt lat="42.13426" lon="9.08466">
        <ele>1839.6201172</ele>
        <time>2010-08-27T11:51:50Z</time>
      </trkpt>
      <trkpt lat="42.13424" lon="9.08467">
        <ele>1835.7746582</ele>
        <time>2010-08-27T11:51:56Z</time>
      </trkpt>
      <trkpt lat="42.13421" lon="9.08471">
        <ele>1834.8134766</ele>
        <time>2010-08-27T11:52:02Z</time>
      </trkpt>
      <trkpt lat="42.1342" lon="9.08474">
        <ele>1833.3713379</ele>
        <time>2010-08-27T11:52:08Z</time>
      </trkpt>
      <trkpt lat="42.1342" lon="9.08477">
        <ele>1834.8134766</ele>
        <time>2010-08-27T11:52:16Z</time>
      </trkpt>
      <trkpt lat="42.13419" lon="9.0848">
        <ele>1832.4101562</ele>
        <time>2010-08-27T11:52:23Z</time>
      </trkpt>
      <trkpt lat="42.13417" lon="9.08484">
        <ele>1831.4487305</ele>
        <time>2010-08-27T11:52:31Z</time>
      </trkpt>
      <trkpt lat="42.13414" lon="9.08488">
        <ele>1830.4875488</ele>
        <time>2010-08-27T11:52:37Z</time>
      </trkpt>
      <trkpt lat="42.13411" lon="9.08489">
        <ele>1830.4875488</ele>
        <time>2010-08-27T11:52:42Z</time>
      </trkpt>
      <trkpt lat="42.13406" lon="9.08489">
        <ele>1829.526123</ele>
        <time>2010-08-27T11:52:49Z</time>
      </trkpt>
      <trkpt lat="42.13404" lon="9.08491">
        <ele>1825.6809082</ele>
        <time>2010-08-27T11:52:54Z</time>
      </trkpt>
      <trkpt lat="42.13404" lon="9.08495">
        <ele>1825.6809082</ele>
        <time>2010-08-27T11:53:00Z</time>
      </trkpt>
      <trkpt lat="42.13403" lon="9.08495">
        <ele>1828.0842285</ele>
        <time>2010-08-27T11:53:07Z</time>
      </trkpt>
      <trkpt lat="42.13402" lon="9.08498">
        <ele>1824.2390137</ele>
        <time>2010-08-27T11:53:14Z</time>
      </trkpt>
      <trkpt lat="42.134" lon="9.08504">
        <ele>1821.3549805</ele>
        <time>2010-08-27T11:53:22Z</time>
      </trkpt>
      <trkpt lat="42.134" lon="9.08512">
        <ele>1816.067627</ele>
        <time>2010-08-27T11:53:31Z</time>
      </trkpt>
      <trkpt lat="42.13401" lon="9.08517">
        <ele>1813.1838379</ele>
        <time>2010-08-27T11:53:38Z</time>
      </trkpt>
      <trkpt lat="42.13401" lon="9.0852">
        <ele>1812.703125</ele>
        <time>2010-08-27T11:53:53Z</time>
      </trkpt>
      <trkpt lat="42.134" lon="9.0852">
        <ele>1814.6257324</ele>
        <time>2010-08-27T11:54:03Z</time>
      </trkpt>
      <trkpt lat="42.13396" lon="9.08521">
        <ele>1816.067627</ele>
        <time>2010-08-27T11:54:12Z</time>
      </trkpt>
      <trkpt lat="42.13393" lon="9.08521">
        <ele>1815.5871582</ele>
        <time>2010-08-27T11:54:21Z</time>
      </trkpt>
      <trkpt lat="42.13394" lon="9.0852">
        <ele>1811.7419434</ele>
        <time>2010-08-27T11:54:37Z</time>
      </trkpt>
      <trkpt lat="42.13393" lon="9.08524">
        <ele>1811.2612305</ele>
        <time>2010-08-27T11:54:43Z</time>
      </trkpt>
      <trkpt lat="42.13393" lon="9.08525">
        <ele>1811.2612305</ele>
        <time>2010-08-27T11:54:44Z</time>
      </trkpt>
      <trkpt lat="42.13395" lon="9.0853">
        <ele>1811.2612305</ele>
        <time>2010-08-27T11:54:50Z</time>
      </trkpt>
      <trkpt lat="42.13397" lon="9.08535">
        <ele>1811.2612305</ele>
        <time>2010-08-27T11:54:56Z</time>
      </trkpt>
      <trkpt lat="42.13396" lon="9.08538">
        <ele>1811.7419434</ele>
        <time>2010-08-27T11:55:01Z</time>
      </trkpt>
      <trkpt lat="42.13395" lon="9.08544">
        <ele>1812.2224121</ele>
        <time>2010-08-27T11:55:07Z</time>
      </trkpt>
      <trkpt lat="42.13393" lon="9.08545">
        <ele>1811.2612305</ele>
        <time>2010-08-27T11:55:12Z</time>
      </trkpt>
      <trkpt lat="42.13392" lon="9.08546">
        <ele>1809.338623</ele>
        <time>2010-08-27T11:55:18Z</time>
      </trkpt>
      <trkpt lat="42.13391" lon="9.0855">
        <ele>1803.5705566</ele>
        <time>2010-08-27T11:55:26Z</time>
      </trkpt>
      <trkpt lat="42.13389" lon="9.08552">
        <ele>1802.6091309</ele>
        <time>2010-08-27T11:55:33Z</time>
      </trkpt>
      <trkpt lat="42.1339" lon="9.08555">
        <ele>1799.2446289</ele>
        <time>2010-08-27T11:55:40Z</time>
      </trkpt>
      <trkpt lat="42.13386" lon="9.08557">
        <ele>1798.763916</ele>
        <time>2010-08-27T11:55:47Z</time>
      </trkpt>
      <trkpt lat="42.13382" lon="9.08557">
        <ele>1797.8027344</ele>
        <time>2010-08-27T11:55:53Z</time>
      </trkpt>
      <trkpt lat="42.1338" lon="9.08557">
        <ele>1796.3608398</ele>
        <time>2010-08-27T11:55:59Z</time>
      </trkpt>
      <trkpt lat="42.13376" lon="9.08553">
        <ele>1794.9187012</ele>
        <time>2010-08-27T11:56:06Z</time>
      </trkpt>
      <trkpt lat="42.13374" lon="9.08553">
        <ele>1796.8413086</ele>
        <time>2010-08-27T11:56:12Z</time>
      </trkpt>
      <trkpt lat="42.13369" lon="9.08551">
        <ele>1798.2832031</ele>
        <time>2010-08-27T11:56:19Z</time>
      </trkpt>
      <trkpt lat="42.13365" lon="9.0855">
        <ele>1798.2832031</ele>
        <time>2010-08-27T11:56:27Z</time>
      </trkpt>
      <trkpt lat="42.13364" lon="9.08552">
        <ele>1796.8413086</ele>
        <time>2010-08-27T11:56:33Z</time>
      </trkpt>
      <trkpt lat="42.13362" lon="9.08552">
        <ele>1794.9187012</ele>
        <time>2010-08-27T11:56:35Z</time>
      </trkpt>
      <trkpt lat="42.1336" lon="9.08547">
        <ele>1792.515625</ele>
        <time>2010-08-27T11:56:40Z</time>
      </trkpt>
      <trkpt lat="42.13358" lon="9.08541">
        <ele>1791.5541992</ele>
        <time>2010-08-27T11:56:47Z</time>
      </trkpt>
      <trkpt lat="42.13356" lon="9.08538">
        <ele>1787.2280273</ele>
        <time>2010-08-27T11:56:54Z</time>
      </trkpt>
      <trkpt lat="42.13356" lon="9.08533">
        <ele>1783.8635254</ele>
        <time>2010-08-27T11:57:00Z</time>
      </trkpt>
      <trkpt lat="42.13353" lon="9.08532">
        <ele>1784.3442383</ele>
        <time>2010-08-27T11:57:07Z</time>
      </trkpt>
      <trkpt lat="42.13349" lon="9.08534">
        <ele>1787.2280273</ele>
        <time>2010-08-27T11:57:15Z</time>
      </trkpt>
      <trkpt lat="42.13347" lon="9.08536">
        <ele>1786.2668457</ele>
        <time>2010-08-27T11:57:22Z</time>
      </trkpt>
      <trkpt lat="42.13345" lon="9.08534">
        <ele>1785.7861328</ele>
        <time>2010-08-27T11:57:26Z</time>
      </trkpt>
      <trkpt lat="42.13344" lon="9.08523">
        <ele>1789.1508789</ele>
        <time>2010-08-27T11:57:33Z</time>
      </trkpt>
      <trkpt lat="42.13343" lon="9.0852">
        <ele>1785.7861328</ele>
        <time>2010-08-27T11:57:38Z</time>
      </trkpt>
      <trkpt lat="42.13344" lon="9.08516">
        <ele>1780.9797363</ele>
        <time>2010-08-27T11:57:43Z</time>
      </trkpt>
      <trkpt lat="42.13341" lon="9.0851">
        <ele>1780.0183105</ele>
        <time>2010-08-27T11:57:50Z</time>
      </trkpt>
      <trkpt lat="42.13341" lon="9.08507">
        <ele>1778.576416</ele>
        <time>2010-08-27T11:57:54Z</time>
      </trkpt>
      <trkpt lat="42.13343" lon="9.08507">
        <ele>1773.2893066</ele>
        <time>2010-08-27T11:58:00Z</time>
      </trkpt>
      <trkpt lat="42.13343" lon="9.08507">
        <ele>1772.8085938</ele>
        <time>2010-08-27T11:58:01Z</time>
      </trkpt>
      <trkpt lat="42.13335" lon="9.08501">
        <ele>1774.2504883</ele>
        <time>2010-08-27T11:58:09Z</time>
      </trkpt>
      <trkpt lat="42.13334" lon="9.08498">
        <ele>1772.3278809</ele>
        <time>2010-08-27T11:58:15Z</time>
      </trkpt>
      <trkpt lat="42.13332" lon="9.08495">
        <ele>1774.7312012</ele>
        <time>2010-08-27T11:58:21Z</time>
      </trkpt>
      <trkpt lat="42.1333" lon="9.08492">
        <ele>1775.2116699</ele>
        <time>2010-08-27T11:58:25Z</time>
      </trkpt>
      <trkpt lat="42.13325" lon="9.0849">
        <ele>1775.6923828</ele>
        <time>2010-08-27T11:58:32Z</time>
      </trkpt>
      <trkpt lat="42.13323" lon="9.08487">
        <ele>1775.2116699</ele>
        <time>2010-08-27T11:58:35Z</time>
      </trkpt>
      <trkpt lat="42.13321" lon="9.08484">
        <ele>1773.7697754</ele>
        <time>2010-08-27T11:58:40Z</time>
      </trkpt>
      <trkpt lat="42.13321" lon="9.08483">
        <ele>1773.7697754</ele>
        <time>2010-08-27T11:58:41Z</time>
      </trkpt>
      <trkpt lat="42.13319" lon="9.08476">
        <ele>1773.7697754</ele>
        <time>2010-08-27T11:58:45Z</time>
      </trkpt>
      <trkpt lat="42.13319" lon="9.08469">
        <ele>1771.8469238</ele>
        <time>2010-08-27T11:58:51Z</time>
      </trkpt>
      <trkpt lat="42.1332" lon="9.08463">
        <ele>1772.3278809</ele>
        <time>2010-08-27T11:58:57Z</time>
      </trkpt>
      <trkpt lat="42.13321" lon="9.0846">
        <ele>1773.2893066</ele>
        <time>2010-08-27T11:59:03Z</time>
      </trkpt>
      <trkpt lat="42.1332" lon="9.08458">
        <ele>1772.3278809</ele>
        <time>2010-08-27T11:59:08Z</time>
      </trkpt>
      <trkpt lat="42.13319" lon="9.08455">
        <ele>1771.8469238</ele>
        <time>2010-08-27T11:59:15Z</time>
      </trkpt>
      <trkpt lat="42.13317" lon="9.08453">
        <ele>1770.4050293</ele>
        <time>2010-08-27T11:59:20Z</time>
      </trkpt>
      <trkpt lat="42.13316" lon="9.08455">
        <ele>1769.4438477</ele>
        <time>2010-08-27T11:59:25Z</time>
      </trkpt>
      <trkpt lat="42.13313" lon="9.08455">
        <ele>1765.1179199</ele>
        <time>2010-08-27T11:59:32Z</time>
      </trkpt>
      <trkpt lat="42.13311" lon="9.08454">
        <ele>1761.753418</ele>
        <time>2010-08-27T11:59:38Z</time>
      </trkpt>
      <trkpt lat="42.13311" lon="9.08457">
        <ele>1758.3886719</ele>
        <time>2010-08-27T11:59:44Z</time>
      </trkpt>
      <trkpt lat="42.13308" lon="9.08458">
        <ele>1756.9467773</ele>
        <time>2010-08-27T11:59:49Z</time>
      </trkpt>
      <trkpt lat="42.13306" lon="9.08459">
        <ele>1757.4274902</ele>
        <time>2010-08-27T11:59:53Z</time>
      </trkpt>
      <trkpt lat="42.13302" lon="9.08464">
        <ele>1757.9082031</ele>
        <time>2010-08-27T12:00:01Z</time>
      </trkpt>
      <trkpt lat="42.13298" lon="9.08468">
        <ele>1756.9467773</ele>
        <time>2010-08-27T12:00:08Z</time>
      </trkpt>
      <trkpt lat="42.13296" lon="9.08471">
        <ele>1756.9467773</ele>
        <time>2010-08-27T12:00:15Z</time>
      </trkpt>
      <trkpt lat="42.13294" lon="9.08475">
        <ele>1755.0239258</ele>
        <time>2010-08-27T12:00:20Z</time>
      </trkpt>
      <trkpt lat="42.1329" lon="9.08479">
        <ele>1749.7368164</ele>
        <time>2010-08-27T12:00:27Z</time>
      </trkpt>
      <trkpt lat="42.13289" lon="9.08481">
        <ele>1745.8916016</ele>
        <time>2010-08-27T12:00:34Z</time>
      </trkpt>
      <trkpt lat="42.13284" lon="9.08484">
        <ele>1745.4108887</ele>
        <time>2010-08-27T12:00:43Z</time>
      </trkpt>
      <trkpt lat="42.13283" lon="9.08487">
        <ele>1745.4108887</ele>
        <time>2010-08-27T12:00:47Z</time>
      </trkpt>
      <trkpt lat="42.1328" lon="9.08489">
        <ele>1743.9689941</ele>
        <time>2010-08-27T12:00:52Z</time>
      </trkpt>
      <trkpt lat="42.13276" lon="9.08493">
        <ele>1743.0075684</ele>
        <time>2010-08-27T12:00:59Z</time>
      </trkpt>
      <trkpt lat="42.13272" lon="9.08495">
        <ele>1743.4882812</ele>
        <time>2010-08-27T12:01:05Z</time>
      </trkpt>
      <trkpt lat="42.13269" lon="9.08498">
        <ele>1744.4494629</ele>
        <time>2010-08-27T12:01:11Z</time>
      </trkpt>
      <trkpt lat="42.13269" lon="9.08501">
        <ele>1745.8916016</ele>
        <time>2010-08-27T12:01:17Z</time>
      </trkpt>
      <trkpt lat="42.13266" lon="9.08504">
        <ele>1743.4882812</ele>
        <time>2010-08-27T12:01:25Z</time>
      </trkpt>
      <trkpt lat="42.13263" lon="9.08509">
        <ele>1742.0463867</ele>
        <time>2010-08-27T12:01:33Z</time>
      </trkpt>
      <trkpt lat="42.13261" lon="9.08513">
        <ele>1743.4882812</ele>
        <time>2010-08-27T12:01:39Z</time>
      </trkpt>
      <trkpt lat="42.13257" lon="9.08514">
        <ele>1743.4882812</ele>
        <time>2010-08-27T12:01:45Z</time>
      </trkpt>
      <trkpt lat="42.13252" lon="9.08513">
        <ele>1742.5270996</ele>
        <time>2010-08-27T12:01:53Z</time>
      </trkpt>
      <trkpt lat="42.13249" lon="9.08514">
        <ele>1743.0075684</ele>
        <time>2010-08-27T12:02:02Z</time>
      </trkpt>
      <trkpt lat="42.13246" lon="9.08515">
        <ele>1741.5656738</ele>
        <time>2010-08-27T12:02:06Z</time>
      </trkpt>
      <trkpt lat="42.13241" lon="9.08513">
        <ele>1739.1621094</ele>
        <time>2010-08-27T12:02:12Z</time>
      </trkpt>
      <trkpt lat="42.13238" lon="9.08511">
        <ele>1736.2783203</ele>
        <time>2010-08-27T12:02:19Z</time>
      </trkpt>
      <trkpt lat="42.13234" lon="9.08509">
        <ele>1733.3942871</ele>
        <time>2010-08-27T12:02:25Z</time>
      </trkpt>
      <trkpt lat="42.13229" lon="9.08507">
        <ele>1731.4716797</ele>
        <time>2010-08-27T12:02:30Z</time>
      </trkpt>
      <trkpt lat="42.13228" lon="9.08506">
        <ele>1730.510498</ele>
        <time>2010-08-27T12:02:33Z</time>
      </trkpt>
      <trkpt lat="42.13222" lon="9.08499">
        <ele>1726.1845703</ele>
        <time>2010-08-27T12:02:41Z</time>
      </trkpt>
      <trkpt lat="42.13215" lon="9.08492">
        <ele>1727.6264648</ele>
        <time>2010-08-27T12:02:48Z</time>
      </trkpt>
      <trkpt lat="42.13212" lon="9.0849">
        <ele>1724.7426758</ele>
        <time>2010-08-27T12:02:56Z</time>
      </trkpt>
      <trkpt lat="42.13209" lon="9.08488">
        <ele>1726.6652832</ele>
        <time>2010-08-27T12:03:05Z</time>
      </trkpt>
      <trkpt lat="42.13207" lon="9.08487">
        <ele>1728.1071777</ele>
        <time>2010-08-27T12:03:20Z</time>
      </trkpt>
      <trkpt lat="42.13207" lon="9.08482">
        <ele>1723.7810059</ele>
        <time>2010-08-27T12:03:33Z</time>
      </trkpt>
      <trkpt lat="42.13205" lon="9.08481">
        <ele>1721.8583984</ele>
        <time>2010-08-27T12:03:39Z</time>
      </trkpt>
      <trkpt lat="42.13204" lon="9.08484">
        <ele>1720.4165039</ele>
        <time>2010-08-27T12:03:46Z</time>
      </trkpt>
      <trkpt lat="42.13203" lon="9.08485">
        <ele>1720.8972168</ele>
        <time>2010-08-27T12:03:51Z</time>
      </trkpt>
      <trkpt lat="42.132" lon="9.08486">
        <ele>1719.935791</ele>
        <time>2010-08-27T12:03:56Z</time>
      </trkpt>
      <trkpt lat="42.13198" lon="9.08485">
        <ele>1718.0131836</ele>
        <time>2010-08-27T12:04:01Z</time>
      </trkpt>
      <trkpt lat="42.13197" lon="9.08486">
        <ele>1717.5324707</ele>
        <time>2010-08-27T12:04:02Z</time>
      </trkpt>
      <trkpt lat="42.13192" lon="9.08485">
        <ele>1716.0905762</ele>
        <time>2010-08-27T12:04:08Z</time>
      </trkpt>
      <trkpt lat="42.1319" lon="9.08481">
        <ele>1715.1293945</ele>
        <time>2010-08-27T12:04:15Z</time>
      </trkpt>
      <trkpt lat="42.13186" lon="9.08476">
        <ele>1715.1293945</ele>
        <time>2010-08-27T12:04:22Z</time>
      </trkpt>
      <trkpt lat="42.13183" lon="9.08474">
        <ele>1717.052002</ele>
        <time>2010-08-27T12:04:28Z</time>
      </trkpt>
      <trkpt lat="42.13184" lon="9.08475">
        <ele>1718.4938965</ele>
        <time>2010-08-27T12:04:36Z</time>
      </trkpt>
      <trkpt lat="42.13185" lon="9.08471">
        <ele>1715.1293945</ele>
        <time>2010-08-27T12:04:45Z</time>
      </trkpt>
      <trkpt lat="42.13185" lon="9.08471">
        <ele>1714.1679688</ele>
        <time>2010-08-27T12:04:51Z</time>
      </trkpt>
      <trkpt lat="42.13185" lon="9.08471">
        <ele>1712.7260742</ele>
        <time>2010-08-27T12:04:56Z</time>
      </trkpt>
      <trkpt lat="42.13185" lon="9.08468">
        <ele>1712.2453613</ele>
        <time>2010-08-27T12:05:03Z</time>
      </trkpt>
      <trkpt lat="42.13184" lon="9.08468">
        <ele>1713.6872559</ele>
        <time>2010-08-27T12:05:12Z</time>
      </trkpt>
      <trkpt lat="42.13184" lon="9.08465">
        <ele>1714.1679688</ele>
        <time>2010-08-27T12:05:19Z</time>
      </trkpt>
      <trkpt lat="42.13182" lon="9.08466">
        <ele>1715.1293945</ele>
        <time>2010-08-27T12:05:25Z</time>
      </trkpt>
      <trkpt lat="42.1318" lon="9.08466">
        <ele>1716.0905762</ele>
        <time>2010-08-27T12:05:32Z</time>
      </trkpt>
      <trkpt lat="42.13178" lon="9.08467">
        <ele>1714.6486816</ele>
        <time>2010-08-27T12:05:38Z</time>
      </trkpt>
      <trkpt lat="42.13176" lon="9.08467">
        <ele>1712.7260742</ele>
        <time>2010-08-27T12:05:43Z</time>
      </trkpt>
      <trkpt lat="42.13174" lon="9.08467">
        <ele>1711.2841797</ele>
        <time>2010-08-27T12:05:48Z</time>
      </trkpt>
      <trkpt lat="42.13171" lon="9.08466">
        <ele>1710.8034668</ele>
        <time>2010-08-27T12:05:54Z</time>
      </trkpt>
      <trkpt lat="42.13166" lon="9.08465">
        <ele>1709.842041</ele>
        <time>2010-08-27T12:06:01Z</time>
      </trkpt>
      <trkpt lat="42.13164" lon="9.08468">
        <ele>1710.8034668</ele>
        <time>2010-08-27T12:06:07Z</time>
      </trkpt>
      <trkpt lat="42.1316" lon="9.0847">
        <ele>1708.4001465</ele>
        <time>2010-08-27T12:06:14Z</time>
      </trkpt>
      <trkpt lat="42.13159" lon="9.08468">
        <ele>1704.5546875</ele>
        <time>2010-08-27T12:06:20Z</time>
      </trkpt>
      <trkpt lat="42.13157" lon="9.08467">
        <ele>1703.5935059</ele>
        <time>2010-08-27T12:06:25Z</time>
      </trkpt>
      <trkpt lat="42.13154" lon="9.08469">
        <ele>1705.996582</ele>
        <time>2010-08-27T12:06:33Z</time>
      </trkpt>
      <trkpt lat="42.13155" lon="9.08469">
        <ele>1706.4772949</ele>
        <time>2010-08-27T12:06:46Z</time>
      </trkpt>
      <trkpt lat="42.13152" lon="9.0847">
        <ele>1706.9580078</ele>
        <time>2010-08-27T12:06:53Z</time>
      </trkpt>
      <trkpt lat="42.13149" lon="9.08471">
        <ele>1704.0742188</ele>
        <time>2010-08-27T12:06:59Z</time>
      </trkpt>
      <trkpt lat="42.13146" lon="9.08476">
        <ele>1703.5935059</ele>
        <time>2010-08-27T12:07:06Z</time>
      </trkpt>
      <trkpt lat="42.13142" lon="9.08479">
        <ele>1698.7868652</ele>
        <time>2010-08-27T12:07:13Z</time>
      </trkpt>
      <trkpt lat="42.13142" lon="9.08482">
        <ele>1698.7868652</ele>
        <time>2010-08-27T12:07:17Z</time>
      </trkpt>
      <trkpt lat="42.13139" lon="9.08486">
        <ele>1700.7094727</ele>
        <time>2010-08-27T12:07:23Z</time>
      </trkpt>
      <trkpt lat="42.1314" lon="9.08488">
        <ele>1699.748291</ele>
        <time>2010-08-27T12:07:29Z</time>
      </trkpt>
      <trkpt lat="42.13142" lon="9.0849">
        <ele>1698.7868652</ele>
        <time>2010-08-27T12:07:35Z</time>
      </trkpt>
      <trkpt lat="42.13142" lon="9.08491">
        <ele>1698.3061523</ele>
        <time>2010-08-27T12:07:40Z</time>
      </trkpt>
      <trkpt lat="42.13141" lon="9.08494">
        <ele>1701.6708984</ele>
        <time>2010-08-27T12:07:46Z</time>
      </trkpt>
      <trkpt lat="42.13138" lon="9.08496">
        <ele>1706.4772949</ele>
        <time>2010-08-27T12:07:52Z</time>
      </trkpt>
      <trkpt lat="42.1314" lon="9.08497">
        <ele>1705.5161133</ele>
        <time>2010-08-27T12:07:58Z</time>
      </trkpt>
      <trkpt lat="42.1314" lon="9.08501">
        <ele>1701.6708984</ele>
        <time>2010-08-27T12:08:03Z</time>
      </trkpt>
      <trkpt lat="42.13142" lon="9.08504">
        <ele>1696.8642578</ele>
        <time>2010-08-27T12:08:10Z</time>
      </trkpt>
      <trkpt lat="42.13143" lon="9.08508">
        <ele>1694.4609375</ele>
        <time>2010-08-27T12:08:15Z</time>
      </trkpt>
      <trkpt lat="42.13145" lon="9.08514">
        <ele>1693.9804688</ele>
        <time>2010-08-27T12:08:20Z</time>
      </trkpt>
      <trkpt lat="42.13145" lon="9.0852">
        <ele>1688.2124023</ele>
        <time>2010-08-27T12:08:27Z</time>
      </trkpt>
      <trkpt lat="42.13144" lon="9.08525">
        <ele>1691.0961914</ele>
        <time>2010-08-27T12:08:32Z</time>
      </trkpt>
      <trkpt lat="42.1314" lon="9.08527">
        <ele>1692.0578613</ele>
        <time>2010-08-27T12:08:39Z</time>
      </trkpt>
      <trkpt lat="42.13137" lon="9.08533">
        <ele>1691.5769043</ele>
        <time>2010-08-27T12:08:46Z</time>
      </trkpt>
      <trkpt lat="42.13137" lon="9.08535">
        <ele>1689.6542969</ele>
        <time>2010-08-27T12:08:52Z</time>
      </trkpt>
      <trkpt lat="42.13139" lon="9.08536">
        <ele>1688.2124023</ele>
        <time>2010-08-27T12:08:58Z</time>
      </trkpt>
      <trkpt lat="42.13137" lon="9.08541">
        <ele>1691.0961914</ele>
        <time>2010-08-27T12:09:05Z</time>
      </trkpt>
      <trkpt lat="42.13135" lon="9.08543">
        <ele>1691.0961914</ele>
        <time>2010-08-27T12:09:12Z</time>
      </trkpt>
      <trkpt lat="42.13135" lon="9.08542">
        <ele>1685.3283691</ele>
        <time>2010-08-27T12:09:25Z</time>
      </trkpt>
      <trkpt lat="42.13136" lon="9.08542">
        <ele>1683.4057617</ele>
        <time>2010-08-27T12:09:34Z</time>
      </trkpt>
      <trkpt lat="42.13138" lon="9.08539">
        <ele>1671.3891602</ele>
        <time>2010-08-27T12:09:51Z</time>
      </trkpt>
      <trkpt lat="42.13138" lon="9.08538">
        <ele>1670.9086914</ele>
        <time>2010-08-27T12:10:00Z</time>
      </trkpt>
      <trkpt lat="42.13142" lon="9.08541">
        <ele>1666.5827637</ele>
        <time>2010-08-27T12:10:14Z</time>
      </trkpt>
      <trkpt lat="42.13139" lon="9.08543">
        <ele>1679.079834</ele>
        <time>2010-08-27T12:10:25Z</time>
      </trkpt>
      <trkpt lat="42.13141" lon="9.08548">
        <ele>1677.6379395</ele>
        <time>2010-08-27T12:10:32Z</time>
      </trkpt>
      <trkpt lat="42.13144" lon="9.0855">
        <ele>1675.7150879</ele>
        <time>2010-08-27T12:10:38Z</time>
      </trkpt>
      <trkpt lat="42.13145" lon="9.08551">
        <ele>1679.5605469</ele>
        <time>2010-08-27T12:10:45Z</time>
      </trkpt>
      <trkpt lat="42.13139" lon="9.08554">
        <ele>1691.0961914</ele>
        <time>2010-08-27T12:10:58Z</time>
      </trkpt>
      <trkpt lat="42.13143" lon="9.08553">
        <ele>1682.4445801</ele>
        <time>2010-08-27T12:11:12Z</time>
      </trkpt>
      <trkpt lat="42.13144" lon="9.08553">
        <ele>1680.0412598</ele>
        <time>2010-08-27T12:11:18Z</time>
      </trkpt>
      <trkpt lat="42.13146" lon="9.08551">
        <ele>1677.6379395</ele>
        <time>2010-08-27T12:11:27Z</time>
      </trkpt>
      <trkpt lat="42.1315" lon="9.08552">
        <ele>1674.2731934</ele>
        <time>2010-08-27T12:11:47Z</time>
      </trkpt>
      <trkpt lat="42.13152" lon="9.08556">
        <ele>1674.7539062</ele>
        <time>2010-08-27T12:11:54Z</time>
      </trkpt>
      <trkpt lat="42.13152" lon="9.0856">
        <ele>1673.7924805</ele>
        <time>2010-08-27T12:12:00Z</time>
      </trkpt>
      <trkpt lat="42.13154" lon="9.08564">
        <ele>1672.8312988</ele>
        <time>2010-08-27T12:12:06Z</time>
      </trkpt>
      <trkpt lat="42.13155" lon="9.08569">
        <ele>1674.2731934</ele>
        <time>2010-08-27T12:12:13Z</time>
      </trkpt>
      <trkpt lat="42.13155" lon="9.08574">
        <ele>1675.7150879</ele>
        <time>2010-08-27T12:12:19Z</time>
      </trkpt>
      <trkpt lat="42.13153" lon="9.08581">
        <ele>1682.9250488</ele>
        <time>2010-08-27T12:12:27Z</time>
      </trkpt>
      <trkpt lat="42.13153" lon="9.08585">
        <ele>1682.4445801</ele>
        <time>2010-08-27T12:12:32Z</time>
      </trkpt>
      <trkpt lat="42.13153" lon="9.08591">
        <ele>1682.4445801</ele>
        <time>2010-08-27T12:12:38Z</time>
      </trkpt>
      <trkpt lat="42.13153" lon="9.08593">
        <ele>1679.079834</ele>
        <time>2010-08-27T12:12:42Z</time>
      </trkpt>
      <trkpt lat="42.13154" lon="9.08596">
        <ele>1676.1960449</ele>
        <time>2010-08-27T12:12:48Z</time>
      </trkpt>
      <trkpt lat="42.13154" lon="9.08599">
        <ele>1672.8312988</ele>
        <time>2010-08-27T12:12:52Z</time>
      </trkpt>
      <trkpt lat="42.13154" lon="9.08602">
        <ele>1673.3120117</ele>
        <time>2010-08-27T12:12:57Z</time>
      </trkpt>
      <trkpt lat="42.13152" lon="9.08604">
        <ele>1671.3891602</ele>
        <time>2010-08-27T12:13:02Z</time>
      </trkpt>
      <trkpt lat="42.13152" lon="9.08608">
        <ele>1669.9472656</ele>
        <time>2010-08-27T12:13:07Z</time>
      </trkpt>
      <trkpt lat="42.1315" lon="9.08609">
        <ele>1666.1020508</ele>
        <time>2010-08-27T12:13:14Z</time>
      </trkpt>
      <trkpt lat="42.13147" lon="9.08608">
        <ele>1661.7763672</ele>
        <time>2010-08-27T12:13:19Z</time>
      </trkpt>
      <trkpt lat="42.13144" lon="9.08607">
        <ele>1653.6049805</ele>
        <time>2010-08-27T12:13:26Z</time>
      </trkpt>
      <trkpt lat="42.13139" lon="9.08608">
        <ele>1651.682373</ele>
        <time>2010-08-27T12:13:32Z</time>
      </trkpt>
      <trkpt lat="42.13137" lon="9.08608">
        <ele>1647.8371582</ele>
        <time>2010-08-27T12:13:37Z</time>
      </trkpt>
      <trkpt lat="42.13133" lon="9.08608">
        <ele>1647.3564453</ele>
        <time>2010-08-27T12:13:44Z</time>
      </trkpt>
      <trkpt lat="42.13127" lon="9.08608">
        <ele>1647.8371582</ele>
        <time>2010-08-27T12:13:51Z</time>
      </trkpt>
      <trkpt lat="42.13123" lon="9.08607">
        <ele>1646.3952637</ele>
        <time>2010-08-27T12:13:56Z</time>
      </trkpt>
      <trkpt lat="42.13121" lon="9.08608">
        <ele>1644.953125</ele>
        <time>2010-08-27T12:14:01Z</time>
      </trkpt>
      <trkpt lat="42.13114" lon="9.08607">
        <ele>1643.9916992</ele>
        <time>2010-08-27T12:14:08Z</time>
      </trkpt>
      <trkpt lat="42.13108" lon="9.08606">
        <ele>1645.4338379</ele>
        <time>2010-08-27T12:14:14Z</time>
      </trkpt>
      <trkpt lat="42.13103" lon="9.08607">
        <ele>1645.4338379</ele>
        <time>2010-08-27T12:14:21Z</time>
      </trkpt>
      <trkpt lat="42.13098" lon="9.08602">
        <ele>1643.9916992</ele>
        <time>2010-08-27T12:14:28Z</time>
      </trkpt>
      <trkpt lat="42.13096" lon="9.08594">
        <ele>1645.9145508</ele>
        <time>2010-08-27T12:14:34Z</time>
      </trkpt>
      <trkpt lat="42.1309" lon="9.08589">
        <ele>1649.7597656</ele>
        <time>2010-08-27T12:14:43Z</time>
      </trkpt>
      <trkpt lat="42.13088" lon="9.08586">
        <ele>1650.7209473</ele>
        <time>2010-08-27T12:14:48Z</time>
      </trkpt>
      <trkpt lat="42.13085" lon="9.08584">
        <ele>1649.2790527</ele>
        <time>2010-08-27T12:14:53Z</time>
      </trkpt>
      <trkpt lat="42.13083" lon="9.08582">
        <ele>1647.3564453</ele>
        <time>2010-08-27T12:14:58Z</time>
      </trkpt>
      <trkpt lat="42.13079" lon="9.08582">
        <ele>1644.953125</ele>
        <time>2010-08-27T12:15:04Z</time>
      </trkpt>
      <trkpt lat="42.13076" lon="9.0858">
        <ele>1645.4338379</ele>
        <time>2010-08-27T12:15:09Z</time>
      </trkpt>
      <trkpt lat="42.1307" lon="9.08582">
        <ele>1645.9145508</ele>
        <time>2010-08-27T12:15:16Z</time>
      </trkpt>
      <trkpt lat="42.13064" lon="9.0858">
        <ele>1642.0690918</ele>
        <time>2010-08-27T12:15:23Z</time>
      </trkpt>
      <trkpt lat="42.13061" lon="9.08579">
        <ele>1636.3012695</ele>
        <time>2010-08-27T12:15:30Z</time>
      </trkpt>
      <trkpt lat="42.13056" lon="9.08579">
        <ele>1635.3398438</ele>
        <time>2010-08-27T12:15:36Z</time>
      </trkpt>
      <trkpt lat="42.13053" lon="9.08581">
        <ele>1636.7817383</ele>
        <time>2010-08-27T12:15:41Z</time>
      </trkpt>
      <trkpt lat="42.13051" lon="9.08583">
        <ele>1635.8205566</ele>
        <time>2010-08-27T12:15:45Z</time>
      </trkpt>
      <trkpt lat="42.13046" lon="9.08585">
        <ele>1632.4560547</ele>
        <time>2010-08-27T12:15:53Z</time>
      </trkpt>
      <trkpt lat="42.13041" lon="9.08585">
        <ele>1631.0141602</ele>
        <time>2010-08-27T12:16:00Z</time>
      </trkpt>
      <trkpt lat="42.13035" lon="9.08586">
        <ele>1629.0913086</ele>
        <time>2010-08-27T12:16:07Z</time>
      </trkpt>
      <trkpt lat="42.1303" lon="9.08586">
        <ele>1629.5720215</ele>
        <time>2010-08-27T12:16:11Z</time>
      </trkpt>
      <trkpt lat="42.13022" lon="9.08588">
        <ele>1630.5334473</ele>
        <time>2010-08-27T12:16:19Z</time>
      </trkpt>
      <trkpt lat="42.13018" lon="9.08588">
        <ele>1631.0141602</ele>
        <time>2010-08-27T12:16:23Z</time>
      </trkpt>
      <trkpt lat="42.13016" lon="9.08589">
        <ele>1628.6108398</ele>
        <time>2010-08-27T12:16:28Z</time>
      </trkpt>
      <trkpt lat="42.1301" lon="9.08593">
        <ele>1632.9365234</ele>
        <time>2010-08-27T12:16:34Z</time>
      </trkpt>
      <trkpt lat="42.13006" lon="9.08599">
        <ele>1629.5720215</ele>
        <time>2010-08-27T12:16:40Z</time>
      </trkpt>
      <trkpt lat="42.13002" lon="9.086">
        <ele>1624.7653809</ele>
        <time>2010-08-27T12:16:46Z</time>
      </trkpt>
      <trkpt lat="42.12998" lon="9.086">
        <ele>1626.6879883</ele>
        <time>2010-08-27T12:16:53Z</time>
      </trkpt>
      <trkpt lat="42.12994" lon="9.08603">
        <ele>1625.2458496</ele>
        <time>2010-08-27T12:17:00Z</time>
      </trkpt>
      <trkpt lat="42.12989" lon="9.08606">
        <ele>1622.8427734</ele>
        <time>2010-08-27T12:17:07Z</time>
      </trkpt>
      <trkpt lat="42.12981" lon="9.0861">
        <ele>1621.4006348</ele>
        <time>2010-08-27T12:17:15Z</time>
      </trkpt>
      <trkpt lat="42.12977" lon="9.08611">
        <ele>1623.3234863</ele>
        <time>2010-08-27T12:17:20Z</time>
      </trkpt>
      <trkpt lat="42.12974" lon="9.08611">
        <ele>1622.8427734</ele>
        <time>2010-08-27T12:17:25Z</time>
      </trkpt>
      <trkpt lat="42.1297" lon="9.08616">
        <ele>1625.2458496</ele>
        <time>2010-08-27T12:17:31Z</time>
      </trkpt>
      <trkpt lat="42.12967" lon="9.08618">
        <ele>1624.7653809</ele>
        <time>2010-08-27T12:17:40Z</time>
      </trkpt>
      <trkpt lat="42.12961" lon="9.08618">
        <ele>1618.0361328</ele>
        <time>2010-08-27T12:18:28Z</time>
      </trkpt>
      <trkpt lat="42.12963" lon="9.08622">
        <ele>1625.7265625</ele>
        <time>2010-08-27T12:18:51Z</time>
      </trkpt>
      <trkpt lat="42.1296" lon="9.0862">
        <ele>1617.5554199</ele>
        <time>2010-08-27T12:20:43Z</time>
      </trkpt>
      <trkpt lat="42.12956" lon="9.08626">
        <ele>1635.8205566</ele>
        <time>2010-08-27T12:22:18Z</time>
      </trkpt>
      <trkpt lat="42.1296" lon="9.08618">
        <ele>1623.3234863</ele>
        <time>2010-08-27T12:23:51Z</time>
      </trkpt>
      <trkpt lat="42.12958" lon="9.08619">
        <ele>1621.8813477</ele>
        <time>2010-08-27T12:23:55Z</time>
      </trkpt>
      <trkpt lat="42.12953" lon="9.08617">
        <ele>1618.5168457</ele>
        <time>2010-08-27T12:24:02Z</time>
      </trkpt>
      <trkpt lat="42.12947" lon="9.08617">
        <ele>1617.5554199</ele>
        <time>2010-08-27T12:24:08Z</time>
      </trkpt>
      <trkpt lat="42.12944" lon="9.08621">
        <ele>1617.0749512</ele>
        <time>2010-08-27T12:24:14Z</time>
      </trkpt>
      <trkpt lat="42.12943" lon="9.08622">
        <ele>1617.0749512</ele>
        <time>2010-08-27T12:24:15Z</time>
      </trkpt>
      <trkpt lat="42.12941" lon="9.08626">
        <ele>1621.4006348</ele>
        <time>2010-08-27T12:24:18Z</time>
      </trkpt>
      <trkpt lat="42.12938" lon="9.08631">
        <ele>1623.3234863</ele>
        <time>2010-08-27T12:24:23Z</time>
      </trkpt>
      <trkpt lat="42.12936" lon="9.08638">
        <ele>1622.8427734</ele>
        <time>2010-08-27T12:24:30Z</time>
      </trkpt>
      <trkpt lat="42.12935" lon="9.08643">
        <ele>1621.4006348</ele>
        <time>2010-08-27T12:24:36Z</time>
      </trkpt>
      <trkpt lat="42.12934" lon="9.08648">
        <ele>1621.4006348</ele>
        <time>2010-08-27T12:24:43Z</time>
      </trkpt>
      <trkpt lat="42.12932" lon="9.08654">
        <ele>1620.920166</ele>
        <time>2010-08-27T12:24:48Z</time>
      </trkpt>
      <trkpt lat="42.12932" lon="9.08657">
        <ele>1622.3620605</ele>
        <time>2010-08-27T12:24:51Z</time>
      </trkpt>
      <trkpt lat="42.12933" lon="9.08665">
        <ele>1618.9975586</ele>
        <time>2010-08-27T12:24:58Z</time>
      </trkpt>
      <trkpt lat="42.12933" lon="9.08675">
        <ele>1617.5554199</ele>
        <time>2010-08-27T12:25:06Z</time>
      </trkpt>
      <trkpt lat="42.12933" lon="9.08676">
        <ele>1613.2297363</ele>
        <time>2010-08-27T12:25:11Z</time>
      </trkpt>
      <trkpt lat="42.12934" lon="9.08674">
        <ele>1606.0195312</ele>
        <time>2010-08-27T12:25:22Z</time>
      </trkpt>
      <trkpt lat="42.12934" lon="9.08679">
        <ele>1605.0583496</ele>
        <time>2010-08-27T12:25:28Z</time>
      </trkpt>
      <trkpt lat="42.12933" lon="9.08685">
        <ele>1609.3842773</ele>
        <time>2010-08-27T12:25:36Z</time>
      </trkpt>
      <trkpt lat="42.12932" lon="9.08691">
        <ele>1611.7875977</ele>
        <time>2010-08-27T12:25:42Z</time>
      </trkpt>
      <trkpt lat="42.12934" lon="9.08699">
        <ele>1611.7875977</ele>
        <time>2010-08-27T12:25:51Z</time>
      </trkpt>
      <trkpt lat="42.12933" lon="9.08701">
        <ele>1609.3842773</ele>
        <time>2010-08-27T12:25:56Z</time>
      </trkpt>
      <trkpt lat="42.12935" lon="9.08705">
        <ele>1606.980957</ele>
        <time>2010-08-27T12:26:01Z</time>
      </trkpt>
      <trkpt lat="42.12934" lon="9.08706">
        <ele>1605.5390625</ele>
        <time>2010-08-27T12:26:05Z</time>
      </trkpt>
      <trkpt lat="42.12931" lon="9.08705">
        <ele>1602.1743164</ele>
        <time>2010-08-27T12:26:11Z</time>
      </trkpt>
      <trkpt lat="42.12929" lon="9.08706">
        <ele>1599.7712402</ele>
        <time>2010-08-27T12:26:17Z</time>
      </trkpt>
      <trkpt lat="42.1293" lon="9.08709">
        <ele>1595.9257812</ele>
        <time>2010-08-27T12:26:25Z</time>
      </trkpt>
      <trkpt lat="42.12925" lon="9.08711">
        <ele>1593.041748</ele>
        <time>2010-08-27T12:26:40Z</time>
      </trkpt>
      <trkpt lat="42.12923" lon="9.08712">
        <ele>1593.5224609</ele>
        <time>2010-08-27T12:26:45Z</time>
      </trkpt>
      <trkpt lat="42.12922" lon="9.08715">
        <ele>1593.5224609</ele>
        <time>2010-08-27T12:26:51Z</time>
      </trkpt>
      <trkpt lat="42.1292" lon="9.08719">
        <ele>1595.4450684</ele>
        <time>2010-08-27T12:26:56Z</time>
      </trkpt>
      <trkpt lat="42.12917" lon="9.08717">
        <ele>1595.4450684</ele>
        <time>2010-08-27T12:27:00Z</time>
      </trkpt>
      <trkpt lat="42.12914" lon="9.08718">
        <ele>1595.4450684</ele>
        <time>2010-08-27T12:27:06Z</time>
      </trkpt>
      <trkpt lat="42.12914" lon="9.08722">
        <ele>1595.9257812</ele>
        <time>2010-08-27T12:27:11Z</time>
      </trkpt>
      <trkpt lat="42.12912" lon="9.08721">
        <ele>1594.0031738</ele>
        <time>2010-08-27T12:27:19Z</time>
      </trkpt>
      <trkpt lat="42.1291" lon="9.08723">
        <ele>1594.4836426</ele>
        <time>2010-08-27T12:27:23Z</time>
      </trkpt>
      <trkpt lat="42.12911" lon="9.08725">
        <ele>1592.5612793</ele>
        <time>2010-08-27T12:27:28Z</time>
      </trkpt>
      <trkpt lat="42.12911" lon="9.08724">
        <ele>1592.0805664</ele>
        <time>2010-08-27T12:27:34Z</time>
      </trkpt>
      <trkpt lat="42.12912" lon="9.08727">
        <ele>1588.2353516</ele>
        <time>2010-08-27T12:27:54Z</time>
      </trkpt>
      <trkpt lat="42.12909" lon="9.08735">
        <ele>1584.8708496</ele>
        <time>2010-08-27T12:28:08Z</time>
      </trkpt>
      <trkpt lat="42.12907" lon="9.08739">
        <ele>1591.1191406</ele>
        <time>2010-08-27T12:28:20Z</time>
      </trkpt>
      <trkpt lat="42.12903" lon="9.08739">
        <ele>1594.0031738</ele>
        <time>2010-08-27T12:28:26Z</time>
      </trkpt>
      <trkpt lat="42.12899" lon="9.0874">
        <ele>1594.4836426</ele>
        <time>2010-08-27T12:28:32Z</time>
      </trkpt>
      <trkpt lat="42.12896" lon="9.08744">
        <ele>1593.5224609</ele>
        <time>2010-08-27T12:28:38Z</time>
      </trkpt>
      <trkpt lat="42.12893" lon="9.0875">
        <ele>1590.6384277</ele>
        <time>2010-08-27T12:28:44Z</time>
      </trkpt>
      <trkpt lat="42.1289" lon="9.08752">
        <ele>1587.7546387</ele>
        <time>2010-08-27T12:28:48Z</time>
      </trkpt>
      <trkpt lat="42.12887" lon="9.08752">
        <ele>1586.3127441</ele>
        <time>2010-08-27T12:28:52Z</time>
      </trkpt>
      <trkpt lat="42.12885" lon="9.08754">
        <ele>1583.9094238</ele>
        <time>2010-08-27T12:28:57Z</time>
      </trkpt>
      <trkpt lat="42.1288" lon="9.08757">
        <ele>1584.8708496</ele>
        <time>2010-08-27T12:29:03Z</time>
      </trkpt>
      <trkpt lat="42.12866" lon="9.08759">
        <ele>1589.6772461</ele>
        <time>2010-08-27T12:29:22Z</time>
      </trkpt>
      <trkpt lat="42.12862" lon="9.0876">
        <ele>1590.6384277</ele>
        <time>2010-08-27T12:29:27Z</time>
      </trkpt>
      <trkpt lat="42.12859" lon="9.08764">
        <ele>1589.1965332</ele>
        <time>2010-08-27T12:29:32Z</time>
      </trkpt>
      <trkpt lat="42.12856" lon="9.08766">
        <ele>1586.7932129</ele>
        <time>2010-08-27T12:29:36Z</time>
      </trkpt>
      <trkpt lat="42.12851" lon="9.08767">
        <ele>1585.8320312</ele>
        <time>2010-08-27T12:29:42Z</time>
      </trkpt>
      <trkpt lat="42.12847" lon="9.08772">
        <ele>1584.3901367</ele>
        <time>2010-08-27T12:29:47Z</time>
      </trkpt>
      <trkpt lat="42.12844" lon="9.08776">
        <ele>1581.9868164</ele>
        <time>2010-08-27T12:29:52Z</time>
      </trkpt>
      <trkpt lat="42.12838" lon="9.0878">
        <ele>1575.7380371</ele>
        <time>2010-08-27T12:30:00Z</time>
      </trkpt>
      <trkpt lat="42.12834" lon="9.0878">
        <ele>1575.2573242</ele>
        <time>2010-08-27T12:30:07Z</time>
      </trkpt>
      <trkpt lat="42.12831" lon="9.08781">
        <ele>1574.2961426</ele>
        <time>2010-08-27T12:30:13Z</time>
      </trkpt>
      <trkpt lat="42.12829" lon="9.08778">
        <ele>1571.8928223</ele>
        <time>2010-08-27T12:30:20Z</time>
      </trkpt>
      <trkpt lat="42.12818" lon="9.08777">
        <ele>1570.4509277</ele>
        <time>2010-08-27T12:30:36Z</time>
      </trkpt>
      <trkpt lat="42.12816" lon="9.08774">
        <ele>1566.6057129</ele>
        <time>2010-08-27T12:30:42Z</time>
      </trkpt>
      <trkpt lat="42.12812" lon="9.08775">
        <ele>1565.6445312</ele>
        <time>2010-08-27T12:30:48Z</time>
      </trkpt>
      <trkpt lat="42.12806" lon="9.08775">
        <ele>1560.8376465</ele>
        <time>2010-08-27T12:30:56Z</time>
      </trkpt>
      <trkpt lat="42.12802" lon="9.08772">
        <ele>1559.8762207</ele>
        <time>2010-08-27T12:31:03Z</time>
      </trkpt>
      <trkpt lat="42.12795" lon="9.08771">
        <ele>1566.6057129</ele>
        <time>2010-08-27T12:31:10Z</time>
      </trkpt>
      <trkpt lat="42.12792" lon="9.0877">
        <ele>1563.2409668</ele>
        <time>2010-08-27T12:31:16Z</time>
      </trkpt>
      <trkpt lat="42.12788" lon="9.08771">
        <ele>1561.3183594</ele>
        <time>2010-08-27T12:31:22Z</time>
      </trkpt>
      <trkpt lat="42.12787" lon="9.08772">
        <ele>1560.8376465</ele>
        <time>2010-08-27T12:31:24Z</time>
      </trkpt>
      <trkpt lat="42.12779" lon="9.08773">
        <ele>1561.7990723</ele>
        <time>2010-08-27T12:31:32Z</time>
      </trkpt>
      <trkpt lat="42.12775" lon="9.08774">
        <ele>1560.3569336</ele>
        <time>2010-08-27T12:31:37Z</time>
      </trkpt>
      <trkpt lat="42.12772" lon="9.08774">
        <ele>1557.9538574</ele>
        <time>2010-08-27T12:31:43Z</time>
      </trkpt>
      <trkpt lat="42.12769" lon="9.08774">
        <ele>1556.5117188</ele>
        <time>2010-08-27T12:31:47Z</time>
      </trkpt>
      <trkpt lat="42.12766" lon="9.08775">
        <ele>1556.5117188</ele>
        <time>2010-08-27T12:31:51Z</time>
      </trkpt>
      <trkpt lat="42.12761" lon="9.08774">
        <ele>1554.5891113</ele>
        <time>2010-08-27T12:31:58Z</time>
      </trkpt>
      <trkpt lat="42.12755" lon="9.08774">
        <ele>1554.5891113</ele>
        <time>2010-08-27T12:32:04Z</time>
      </trkpt>
      <trkpt lat="42.12752" lon="9.08773">
        <ele>1555.5505371</ele>
        <time>2010-08-27T12:32:08Z</time>
      </trkpt>
      <trkpt lat="42.12746" lon="9.08774">
        <ele>1553.6279297</ele>
        <time>2010-08-27T12:32:21Z</time>
      </trkpt>
      <trkpt lat="42.12741" lon="9.08774">
        <ele>1553.1472168</ele>
        <time>2010-08-27T12:32:28Z</time>
      </trkpt>
      <trkpt lat="42.12731" lon="9.08771">
        <ele>1550.2634277</ele>
        <time>2010-08-27T12:32:47Z</time>
      </trkpt>
      <trkpt lat="42.1272" lon="9.08768">
        <ele>1563.7214355</ele>
        <time>2010-08-27T12:33:02Z</time>
      </trkpt>
      <trkpt lat="42.12719" lon="9.08768">
        <ele>1562.279541</ele>
        <time>2010-08-27T12:33:04Z</time>
      </trkpt>
      <trkpt lat="42.1271" lon="9.08772">
        <ele>1561.7990723</ele>
        <time>2010-08-27T12:33:12Z</time>
      </trkpt>
      <trkpt lat="42.12706" lon="9.08773">
        <ele>1559.395752</ele>
        <time>2010-08-27T12:33:18Z</time>
      </trkpt>
      <trkpt lat="42.12703" lon="9.08769">
        <ele>1550.7438965</ele>
        <time>2010-08-27T12:33:24Z</time>
      </trkpt>
      <trkpt lat="42.12698" lon="9.08768">
        <ele>1552.6665039</ele>
        <time>2010-08-27T12:33:29Z</time>
      </trkpt>
      <trkpt lat="42.12692" lon="9.08767">
        <ele>1554.1086426</ele>
        <time>2010-08-27T12:33:36Z</time>
      </trkpt>
      <trkpt lat="42.12678" lon="9.0876">
        <ele>1548.3405762</ele>
        <time>2010-08-27T12:34:01Z</time>
      </trkpt>
      <trkpt lat="42.12666" lon="9.08763">
        <ele>1557.4731445</ele>
        <time>2010-08-27T12:34:15Z</time>
      </trkpt>
      <trkpt lat="42.1266" lon="9.08762">
        <ele>1553.1472168</ele>
        <time>2010-08-27T12:34:24Z</time>
      </trkpt>
      <trkpt lat="42.12653" lon="9.08763">
        <ele>1543.0532227</ele>
        <time>2010-08-27T12:34:32Z</time>
      </trkpt>
      <trkpt lat="42.12649" lon="9.08761">
        <ele>1533.9208984</ele>
        <time>2010-08-27T12:34:39Z</time>
      </trkpt>
      <trkpt lat="42.12641" lon="9.08762">
        <ele>1533.4401855</ele>
        <time>2010-08-27T12:34:48Z</time>
      </trkpt>
      <trkpt lat="42.12638" lon="9.0876">
        <ele>1523.8269043</ele>
        <time>2010-08-27T12:34:56Z</time>
      </trkpt>
      <trkpt lat="42.12635" lon="9.08759">
        <ele>1522.3850098</ele>
        <time>2010-08-27T12:35:01Z</time>
      </trkpt>
      <trkpt lat="42.12629" lon="9.0876">
        <ele>1518.5397949</ele>
        <time>2010-08-27T12:35:07Z</time>
      </trkpt>
      <trkpt lat="42.12624" lon="9.08763">
        <ele>1517.5783691</ele>
        <time>2010-08-27T12:35:14Z</time>
      </trkpt>
      <trkpt lat="42.12624" lon="9.08765">
        <ele>1518.059082</ele>
        <time>2010-08-27T12:35:16Z</time>
      </trkpt>
      <trkpt lat="42.12621" lon="9.08772">
        <ele>1516.1364746</ele>
        <time>2010-08-27T12:35:23Z</time>
      </trkpt>
      <trkpt lat="42.12616" lon="9.08781">
        <ele>1516.6171875</ele>
        <time>2010-08-27T12:35:31Z</time>
      </trkpt>
      <trkpt lat="42.12611" lon="9.08787">
        <ele>1517.5783691</ele>
        <time>2010-08-27T12:35:38Z</time>
      </trkpt>
      <trkpt lat="42.12606" lon="9.08797">
        <ele>1518.059082</ele>
        <time>2010-08-27T12:35:46Z</time>
      </trkpt>
      <trkpt lat="42.12602" lon="9.08802">
        <ele>1516.6171875</ele>
        <time>2010-08-27T12:35:52Z</time>
      </trkpt>
      <trkpt lat="42.12596" lon="9.08807">
        <ele>1515.6557617</ele>
        <time>2010-08-27T12:35:59Z</time>
      </trkpt>
      <trkpt lat="42.12588" lon="9.08807">
        <ele>1514.6943359</ele>
        <time>2010-08-27T12:36:07Z</time>
      </trkpt>
      <trkpt lat="42.12582" lon="9.08812">
        <ele>1514.6943359</ele>
        <time>2010-08-27T12:36:14Z</time>
      </trkpt>
      <trkpt lat="42.12577" lon="9.08817">
        <ele>1513.7329102</ele>
        <time>2010-08-27T12:36:21Z</time>
      </trkpt>
      <trkpt lat="42.12572" lon="9.08818">
        <ele>1512.2910156</ele>
        <time>2010-08-27T12:36:28Z</time>
      </trkpt>
      <trkpt lat="42.1257" lon="9.08818">
        <ele>1510.3684082</ele>
        <time>2010-08-27T12:36:34Z</time>
      </trkpt>
      <trkpt lat="42.12565" lon="9.08821">
        <ele>1513.7329102</ele>
        <time>2010-08-27T12:36:41Z</time>
      </trkpt>
      <trkpt lat="42.12561" lon="9.08824">
        <ele>1513.2524414</ele>
        <time>2010-08-27T12:36:46Z</time>
      </trkpt>
      <trkpt lat="42.1256" lon="9.08831">
        <ele>1513.2524414</ele>
        <time>2010-08-27T12:36:52Z</time>
      </trkpt>
      <trkpt lat="42.1256" lon="9.08835">
        <ele>1513.7329102</ele>
        <time>2010-08-27T12:36:57Z</time>
      </trkpt>
      <trkpt lat="42.12558" lon="9.08839">
        <ele>1512.2910156</ele>
        <time>2010-08-27T12:37:02Z</time>
      </trkpt>
      <trkpt lat="42.12556" lon="9.08844">
        <ele>1510.3684082</ele>
        <time>2010-08-27T12:37:09Z</time>
      </trkpt>
      <trkpt lat="42.12555" lon="9.08845">
        <ele>1507.4846191</ele>
        <time>2010-08-27T12:37:13Z</time>
      </trkpt>
      <trkpt lat="42.12556" lon="9.08849">
        <ele>1506.0424805</ele>
        <time>2010-08-27T12:37:19Z</time>
      </trkpt>
      <trkpt lat="42.12553" lon="9.08854">
        <ele>1508.4458008</ele>
        <time>2010-08-27T12:37:26Z</time>
      </trkpt>
      <trkpt lat="42.1255" lon="9.08857">
        <ele>1509.8876953</ele>
        <time>2010-08-27T12:37:32Z</time>
      </trkpt>
      <trkpt lat="42.12546" lon="9.08857">
        <ele>1510.3684082</ele>
        <time>2010-08-27T12:37:38Z</time>
      </trkpt>
      <trkpt lat="42.12542" lon="9.08859">
        <ele>1509.8876953</ele>
        <time>2010-08-27T12:37:46Z</time>
      </trkpt>
      <trkpt lat="42.12538" lon="9.08859">
        <ele>1507.4846191</ele>
        <time>2010-08-27T12:37:52Z</time>
      </trkpt>
      <trkpt lat="42.12533" lon="9.08859">
        <ele>1507.0039062</ele>
        <time>2010-08-27T12:38:00Z</time>
      </trkpt>
      <trkpt lat="42.12534" lon="9.0886">
        <ele>1506.0424805</ele>
        <time>2010-08-27T12:38:06Z</time>
      </trkpt>
      <trkpt lat="42.12534" lon="9.08865">
        <ele>1507.965332</ele>
        <time>2010-08-27T12:38:12Z</time>
      </trkpt>
      <trkpt lat="42.12535" lon="9.0887">
        <ele>1507.965332</ele>
        <time>2010-08-27T12:38:18Z</time>
      </trkpt>
      <trkpt lat="42.12537" lon="9.08874">
        <ele>1504.1201172</ele>
        <time>2010-08-27T12:38:23Z</time>
      </trkpt>
      <trkpt lat="42.12537" lon="9.08877">
        <ele>1503.6394043</ele>
        <time>2010-08-27T12:38:30Z</time>
      </trkpt>
      <trkpt lat="42.12535" lon="9.08877">
        <ele>1502.6779785</ele>
        <time>2010-08-27T12:38:36Z</time>
      </trkpt>
      <trkpt lat="42.12536" lon="9.08875">
        <ele>1502.6779785</ele>
        <time>2010-08-27T12:38:46Z</time>
      </trkpt>
      <trkpt lat="42.12534" lon="9.08877">
        <ele>1507.0039062</ele>
        <time>2010-08-27T12:38:54Z</time>
      </trkpt>
      <trkpt lat="42.12535" lon="9.08878">
        <ele>1504.1201172</ele>
        <time>2010-08-27T12:39:05Z</time>
      </trkpt>
      <trkpt lat="42.12533" lon="9.08879">
        <ele>1505.0812988</ele>
        <time>2010-08-27T12:39:16Z</time>
      </trkpt>
      <trkpt lat="42.12533" lon="9.08878">
        <ele>1502.6779785</ele>
        <time>2010-08-27T12:39:27Z</time>
      </trkpt>
      <trkpt lat="42.12531" lon="9.08879">
        <ele>1500.7553711</ele>
        <time>2010-08-27T12:39:34Z</time>
      </trkpt>
      <trkpt lat="42.12528" lon="9.08881">
        <ele>1500.2749023</ele>
        <time>2010-08-27T12:39:40Z</time>
      </trkpt>
      <trkpt lat="42.12527" lon="9.08885">
        <ele>1501.236084</ele>
        <time>2010-08-27T12:39:46Z</time>
      </trkpt>
      <trkpt lat="42.12527" lon="9.0889">
        <ele>1502.1972656</ele>
        <time>2010-08-27T12:39:53Z</time>
      </trkpt>
      <trkpt lat="42.12528" lon="9.08895">
        <ele>1499.3132324</ele>
        <time>2010-08-27T12:39:58Z</time>
      </trkpt>
      <trkpt lat="42.12527" lon="9.089">
        <ele>1498.3518066</ele>
        <time>2010-08-27T12:40:04Z</time>
      </trkpt>
      <trkpt lat="42.12526" lon="9.08904">
        <ele>1494.026123</ele>
        <time>2010-08-27T12:40:10Z</time>
      </trkpt>
      <trkpt lat="42.12524" lon="9.08909">
        <ele>1493.0646973</ele>
        <time>2010-08-27T12:40:17Z</time>
      </trkpt>
      <trkpt lat="42.12522" lon="9.08909">
        <ele>1491.6228027</ele>
        <time>2010-08-27T12:40:22Z</time>
      </trkpt>
      <trkpt lat="42.12519" lon="9.08911">
        <ele>1492.1035156</ele>
        <time>2010-08-27T12:40:28Z</time>
      </trkpt>
      <trkpt lat="42.12517" lon="9.08918">
        <ele>1492.5842285</ele>
        <time>2010-08-27T12:40:34Z</time>
      </trkpt>
      <trkpt lat="42.12514" lon="9.08926">
        <ele>1494.026123</ele>
        <time>2010-08-27T12:40:41Z</time>
      </trkpt>
      <trkpt lat="42.12513" lon="9.08928">
        <ele>1494.9873047</ele>
        <time>2010-08-27T12:40:43Z</time>
      </trkpt>
      <trkpt lat="42.12513" lon="9.08932">
        <ele>1495.4680176</ele>
        <time>2010-08-27T12:40:46Z</time>
      </trkpt>
      <trkpt lat="42.1251" lon="9.08939">
        <ele>1489.7001953</ele>
        <time>2010-08-27T12:40:55Z</time>
      </trkpt>
      <trkpt lat="42.12503" lon="9.0894">
        <ele>1487.296875</ele>
        <time>2010-08-27T12:41:03Z</time>
      </trkpt>
      <trkpt lat="42.12496" lon="9.0894">
        <ele>1487.296875</ele>
        <time>2010-08-27T12:41:10Z</time>
      </trkpt>
      <trkpt lat="42.12492" lon="9.08944">
        <ele>1487.296875</ele>
        <time>2010-08-27T12:41:16Z</time>
      </trkpt>
      <trkpt lat="42.12488" lon="9.08946">
        <ele>1486.3356934</ele>
        <time>2010-08-27T12:41:21Z</time>
      </trkpt>
      <trkpt lat="42.12483" lon="9.08951">
        <ele>1485.3742676</ele>
        <time>2010-08-27T12:41:27Z</time>
      </trkpt>
      <trkpt lat="42.12477" lon="9.08956">
        <ele>1483.9321289</ele>
        <time>2010-08-27T12:41:34Z</time>
      </trkpt>
      <trkpt lat="42.12475" lon="9.08956">
        <ele>1483.451416</ele>
        <time>2010-08-27T12:41:36Z</time>
      </trkpt>
      <trkpt lat="42.1247" lon="9.08955">
        <ele>1482.0095215</ele>
        <time>2010-08-27T12:41:42Z</time>
      </trkpt>
      <trkpt lat="42.1247" lon="9.08955">
        <ele>1482.0095215</ele>
        <time>2010-08-27T12:41:43Z</time>
      </trkpt>
      <trkpt lat="42.12462" lon="9.08958">
        <ele>1480.567627</ele>
        <time>2010-08-27T12:41:51Z</time>
      </trkpt>
      <trkpt lat="42.12457" lon="9.08961">
        <ele>1479.6062012</ele>
        <time>2010-08-27T12:41:58Z</time>
      </trkpt>
      <trkpt lat="42.12455" lon="9.08962">
        <ele>1478.6450195</ele>
        <time>2010-08-27T12:42:01Z</time>
      </trkpt>
      <trkpt lat="42.1245" lon="9.08963">
        <ele>1477.203125</ele>
        <time>2010-08-27T12:42:07Z</time>
      </trkpt>
      <trkpt lat="42.12447" lon="9.08965">
        <ele>1476.7224121</ele>
        <time>2010-08-27T12:42:10Z</time>
      </trkpt>
      <trkpt lat="42.12442" lon="9.08969">
        <ele>1475.7609863</ele>
        <time>2010-08-27T12:42:17Z</time>
      </trkpt>
      <trkpt lat="42.12437" lon="9.0897">
        <ele>1474.7998047</ele>
        <time>2010-08-27T12:42:23Z</time>
      </trkpt>
      <trkpt lat="42.12434" lon="9.08972">
        <ele>1473.3579102</ele>
        <time>2010-08-27T12:42:28Z</time>
      </trkpt>
      <trkpt lat="42.12429" lon="9.08976">
        <ele>1471.4350586</ele>
        <time>2010-08-27T12:42:35Z</time>
      </trkpt>
      <trkpt lat="42.12424" lon="9.0898">
        <ele>1469.5126953</ele>
        <time>2010-08-27T12:42:42Z</time>
      </trkpt>
      <trkpt lat="42.12418" lon="9.08979">
        <ele>1467.5895996</ele>
        <time>2010-08-27T12:42:48Z</time>
      </trkpt>
      <trkpt lat="42.12413" lon="9.0898">
        <ele>1466.628418</ele>
        <time>2010-08-27T12:42:55Z</time>
      </trkpt>
      <trkpt lat="42.12408" lon="9.08984">
        <ele>1465.6672363</ele>
        <time>2010-08-27T12:43:02Z</time>
      </trkpt>
      <trkpt lat="42.12404" lon="9.0899">
        <ele>1464.2250977</ele>
        <time>2010-08-27T12:43:10Z</time>
      </trkpt>
      <trkpt lat="42.12399" lon="9.08992">
        <ele>1463.7443848</ele>
        <time>2010-08-27T12:43:16Z</time>
      </trkpt>
      <trkpt lat="42.12395" lon="9.09">
        <ele>1463.7443848</ele>
        <time>2010-08-27T12:43:24Z</time>
      </trkpt>
      <trkpt lat="42.12392" lon="9.09">
        <ele>1463.263916</ele>
        <time>2010-08-27T12:43:28Z</time>
      </trkpt>
      <trkpt lat="42.12384" lon="9.09001">
        <ele>1462.7832031</ele>
        <time>2010-08-27T12:43:36Z</time>
      </trkpt>
      <trkpt lat="42.12376" lon="9.08998">
        <ele>1463.263916</ele>
        <time>2010-08-27T12:43:42Z</time>
      </trkpt>
      <trkpt lat="42.1237" lon="9.09">
        <ele>1462.7832031</ele>
        <time>2010-08-27T12:43:48Z</time>
      </trkpt>
      <trkpt lat="42.12368" lon="9.09005">
        <ele>1463.7443848</ele>
        <time>2010-08-27T12:43:52Z</time>
      </trkpt>
      <trkpt lat="42.12365" lon="9.0901">
        <ele>1460.8605957</ele>
        <time>2010-08-27T12:43:58Z</time>
      </trkpt>
      <trkpt lat="42.12363" lon="9.09015">
        <ele>1458.4572754</ele>
        <time>2010-08-27T12:44:04Z</time>
      </trkpt>
      <trkpt lat="42.12359" lon="9.0902">
        <ele>1455.5734863</ele>
        <time>2010-08-27T12:44:11Z</time>
      </trkpt>
      <trkpt lat="42.12356" lon="9.09025">
        <ele>1455.0927734</ele>
        <time>2010-08-27T12:44:17Z</time>
      </trkpt>
      <trkpt lat="42.12355" lon="9.09026">
        <ele>1455.0927734</ele>
        <time>2010-08-27T12:44:18Z</time>
      </trkpt>
      <trkpt lat="42.12348" lon="9.0903">
        <ele>1454.1315918</ele>
        <time>2010-08-27T12:44:26Z</time>
      </trkpt>
      <trkpt lat="42.12344" lon="9.09035">
        <ele>1454.1315918</ele>
        <time>2010-08-27T12:44:31Z</time>
      </trkpt>
      <trkpt lat="42.12339" lon="9.09034">
        <ele>1455.5734863</ele>
        <time>2010-08-27T12:44:35Z</time>
      </trkpt>
      <trkpt lat="42.12333" lon="9.09031">
        <ele>1455.5734863</ele>
        <time>2010-08-27T12:44:42Z</time>
      </trkpt>
      <trkpt lat="42.1233" lon="9.09033">
        <ele>1454.6120605</ele>
        <time>2010-08-27T12:44:46Z</time>
      </trkpt>
      <trkpt lat="42.12325" lon="9.09038">
        <ele>1452.6894531</ele>
        <time>2010-08-27T12:44:53Z</time>
      </trkpt>
      <trkpt lat="42.12322" lon="9.09037">
        <ele>1451.7280273</ele>
        <time>2010-08-27T12:44:56Z</time>
      </trkpt>
      <trkpt lat="42.12316" lon="9.09035">
        <ele>1448.3632812</ele>
        <time>2010-08-27T12:45:03Z</time>
      </trkpt>
      <trkpt lat="42.12313" lon="9.0904">
        <ele>1447.4020996</ele>
        <time>2010-08-27T12:45:10Z</time>
      </trkpt>
      <trkpt lat="42.12312" lon="9.0904">
        <ele>1447.4020996</ele>
        <time>2010-08-27T12:45:11Z</time>
      </trkpt>
      <trkpt lat="42.12309" lon="9.09044">
        <ele>1447.4020996</ele>
        <time>2010-08-27T12:45:18Z</time>
      </trkpt>
      <trkpt lat="42.12304" lon="9.09045">
        <ele>1445.9602051</ele>
        <time>2010-08-27T12:45:25Z</time>
      </trkpt>
      <trkpt lat="42.12297" lon="9.09046">
        <ele>1444.5180664</ele>
        <time>2010-08-27T12:45:32Z</time>
      </trkpt>
      <trkpt lat="42.1229" lon="9.09043">
        <ele>1443.5568848</ele>
        <time>2010-08-27T12:45:38Z</time>
      </trkpt>
      <trkpt lat="42.12284" lon="9.09044">
        <ele>1442.1149902</ele>
        <time>2010-08-27T12:45:46Z</time>
      </trkpt>
      <trkpt lat="42.12283" lon="9.09052">
        <ele>1442.1149902</ele>
        <time>2010-08-27T12:45:53Z</time>
      </trkpt>
      <trkpt lat="42.12282" lon="9.09056">
        <ele>1442.1149902</ele>
        <time>2010-08-27T12:45:59Z</time>
      </trkpt>
      <trkpt lat="42.1228" lon="9.09061">
        <ele>1439.7116699</ele>
        <time>2010-08-27T12:46:05Z</time>
      </trkpt>
      <trkpt lat="42.12276" lon="9.09064">
        <ele>1436.347168</ele>
        <time>2010-08-27T12:46:12Z</time>
      </trkpt>
      <trkpt lat="42.12272" lon="9.09065">
        <ele>1435.385498</ele>
        <time>2010-08-27T12:46:17Z</time>
      </trkpt>
      <trkpt lat="42.12269" lon="9.09072">
        <ele>1435.385498</ele>
        <time>2010-08-27T12:46:23Z</time>
      </trkpt>
      <trkpt lat="42.12264" lon="9.09077">
        <ele>1434.9050293</ele>
        <time>2010-08-27T12:46:31Z</time>
      </trkpt>
      <trkpt lat="42.12258" lon="9.09077">
        <ele>1437.3083496</ele>
        <time>2010-08-27T12:46:36Z</time>
      </trkpt>
      <trkpt lat="42.12255" lon="9.09082">
        <ele>1433.4628906</ele>
        <time>2010-08-27T12:46:44Z</time>
      </trkpt>
      <trkpt lat="42.1225" lon="9.09085">
        <ele>1434.4243164</ele>
        <time>2010-08-27T12:46:48Z</time>
      </trkpt>
      <trkpt lat="42.12243" lon="9.09087">
        <ele>1439.230957</ele>
        <time>2010-08-27T12:46:54Z</time>
      </trkpt>
      <trkpt lat="42.12244" lon="9.09089">
        <ele>1440.1923828</ele>
        <time>2010-08-27T12:46:58Z</time>
      </trkpt>
      <trkpt lat="42.12236" lon="9.0909">
        <ele>1441.6342773</ele>
        <time>2010-08-27T12:47:07Z</time>
      </trkpt>
      <trkpt lat="42.12236" lon="9.09093">
        <ele>1432.501709</ele>
        <time>2010-08-27T12:47:20Z</time>
      </trkpt>
      <trkpt lat="42.12235" lon="9.09093">
        <ele>1434.4243164</ele>
        <time>2010-08-27T12:47:25Z</time>
      </trkpt>
      <trkpt lat="42.12242" lon="9.09094">
        <ele>1418.0817871</ele>
        <time>2010-08-27T12:47:35Z</time>
      </trkpt>
      <trkpt lat="42.12242" lon="9.09094">
        <ele>1412.3139648</ele>
        <time>2010-08-27T12:47:43Z</time>
      </trkpt>
      <trkpt lat="42.12234" lon="9.09095">
        <ele>1412.7946777</ele>
        <time>2010-08-27T12:47:55Z</time>
      </trkpt>
      <trkpt lat="42.12229" lon="9.09098">
        <ele>1425.291748</ele>
        <time>2010-08-27T12:48:27Z</time>
      </trkpt>
      <trkpt lat="42.12229" lon="9.09104">
        <ele>1440.6728516</ele>
        <time>2010-08-27T12:49:02Z</time>
      </trkpt>
      <trkpt lat="42.12229" lon="9.0911">
        <ele>1443.0761719</ele>
        <time>2010-08-27T12:49:12Z</time>
      </trkpt>
      <trkpt lat="42.12236" lon="9.0911">
        <ele>1428.1757812</ele>
        <time>2010-08-27T12:49:21Z</time>
      </trkpt>
      <trkpt lat="42.12232" lon="9.0911">
        <ele>1435.8662109</ele>
        <time>2010-08-27T12:49:30Z</time>
      </trkpt>
      <trkpt lat="42.12229" lon="9.09109">
        <ele>1438.7504883</ele>
        <time>2010-08-27T12:49:43Z</time>
      </trkpt>
      <trkpt lat="42.12232" lon="9.09105">
        <ele>1428.6564941</ele>
        <time>2010-08-27T12:49:56Z</time>
      </trkpt>
      <trkpt lat="42.12235" lon="9.09114">
        <ele>1438.2697754</ele>
        <time>2010-08-27T12:50:22Z</time>
      </trkpt>
      <trkpt lat="42.12235" lon="9.09116">
        <ele>1440.1923828</ele>
        <time>2010-08-27T12:50:27Z</time>
      </trkpt>
      <trkpt lat="42.12235" lon="9.09117">
        <ele>1434.9050293</ele>
        <time>2010-08-27T12:50:34Z</time>
      </trkpt>
      <trkpt lat="42.12233" lon="9.0912">
        <ele>1435.8662109</ele>
        <time>2010-08-27T12:50:39Z</time>
      </trkpt>
      <trkpt lat="42.12225" lon="9.09134">
        <ele>1430.5791016</ele>
        <time>2010-08-27T12:50:52Z</time>
      </trkpt>
      <trkpt lat="42.12224" lon="9.09142">
        <ele>1431.0598145</ele>
        <time>2010-08-27T12:50:58Z</time>
      </trkpt>
      <trkpt lat="42.1222" lon="9.09148">
        <ele>1426.2531738</ele>
        <time>2010-08-27T12:51:06Z</time>
      </trkpt>
      <trkpt lat="42.12216" lon="9.09149">
        <ele>1424.3305664</ele>
        <time>2010-08-27T12:51:10Z</time>
      </trkpt>
      <trkpt lat="42.1221" lon="9.09153">
        <ele>1425.7724609</ele>
        <time>2010-08-27T12:51:15Z</time>
      </trkpt>
      <trkpt lat="42.12208" lon="9.09154">
        <ele>1426.2531738</ele>
        <time>2010-08-27T12:51:16Z</time>
      </trkpt>
      <trkpt lat="42.12203" lon="9.09159">
        <ele>1426.7338867</ele>
        <time>2010-08-27T12:51:25Z</time>
      </trkpt>
      <trkpt lat="42.12198" lon="9.0916">
        <ele>1424.3305664</ele>
        <time>2010-08-27T12:51:31Z</time>
      </trkpt>
      <trkpt lat="42.12197" lon="9.09161">
        <ele>1424.3305664</ele>
        <time>2010-08-27T12:51:32Z</time>
      </trkpt>
      <trkpt lat="42.12193" lon="9.09164">
        <ele>1420.4853516</ele>
        <time>2010-08-27T12:51:39Z</time>
      </trkpt>
      <trkpt lat="42.12189" lon="9.09164">
        <ele>1420.0046387</ele>
        <time>2010-08-27T12:51:44Z</time>
      </trkpt>
      <trkpt lat="42.12188" lon="9.09164">
        <ele>1420.0046387</ele>
        <time>2010-08-27T12:51:45Z</time>
      </trkpt>
      <trkpt lat="42.12179" lon="9.09165">
        <ele>1420.9660645</ele>
        <time>2010-08-27T12:51:53Z</time>
      </trkpt>
      <trkpt lat="42.12178" lon="9.09164">
        <ele>1420.4853516</ele>
        <time>2010-08-27T12:51:54Z</time>
      </trkpt>
      <trkpt lat="42.12171" lon="9.09164">
        <ele>1425.291748</ele>
        <time>2010-08-27T12:52:00Z</time>
      </trkpt>
      <trkpt lat="42.12167" lon="9.09163">
        <ele>1428.1757812</ele>
        <time>2010-08-27T12:52:05Z</time>
      </trkpt>
      <trkpt lat="42.12163" lon="9.09165">
        <ele>1430.5791016</ele>
        <time>2010-08-27T12:52:11Z</time>
      </trkpt>
      <trkpt lat="42.12161" lon="9.09165">
        <ele>1424.8112793</ele>
        <time>2010-08-27T12:52:18Z</time>
      </trkpt>
      <trkpt lat="42.12159" lon="9.0917">
        <ele>1422.407959</ele>
        <time>2010-08-27T12:52:24Z</time>
      </trkpt>
      <trkpt lat="42.12156" lon="9.09175">
        <ele>1422.8886719</ele>
        <time>2010-08-27T12:52:30Z</time>
      </trkpt>
      <trkpt lat="42.12154" lon="9.09176">
        <ele>1420.4853516</ele>
        <time>2010-08-27T12:52:36Z</time>
      </trkpt>
      <trkpt lat="42.12155" lon="9.09176">
        <ele>1420.0046387</ele>
        <time>2010-08-27T12:52:44Z</time>
      </trkpt>
      <trkpt lat="42.12153" lon="9.09176">
        <ele>1419.5239258</ele>
        <time>2010-08-27T12:52:50Z</time>
      </trkpt>
      <trkpt lat="42.1215" lon="9.09173">
        <ele>1418.0817871</ele>
        <time>2010-08-27T12:52:56Z</time>
      </trkpt>
      <trkpt lat="42.1215" lon="9.09174">
        <ele>1419.0432129</ele>
        <time>2010-08-27T12:53:03Z</time>
      </trkpt>
      <trkpt lat="42.12151" lon="9.09172">
        <ele>1418.0817871</ele>
        <time>2010-08-27T12:53:10Z</time>
      </trkpt>
      <trkpt lat="42.12153" lon="9.09175">
        <ele>1419.0432129</ele>
        <time>2010-08-27T12:53:25Z</time>
      </trkpt>
      <trkpt lat="42.12155" lon="9.09176">
        <ele>1413.7558594</ele>
        <time>2010-08-27T12:53:55Z</time>
      </trkpt>
      <trkpt lat="42.12143" lon="9.09186">
        <ele>1430.5791016</ele>
        <time>2010-08-27T12:54:32Z</time>
      </trkpt>
      <trkpt lat="42.12151" lon="9.09182">
        <ele>1425.7724609</ele>
        <time>2010-08-27T12:55:52Z</time>
      </trkpt>
      <trkpt lat="42.12145" lon="9.09185">
        <ele>1425.7724609</ele>
        <time>2010-08-27T12:56:18Z</time>
      </trkpt>
      <trkpt lat="42.1215" lon="9.09183">
        <ele>1427.6950684</ele>
        <time>2010-08-27T12:56:27Z</time>
      </trkpt>
      <trkpt lat="42.12148" lon="9.09182">
        <ele>1427.2145996</ele>
        <time>2010-08-27T12:56:55Z</time>
      </trkpt>
      <trkpt lat="42.1215" lon="9.09181">
        <ele>1428.1757812</ele>
        <time>2010-08-27T12:57:01Z</time>
      </trkpt>
      <trkpt lat="42.12152" lon="9.0918">
        <ele>1429.1369629</ele>
        <time>2010-08-27T12:57:11Z</time>
      </trkpt>
      <trkpt lat="42.12149" lon="9.09181">
        <ele>1426.2531738</ele>
        <time>2010-08-27T12:57:32Z</time>
      </trkpt>
      <trkpt lat="42.12148" lon="9.09182">
        <ele>1428.1757812</ele>
        <time>2010-08-27T12:57:39Z</time>
      </trkpt>
      <trkpt lat="42.12144" lon="9.09185">
        <ele>1429.6176758</ele>
        <time>2010-08-27T12:57:47Z</time>
      </trkpt>
      <trkpt lat="42.12153" lon="9.09169">
        <ele>1408.9494629</ele>
        <time>2010-08-27T12:57:56Z</time>
      </trkpt>
      <trkpt lat="42.12162" lon="9.09155">
        <ele>1393.5683594</ele>
        <time>2010-08-27T12:58:01Z</time>
      </trkpt>
      <trkpt lat="42.12167" lon="9.09145">
        <ele>1380.5905762</ele>
        <time>2010-08-27T12:58:09Z</time>
      </trkpt>
      <trkpt lat="42.12159" lon="9.09147">
        <ele>1374.342041</ele>
        <time>2010-08-27T12:58:13Z</time>
      </trkpt>
      <trkpt lat="42.12151" lon="9.09159">
        <ele>1385.8776855</ele>
        <time>2010-08-27T12:58:22Z</time>
      </trkpt>
      <trkpt lat="42.12147" lon="9.09164">
        <ele>1390.6843262</ele>
        <time>2010-08-27T12:58:28Z</time>
      </trkpt>
      <trkpt lat="42.12154" lon="9.09175">
        <ele>1409.4301758</ele>
        <time>2010-08-27T12:58:39Z</time>
      </trkpt>
      <trkpt lat="42.12162" lon="9.09172">
        <ele>1410.3913574</ele>
        <time>2010-08-27T12:58:44Z</time>
      </trkpt>
      <trkpt lat="42.12151" lon="9.09178">
        <ele>1420.4853516</ele>
        <time>2010-08-27T12:58:51Z</time>
      </trkpt>
      <trkpt lat="42.12152" lon="9.09175">
        <ele>1418.5625</ele>
        <time>2010-08-27T12:59:01Z</time>
      </trkpt>
      <trkpt lat="42.12155" lon="9.09168">
        <ele>1413.7558594</ele>
        <time>2010-08-27T12:59:08Z</time>
      </trkpt>
      <trkpt lat="42.1216" lon="9.09164">
        <ele>1404.1430664</ele>
        <time>2010-08-27T12:59:17Z</time>
      </trkpt>
      <trkpt lat="42.12156" lon="9.0917">
        <ele>1416.6398926</ele>
        <time>2010-08-27T12:59:24Z</time>
      </trkpt>
      <trkpt lat="42.12161" lon="9.09167">
        <ele>1414.2365723</ele>
        <time>2010-08-27T12:59:32Z</time>
      </trkpt>
      <trkpt lat="42.12157" lon="9.09171">
        <ele>1413.7558594</ele>
        <time>2010-08-27T12:59:38Z</time>
      </trkpt>
      <trkpt lat="42.12153" lon="9.09175">
        <ele>1413.2753906</ele>
        <time>2010-08-27T12:59:43Z</time>
      </trkpt>
      <trkpt lat="42.12147" lon="9.09185">
        <ele>1413.2753906</ele>
        <time>2010-08-27T12:59:49Z</time>
      </trkpt>
      <trkpt lat="42.12146" lon="9.09196">
        <ele>1416.6398926</ele>
        <time>2010-08-27T13:00:00Z</time>
      </trkpt>
      <trkpt lat="42.12141" lon="9.09207">
        <ele>1420.4853516</ele>
        <time>2010-08-27T13:00:07Z</time>
      </trkpt>
      <trkpt lat="42.12138" lon="9.0921">
        <ele>1421.9272461</ele>
        <time>2010-08-27T13:00:09Z</time>
      </trkpt>
      <trkpt lat="42.12133" lon="9.09218">
        <ele>1422.8886719</ele>
        <time>2010-08-27T13:00:15Z</time>
      </trkpt>
      <trkpt lat="42.1213" lon="9.09223">
        <ele>1423.8498535</ele>
        <time>2010-08-27T13:00:21Z</time>
      </trkpt>
      <trkpt lat="42.12128" lon="9.09226">
        <ele>1424.3305664</ele>
        <time>2010-08-27T13:00:27Z</time>
      </trkpt>
      <trkpt lat="42.12132" lon="9.09237">
        <ele>1416.1591797</ele>
        <time>2010-08-27T13:00:39Z</time>
      </trkpt>
      <trkpt lat="42.12132" lon="9.09241">
        <ele>1410.3913574</ele>
        <time>2010-08-27T13:00:46Z</time>
      </trkpt>
      <trkpt lat="42.12132" lon="9.0925">
        <ele>1408.9494629</ele>
        <time>2010-08-27T13:00:53Z</time>
      </trkpt>
      <trkpt lat="42.12133" lon="9.09259">
        <ele>1410.8720703</ele>
        <time>2010-08-27T13:01:07Z</time>
      </trkpt>
      <trkpt lat="42.12124" lon="9.09264">
        <ele>1415.197998</ele>
        <time>2010-08-27T13:01:14Z</time>
      </trkpt>
      <trkpt lat="42.12122" lon="9.0927">
        <ele>1419.5239258</ele>
        <time>2010-08-27T13:01:22Z</time>
      </trkpt>
      <trkpt lat="42.1212" lon="9.09274">
        <ele>1415.6787109</ele>
        <time>2010-08-27T13:01:28Z</time>
      </trkpt>
      <trkpt lat="42.12122" lon="9.09279">
        <ele>1411.3527832</ele>
        <time>2010-08-27T13:01:33Z</time>
      </trkpt>
      <trkpt lat="42.12123" lon="9.09285">
        <ele>1391.645752</ele>
        <time>2010-08-27T13:01:50Z</time>
      </trkpt>
      <trkpt lat="42.12118" lon="9.09301">
        <ele>1399.3361816</ele>
        <time>2010-08-27T13:02:04Z</time>
      </trkpt>
      <trkpt lat="42.12113" lon="9.0931">
        <ele>1400.2976074</ele>
        <time>2010-08-27T13:02:10Z</time>
      </trkpt>
      <trkpt lat="42.1211" lon="9.09315">
        <ele>1401.2587891</ele>
        <time>2010-08-27T13:02:16Z</time>
      </trkpt>
      <trkpt lat="42.12109" lon="9.09322">
        <ele>1402.2199707</ele>
        <time>2010-08-27T13:02:21Z</time>
      </trkpt>
      <trkpt lat="42.1211" lon="9.09327">
        <ele>1400.7780762</ele>
        <time>2010-08-27T13:02:25Z</time>
      </trkpt>
      <trkpt lat="42.12107" lon="9.09337">
        <ele>1407.9882812</ele>
        <time>2010-08-27T13:02:30Z</time>
      </trkpt>
      <trkpt lat="42.12109" lon="9.09338">
        <ele>1406.5461426</ele>
        <time>2010-08-27T13:02:31Z</time>
      </trkpt>
      <trkpt lat="42.12108" lon="9.09344">
        <ele>1401.739502</ele>
        <time>2010-08-27T13:02:36Z</time>
      </trkpt>
      <trkpt lat="42.12108" lon="9.09348">
        <ele>1399.8168945</ele>
        <time>2010-08-27T13:02:41Z</time>
      </trkpt>
      <trkpt lat="42.12105" lon="9.09359">
        <ele>1407.0268555</ele>
        <time>2010-08-27T13:02:47Z</time>
      </trkpt>
      <trkpt lat="42.12109" lon="9.09361">
        <ele>1399.3361816</ele>
        <time>2010-08-27T13:02:51Z</time>
      </trkpt>
      <trkpt lat="42.12111" lon="9.09364">
        <ele>1390.6843262</ele>
        <time>2010-08-27T13:02:57Z</time>
      </trkpt>
      <trkpt lat="42.12112" lon="9.09374">
        <ele>1395.0102539</ele>
        <time>2010-08-27T13:03:02Z</time>
      </trkpt>
      <trkpt lat="42.12111" lon="9.09377">
        <ele>1395.0102539</ele>
        <time>2010-08-27T13:03:04Z</time>
      </trkpt>
      <trkpt lat="42.12108" lon="9.09389">
        <ele>1395.4909668</ele>
        <time>2010-08-27T13:03:11Z</time>
      </trkpt>
      <trkpt lat="42.1211" lon="9.09393">
        <ele>1395.4909668</ele>
        <time>2010-08-27T13:03:16Z</time>
      </trkpt>
      <trkpt lat="42.12114" lon="9.09396">
        <ele>1394.529541</ele>
        <time>2010-08-27T13:03:21Z</time>
      </trkpt>
      <trkpt lat="42.12111" lon="9.09405">
        <ele>1396.9328613</ele>
        <time>2010-08-27T13:03:25Z</time>
      </trkpt>
      <trkpt lat="42.12111" lon="9.09417">
        <ele>1393.0876465</ele>
        <time>2010-08-27T13:03:32Z</time>
      </trkpt>
      <trkpt lat="42.12114" lon="9.09428">
        <ele>1393.0876465</ele>
        <time>2010-08-27T13:03:40Z</time>
      </trkpt>
      <trkpt lat="42.12114" lon="9.09438">
        <ele>1390.6843262</ele>
        <time>2010-08-27T13:03:46Z</time>
      </trkpt>
      <trkpt lat="42.12114" lon="9.09442">
        <ele>1386.8388672</ele>
        <time>2010-08-27T13:03:50Z</time>
      </trkpt>
      <trkpt lat="42.12116" lon="9.0945">
        <ele>1383.9550781</ele>
        <time>2010-08-27T13:03:57Z</time>
      </trkpt>
      <trkpt lat="42.12117" lon="9.0945">
        <ele>1380.5905762</ele>
        <time>2010-08-27T13:04:01Z</time>
      </trkpt>
      <trkpt lat="42.12114" lon="9.0945">
        <ele>1379.6291504</ele>
        <time>2010-08-27T13:04:08Z</time>
      </trkpt>
      <trkpt lat="42.12109" lon="9.09458">
        <ele>1376.7453613</ele>
        <time>2010-08-27T13:04:15Z</time>
      </trkpt>
      <trkpt lat="42.12108" lon="9.09464">
        <ele>1376.2646484</ele>
        <time>2010-08-27T13:04:19Z</time>
      </trkpt>
      <trkpt lat="42.12104" lon="9.09471">
        <ele>1377.706543</ele>
        <time>2010-08-27T13:04:25Z</time>
      </trkpt>
      <trkpt lat="42.12104" lon="9.09471">
        <ele>1377.2260742</ele>
        <time>2010-08-27T13:04:26Z</time>
      </trkpt>
      <trkpt lat="42.12101" lon="9.09476">
        <ele>1378.1872559</ele>
        <time>2010-08-27T13:04:32Z</time>
      </trkpt>
      <trkpt lat="42.121" lon="9.09476">
        <ele>1380.5905762</ele>
        <time>2010-08-27T13:04:36Z</time>
      </trkpt>
      <trkpt lat="42.12101" lon="9.09483">
        <ele>1386.3583984</ele>
        <time>2010-08-27T13:04:42Z</time>
      </trkpt>
      <trkpt lat="42.12104" lon="9.09485">
        <ele>1381.0712891</ele>
        <time>2010-08-27T13:04:47Z</time>
      </trkpt>
      <trkpt lat="42.12108" lon="9.09487">
        <ele>1375.7839355</ele>
        <time>2010-08-27T13:04:52Z</time>
      </trkpt>
      <trkpt lat="42.12109" lon="9.09492">
        <ele>1370.9772949</ele>
        <time>2010-08-27T13:04:57Z</time>
      </trkpt>
      <trkpt lat="42.12109" lon="9.09493">
        <ele>1370.0158691</ele>
        <time>2010-08-27T13:04:58Z</time>
      </trkpt>
      <trkpt lat="42.12104" lon="9.09499">
        <ele>1370.9772949</ele>
        <time>2010-08-27T13:05:03Z</time>
      </trkpt>
      <trkpt lat="42.121" lon="9.09503">
        <ele>1370.9772949</ele>
        <time>2010-08-27T13:05:08Z</time>
      </trkpt>
      <trkpt lat="42.12095" lon="9.09508">
        <ele>1373.8613281</ele>
        <time>2010-08-27T13:05:14Z</time>
      </trkpt>
      <trkpt lat="42.12094" lon="9.09512">
        <ele>1379.1484375</ele>
        <time>2010-08-27T13:05:20Z</time>
      </trkpt>
      <trkpt lat="42.12088" lon="9.09523">
        <ele>1377.2260742</ele>
        <time>2010-08-27T13:05:27Z</time>
      </trkpt>
      <trkpt lat="42.12086" lon="9.09533">
        <ele>1380.1098633</ele>
        <time>2010-08-27T13:05:32Z</time>
      </trkpt>
      <trkpt lat="42.12083" lon="9.09537">
        <ele>1382.9936523</ele>
        <time>2010-08-27T13:05:36Z</time>
      </trkpt>
      <trkpt lat="42.12082" lon="9.0955">
        <ele>1384.435791</ele>
        <time>2010-08-27T13:05:43Z</time>
      </trkpt>
      <trkpt lat="42.12079" lon="9.0955">
        <ele>1382.9936523</ele>
        <time>2010-08-27T13:05:50Z</time>
      </trkpt>
      <trkpt lat="42.12078" lon="9.09551">
        <ele>1377.2260742</ele>
        <time>2010-08-27T13:05:55Z</time>
      </trkpt>
      <trkpt lat="42.12075" lon="9.09557">
        <ele>1370.496582</ele>
        <time>2010-08-27T13:06:01Z</time>
      </trkpt>
      <trkpt lat="42.12075" lon="9.0956">
        <ele>1362.3254395</ele>
        <time>2010-08-27T13:06:09Z</time>
      </trkpt>
      <trkpt lat="42.12076" lon="9.09561">
        <ele>1352.7121582</ele>
        <time>2010-08-27T13:06:16Z</time>
      </trkpt>
      <trkpt lat="42.12075" lon="9.09567">
        <ele>1350.7895508</ele>
        <time>2010-08-27T13:06:22Z</time>
      </trkpt>
      <trkpt lat="42.12068" lon="9.09578">
        <ele>1352.2314453</ele>
        <time>2010-08-27T13:06:30Z</time>
      </trkpt>
      <trkpt lat="42.12064" lon="9.09576">
        <ele>1352.7121582</ele>
        <time>2010-08-27T13:06:36Z</time>
      </trkpt>
      <trkpt lat="42.12062" lon="9.09576">
        <ele>1353.673584</ele>
        <time>2010-08-27T13:06:38Z</time>
      </trkpt>
      <trkpt lat="42.12057" lon="9.09579">
        <ele>1357.0383301</ele>
        <time>2010-08-27T13:06:45Z</time>
      </trkpt>
      <trkpt lat="42.12056" lon="9.09579">
        <ele>1356.5576172</ele>
        <time>2010-08-27T13:06:46Z</time>
      </trkpt>
      <trkpt lat="42.12052" lon="9.09579">
        <ele>1350.7895508</ele>
        <time>2010-08-27T13:06:52Z</time>
      </trkpt>
      <trkpt lat="42.12054" lon="9.09582">
        <ele>1350.309082</ele>
        <time>2010-08-27T13:06:56Z</time>
      </trkpt>
      <trkpt lat="42.1205" lon="9.09587">
        <ele>1354.1542969</ele>
        <time>2010-08-27T13:07:01Z</time>
      </trkpt>
      <trkpt lat="42.12053" lon="9.09588">
        <ele>1348.3862305</ele>
        <time>2010-08-27T13:07:06Z</time>
      </trkpt>
      <trkpt lat="42.12048" lon="9.09598">
        <ele>1350.309082</ele>
        <time>2010-08-27T13:07:12Z</time>
      </trkpt>
      <trkpt lat="42.12038" lon="9.09608">
        <ele>1351.7509766</ele>
        <time>2010-08-27T13:07:18Z</time>
      </trkpt>
      <trkpt lat="42.12032" lon="9.09614">
        <ele>1354.1542969</ele>
        <time>2010-08-27T13:07:24Z</time>
      </trkpt>
      <trkpt lat="42.12032" lon="9.09619">
        <ele>1353.1928711</ele>
        <time>2010-08-27T13:07:29Z</time>
      </trkpt>
      <trkpt lat="42.1203" lon="9.09625">
        <ele>1345.5024414</ele>
        <time>2010-08-27T13:07:43Z</time>
      </trkpt>
      <trkpt lat="42.12015" lon="9.09646">
        <ele>1340.215332</ele>
        <time>2010-08-27T13:07:50Z</time>
      </trkpt>
      <trkpt lat="42.12015" lon="9.09651">
        <ele>1338.7731934</ele>
        <time>2010-08-27T13:07:55Z</time>
      </trkpt>
      <trkpt lat="42.12022" lon="9.09652">
        <ele>1340.215332</ele>
        <time>2010-08-27T13:08:00Z</time>
      </trkpt>
      <trkpt lat="42.12027" lon="9.09653">
        <ele>1345.0217285</ele>
        <time>2010-08-27T13:08:05Z</time>
      </trkpt>
      <trkpt lat="42.12028" lon="9.09652">
        <ele>1345.0217285</ele>
        <time>2010-08-27T13:08:06Z</time>
      </trkpt>
      <trkpt lat="42.1201" lon="9.09669">
        <ele>1336.8503418</ele>
        <time>2010-08-27T13:08:12Z</time>
      </trkpt>
      <trkpt lat="42.1201" lon="9.09675">
        <ele>1337.8117676</ele>
        <time>2010-08-27T13:08:17Z</time>
      </trkpt>
      <trkpt lat="42.12004" lon="9.09685">
        <ele>1340.6958008</ele>
        <time>2010-08-27T13:08:23Z</time>
      </trkpt>
      <trkpt lat="42.12001" lon="9.09695">
        <ele>1337.8117676</ele>
        <time>2010-08-27T13:08:28Z</time>
      </trkpt>
      <trkpt lat="42.12003" lon="9.09699">
        <ele>1339.734375</ele>
        <time>2010-08-27T13:08:33Z</time>
      </trkpt>
      <trkpt lat="42.12003" lon="9.09707">
        <ele>1338.2924805</ele>
        <time>2010-08-27T13:08:40Z</time>
      </trkpt>
      <trkpt lat="42.12004" lon="9.0971">
        <ele>1338.7731934</ele>
        <time>2010-08-27T13:08:43Z</time>
      </trkpt>
      <trkpt lat="42.12001" lon="9.09724">
        <ele>1337.8117676</ele>
        <time>2010-08-27T13:08:51Z</time>
      </trkpt>
      <trkpt lat="42.11998" lon="9.0973">
        <ele>1338.7731934</ele>
        <time>2010-08-27T13:08:54Z</time>
      </trkpt>
      <trkpt lat="42.11988" lon="9.09741">
        <ele>1340.215332</ele>
        <time>2010-08-27T13:09:03Z</time>
      </trkpt>
      <trkpt lat="42.11988" lon="9.09749">
        <ele>1340.215332</ele>
        <time>2010-08-27T13:09:09Z</time>
      </trkpt>
      <trkpt lat="42.11986" lon="9.0976">
        <ele>1339.734375</ele>
        <time>2010-08-27T13:09:17Z</time>
      </trkpt>
      <trkpt lat="42.11985" lon="9.09762">
        <ele>1339.2536621</ele>
        <time>2010-08-27T13:09:18Z</time>
      </trkpt>
      <trkpt lat="42.11983" lon="9.09765">
        <ele>1337.8117676</ele>
        <time>2010-08-27T13:09:21Z</time>
      </trkpt>
      <trkpt lat="42.11981" lon="9.09776">
        <ele>1335.8891602</ele>
        <time>2010-08-27T13:09:28Z</time>
      </trkpt>
      <trkpt lat="42.11982" lon="9.09783">
        <ele>1337.8117676</ele>
        <time>2010-08-27T13:09:34Z</time>
      </trkpt>
      <trkpt lat="42.11978" lon="9.09788">
        <ele>1337.8117676</ele>
        <time>2010-08-27T13:09:38Z</time>
      </trkpt>
      <trkpt lat="42.11977" lon="9.09798">
        <ele>1336.8503418</ele>
        <time>2010-08-27T13:09:45Z</time>
      </trkpt>
      <trkpt lat="42.11977" lon="9.09799">
        <ele>1337.3310547</ele>
        <time>2010-08-27T13:09:46Z</time>
      </trkpt>
      <trkpt lat="42.11978" lon="9.09807">
        <ele>1335.8891602</ele>
        <time>2010-08-27T13:09:53Z</time>
      </trkpt>
      <trkpt lat="42.11978" lon="9.09808">
        <ele>1328.6794434</ele>
        <time>2010-08-27T13:10:04Z</time>
      </trkpt>
      <trkpt lat="42.1197" lon="9.09807">
        <ele>1330.6020508</ele>
        <time>2010-08-27T13:10:08Z</time>
      </trkpt>
      <trkpt lat="42.11966" lon="9.09809">
        <ele>1330.6020508</ele>
        <time>2010-08-27T13:10:11Z</time>
      </trkpt>
      <trkpt lat="42.11961" lon="9.09814">
        <ele>1328.6794434</ele>
        <time>2010-08-27T13:10:18Z</time>
      </trkpt>
      <trkpt lat="42.11961" lon="9.09817">
        <ele>1330.6020508</ele>
        <time>2010-08-27T13:10:24Z</time>
      </trkpt>
      <trkpt lat="42.11962" lon="9.09818">
        <ele>1329.1599121</ele>
        <time>2010-08-27T13:10:29Z</time>
      </trkpt>
      <trkpt lat="42.11953" lon="9.09823">
        <ele>1331.0827637</ele>
        <time>2010-08-27T13:10:38Z</time>
      </trkpt>
      <trkpt lat="42.11955" lon="9.0982">
        <ele>1330.1213379</ele>
        <time>2010-08-27T13:10:42Z</time>
      </trkpt>
      <trkpt lat="42.11955" lon="9.09828">
        <ele>1327.2375488</ele>
        <time>2010-08-27T13:10:48Z</time>
      </trkpt>
      <trkpt lat="42.11953" lon="9.09833">
        <ele>1322.911377</ele>
        <time>2010-08-27T13:10:52Z</time>
      </trkpt>
      <trkpt lat="42.11952" lon="9.09836">
        <ele>1319.0661621</ele>
        <time>2010-08-27T13:10:56Z</time>
      </trkpt>
      <trkpt lat="42.11956" lon="9.09834">
        <ele>1314.7402344</ele>
        <time>2010-08-27T13:11:02Z</time>
      </trkpt>
      <trkpt lat="42.11951" lon="9.09839">
        <ele>1311.8564453</ele>
        <time>2010-08-27T13:11:09Z</time>
      </trkpt>
      <trkpt lat="42.11948" lon="9.09845">
        <ele>1312.3369141</ele>
        <time>2010-08-27T13:11:17Z</time>
      </trkpt>
      <trkpt lat="42.11949" lon="9.09849">
        <ele>1309.453125</ele>
        <time>2010-08-27T13:11:25Z</time>
      </trkpt>
      <trkpt lat="42.11947" lon="9.0985">
        <ele>1309.453125</ele>
        <time>2010-08-27T13:11:26Z</time>
      </trkpt>
      <trkpt lat="42.1194" lon="9.09858">
        <ele>1312.817627</ele>
        <time>2010-08-27T13:11:31Z</time>
      </trkpt>
      <trkpt lat="42.11939" lon="9.09862">
        <ele>1311.8564453</ele>
        <time>2010-08-27T13:11:38Z</time>
      </trkpt>
      <trkpt lat="42.11939" lon="9.0987">
        <ele>1313.7788086</ele>
        <time>2010-08-27T13:11:46Z</time>
      </trkpt>
      <trkpt lat="42.11937" lon="9.09877">
        <ele>1312.817627</ele>
        <time>2010-08-27T13:11:52Z</time>
      </trkpt>
      <trkpt lat="42.1194" lon="9.0988">
        <ele>1307.0495605</ele>
        <time>2010-08-27T13:11:58Z</time>
      </trkpt>
      <trkpt lat="42.11935" lon="9.09901">
        <ele>1295.9946289</ele>
        <time>2010-08-27T13:12:23Z</time>
      </trkpt>
      <trkpt lat="42.11937" lon="9.09899">
        <ele>1300.3205566</ele>
        <time>2010-08-27T13:12:40Z</time>
      </trkpt>
      <trkpt lat="42.11938" lon="9.09907">
        <ele>1301.2817383</ele>
        <time>2010-08-27T13:12:44Z</time>
      </trkpt>
      <trkpt lat="42.11937" lon="9.0991">
        <ele>1301.7624512</ele>
        <time>2010-08-27T13:12:46Z</time>
      </trkpt>
      <trkpt lat="42.1194" lon="9.09918">
        <ele>1309.9335938</ele>
        <time>2010-08-27T13:12:52Z</time>
      </trkpt>
      <trkpt lat="42.11941" lon="9.0992">
        <ele>1309.9335938</ele>
        <time>2010-08-27T13:12:54Z</time>
      </trkpt>
      <trkpt lat="42.11947" lon="9.09926">
        <ele>1307.0495605</ele>
        <time>2010-08-27T13:13:02Z</time>
      </trkpt>
      <trkpt lat="42.11949" lon="9.09927">
        <ele>1302.2429199</ele>
        <time>2010-08-27T13:13:06Z</time>
      </trkpt>
      <trkpt lat="42.11951" lon="9.09929">
        <ele>1298.3977051</ele>
        <time>2010-08-27T13:13:11Z</time>
      </trkpt>
      <trkpt lat="42.11949" lon="9.0993">
        <ele>1297.9172363</ele>
        <time>2010-08-27T13:13:13Z</time>
      </trkpt>
      <trkpt lat="42.11939" lon="9.0994">
        <ele>1299.8398438</ele>
        <time>2010-08-27T13:13:21Z</time>
      </trkpt>
      <trkpt lat="42.1194" lon="9.09946">
        <ele>1298.3977051</ele>
        <time>2010-08-27T13:13:29Z</time>
      </trkpt>
      <trkpt lat="42.11937" lon="9.09947">
        <ele>1297.9172363</ele>
        <time>2010-08-27T13:13:33Z</time>
      </trkpt>
      <trkpt lat="42.11933" lon="9.09946">
        <ele>1295.9946289</ele>
        <time>2010-08-27T13:13:39Z</time>
      </trkpt>
      <trkpt lat="42.11934" lon="9.09949">
        <ele>1296.4753418</ele>
        <time>2010-08-27T13:13:44Z</time>
      </trkpt>
      <trkpt lat="42.11931" lon="9.09955">
        <ele>1296.4753418</ele>
        <time>2010-08-27T13:13:50Z</time>
      </trkpt>
      <trkpt lat="42.11932" lon="9.09957">
        <ele>1298.878418</ele>
        <time>2010-08-27T13:13:55Z</time>
      </trkpt>
      <trkpt lat="42.11929" lon="9.09963">
        <ele>1293.5913086</ele>
        <time>2010-08-27T13:14:01Z</time>
      </trkpt>
      <trkpt lat="42.11922" lon="9.09967">
        <ele>1292.1494141</ele>
        <time>2010-08-27T13:14:07Z</time>
      </trkpt>
      <trkpt lat="42.11925" lon="9.09969">
        <ele>1291.668457</ele>
        <time>2010-08-27T13:14:15Z</time>
      </trkpt>
      <trkpt lat="42.11921" lon="9.09973">
        <ele>1291.1877441</ele>
        <time>2010-08-27T13:14:19Z</time>
      </trkpt>
      <trkpt lat="42.11918" lon="9.09979">
        <ele>1290.7070312</ele>
        <time>2010-08-27T13:14:25Z</time>
      </trkpt>
      <trkpt lat="42.11915" lon="9.09985">
        <ele>1290.2265625</ele>
        <time>2010-08-27T13:14:30Z</time>
      </trkpt>
      <trkpt lat="42.11912" lon="9.09989">
        <ele>1290.7070312</ele>
        <time>2010-08-27T13:14:37Z</time>
      </trkpt>
      <trkpt lat="42.11913" lon="9.09993">
        <ele>1294.0720215</ele>
        <time>2010-08-27T13:14:43Z</time>
      </trkpt>
      <trkpt lat="42.1191" lon="9.09997">
        <ele>1293.1105957</ele>
        <time>2010-08-27T13:14:49Z</time>
      </trkpt>
      <trkpt lat="42.11909" lon="9.09998">
        <ele>1292.630127</ele>
        <time>2010-08-27T13:14:50Z</time>
      </trkpt>
      <trkpt lat="42.11907" lon="9.10001">
        <ele>1291.1877441</ele>
        <time>2010-08-27T13:14:53Z</time>
      </trkpt>
      <trkpt lat="42.11903" lon="9.10009">
        <ele>1288.784668</ele>
        <time>2010-08-27T13:15:00Z</time>
      </trkpt>
      <trkpt lat="42.119" lon="9.10013">
        <ele>1286.3813477</ele>
        <time>2010-08-27T13:15:06Z</time>
      </trkpt>
      <trkpt lat="42.11899" lon="9.10017">
        <ele>1286.3813477</ele>
        <time>2010-08-27T13:15:12Z</time>
      </trkpt>
      <trkpt lat="42.11901" lon="9.10023">
        <ele>1293.5913086</ele>
        <time>2010-08-27T13:15:19Z</time>
      </trkpt>
      <trkpt lat="42.11903" lon="9.10022">
        <ele>1294.0720215</ele>
        <time>2010-08-27T13:15:22Z</time>
      </trkpt>
      <trkpt lat="42.11902" lon="9.10026">
        <ele>1291.668457</ele>
        <time>2010-08-27T13:15:28Z</time>
      </trkpt>
      <trkpt lat="42.119" lon="9.10029">
        <ele>1288.784668</ele>
        <time>2010-08-27T13:15:36Z</time>
      </trkpt>
      <trkpt lat="42.11899" lon="9.10035">
        <ele>1287.8232422</ele>
        <time>2010-08-27T13:15:44Z</time>
      </trkpt>
      <trkpt lat="42.11907" lon="9.10032">
        <ele>1283.9780273</ele>
        <time>2010-08-27T13:15:49Z</time>
      </trkpt>
      <trkpt lat="42.11902" lon="9.10035">
        <ele>1283.4973145</ele>
        <time>2010-08-27T13:15:54Z</time>
      </trkpt>
      <trkpt lat="42.11885" lon="9.10059">
        <ele>1283.9780273</ele>
        <time>2010-08-27T13:16:29Z</time>
      </trkpt>
      <trkpt lat="42.11888" lon="9.10057">
        <ele>1284.9394531</ele>
        <time>2010-08-27T13:16:31Z</time>
      </trkpt>
      <trkpt lat="42.11893" lon="9.10056">
        <ele>1289.2651367</ele>
        <time>2010-08-27T13:16:37Z</time>
      </trkpt>
      <trkpt lat="42.11894" lon="9.10059">
        <ele>1286.8618164</ele>
        <time>2010-08-27T13:16:40Z</time>
      </trkpt>
      <trkpt lat="42.11902" lon="9.10058">
        <ele>1285.9006348</ele>
        <time>2010-08-27T13:16:44Z</time>
      </trkpt>
      <trkpt lat="42.11909" lon="9.10061">
        <ele>1282.5361328</ele>
        <time>2010-08-27T13:16:53Z</time>
      </trkpt>
      <trkpt lat="42.11913" lon="9.10063">
        <ele>1283.0166016</ele>
        <time>2010-08-27T13:16:57Z</time>
      </trkpt>
      <trkpt lat="42.11899" lon="9.10073">
        <ele>1285.4199219</ele>
        <time>2010-08-27T13:17:02Z</time>
      </trkpt>
      <trkpt lat="42.119" lon="9.10076">
        <ele>1277.7294922</ele>
        <time>2010-08-27T13:17:08Z</time>
      </trkpt>
      <trkpt lat="42.11893" lon="9.10097">
        <ele>1284.4587402</ele>
        <time>2010-08-27T13:17:23Z</time>
      </trkpt>
      <trkpt lat="42.11904" lon="9.10092">
        <ele>1285.4199219</ele>
        <time>2010-08-27T13:17:27Z</time>
      </trkpt>
      <trkpt lat="42.119" lon="9.10103">
        <ele>1285.4199219</ele>
        <time>2010-08-27T13:17:35Z</time>
      </trkpt>
      <trkpt lat="42.11892" lon="9.10117">
        <ele>1283.4973145</ele>
        <time>2010-08-27T13:17:40Z</time>
      </trkpt>
      <trkpt lat="42.11899" lon="9.10124">
        <ele>1284.4587402</ele>
        <time>2010-08-27T13:17:46Z</time>
      </trkpt>
      <trkpt lat="42.119" lon="9.10128">
        <ele>1283.4973145</ele>
        <time>2010-08-27T13:17:50Z</time>
      </trkpt>
      <trkpt lat="42.11897" lon="9.10132">
        <ele>1282.5361328</ele>
        <time>2010-08-27T13:17:51Z</time>
      </trkpt>
      <trkpt lat="42.11899" lon="9.10142">
        <ele>1283.9780273</ele>
        <time>2010-08-27T13:17:57Z</time>
      </trkpt>
      <trkpt lat="42.11902" lon="9.10142">
        <ele>1286.3813477</ele>
        <time>2010-08-27T13:18:01Z</time>
      </trkpt>
      <trkpt lat="42.11905" lon="9.10151">
        <ele>1281.574707</ele>
        <time>2010-08-27T13:18:12Z</time>
      </trkpt>
      <trkpt lat="42.11904" lon="9.10155">
        <ele>1283.9780273</ele>
        <time>2010-08-27T13:18:16Z</time>
      </trkpt>
      <trkpt lat="42.11917" lon="9.10156">
        <ele>1278.690918</ele>
        <time>2010-08-27T13:18:21Z</time>
      </trkpt>
      <trkpt lat="42.11926" lon="9.10164">
        <ele>1278.2102051</ele>
        <time>2010-08-27T13:18:28Z</time>
      </trkpt>
      <trkpt lat="42.11927" lon="9.10167">
        <ele>1278.690918</ele>
        <time>2010-08-27T13:18:32Z</time>
      </trkpt>
      <trkpt lat="42.11945" lon="9.10169">
        <ele>1268.1162109</ele>
        <time>2010-08-27T13:18:46Z</time>
      </trkpt>
      <trkpt lat="42.11951" lon="9.10169">
        <ele>1266.6743164</ele>
        <time>2010-08-27T13:18:51Z</time>
      </trkpt>
      <trkpt lat="42.11952" lon="9.10178">
        <ele>1255.6191406</ele>
        <time>2010-08-27T13:19:27Z</time>
      </trkpt>
      <trkpt lat="42.11954" lon="9.10165">
        <ele>1247.9287109</ele>
        <time>2010-08-27T13:19:41Z</time>
      </trkpt>
      <trkpt lat="42.11951" lon="9.10186">
        <ele>1265.2324219</ele>
        <time>2010-08-27T13:20:44Z</time>
      </trkpt>
      <trkpt lat="42.11954" lon="9.10192">
        <ele>1271.4807129</ele>
        <time>2010-08-27T13:20:50Z</time>
      </trkpt>
      <trkpt lat="42.11943" lon="9.10184">
        <ele>1257.541748</ele>
        <time>2010-08-27T13:21:27Z</time>
      </trkpt>
      <trkpt lat="42.11941" lon="9.10187">
        <ele>1258.0224609</ele>
        <time>2010-08-27T13:21:33Z</time>
      </trkpt>
      <trkpt lat="42.1194" lon="9.10202">
        <ele>1275.8066406</ele>
        <time>2010-08-27T13:22:09Z</time>
      </trkpt>
      <trkpt lat="42.11948" lon="9.10196">
        <ele>1278.2102051</ele>
        <time>2010-08-27T13:22:16Z</time>
      </trkpt>
      <trkpt lat="42.11956" lon="9.10186">
        <ele>1274.3647461</ele>
        <time>2010-08-27T13:22:24Z</time>
      </trkpt>
      <trkpt lat="42.11955" lon="9.1018">
        <ele>1266.6743164</ele>
        <time>2010-08-27T13:22:30Z</time>
      </trkpt>
      <trkpt lat="42.11953" lon="9.10181">
        <ele>1265.2324219</ele>
        <time>2010-08-27T13:22:31Z</time>
      </trkpt>
      <trkpt lat="42.11942" lon="9.10192">
        <ele>1265.2324219</ele>
        <time>2010-08-27T13:22:37Z</time>
      </trkpt>
      <trkpt lat="42.11943" lon="9.10193">
        <ele>1267.635498</ele>
        <time>2010-08-27T13:22:43Z</time>
      </trkpt>
      <trkpt lat="42.11955" lon="9.10183">
        <ele>1268.5969238</ele>
        <time>2010-08-27T13:22:51Z</time>
      </trkpt>
      <trkpt lat="42.11959" lon="9.1018">
        <ele>1270.5195312</ele>
        <time>2010-08-27T13:23:07Z</time>
      </trkpt>
      <trkpt lat="42.11965" lon="9.10174">
        <ele>1271.0002441</ele>
        <time>2010-08-27T13:23:12Z</time>
      </trkpt>
      <trkpt lat="42.11956" lon="9.10173">
        <ele>1257.541748</ele>
        <time>2010-08-27T13:23:25Z</time>
      </trkpt>
      <trkpt lat="42.11949" lon="9.10172">
        <ele>1250.8125</ele>
        <time>2010-08-27T13:23:53Z</time>
      </trkpt>
      <trkpt lat="42.11947" lon="9.10174">
        <ele>1251.7739258</ele>
        <time>2010-08-27T13:23:59Z</time>
      </trkpt>
      <trkpt lat="42.11952" lon="9.10173">
        <ele>1256.0996094</ele>
        <time>2010-08-27T13:24:05Z</time>
      </trkpt>
      <trkpt lat="42.11961" lon="9.10171">
        <ele>1261.387207</ele>
        <time>2010-08-27T13:24:10Z</time>
      </trkpt>
      <trkpt lat="42.11964" lon="9.10173">
        <ele>1265.7131348</ele>
        <time>2010-08-27T13:24:13Z</time>
      </trkpt>
      <trkpt lat="42.11965" lon="9.10182">
        <ele>1267.635498</ele>
        <time>2010-08-27T13:24:19Z</time>
      </trkpt>
      <trkpt lat="42.11956" lon="9.102">
        <ele>1270.5195312</ele>
        <time>2010-08-27T13:24:25Z</time>
      </trkpt>
      <trkpt lat="42.11955" lon="9.10206">
        <ele>1270.5195312</ele>
        <time>2010-08-27T13:24:30Z</time>
      </trkpt>
      <trkpt lat="42.11952" lon="9.10213">
        <ele>1271.9614258</ele>
        <time>2010-08-27T13:24:34Z</time>
      </trkpt>
      <trkpt lat="42.11947" lon="9.10223">
        <ele>1270.0388184</ele>
        <time>2010-08-27T13:24:40Z</time>
      </trkpt>
      <trkpt lat="42.11955" lon="9.10226">
        <ele>1266.6743164</ele>
        <time>2010-08-27T13:24:44Z</time>
      </trkpt>
      <trkpt lat="42.11952" lon="9.10232">
        <ele>1272.4421387</ele>
        <time>2010-08-27T13:24:48Z</time>
      </trkpt>
      <trkpt lat="42.11951" lon="9.10236">
        <ele>1271.9614258</ele>
        <time>2010-08-27T13:24:49Z</time>
      </trkpt>
      <trkpt lat="42.11961" lon="9.10239">
        <ele>1268.1162109</ele>
        <time>2010-08-27T13:24:54Z</time>
      </trkpt>
      <trkpt lat="42.11954" lon="9.10249">
        <ele>1270.0388184</ele>
        <time>2010-08-27T13:24:59Z</time>
      </trkpt>
      <trkpt lat="42.11952" lon="9.10253">
        <ele>1268.1162109</ele>
        <time>2010-08-27T13:25:01Z</time>
      </trkpt>
      <trkpt lat="42.11938" lon="9.10273">
        <ele>1269.0776367</ele>
        <time>2010-08-27T13:25:07Z</time>
      </trkpt>
      <trkpt lat="42.11936" lon="9.1028">
        <ele>1267.1550293</ele>
        <time>2010-08-27T13:25:12Z</time>
      </trkpt>
      <trkpt lat="42.11938" lon="9.1028">
        <ele>1267.1550293</ele>
        <time>2010-08-27T13:25:13Z</time>
      </trkpt>
      <trkpt lat="42.11945" lon="9.10291">
        <ele>1264.2709961</ele>
        <time>2010-08-27T13:25:19Z</time>
      </trkpt>
      <trkpt lat="42.11942" lon="9.10301">
        <ele>1268.5969238</ele>
        <time>2010-08-27T13:25:25Z</time>
      </trkpt>
      <trkpt lat="42.11946" lon="9.10306">
        <ele>1272.9228516</ele>
        <time>2010-08-27T13:25:30Z</time>
      </trkpt>
      <trkpt lat="42.11944" lon="9.10309">
        <ele>1272.9228516</ele>
        <time>2010-08-27T13:25:31Z</time>
      </trkpt>
      <trkpt lat="42.11939" lon="9.10321">
        <ele>1277.7294922</ele>
        <time>2010-08-27T13:25:37Z</time>
      </trkpt>
      <trkpt lat="42.11937" lon="9.10326">
        <ele>1280.6135254</ele>
        <time>2010-08-27T13:25:41Z</time>
      </trkpt>
      <trkpt lat="42.11935" lon="9.10334">
        <ele>1280.1328125</ele>
        <time>2010-08-27T13:25:46Z</time>
      </trkpt>
      <trkpt lat="42.11937" lon="9.10333">
        <ele>1280.1328125</ele>
        <time>2010-08-27T13:25:47Z</time>
      </trkpt>
      <trkpt lat="42.11936" lon="9.10342">
        <ele>1279.6520996</ele>
        <time>2010-08-27T13:25:51Z</time>
      </trkpt>
      <trkpt lat="42.11942" lon="9.10344">
        <ele>1277.2490234</ele>
        <time>2010-08-27T13:25:56Z</time>
      </trkpt>
      <trkpt lat="42.11942" lon="9.1035">
        <ele>1278.2102051</ele>
        <time>2010-08-27T13:26:02Z</time>
      </trkpt>
      <trkpt lat="42.11943" lon="9.1036">
        <ele>1275.8066406</ele>
        <time>2010-08-27T13:26:08Z</time>
      </trkpt>
      <trkpt lat="42.1194" lon="9.10361">
        <ele>1268.5969238</ele>
        <time>2010-08-27T13:26:11Z</time>
      </trkpt>
      <trkpt lat="42.11938" lon="9.10366">
        <ele>1260.4257812</ele>
        <time>2010-08-27T13:26:16Z</time>
      </trkpt>
      <trkpt lat="42.11938" lon="9.10376">
        <ele>1265.2324219</ele>
        <time>2010-08-27T13:26:21Z</time>
      </trkpt>
      <trkpt lat="42.11935" lon="9.1038">
        <ele>1267.635498</ele>
        <time>2010-08-27T13:26:22Z</time>
      </trkpt>
      <trkpt lat="42.11928" lon="9.10385">
        <ele>1276.7683105</ele>
        <time>2010-08-27T13:26:27Z</time>
      </trkpt>
      <trkpt lat="42.11934" lon="9.10386">
        <ele>1278.690918</ele>
        <time>2010-08-27T13:26:31Z</time>
      </trkpt>
      <trkpt lat="42.11938" lon="9.10392">
        <ele>1280.6135254</ele>
        <time>2010-08-27T13:26:36Z</time>
      </trkpt>
      <trkpt lat="42.11941" lon="9.10403">
        <ele>1270.5195312</ele>
        <time>2010-08-27T13:26:44Z</time>
      </trkpt>
      <trkpt lat="42.11935" lon="9.1041">
        <ele>1271.0002441</ele>
        <time>2010-08-27T13:26:47Z</time>
      </trkpt>
      <trkpt lat="42.11941" lon="9.10411">
        <ele>1263.3098145</ele>
        <time>2010-08-27T13:26:53Z</time>
      </trkpt>
      <trkpt lat="42.11944" lon="9.10417">
        <ele>1255.1384277</ele>
        <time>2010-08-27T13:26:58Z</time>
      </trkpt>
      <trkpt lat="42.11949" lon="9.10421">
        <ele>1250.3320312</ele>
        <time>2010-08-27T13:27:08Z</time>
      </trkpt>
      <trkpt lat="42.11939" lon="9.10427">
        <ele>1245.0446777</ele>
        <time>2010-08-27T13:27:16Z</time>
      </trkpt>
      <trkpt lat="42.11939" lon="9.10446">
        <ele>1260.9064941</ele>
        <time>2010-08-27T13:27:29Z</time>
      </trkpt>
      <trkpt lat="42.1194" lon="9.10451">
        <ele>1264.2709961</ele>
        <time>2010-08-27T13:27:35Z</time>
      </trkpt>
      <trkpt lat="42.11944" lon="9.10455">
        <ele>1272.4421387</ele>
        <time>2010-08-27T13:27:40Z</time>
      </trkpt>
      <trkpt lat="42.11947" lon="9.10461">
        <ele>1279.6520996</ele>
        <time>2010-08-27T13:27:44Z</time>
      </trkpt>
      <trkpt lat="42.11946" lon="9.10468">
        <ele>1280.1328125</ele>
        <time>2010-08-27T13:27:48Z</time>
      </trkpt>
      <trkpt lat="42.11934" lon="9.1048">
        <ele>1278.2102051</ele>
        <time>2010-08-27T13:27:54Z</time>
      </trkpt>
      <trkpt lat="42.11935" lon="9.10479">
        <ele>1269.5583496</ele>
        <time>2010-08-27T13:27:59Z</time>
      </trkpt>
      <trkpt lat="42.11933" lon="9.10489">
        <ele>1268.5969238</ele>
        <time>2010-08-27T13:28:07Z</time>
      </trkpt>
      <trkpt lat="42.11936" lon="9.10498">
        <ele>1271.4807129</ele>
        <time>2010-08-27T13:28:14Z</time>
      </trkpt>
      <trkpt lat="42.11937" lon="9.10504">
        <ele>1271.4807129</ele>
        <time>2010-08-27T13:28:19Z</time>
      </trkpt>
      <trkpt lat="42.11928" lon="9.10514">
        <ele>1259.4643555</ele>
        <time>2010-08-27T13:28:30Z</time>
      </trkpt>
      <trkpt lat="42.11926" lon="9.10521">
        <ele>1258.0224609</ele>
        <time>2010-08-27T13:28:34Z</time>
      </trkpt>
      <trkpt lat="42.11925" lon="9.10528">
        <ele>1258.5029297</ele>
        <time>2010-08-27T13:28:39Z</time>
      </trkpt>
      <trkpt lat="42.11926" lon="9.10533">
        <ele>1262.3483887</ele>
        <time>2010-08-27T13:28:43Z</time>
      </trkpt>
      <trkpt lat="42.11924" lon="9.10538">
        <ele>1263.7902832</ele>
        <time>2010-08-27T13:28:48Z</time>
      </trkpt>
      <trkpt lat="42.11926" lon="9.1054">
        <ele>1266.6743164</ele>
        <time>2010-08-27T13:28:50Z</time>
      </trkpt>
      <trkpt lat="42.1193" lon="9.10549">
        <ele>1273.8840332</ele>
        <time>2010-08-27T13:28:56Z</time>
      </trkpt>
      <trkpt lat="42.11931" lon="9.10554">
        <ele>1276.7683105</ele>
        <time>2010-08-27T13:29:00Z</time>
      </trkpt>
      <trkpt lat="42.11926" lon="9.10558">
        <ele>1271.0002441</ele>
        <time>2010-08-27T13:29:04Z</time>
      </trkpt>
      <trkpt lat="42.11921" lon="9.10563">
        <ele>1263.7902832</ele>
        <time>2010-08-27T13:29:08Z</time>
      </trkpt>
      <trkpt lat="42.11916" lon="9.1057">
        <ele>1256.0996094</ele>
        <time>2010-08-27T13:29:15Z</time>
      </trkpt>
      <trkpt lat="42.11914" lon="9.10581">
        <ele>1261.8679199</ele>
        <time>2010-08-27T13:29:22Z</time>
      </trkpt>
      <trkpt lat="42.1191" lon="9.10586">
        <ele>1260.9064941</ele>
        <time>2010-08-27T13:29:26Z</time>
      </trkpt>
      <trkpt lat="42.11909" lon="9.10593">
        <ele>1260.9064941</ele>
        <time>2010-08-27T13:29:32Z</time>
      </trkpt>
      <trkpt lat="42.11912" lon="9.10599">
        <ele>1257.541748</ele>
        <time>2010-08-27T13:29:39Z</time>
      </trkpt>
      <trkpt lat="42.11909" lon="9.106">
        <ele>1254.6577148</ele>
        <time>2010-08-27T13:29:44Z</time>
      </trkpt>
      <trkpt lat="42.11908" lon="9.10604">
        <ele>1255.1384277</ele>
        <time>2010-08-27T13:29:51Z</time>
      </trkpt>
      <trkpt lat="42.11899" lon="9.10602">
        <ele>1238.7961426</ele>
        <time>2010-08-27T13:30:25Z</time>
      </trkpt>
      <trkpt lat="42.11903" lon="9.10633">
        <ele>1226.2988281</ele>
        <time>2010-08-27T13:31:37Z</time>
      </trkpt>
      <trkpt lat="42.11904" lon="9.10645">
        <ele>1233.5087891</ele>
        <time>2010-08-27T13:31:43Z</time>
      </trkpt>
      <trkpt lat="42.11908" lon="9.10651">
        <ele>1240.7185059</ele>
        <time>2010-08-27T13:31:47Z</time>
      </trkpt>
      <trkpt lat="42.11908" lon="9.10652">
        <ele>1241.1992188</ele>
        <time>2010-08-27T13:31:48Z</time>
      </trkpt>
      <trkpt lat="42.1191" lon="9.1066">
        <ele>1237.3540039</ele>
        <time>2010-08-27T13:31:52Z</time>
      </trkpt>
      <trkpt lat="42.1191" lon="9.10671">
        <ele>1232.0668945</ele>
        <time>2010-08-27T13:31:59Z</time>
      </trkpt>
      <trkpt lat="42.11911" lon="9.10684">
        <ele>1234.9509277</ele>
        <time>2010-08-27T13:32:06Z</time>
      </trkpt>
      <trkpt lat="42.11909" lon="9.10691">
        <ele>1229.6635742</ele>
        <time>2010-08-27T13:32:12Z</time>
      </trkpt>
      <trkpt lat="42.11906" lon="9.10692">
        <ele>1229.6635742</ele>
        <time>2010-08-27T13:32:17Z</time>
      </trkpt>
      <trkpt lat="42.11906" lon="9.10696">
        <ele>1229.1828613</ele>
        <time>2010-08-27T13:32:30Z</time>
      </trkpt>
      <trkpt lat="42.11905" lon="9.10701">
        <ele>1226.779541</ele>
        <time>2010-08-27T13:32:34Z</time>
      </trkpt>
      <trkpt lat="42.11901" lon="9.10707">
        <ele>1228.2216797</ele>
        <time>2010-08-27T13:32:40Z</time>
      </trkpt>
      <trkpt lat="42.119" lon="9.10708">
        <ele>1226.779541</ele>
        <time>2010-08-27T13:32:41Z</time>
      </trkpt>
      <trkpt lat="42.11899" lon="9.10707">
        <ele>1227.2602539</ele>
        <time>2010-08-27T13:32:43Z</time>
      </trkpt>
      <trkpt lat="42.11896" lon="9.10708">
        <ele>1226.779541</ele>
        <time>2010-08-27T13:32:45Z</time>
      </trkpt>
      <trkpt lat="42.11893" lon="9.10711">
        <ele>1227.2602539</ele>
        <time>2010-08-27T13:32:50Z</time>
      </trkpt>
      <trkpt lat="42.11887" lon="9.10715">
        <ele>1229.1828613</ele>
        <time>2010-08-27T13:32:57Z</time>
      </trkpt>
      <trkpt lat="42.11884" lon="9.10713">
        <ele>1232.5476074</ele>
        <time>2010-08-27T13:33:04Z</time>
      </trkpt>
      <trkpt lat="42.11884" lon="9.10712">
        <ele>1233.5087891</ele>
        <time>2010-08-27T13:33:13Z</time>
      </trkpt>
      <trkpt lat="42.11882" lon="9.10705">
        <ele>1235.4313965</ele>
        <time>2010-08-27T13:33:21Z</time>
      </trkpt>
      <trkpt lat="42.11881" lon="9.10709">
        <ele>1235.4313965</ele>
        <time>2010-08-27T13:33:27Z</time>
      </trkpt>
      <trkpt lat="42.11878" lon="9.10711">
        <ele>1233.989502</ele>
        <time>2010-08-27T13:33:32Z</time>
      </trkpt>
      <trkpt lat="42.11875" lon="9.10712">
        <ele>1232.0668945</ele>
        <time>2010-08-27T13:33:37Z</time>
      </trkpt>
      <trkpt lat="42.11866" lon="9.10713">
        <ele>1227.2602539</ele>
        <time>2010-08-27T13:33:43Z</time>
      </trkpt>
      <trkpt lat="42.11859" lon="9.10712">
        <ele>1222.9343262</ele>
        <time>2010-08-27T13:33:48Z</time>
      </trkpt>
      <trkpt lat="42.11852" lon="9.10742">
        <ele>1226.779541</ele>
        <time>2010-08-27T13:34:32Z</time>
      </trkpt>
      <trkpt lat="42.11836" lon="9.1075">
        <ele>1217.6469727</ele>
        <time>2010-08-27T13:34:52Z</time>
      </trkpt>
      <trkpt lat="42.1183" lon="9.10756">
        <ele>1219.0891113</ele>
        <time>2010-08-27T13:34:58Z</time>
      </trkpt>
      <trkpt lat="42.11832" lon="9.10759">
        <ele>1218.6083984</ele>
        <time>2010-08-27T13:35:04Z</time>
      </trkpt>
      <trkpt lat="42.11827" lon="9.10764">
        <ele>1215.7246094</ele>
        <time>2010-08-27T13:35:10Z</time>
      </trkpt>
      <trkpt lat="42.11823" lon="9.10771">
        <ele>1214.2824707</ele>
        <time>2010-08-27T13:35:15Z</time>
      </trkpt>
      <trkpt lat="42.11816" lon="9.10776">
        <ele>1213.8017578</ele>
        <time>2010-08-27T13:35:22Z</time>
      </trkpt>
      <trkpt lat="42.11803" lon="9.10792">
        <ele>1202.746582</ele>
        <time>2010-08-27T13:35:57Z</time>
      </trkpt>
      <trkpt lat="42.11805" lon="9.10796">
        <ele>1200.3435059</ele>
        <time>2010-08-27T13:36:01Z</time>
      </trkpt>
      <trkpt lat="42.11801" lon="9.10799">
        <ele>1201.7854004</ele>
        <time>2010-08-27T13:36:18Z</time>
      </trkpt>
      <trkpt lat="42.11798" lon="9.10804">
        <ele>1200.3435059</ele>
        <time>2010-08-27T13:36:24Z</time>
      </trkpt>
      <trkpt lat="42.11784" lon="9.10819">
        <ele>1175.348877</ele>
        <time>2010-08-27T13:37:12Z</time>
      </trkpt>
      <trkpt lat="42.11788" lon="9.10825">
        <ele>1183.0395508</ele>
        <time>2010-08-27T13:37:18Z</time>
      </trkpt>
      <trkpt lat="42.11789" lon="9.10828">
        <ele>1182.559082</ele>
        <time>2010-08-27T13:37:23Z</time>
      </trkpt>
      <trkpt lat="42.11788" lon="9.10834">
        <ele>1182.559082</ele>
        <time>2010-08-27T13:37:28Z</time>
      </trkpt>
      <trkpt lat="42.1178" lon="9.10835">
        <ele>1177.2717285</ele>
        <time>2010-08-27T13:37:39Z</time>
      </trkpt>
      <trkpt lat="42.11772" lon="9.10837">
        <ele>1178.2329102</ele>
        <time>2010-08-27T13:37:44Z</time>
      </trkpt>
      <trkpt lat="42.11773" lon="9.10839">
        <ele>1178.713623</ele>
        <time>2010-08-27T13:37:48Z</time>
      </trkpt>
      <trkpt lat="42.11769" lon="9.1084">
        <ele>1170.5424805</ele>
        <time>2010-08-27T13:37:56Z</time>
      </trkpt>
      <trkpt lat="42.11769" lon="9.10848">
        <ele>1166.2165527</ele>
        <time>2010-08-27T13:38:02Z</time>
      </trkpt>
      <trkpt lat="42.11754" lon="9.10844">
        <ele>1162.3710938</ele>
        <time>2010-08-27T13:38:15Z</time>
      </trkpt>
      <trkpt lat="42.11755" lon="9.10844">
        <ele>1158.5258789</ele>
        <time>2010-08-27T13:38:19Z</time>
      </trkpt>
      <trkpt lat="42.11759" lon="9.10851">
        <ele>1158.0454102</ele>
        <time>2010-08-27T13:38:27Z</time>
      </trkpt>
      <trkpt lat="42.11764" lon="9.10855">
        <ele>1160.4484863</ele>
        <time>2010-08-27T13:38:33Z</time>
      </trkpt>
      <trkpt lat="42.11767" lon="9.10857">
        <ele>1159.9677734</ele>
        <time>2010-08-27T13:38:38Z</time>
      </trkpt>
      <trkpt lat="42.11778" lon="9.10867">
        <ele>1172.9458008</ele>
        <time>2010-08-27T13:38:51Z</time>
      </trkpt>
      <trkpt lat="42.11766" lon="9.10871">
        <ele>1153.7194824</ele>
        <time>2010-08-27T13:39:06Z</time>
      </trkpt>
      <trkpt lat="42.11764" lon="9.1087">
        <ele>1150.8354492</ele>
        <time>2010-08-27T13:39:09Z</time>
      </trkpt>
      <trkpt lat="42.1175" lon="9.10862">
        <ele>1134.4931641</ele>
        <time>2010-08-27T13:39:17Z</time>
      </trkpt>
      <trkpt lat="42.11749" lon="9.10865">
        <ele>1133.5317383</ele>
        <time>2010-08-27T13:39:19Z</time>
      </trkpt>
      <trkpt lat="42.11746" lon="9.10859">
        <ele>1134.0124512</ele>
        <time>2010-08-27T13:39:24Z</time>
      </trkpt>
      <trkpt lat="42.11751" lon="9.10865">
        <ele>1140.7414551</ele>
        <time>2010-08-27T13:39:35Z</time>
      </trkpt>
      <trkpt lat="42.11754" lon="9.10867">
        <ele>1145.5480957</ele>
        <time>2010-08-27T13:39:36Z</time>
      </trkpt>
      <trkpt lat="42.1177" lon="9.1088">
        <ele>1163.8129883</ele>
        <time>2010-08-27T13:39:41Z</time>
      </trkpt>
      <trkpt lat="42.11766" lon="9.10884">
        <ele>1161.890625</ele>
        <time>2010-08-27T13:39:46Z</time>
      </trkpt>
      <trkpt lat="42.11767" lon="9.10891">
        <ele>1160.4484863</ele>
        <time>2010-08-27T13:39:52Z</time>
      </trkpt>
      <trkpt lat="42.11765" lon="9.10894">
        <ele>1165.736084</ele>
        <time>2010-08-27T13:39:57Z</time>
      </trkpt>
      <trkpt lat="42.11757" lon="9.10901">
        <ele>1162.8518066</ele>
        <time>2010-08-27T13:40:05Z</time>
      </trkpt>
      <trkpt lat="42.11761" lon="9.10904">
        <ele>1155.6420898</ele>
        <time>2010-08-27T13:40:09Z</time>
      </trkpt>
      <trkpt lat="42.11763" lon="9.10904">
        <ele>1157.5646973</ele>
        <time>2010-08-27T13:40:13Z</time>
      </trkpt>
      <trkpt lat="42.11768" lon="9.10909">
        <ele>1152.2773438</ele>
        <time>2010-08-27T13:40:18Z</time>
      </trkpt>
      <trkpt lat="42.11757" lon="9.10912">
        <ele>1150.3549805</ele>
        <time>2010-08-27T13:40:26Z</time>
      </trkpt>
      <trkpt lat="42.11752" lon="9.10915">
        <ele>1150.3549805</ele>
        <time>2010-08-27T13:40:29Z</time>
      </trkpt>
      <trkpt lat="42.1175" lon="9.10918">
        <ele>1143.6254883</ele>
        <time>2010-08-27T13:40:35Z</time>
      </trkpt>
      <trkpt lat="42.11746" lon="9.10923">
        <ele>1141.7028809</ele>
        <time>2010-08-27T13:40:41Z</time>
      </trkpt>
      <trkpt lat="42.11739" lon="9.10932">
        <ele>1144.5866699</ele>
        <time>2010-08-27T13:40:50Z</time>
      </trkpt>
      <trkpt lat="42.11737" lon="9.10932">
        <ele>1146.9899902</ele>
        <time>2010-08-27T13:40:53Z</time>
      </trkpt>
      <trkpt lat="42.11734" lon="9.10933">
        <ele>1150.3549805</ele>
        <time>2010-08-27T13:40:58Z</time>
      </trkpt>
      <trkpt lat="42.11728" lon="9.10934">
        <ele>1152.2773438</ele>
        <time>2010-08-27T13:41:05Z</time>
      </trkpt>
      <trkpt lat="42.1173" lon="9.1094">
        <ele>1154.2001953</ele>
        <time>2010-08-27T13:41:11Z</time>
      </trkpt>
      <trkpt lat="42.11729" lon="9.10952">
        <ele>1146.0288086</ele>
        <time>2010-08-27T13:41:34Z</time>
      </trkpt>
      <trkpt lat="42.11726" lon="9.1095">
        <ele>1142.1835938</ele>
        <time>2010-08-27T13:41:38Z</time>
      </trkpt>
      <trkpt lat="42.11721" lon="9.1095">
        <ele>1142.6643066</ele>
        <time>2010-08-27T13:41:43Z</time>
      </trkpt>
      <trkpt lat="42.1172" lon="9.10958">
        <ele>1138.3383789</ele>
        <time>2010-08-27T13:41:50Z</time>
      </trkpt>
      <trkpt lat="42.11718" lon="9.10959">
        <ele>1137.857666</ele>
        <time>2010-08-27T13:41:51Z</time>
      </trkpt>
      <trkpt lat="42.11713" lon="9.10964">
        <ele>1134.0124512</ele>
        <time>2010-08-27T13:41:57Z</time>
      </trkpt>
      <trkpt lat="42.11709" lon="9.10971">
        <ele>1133.5317383</ele>
        <time>2010-08-27T13:42:02Z</time>
      </trkpt>
      <trkpt lat="42.11703" lon="9.10977">
        <ele>1133.0510254</ele>
        <time>2010-08-27T13:42:10Z</time>
      </trkpt>
      <trkpt lat="42.11692" lon="9.10975">
        <ele>1126.3217773</ele>
        <time>2010-08-27T13:42:16Z</time>
      </trkpt>
      <trkpt lat="42.11698" lon="9.10988">
        <ele>1136.4157715</ele>
        <time>2010-08-27T13:42:32Z</time>
      </trkpt>
      <trkpt lat="42.11689" lon="9.10994">
        <ele>1128.7250977</ele>
        <time>2010-08-27T13:42:40Z</time>
      </trkpt>
      <trkpt lat="42.11682" lon="9.10997">
        <ele>1123.4379883</ele>
        <time>2010-08-27T13:42:44Z</time>
      </trkpt>
      <trkpt lat="42.11676" lon="9.11002">
        <ele>1124.8798828</ele>
        <time>2010-08-27T13:42:48Z</time>
      </trkpt>
      <trkpt lat="42.11668" lon="9.11002">
        <ele>1124.8798828</ele>
        <time>2010-08-27T13:42:52Z</time>
      </trkpt>
      <trkpt lat="42.11679" lon="9.11012">
        <ele>1138.8190918</ele>
        <time>2010-08-27T13:43:01Z</time>
      </trkpt>
      <trkpt lat="42.11676" lon="9.11019">
        <ele>1138.3383789</ele>
        <time>2010-08-27T13:43:07Z</time>
      </trkpt>
      <trkpt lat="42.11664" lon="9.11028">
        <ele>1131.128418</ele>
        <time>2010-08-27T13:43:20Z</time>
      </trkpt>
      <trkpt lat="42.11659" lon="9.1103">
        <ele>1127.7636719</ele>
        <time>2010-08-27T13:43:24Z</time>
      </trkpt>
      <trkpt lat="42.11657" lon="9.11039">
        <ele>1120.5539551</ele>
        <time>2010-08-27T13:43:35Z</time>
      </trkpt>
      <trkpt lat="42.11664" lon="9.11046">
        <ele>1121.034668</ele>
        <time>2010-08-27T13:43:47Z</time>
      </trkpt>
      <trkpt lat="42.11662" lon="9.11055">
        <ele>1120.5539551</ele>
        <time>2010-08-27T13:44:00Z</time>
      </trkpt>
      <trkpt lat="42.11653" lon="9.11056">
        <ele>1120.0732422</ele>
        <time>2010-08-27T13:44:04Z</time>
      </trkpt>
      <trkpt lat="42.11646" lon="9.11063">
        <ele>1118.6313477</ele>
        <time>2010-08-27T13:44:10Z</time>
      </trkpt>
      <trkpt lat="42.11644" lon="9.11069">
        <ele>1120.5539551</ele>
        <time>2010-08-27T13:44:15Z</time>
      </trkpt>
      <trkpt lat="42.11648" lon="9.11075">
        <ele>1124.3991699</ele>
        <time>2010-08-27T13:44:24Z</time>
      </trkpt>
      <trkpt lat="42.11642" lon="9.11077">
        <ele>1115.7473145</ele>
        <time>2010-08-27T13:44:31Z</time>
      </trkpt>
      <trkpt lat="42.11636" lon="9.1108">
        <ele>1113.8244629</ele>
        <time>2010-08-27T13:44:38Z</time>
      </trkpt>
      <trkpt lat="42.1163" lon="9.11085">
        <ele>1111.4213867</ele>
        <time>2010-08-27T13:44:45Z</time>
      </trkpt>
      <trkpt lat="42.11629" lon="9.11085">
        <ele>1109.0180664</ele>
        <time>2010-08-27T13:44:49Z</time>
      </trkpt>
      <trkpt lat="42.11624" lon="9.11096">
        <ele>1111.4213867</ele>
        <time>2010-08-27T13:45:01Z</time>
      </trkpt>
      <trkpt lat="42.11621" lon="9.11102">
        <ele>1117.1894531</ele>
        <time>2010-08-27T13:45:13Z</time>
      </trkpt>
      <trkpt lat="42.11622" lon="9.11103">
        <ele>1116.7087402</ele>
        <time>2010-08-27T13:45:17Z</time>
      </trkpt>
      <trkpt lat="42.11622" lon="9.11112">
        <ele>1118.1506348</ele>
        <time>2010-08-27T13:45:23Z</time>
      </trkpt>
      <trkpt lat="42.11618" lon="9.11129">
        <ele>1120.5539551</ele>
        <time>2010-08-27T13:45:30Z</time>
      </trkpt>
      <trkpt lat="42.11623" lon="9.11137">
        <ele>1125.8410645</ele>
        <time>2010-08-27T13:45:35Z</time>
      </trkpt>
      <trkpt lat="42.11631" lon="9.11145">
        <ele>1139.7802734</ele>
        <time>2010-08-27T13:45:41Z</time>
      </trkpt>
      <trkpt lat="42.1163" lon="9.1115">
        <ele>1141.222168</ele>
        <time>2010-08-27T13:45:45Z</time>
      </trkpt>
      <trkpt lat="42.11616" lon="9.11153">
        <ele>1124.3991699</ele>
        <time>2010-08-27T13:45:52Z</time>
      </trkpt>
      <trkpt lat="42.11614" lon="9.11152">
        <ele>1123.4379883</ele>
        <time>2010-08-27T13:45:53Z</time>
      </trkpt>
      <trkpt lat="42.11603" lon="9.11153">
        <ele>1119.5927734</ele>
        <time>2010-08-27T13:45:57Z</time>
      </trkpt>
      <trkpt lat="42.11609" lon="9.11161">
        <ele>1119.1120605</ele>
        <time>2010-08-27T13:46:02Z</time>
      </trkpt>
      <trkpt lat="42.11608" lon="9.11166">
        <ele>1113.8244629</ele>
        <time>2010-08-27T13:46:06Z</time>
      </trkpt>
      <trkpt lat="42.11607" lon="9.11171">
        <ele>1108.5373535</ele>
        <time>2010-08-27T13:46:10Z</time>
      </trkpt>
      <trkpt lat="42.11618" lon="9.11181">
        <ele>1115.2666016</ele>
        <time>2010-08-27T13:46:16Z</time>
      </trkpt>
      <trkpt lat="42.11619" lon="9.11193">
        <ele>1125.3603516</ele>
        <time>2010-08-27T13:46:24Z</time>
      </trkpt>
      <trkpt lat="42.11623" lon="9.11193">
        <ele>1125.3603516</ele>
        <time>2010-08-27T13:46:26Z</time>
      </trkpt>
      <trkpt lat="42.11627" lon="9.11196">
        <ele>1122.9572754</ele>
        <time>2010-08-27T13:46:30Z</time>
      </trkpt>
      <trkpt lat="42.11616" lon="9.11206">
        <ele>1105.1728516</ele>
        <time>2010-08-27T13:46:39Z</time>
      </trkpt>
      <trkpt lat="42.11611" lon="9.1121">
        <ele>1097.9628906</ele>
        <time>2010-08-27T13:46:43Z</time>
      </trkpt>
      <trkpt lat="42.11617" lon="9.11214">
        <ele>1095.5595703</ele>
        <time>2010-08-27T13:46:49Z</time>
      </trkpt>
      <trkpt lat="42.11638" lon="9.11226">
        <ele>1109.979248</ele>
        <time>2010-08-27T13:46:58Z</time>
      </trkpt>
      <trkpt lat="42.11639" lon="9.11232">
        <ele>1107.5761719</ele>
        <time>2010-08-27T13:47:04Z</time>
      </trkpt>
      <trkpt lat="42.11643" lon="9.1124">
        <ele>1111.9020996</ele>
        <time>2010-08-27T13:47:08Z</time>
      </trkpt>
      <trkpt lat="42.11645" lon="9.11248">
        <ele>1116.2280273</ele>
        <time>2010-08-27T13:47:12Z</time>
      </trkpt>
      <trkpt lat="42.11647" lon="9.11255">
        <ele>1110.9406738</ele>
        <time>2010-08-27T13:47:19Z</time>
      </trkpt>
      <trkpt lat="42.11651" lon="9.11264">
        <ele>1118.1506348</ele>
        <time>2010-08-27T13:47:23Z</time>
      </trkpt>
      <trkpt lat="42.11649" lon="9.11274">
        <ele>1120.0732422</ele>
        <time>2010-08-27T13:47:28Z</time>
      </trkpt>
      <trkpt lat="42.11647" lon="9.1128">
        <ele>1123.918457</ele>
        <time>2010-08-27T13:47:32Z</time>
      </trkpt>
      <trkpt lat="42.11643" lon="9.11292">
        <ele>1119.5927734</ele>
        <time>2010-08-27T13:47:38Z</time>
      </trkpt>
      <trkpt lat="42.11633" lon="9.11297">
        <ele>1113.3439941</ele>
        <time>2010-08-27T13:47:54Z</time>
      </trkpt>
      <trkpt lat="42.11636" lon="9.11306">
        <ele>1117.6699219</ele>
        <time>2010-08-27T13:48:00Z</time>
      </trkpt>
      <trkpt lat="42.1164" lon="9.11309">
        <ele>1119.5927734</ele>
        <time>2010-08-27T13:48:04Z</time>
      </trkpt>
      <trkpt lat="42.11644" lon="9.11325">
        <ele>1138.3383789</ele>
        <time>2010-08-27T13:48:14Z</time>
      </trkpt>
      <trkpt lat="42.11642" lon="9.11329">
        <ele>1135.9350586</ele>
        <time>2010-08-27T13:48:19Z</time>
      </trkpt>
      <trkpt lat="42.11633" lon="9.11325">
        <ele>1128.7250977</ele>
        <time>2010-08-27T13:48:28Z</time>
      </trkpt>
      <trkpt lat="42.11614" lon="9.11319">
        <ele>1118.6313477</ele>
        <time>2010-08-27T13:48:35Z</time>
      </trkpt>
      <trkpt lat="42.1161" lon="9.11322">
        <ele>1110.4599609</ele>
        <time>2010-08-27T13:48:41Z</time>
      </trkpt>
      <trkpt lat="42.11596" lon="9.11323">
        <ele>1091.2336426</ele>
        <time>2010-08-27T13:49:05Z</time>
      </trkpt>
      <trkpt lat="42.11626" lon="9.11327">
        <ele>1117.1894531</ele>
        <time>2010-08-27T13:49:59Z</time>
      </trkpt>
      <trkpt lat="42.11625" lon="9.11322">
        <ele>1109.0180664</ele>
        <time>2010-08-27T13:50:05Z</time>
      </trkpt>
      <trkpt lat="42.1163" lon="9.11321">
        <ele>1114.7858887</ele>
        <time>2010-08-27T13:50:12Z</time>
      </trkpt>
      <trkpt lat="42.11628" lon="9.11318">
        <ele>1115.2666016</ele>
        <time>2010-08-27T13:50:27Z</time>
      </trkpt>
      <trkpt lat="42.11642" lon="9.11322">
        <ele>1127.7636719</ele>
        <time>2010-08-27T13:50:34Z</time>
      </trkpt>
      <trkpt lat="42.11637" lon="9.11324">
        <ele>1123.4379883</ele>
        <time>2010-08-27T13:50:39Z</time>
      </trkpt>
      <trkpt lat="42.11631" lon="9.11321">
        <ele>1107.095459</ele>
        <time>2010-08-27T13:51:05Z</time>
      </trkpt>
      <trkpt lat="42.11632" lon="9.11323">
        <ele>1108.5373535</ele>
        <time>2010-08-27T13:51:09Z</time>
      </trkpt>
      <trkpt lat="42.11636" lon="9.11322">
        <ele>1124.3991699</ele>
        <time>2010-08-27T13:51:19Z</time>
      </trkpt>
      <trkpt lat="42.1164" lon="9.11323">
        <ele>1131.128418</ele>
        <time>2010-08-27T13:51:24Z</time>
      </trkpt>
      <trkpt lat="42.11647" lon="9.11324">
        <ele>1135.4543457</ele>
        <time>2010-08-27T13:51:28Z</time>
      </trkpt>
      <trkpt lat="42.11653" lon="9.11323">
        <ele>1137.857666</ele>
        <time>2010-08-27T13:51:35Z</time>
      </trkpt>
      <trkpt lat="42.11658" lon="9.11323">
        <ele>1140.2609863</ele>
        <time>2010-08-27T13:51:42Z</time>
      </trkpt>
      <trkpt lat="42.11668" lon="9.11326">
        <ele>1143.6254883</ele>
        <time>2010-08-27T13:51:48Z</time>
      </trkpt>
      <trkpt lat="42.11677" lon="9.1133">
        <ele>1149.3935547</ele>
        <time>2010-08-27T13:51:53Z</time>
      </trkpt>
      <trkpt lat="42.11676" lon="9.11331">
        <ele>1151.796875</ele>
        <time>2010-08-27T13:51:57Z</time>
      </trkpt>
      <trkpt lat="42.11674" lon="9.11335">
        <ele>1152.2773438</ele>
        <time>2010-08-27T13:52:07Z</time>
      </trkpt>
      <trkpt lat="42.11671" lon="9.11335">
        <ele>1142.6643066</ele>
        <time>2010-08-27T13:52:12Z</time>
      </trkpt>
      <trkpt lat="42.11663" lon="9.11333">
        <ele>1133.0510254</ele>
        <time>2010-08-27T13:52:19Z</time>
      </trkpt>
      <trkpt lat="42.11634" lon="9.11323">
        <ele>1130.6477051</ele>
        <time>2010-08-27T13:52:38Z</time>
      </trkpt>
      <trkpt lat="42.1165" lon="9.11327">
        <ele>1144.1062012</ele>
        <time>2010-08-27T13:52:52Z</time>
      </trkpt>
      <trkpt lat="42.11649" lon="9.11329">
        <ele>1146.9899902</ele>
        <time>2010-08-27T13:52:58Z</time>
      </trkpt>
      <trkpt lat="42.11643" lon="9.11333">
        <ele>1154.6806641</ele>
        <time>2010-08-27T13:53:12Z</time>
      </trkpt>
      <trkpt lat="42.11654" lon="9.11337">
        <ele>1165.2553711</ele>
        <time>2010-08-27T13:53:21Z</time>
      </trkpt>
      <trkpt lat="42.1166" lon="9.11341">
        <ele>1159.9677734</ele>
        <time>2010-08-27T13:53:27Z</time>
      </trkpt>
      <trkpt lat="42.11634" lon="9.11334">
        <ele>1138.3383789</ele>
        <time>2010-08-27T13:53:42Z</time>
      </trkpt>
      <trkpt lat="42.11628" lon="9.11334">
        <ele>1134.0124512</ele>
        <time>2010-08-27T13:53:48Z</time>
      </trkpt>
      <trkpt lat="42.11629" lon="9.11333">
        <ele>1131.6088867</ele>
        <time>2010-08-27T13:54:14Z</time>
      </trkpt>
      <trkpt lat="42.11634" lon="9.11332">
        <ele>1131.128418</ele>
        <time>2010-08-27T13:54:20Z</time>
      </trkpt>
      <trkpt lat="42.11642" lon="9.11327">
        <ele>1121.5151367</ele>
        <time>2010-08-27T13:54:51Z</time>
      </trkpt>
      <trkpt lat="42.11651" lon="9.11339">
        <ele>1146.0288086</ele>
        <time>2010-08-27T13:55:08Z</time>
      </trkpt>
      <trkpt lat="42.1165" lon="9.11334">
        <ele>1136.8962402</ele>
        <time>2010-08-27T13:55:18Z</time>
      </trkpt>
      <trkpt lat="42.11651" lon="9.11333">
        <ele>1139.2995605</ele>
        <time>2010-08-27T13:56:49Z</time>
      </trkpt>
      <trkpt lat="42.11634" lon="9.11341">
        <ele>1129.6862793</ele>
        <time>2010-08-27T13:57:02Z</time>
      </trkpt>
      <trkpt lat="42.11629" lon="9.11358">
        <ele>1133.0510254</ele>
        <time>2010-08-27T13:57:11Z</time>
      </trkpt>
      <trkpt lat="42.11622" lon="9.11381">
        <ele>1140.2609863</ele>
        <time>2010-08-27T13:57:35Z</time>
      </trkpt>
      <trkpt lat="42.11627" lon="9.11389">
        <ele>1144.1062012</ele>
        <time>2010-08-27T13:57:38Z</time>
      </trkpt>
      <trkpt lat="42.11633" lon="9.11403">
        <ele>1145.5480957</ele>
        <time>2010-08-27T13:57:44Z</time>
      </trkpt>
      <trkpt lat="42.11631" lon="9.11413">
        <ele>1143.1447754</ele>
        <time>2010-08-27T13:57:49Z</time>
      </trkpt>
      <trkpt lat="42.11624" lon="9.1142">
        <ele>1140.2609863</ele>
        <time>2010-08-27T13:57:54Z</time>
      </trkpt>
      <trkpt lat="42.11613" lon="9.11419">
        <ele>1132.5705566</ele>
        <time>2010-08-27T13:57:58Z</time>
      </trkpt>
      <trkpt lat="42.11602" lon="9.11421">
        <ele>1129.6862793</ele>
        <time>2010-08-27T13:58:04Z</time>
      </trkpt>
      <trkpt lat="42.116" lon="9.1143">
        <ele>1132.0898438</ele>
        <time>2010-08-27T13:58:08Z</time>
      </trkpt>
      <trkpt lat="42.11595" lon="9.11433">
        <ele>1133.0510254</ele>
        <time>2010-08-27T13:58:11Z</time>
      </trkpt>
      <trkpt lat="42.11586" lon="9.11442">
        <ele>1130.1669922</ele>
        <time>2010-08-27T13:58:17Z</time>
      </trkpt>
      <trkpt lat="42.11573" lon="9.1145">
        <ele>1130.6477051</ele>
        <time>2010-08-27T13:58:26Z</time>
      </trkpt>
      <trkpt lat="42.1157" lon="9.11454">
        <ele>1128.2443848</ele>
        <time>2010-08-27T13:58:32Z</time>
      </trkpt>
      <trkpt lat="42.11576" lon="9.11466">
        <ele>1131.128418</ele>
        <time>2010-08-27T13:58:37Z</time>
      </trkpt>
      <trkpt lat="42.11577" lon="9.11479">
        <ele>1132.0898438</ele>
        <time>2010-08-27T13:58:43Z</time>
      </trkpt>
      <trkpt lat="42.11578" lon="9.11481">
        <ele>1134.0124512</ele>
        <time>2010-08-27T13:58:45Z</time>
      </trkpt>
      <trkpt lat="42.11567" lon="9.1149">
        <ele>1131.6088867</ele>
        <time>2010-08-27T13:58:52Z</time>
      </trkpt>
      <trkpt lat="42.11568" lon="9.11498">
        <ele>1132.0898438</ele>
        <time>2010-08-27T13:58:57Z</time>
      </trkpt>
      <trkpt lat="42.11573" lon="9.11508">
        <ele>1125.3603516</ele>
        <time>2010-08-27T13:59:04Z</time>
      </trkpt>
      <trkpt lat="42.1157" lon="9.11508">
        <ele>1123.4379883</ele>
        <time>2010-08-27T13:59:06Z</time>
      </trkpt>
      <trkpt lat="42.11554" lon="9.11511">
        <ele>1106.6147461</ele>
        <time>2010-08-27T13:59:12Z</time>
      </trkpt>
      <trkpt lat="42.11552" lon="9.11517">
        <ele>1102.7695312</ele>
        <time>2010-08-27T13:59:17Z</time>
      </trkpt>
      <trkpt lat="42.11548" lon="9.11523">
        <ele>1102.2888184</ele>
        <time>2010-08-27T13:59:22Z</time>
      </trkpt>
      <trkpt lat="42.11549" lon="9.11531">
        <ele>1104.2116699</ele>
        <time>2010-08-27T13:59:26Z</time>
      </trkpt>
      <trkpt lat="42.11553" lon="9.11541">
        <ele>1108.5373535</ele>
        <time>2010-08-27T13:59:30Z</time>
      </trkpt>
      <trkpt lat="42.11559" lon="9.11552">
        <ele>1112.8632812</ele>
        <time>2010-08-27T13:59:35Z</time>
      </trkpt>
      <trkpt lat="42.11564" lon="9.11564">
        <ele>1122.9572754</ele>
        <time>2010-08-27T13:59:39Z</time>
      </trkpt>
      <trkpt lat="42.11571" lon="9.11573">
        <ele>1128.7250977</ele>
        <time>2010-08-27T13:59:43Z</time>
      </trkpt>
      <trkpt lat="42.11578" lon="9.11591">
        <ele>1130.1669922</ele>
        <time>2010-08-27T13:59:50Z</time>
      </trkpt>
      <trkpt lat="42.1159" lon="9.11604">
        <ele>1137.857666</ele>
        <time>2010-08-27T13:59:56Z</time>
      </trkpt>
      <trkpt lat="42.11583" lon="9.1161">
        <ele>1128.7250977</ele>
        <time>2010-08-27T14:00:01Z</time>
      </trkpt>
      <trkpt lat="42.11583" lon="9.11613">
        <ele>1127.2832031</ele>
        <time>2010-08-27T14:00:02Z</time>
      </trkpt>
      <trkpt lat="42.11579" lon="9.11619">
        <ele>1124.3991699</ele>
        <time>2010-08-27T14:00:05Z</time>
      </trkpt>
      <trkpt lat="42.11573" lon="9.11624">
        <ele>1122.9572754</ele>
        <time>2010-08-27T14:00:10Z</time>
      </trkpt>
      <trkpt lat="42.11569" lon="9.11628">
        <ele>1120.5539551</ele>
        <time>2010-08-27T14:00:14Z</time>
      </trkpt>
      <trkpt lat="42.11568" lon="9.11634">
        <ele>1122.4765625</ele>
        <time>2010-08-27T14:00:18Z</time>
      </trkpt>
      <trkpt lat="42.11562" lon="9.11643">
        <ele>1120.5539551</ele>
        <time>2010-08-27T14:00:24Z</time>
      </trkpt>
      <trkpt lat="42.11564" lon="9.11651">
        <ele>1123.918457</ele>
        <time>2010-08-27T14:00:29Z</time>
      </trkpt>
      <trkpt lat="42.11568" lon="9.11656">
        <ele>1122.9572754</ele>
        <time>2010-08-27T14:00:31Z</time>
      </trkpt>
      <trkpt lat="42.11567" lon="9.11668">
        <ele>1118.1506348</ele>
        <time>2010-08-27T14:00:36Z</time>
      </trkpt>
      <trkpt lat="42.11574" lon="9.11681">
        <ele>1120.0732422</ele>
        <time>2010-08-27T14:00:44Z</time>
      </trkpt>
      <trkpt lat="42.11576" lon="9.11692">
        <ele>1118.1506348</ele>
        <time>2010-08-27T14:00:49Z</time>
      </trkpt>
      <trkpt lat="42.11578" lon="9.11698">
        <ele>1117.6699219</ele>
        <time>2010-08-27T14:00:52Z</time>
      </trkpt>
      <trkpt lat="42.11579" lon="9.11711">
        <ele>1119.1120605</ele>
        <time>2010-08-27T14:01:00Z</time>
      </trkpt>
      <trkpt lat="42.11578" lon="9.11719">
        <ele>1116.2280273</ele>
        <time>2010-08-27T14:01:04Z</time>
      </trkpt>
      <trkpt lat="42.11575" lon="9.1173">
        <ele>1117.6699219</ele>
        <time>2010-08-27T14:01:10Z</time>
      </trkpt>
      <trkpt lat="42.11575" lon="9.11738">
        <ele>1118.1506348</ele>
        <time>2010-08-27T14:01:14Z</time>
      </trkpt>
      <trkpt lat="42.11573" lon="9.11751">
        <ele>1114.7858887</ele>
        <time>2010-08-27T14:01:22Z</time>
      </trkpt>
      <trkpt lat="42.11576" lon="9.11764">
        <ele>1122.4765625</ele>
        <time>2010-08-27T14:01:28Z</time>
      </trkpt>
      <trkpt lat="42.11573" lon="9.11767">
        <ele>1121.9958496</ele>
        <time>2010-08-27T14:01:30Z</time>
      </trkpt>
      <trkpt lat="42.11572" lon="9.11779">
        <ele>1118.6313477</ele>
        <time>2010-08-27T14:01:38Z</time>
      </trkpt>
      <trkpt lat="42.11573" lon="9.11786">
        <ele>1118.6313477</ele>
        <time>2010-08-27T14:01:43Z</time>
      </trkpt>
      <trkpt lat="42.11573" lon="9.11788">
        <ele>1118.1506348</ele>
        <time>2010-08-27T14:01:44Z</time>
      </trkpt>
      <trkpt lat="42.11573" lon="9.11802">
        <ele>1116.7087402</ele>
        <time>2010-08-27T14:01:51Z</time>
      </trkpt>
      <trkpt lat="42.11579" lon="9.1181">
        <ele>1123.918457</ele>
        <time>2010-08-27T14:01:55Z</time>
      </trkpt>
      <trkpt lat="42.11572" lon="9.11814">
        <ele>1122.4765625</ele>
        <time>2010-08-27T14:01:58Z</time>
      </trkpt>
      <trkpt lat="42.11572" lon="9.11822">
        <ele>1129.2055664</ele>
        <time>2010-08-27T14:02:04Z</time>
      </trkpt>
      <trkpt lat="42.11585" lon="9.11836">
        <ele>1131.6088867</ele>
        <time>2010-08-27T14:02:09Z</time>
      </trkpt>
      <trkpt lat="42.11595" lon="9.11848">
        <ele>1135.9350586</ele>
        <time>2010-08-27T14:02:16Z</time>
      </trkpt>
      <trkpt lat="42.11598" lon="9.11859">
        <ele>1136.8962402</ele>
        <time>2010-08-27T14:02:22Z</time>
      </trkpt>
      <trkpt lat="42.11596" lon="9.11866">
        <ele>1127.2832031</ele>
        <time>2010-08-27T14:02:26Z</time>
      </trkpt>
      <trkpt lat="42.116" lon="9.11878">
        <ele>1123.4379883</ele>
        <time>2010-08-27T14:02:33Z</time>
      </trkpt>
      <trkpt lat="42.116" lon="9.11887">
        <ele>1120.0732422</ele>
        <time>2010-08-27T14:02:39Z</time>
      </trkpt>
      <trkpt lat="42.11598" lon="9.11896">
        <ele>1117.1894531</ele>
        <time>2010-08-27T14:02:45Z</time>
      </trkpt>
      <trkpt lat="42.11604" lon="9.11909">
        <ele>1122.9572754</ele>
        <time>2010-08-27T14:02:52Z</time>
      </trkpt>
      <trkpt lat="42.1161" lon="9.11915">
        <ele>1128.2443848</ele>
        <time>2010-08-27T14:02:56Z</time>
      </trkpt>
      <trkpt lat="42.11616" lon="9.11926">
        <ele>1127.2832031</ele>
        <time>2010-08-27T14:03:03Z</time>
      </trkpt>
      <trkpt lat="42.11619" lon="9.11931">
        <ele>1126.8024902</ele>
        <time>2010-08-27T14:03:06Z</time>
      </trkpt>
      <trkpt lat="42.11622" lon="9.11941">
        <ele>1122.4765625</ele>
        <time>2010-08-27T14:03:13Z</time>
      </trkpt>
      <trkpt lat="42.1162" lon="9.11951">
        <ele>1118.1506348</ele>
        <time>2010-08-27T14:03:19Z</time>
      </trkpt>
      <trkpt lat="42.11623" lon="9.11964">
        <ele>1116.7087402</ele>
        <time>2010-08-27T14:03:27Z</time>
      </trkpt>
      <trkpt lat="42.11623" lon="9.11975">
        <ele>1120.5539551</ele>
        <time>2010-08-27T14:03:33Z</time>
      </trkpt>
      <trkpt lat="42.11621" lon="9.11985">
        <ele>1125.3603516</ele>
        <time>2010-08-27T14:03:39Z</time>
      </trkpt>
      <trkpt lat="42.11613" lon="9.1199">
        <ele>1123.4379883</ele>
        <time>2010-08-27T14:03:45Z</time>
      </trkpt>
      <trkpt lat="42.11611" lon="9.11994">
        <ele>1122.9572754</ele>
        <time>2010-08-27T14:03:49Z</time>
      </trkpt>
      <trkpt lat="42.11611" lon="9.11997">
        <ele>1124.3991699</ele>
        <time>2010-08-27T14:03:51Z</time>
      </trkpt>
      <trkpt lat="42.11616" lon="9.1201">
        <ele>1139.2995605</ele>
        <time>2010-08-27T14:03:56Z</time>
      </trkpt>
      <trkpt lat="42.11619" lon="9.12015">
        <ele>1143.1447754</ele>
        <time>2010-08-27T14:04:00Z</time>
      </trkpt>
      <trkpt lat="42.1162" lon="9.12024">
        <ele>1141.7028809</ele>
        <time>2010-08-27T14:04:07Z</time>
      </trkpt>
      <trkpt lat="42.11622" lon="9.12033">
        <ele>1142.1835938</ele>
        <time>2010-08-27T14:04:13Z</time>
      </trkpt>
      <trkpt lat="42.11617" lon="9.12038">
        <ele>1140.2609863</ele>
        <time>2010-08-27T14:04:19Z</time>
      </trkpt>
      <trkpt lat="42.11615" lon="9.12038">
        <ele>1139.2995605</ele>
        <time>2010-08-27T14:04:20Z</time>
      </trkpt>
      <trkpt lat="42.11602" lon="9.12044">
        <ele>1129.6862793</ele>
        <time>2010-08-27T14:04:24Z</time>
      </trkpt>
      <trkpt lat="42.11599" lon="9.12049">
        <ele>1128.7250977</ele>
        <time>2010-08-27T14:04:27Z</time>
      </trkpt>
      <trkpt lat="42.11598" lon="9.12062">
        <ele>1128.7250977</ele>
        <time>2010-08-27T14:04:33Z</time>
      </trkpt>
      <trkpt lat="42.11603" lon="9.12071">
        <ele>1134.973877</ele>
        <time>2010-08-27T14:04:37Z</time>
      </trkpt>
      <trkpt lat="42.11606" lon="9.12077">
        <ele>1142.1835938</ele>
        <time>2010-08-27T14:04:40Z</time>
      </trkpt>
      <trkpt lat="42.11608" lon="9.12084">
        <ele>1145.0673828</ele>
        <time>2010-08-27T14:04:45Z</time>
      </trkpt>
      <trkpt lat="42.11611" lon="9.12089">
        <ele>1149.8742676</ele>
        <time>2010-08-27T14:04:48Z</time>
      </trkpt>
      <trkpt lat="42.11618" lon="9.12105">
        <ele>1162.3710938</ele>
        <time>2010-08-27T14:04:55Z</time>
      </trkpt>
      <trkpt lat="42.11615" lon="9.12113">
        <ele>1161.4099121</ele>
        <time>2010-08-27T14:05:01Z</time>
      </trkpt>
      <trkpt lat="42.11608" lon="9.12119">
        <ele>1154.6806641</ele>
        <time>2010-08-27T14:05:07Z</time>
      </trkpt>
      <trkpt lat="42.11606" lon="9.12121">
        <ele>1153.7194824</ele>
        <time>2010-08-27T14:05:08Z</time>
      </trkpt>
      <trkpt lat="42.11597" lon="9.12128">
        <ele>1147.4707031</ele>
        <time>2010-08-27T14:05:14Z</time>
      </trkpt>
      <trkpt lat="42.11593" lon="9.12132">
        <ele>1143.6254883</ele>
        <time>2010-08-27T14:05:19Z</time>
      </trkpt>
      <trkpt lat="42.11591" lon="9.12144">
        <ele>1146.5095215</ele>
        <time>2010-08-27T14:05:25Z</time>
      </trkpt>
      <trkpt lat="42.11585" lon="9.12153">
        <ele>1148.4321289</ele>
        <time>2010-08-27T14:05:30Z</time>
      </trkpt>
      <trkpt lat="42.11571" lon="9.1216">
        <ele>1146.0288086</ele>
        <time>2010-08-27T14:05:36Z</time>
      </trkpt>
      <trkpt lat="42.11563" lon="9.12162">
        <ele>1143.6254883</ele>
        <time>2010-08-27T14:05:41Z</time>
      </trkpt>
      <trkpt lat="42.11558" lon="9.12162">
        <ele>1139.7802734</ele>
        <time>2010-08-27T14:05:44Z</time>
      </trkpt>
      <trkpt lat="42.11547" lon="9.12162">
        <ele>1135.9350586</ele>
        <time>2010-08-27T14:05:51Z</time>
      </trkpt>
      <trkpt lat="42.1154" lon="9.12162">
        <ele>1133.5317383</ele>
        <time>2010-08-27T14:05:56Z</time>
      </trkpt>
      <trkpt lat="42.11537" lon="9.12158">
        <ele>1135.9350586</ele>
        <time>2010-08-27T14:06:00Z</time>
      </trkpt>
      <trkpt lat="42.11535" lon="9.12157">
        <ele>1141.222168</ele>
        <time>2010-08-27T14:06:06Z</time>
      </trkpt>
      <trkpt lat="42.11528" lon="9.12158">
        <ele>1139.2995605</ele>
        <time>2010-08-27T14:06:11Z</time>
      </trkpt>
      <trkpt lat="42.11526" lon="9.12168">
        <ele>1150.3549805</ele>
        <time>2010-08-27T14:06:16Z</time>
      </trkpt>
      <trkpt lat="42.11515" lon="9.12166">
        <ele>1145.0673828</ele>
        <time>2010-08-27T14:06:24Z</time>
      </trkpt>
      <trkpt lat="42.11511" lon="9.12166">
        <ele>1145.0673828</ele>
        <time>2010-08-27T14:06:28Z</time>
      </trkpt>
      <trkpt lat="42.11501" lon="9.12171">
        <ele>1145.0673828</ele>
        <time>2010-08-27T14:06:35Z</time>
      </trkpt>
      <trkpt lat="42.11489" lon="9.12172">
        <ele>1145.5480957</ele>
        <time>2010-08-27T14:06:41Z</time>
      </trkpt>
      <trkpt lat="42.11485" lon="9.12176">
        <ele>1146.9899902</ele>
        <time>2010-08-27T14:06:45Z</time>
      </trkpt>
      <trkpt lat="42.11482" lon="9.12183">
        <ele>1152.7580566</ele>
        <time>2010-08-27T14:06:52Z</time>
      </trkpt>
      <trkpt lat="42.11479" lon="9.12181">
        <ele>1156.1225586</ele>
        <time>2010-08-27T14:06:54Z</time>
      </trkpt>
      <trkpt lat="42.11466" lon="9.12185">
        <ele>1155.6420898</ele>
        <time>2010-08-27T14:07:01Z</time>
      </trkpt>
      <trkpt lat="42.11466" lon="9.12193">
        <ele>1161.890625</ele>
        <time>2010-08-27T14:07:07Z</time>
      </trkpt>
      <trkpt lat="42.11464" lon="9.12205">
        <ele>1165.736084</ele>
        <time>2010-08-27T14:07:13Z</time>
      </trkpt>
      <trkpt lat="42.11463" lon="9.12208">
        <ele>1164.2939453</ele>
        <time>2010-08-27T14:07:15Z</time>
      </trkpt>
      <trkpt lat="42.11468" lon="9.12213">
        <ele>1164.7746582</ele>
        <time>2010-08-27T14:07:18Z</time>
      </trkpt>
      <trkpt lat="42.11474" lon="9.12225">
        <ele>1172.9458008</ele>
        <time>2010-08-27T14:07:26Z</time>
      </trkpt>
      <trkpt lat="42.11478" lon="9.12233">
        <ele>1175.348877</ele>
        <time>2010-08-27T14:07:33Z</time>
      </trkpt>
      <trkpt lat="42.11488" lon="9.12244">
        <ele>1150.8354492</ele>
        <time>2010-08-27T14:07:54Z</time>
      </trkpt>
      <trkpt lat="42.11493" lon="9.12244">
        <ele>1150.3549805</ele>
        <time>2010-08-27T14:07:59Z</time>
      </trkpt>
      <trkpt lat="42.11498" lon="9.12246">
        <ele>1147.4707031</ele>
        <time>2010-08-27T14:08:06Z</time>
      </trkpt>
      <trkpt lat="42.11503" lon="9.12252">
        <ele>1149.8742676</ele>
        <time>2010-08-27T14:08:10Z</time>
      </trkpt>
      <trkpt lat="42.11515" lon="9.12258">
        <ele>1158.0454102</ele>
        <time>2010-08-27T14:08:16Z</time>
      </trkpt>
      <trkpt lat="42.11512" lon="9.12256">
        <ele>1145.0673828</ele>
        <time>2010-08-27T14:08:20Z</time>
      </trkpt>
      <trkpt lat="42.11505" lon="9.12254">
        <ele>1130.1669922</ele>
        <time>2010-08-27T14:08:27Z</time>
      </trkpt>
      <trkpt lat="42.11504" lon="9.12261">
        <ele>1129.6862793</ele>
        <time>2010-08-27T14:08:34Z</time>
      </trkpt>
      <trkpt lat="42.11516" lon="9.12252">
        <ele>1138.3383789</ele>
        <time>2010-08-27T14:08:54Z</time>
      </trkpt>
      <trkpt lat="42.11511" lon="9.12256">
        <ele>1133.5317383</ele>
        <time>2010-08-27T14:08:59Z</time>
      </trkpt>
      <trkpt lat="42.11503" lon="9.12252">
        <ele>1137.857666</ele>
        <time>2010-08-27T14:09:03Z</time>
      </trkpt>
      <trkpt lat="42.115" lon="9.12248">
        <ele>1138.3383789</ele>
        <time>2010-08-27T14:09:08Z</time>
      </trkpt>
      <trkpt lat="42.11497" lon="9.12246">
        <ele>1138.3383789</ele>
        <time>2010-08-27T14:09:11Z</time>
      </trkpt>
    </trkseg>
  </trk>
</gpx>